<?xml version='1.0' encoding='UTF-8'?><gpx version="1.1" creator="JPX - https://github.com/jenetics/jpx" xmlns="http://www.topografix.com/GPX/1/1"><trk><trkseg><trkpt lat="43.8609433" lon="11.56736"><ele>225.16666666666669</ele><time>2026-04-04T07:42:27.985Z</time></trkpt><trkpt lat="43.8609767" lon="11.567275"><ele>229.33333333333334</ele><time>2026-04-04T07:42:31.987Z</time></trkpt><trkpt lat="43.8610383" lon="11.56734"><ele>233.5</ele><time>2026-04-04T07:42:33.984Z</time></trkpt><trkpt lat="43.861105" lon="11.5674533"><ele>237.66666666666669</ele><time>2026-04-04T07:42:35.984Z</time></trkpt><trkpt lat="43.8611467" lon="11.5675233"><ele>241.83333333333334</ele><time>2026-04-04T07:42:36.986Z</time></trkpt><trkpt lat="43.8611917" lon="11.5676017"><ele>246.0</ele><time>2026-04-04T07:42:37.987Z</time></trkpt><trkpt lat="43.8612417" lon="11.5676867"><ele>246.0</ele><time>2026-04-04T07:42:38.985Z</time></trkpt><trkpt lat="43.8612883" lon="11.5677817"><ele>246.0</ele><time>2026-04-04T07:42:39.985Z</time></trkpt><trkpt lat="43.8613283" lon="11.5678833"><ele>246.0</ele><time>2026-04-04T07:42:40.986Z</time></trkpt><trkpt lat="43.8613633" lon="11.56799"><ele>246.0</ele><time>2026-04-04T07:42:41.985Z</time></trkpt><trkpt lat="43.8613917" lon="11.5681033"><ele>246.0</ele><time>2026-04-04T07:42:42.989Z</time></trkpt><trkpt lat="43.8614067" lon="11.5682233"><ele>246.0</ele><time>2026-04-04T07:42:43.987Z</time></trkpt><trkpt lat="43.86141" lon="11.5683467"><ele>245.60000000000002</ele><time>2026-04-04T07:42:44.985Z</time></trkpt><trkpt lat="43.86141" lon="11.5684767"><ele>245.20000000000002</ele><time>2026-04-04T07:42:45.985Z</time></trkpt><trkpt lat="43.86141" lon="11.5686167"><ele>244.79999999999998</ele><time>2026-04-04T07:42:46.986Z</time></trkpt><trkpt lat="43.861415" lon="11.5687533"><ele>244.39999999999998</ele><time>2026-04-04T07:42:47.983Z</time></trkpt><trkpt lat="43.861435" lon="11.5688883"><ele>244.0</ele><time>2026-04-04T07:42:48.985Z</time></trkpt><trkpt lat="43.8614717" lon="11.5690217"><ele>242.6</ele><time>2026-04-04T07:42:49.986Z</time></trkpt><trkpt lat="43.8615217" lon="11.5691533"><ele>241.2</ele><time>2026-04-04T07:42:50.985Z</time></trkpt><trkpt lat="43.861575" lon="11.5692867"><ele>239.79999999999998</ele><time>2026-04-04T07:42:51.985Z</time></trkpt><trkpt lat="43.8616267" lon="11.5694167"><ele>238.39999999999998</ele><time>2026-04-04T07:42:52.988Z</time></trkpt><trkpt lat="43.8616767" lon="11.5695467"><ele>237.0</ele><time>2026-04-04T07:42:53.982Z</time></trkpt><trkpt lat="43.86172" lon="11.5696783"><ele>235.39999999999998</ele><time>2026-04-04T07:42:54.987Z</time></trkpt><trkpt lat="43.86176" lon="11.5698117"><ele>233.79999999999998</ele><time>2026-04-04T07:42:55.986Z</time></trkpt><trkpt lat="43.861795" lon="11.5699417"><ele>232.2</ele><time>2026-04-04T07:42:56.983Z</time></trkpt><trkpt lat="43.861835" lon="11.5700733"><ele>230.6</ele><time>2026-04-04T07:42:57.985Z</time></trkpt><trkpt lat="43.861875" lon="11.5702067"><ele>229.0</ele><time>2026-04-04T07:42:58.986Z</time></trkpt><trkpt lat="43.8619167" lon="11.5703417"><ele>235.0</ele><time>2026-04-04T07:42:59.985Z</time></trkpt><trkpt lat="43.861965" lon="11.5704733"><ele>240.99999999999997</ele><time>2026-04-04T07:43:00.986Z</time></trkpt><trkpt lat="43.86202" lon="11.5706033"><ele>246.99999999999997</ele><time>2026-04-04T07:43:01.982Z</time></trkpt><trkpt lat="43.86208" lon="11.57073"><ele>253.0</ele><time>2026-04-04T07:43:02.984Z</time></trkpt><trkpt lat="43.8621333" lon="11.5708533"><ele>259.0</ele><time>2026-04-04T07:43:03.985Z</time></trkpt><trkpt lat="43.8621817" lon="11.57098"><ele>259.0</ele><time>2026-04-04T07:43:04.984Z</time></trkpt><trkpt lat="43.8622267" lon="11.571115"><ele>259.0</ele><time>2026-04-04T07:43:05.984Z</time></trkpt><trkpt lat="43.8622567" lon="11.5712617"><ele>259.0</ele><time>2026-04-04T07:43:06.986Z</time></trkpt><trkpt lat="43.862265" lon="11.571415"><ele>259.0</ele><time>2026-04-04T07:43:07.986Z</time></trkpt><trkpt lat="43.8622583" lon="11.5715667"><ele>259.0</ele><time>2026-04-04T07:43:08.984Z</time></trkpt><trkpt lat="43.86224" lon="11.5717217"><ele>258.2</ele><time>2026-04-04T07:43:09.981Z</time></trkpt><trkpt lat="43.8622133" lon="11.5718717"><ele>257.4</ele><time>2026-04-04T07:43:10.981Z</time></trkpt><trkpt lat="43.8621817" lon="11.57202"><ele>256.6</ele><time>2026-04-04T07:43:11.983Z</time></trkpt><trkpt lat="43.8621583" lon="11.5721683"><ele>255.8</ele><time>2026-04-04T07:43:12.985Z</time></trkpt><trkpt lat="43.8621483" lon="11.5723183"><ele>255.0</ele><time>2026-04-04T07:43:13.986Z</time></trkpt><trkpt lat="43.862145" lon="11.572465"><ele>255.0</ele><time>2026-04-04T07:43:14.983Z</time></trkpt><trkpt lat="43.8621483" lon="11.572595"><ele>255.0</ele><time>2026-04-04T07:43:15.983Z</time></trkpt><trkpt lat="43.8621633" lon="11.572715"><ele>255.0</ele><time>2026-04-04T07:43:16.986Z</time></trkpt><trkpt lat="43.86215" lon="11.5728133"><ele>255.0</ele><time>2026-04-04T07:43:17.984Z</time></trkpt><trkpt lat="43.8621217" lon="11.5728983"><ele>255.0</ele><time>2026-04-04T07:43:18.986Z</time></trkpt><trkpt lat="43.862125" lon="11.572995"><ele>255.0</ele><time>2026-04-04T07:43:19.985Z</time></trkpt><trkpt lat="43.8621233" lon="11.5731017"><ele>255.0</ele><time>2026-04-04T07:43:20.984Z</time></trkpt><trkpt lat="43.8621267" lon="11.5732183"><ele>255.0</ele><time>2026-04-04T07:43:21.987Z</time></trkpt><trkpt lat="43.8621383" lon="11.5733317"><ele>255.0</ele><time>2026-04-04T07:43:22.986Z</time></trkpt><trkpt lat="43.862165" lon="11.5734467"><ele>255.0</ele><time>2026-04-04T07:43:23.984Z</time></trkpt><trkpt lat="43.8621917" lon="11.57356"><ele>255.0</ele><time>2026-04-04T07:43:24.985Z</time></trkpt><trkpt lat="43.8622217" lon="11.5736667"><ele>255.0</ele><time>2026-04-04T07:43:25.982Z</time></trkpt><trkpt lat="43.8622633" lon="11.573775"><ele>255.0</ele><time>2026-04-04T07:43:26.983Z</time></trkpt><trkpt lat="43.8623083" lon="11.57388"><ele>255.0</ele><time>2026-04-04T07:43:27.985Z</time></trkpt><trkpt lat="43.862365" lon="11.5739783"><ele>255.0</ele><time>2026-04-04T07:43:28.985Z</time></trkpt><trkpt lat="43.862415" lon="11.5740817"><ele>255.0</ele><time>2026-04-04T07:43:29.983Z</time></trkpt><trkpt lat="43.8624267" lon="11.5742033"><ele>255.0</ele><time>2026-04-04T07:43:30.987Z</time></trkpt><trkpt lat="43.86245" lon="11.574325"><ele>255.0</ele><time>2026-04-04T07:43:31.987Z</time></trkpt><trkpt lat="43.86247" lon="11.5744633"><ele>253.8</ele><time>2026-04-04T07:43:32.983Z</time></trkpt><trkpt lat="43.8624833" lon="11.5746083"><ele>252.6</ele><time>2026-04-04T07:43:33.985Z</time></trkpt><trkpt lat="43.862495" lon="11.5747567"><ele>251.39999999999998</ele><time>2026-04-04T07:43:34.985Z</time></trkpt><trkpt lat="43.8625067" lon="11.5749033"><ele>250.2</ele><time>2026-04-04T07:43:35.984Z</time></trkpt><trkpt lat="43.8625217" lon="11.5750483"><ele>249.0</ele><time>2026-04-04T07:43:36.989Z</time></trkpt><trkpt lat="43.862535" lon="11.5751817"><ele>249.0</ele><time>2026-04-04T07:43:37.986Z</time></trkpt><trkpt lat="43.8625483" lon="11.5753067"><ele>249.0</ele><time>2026-04-04T07:43:38.984Z</time></trkpt><trkpt lat="43.8625583" lon="11.57542"><ele>249.0</ele><time>2026-04-04T07:43:39.984Z</time></trkpt><trkpt lat="43.8625633" lon="11.57553"><ele>249.0</ele><time>2026-04-04T07:43:40.986Z</time></trkpt><trkpt lat="43.8625683" lon="11.5756383"><ele>249.0</ele><time>2026-04-04T07:43:41.985Z</time></trkpt><trkpt lat="43.8625767" lon="11.5757467"><ele>249.0</ele><time>2026-04-04T07:43:42.986Z</time></trkpt><trkpt lat="43.8625717" lon="11.5758433"><ele>249.2</ele><time>2026-04-04T07:43:43.986Z</time></trkpt><trkpt lat="43.8625533" lon="11.5760167"><ele>249.39999999999998</ele><time>2026-04-04T07:43:45.984Z</time></trkpt><trkpt lat="43.8625683" lon="11.5761867"><ele>249.6</ele><time>2026-04-04T07:43:47.984Z</time></trkpt><trkpt lat="43.8625917" lon="11.57627"><ele>249.8</ele><time>2026-04-04T07:43:48.986Z</time></trkpt><trkpt lat="43.86262" lon="11.57635"><ele>250.0</ele><time>2026-04-04T07:43:49.986Z</time></trkpt><trkpt lat="43.86269" lon="11.576485"><ele>251.8</ele><time>2026-04-04T07:43:51.985Z</time></trkpt><trkpt lat="43.8627383" lon="11.5765417"><ele>253.6</ele><time>2026-04-04T07:43:52.984Z</time></trkpt><trkpt lat="43.8628383" lon="11.576625"><ele>255.39999999999998</ele><time>2026-04-04T07:43:54.986Z</time></trkpt><trkpt lat="43.86288" lon="11.5767233"><ele>257.2</ele><time>2026-04-04T07:43:56.983Z</time></trkpt><trkpt lat="43.8628483" lon="11.576885"><ele>259.0</ele><time>2026-04-04T07:43:58.986Z</time></trkpt><trkpt lat="43.862835" lon="11.577035"><ele>259.0</ele><time>2026-04-04T07:44:00.985Z</time></trkpt><trkpt lat="43.8628517" lon="11.5771333"><ele>259.0</ele><time>2026-04-04T07:44:02.984Z</time></trkpt><trkpt lat="43.862915" lon="11.577175"><ele>259.0</ele><time>2026-04-04T07:44:04.985Z</time></trkpt><trkpt lat="43.8629833" lon="11.5772217"><ele>259.0</ele><time>2026-04-04T07:44:06.985Z</time></trkpt><trkpt lat="43.8630483" lon="11.5772967"><ele>259.0</ele><time>2026-04-04T07:44:08.984Z</time></trkpt><trkpt lat="43.863115" lon="11.5774267"><ele>259.0</ele><time>2026-04-04T07:44:10.985Z</time></trkpt><trkpt lat="43.8631583" lon="11.5775817"><ele>259.0</ele><time>2026-04-04T07:44:12.985Z</time></trkpt><trkpt lat="43.8631733" lon="11.577705"><ele>259.0</ele><time>2026-04-04T07:44:14.984Z</time></trkpt><trkpt lat="43.863115" lon="11.5776683"><ele>259.0</ele><time>2026-04-04T07:44:17.984Z</time></trkpt><trkpt lat="43.8630717" lon="11.5775967"><ele>259.0</ele><time>2026-04-04T07:44:18.985Z</time></trkpt><trkpt lat="43.8629933" lon="11.5774667"><ele>259.0</ele><time>2026-04-04T07:44:20.983Z</time></trkpt><trkpt lat="43.862875" lon="11.5773917"><ele>259.0</ele><time>2026-04-04T07:44:22.986Z</time></trkpt><trkpt lat="43.8628133" lon="11.5773617"><ele>259.0</ele><time>2026-04-04T07:44:23.983Z</time></trkpt><trkpt lat="43.8627317" lon="11.57738"><ele>259.0</ele><time>2026-04-04T07:44:25.986Z</time></trkpt><trkpt lat="43.862685" lon="11.5774933"><ele>259.0</ele><time>2026-04-04T07:44:27.984Z</time></trkpt><trkpt lat="43.86264" lon="11.577555"><ele>259.0</ele><time>2026-04-04T07:44:29.983Z</time></trkpt><trkpt lat="43.8625783" lon="11.5775083"><ele>259.0</ele><time>2026-04-04T07:44:31.986Z</time></trkpt><trkpt lat="43.8624983" lon="11.5774083"><ele>262.4</ele><time>2026-04-04T07:44:33.984Z</time></trkpt><trkpt lat="43.8624333" lon="11.5773933"><ele>265.79999999999995</ele><time>2026-04-04T07:44:34.983Z</time></trkpt><trkpt lat="43.8623583" lon="11.5773917"><ele>269.20000000000005</ele><time>2026-04-04T07:44:35.984Z</time></trkpt><trkpt lat="43.8622633" lon="11.5774167"><ele>272.6</ele><time>2026-04-04T07:44:36.985Z</time></trkpt><trkpt lat="43.8621617" lon="11.577455"><ele>276.0</ele><time>2026-04-04T07:44:37.986Z</time></trkpt><trkpt lat="43.8620483" lon="11.5774933"><ele>276.0</ele><time>2026-04-04T07:44:38.984Z</time></trkpt><trkpt lat="43.8619383" lon="11.57752"><ele>276.0</ele><time>2026-04-04T07:44:39.984Z</time></trkpt><trkpt lat="43.8618317" lon="11.5775517"><ele>276.0</ele><time>2026-04-04T07:44:40.984Z</time></trkpt><trkpt lat="43.8617517" lon="11.577585"><ele>276.0</ele><time>2026-04-04T07:44:41.984Z</time></trkpt><trkpt lat="43.8616667" lon="11.57767"><ele>276.0</ele><time>2026-04-04T07:44:43.986Z</time></trkpt><trkpt lat="43.8615917" lon="11.5777817"><ele>280.6666666666667</ele><time>2026-04-04T07:44:55.985Z</time></trkpt><trkpt lat="43.861545" lon="11.5779"><ele>285.3333333333333</ele><time>2026-04-04T07:44:57.984Z</time></trkpt><trkpt lat="43.8614733" lon="11.57805"><ele>290.0</ele><time>2026-04-04T07:44:59.984Z</time></trkpt><trkpt lat="43.8614217" lon="11.5781217"><ele>294.66666666666663</ele><time>2026-04-04T07:45:00.986Z</time></trkpt><trkpt lat="43.8613633" lon="11.578175"><ele>299.3333333333333</ele><time>2026-04-04T07:45:01.985Z</time></trkpt><trkpt lat="43.8613033" lon="11.5782167"><ele>304.0</ele><time>2026-04-04T07:45:02.986Z</time></trkpt><trkpt lat="43.861185" lon="11.5782283"><ele>304.0</ele><time>2026-04-04T07:45:04.985Z</time></trkpt><trkpt lat="43.86107" lon="11.5782333"><ele>304.0</ele><time>2026-04-04T07:45:06.986Z</time></trkpt><trkpt lat="43.8609667" lon="11.5782983"><ele>304.0</ele><time>2026-04-04T07:45:08.984Z</time></trkpt><trkpt lat="43.8609017" lon="11.5784167"><ele>304.0</ele><time>2026-04-04T07:45:10.985Z</time></trkpt><trkpt lat="43.86091" lon="11.57851"><ele>304.0</ele><time>2026-04-04T07:45:11.986Z</time></trkpt><trkpt lat="43.8609367" lon="11.5785967"><ele>304.0</ele><time>2026-04-04T07:45:12.985Z</time></trkpt><trkpt lat="43.8609867" lon="11.5786783"><ele>304.0</ele><time>2026-04-04T07:45:13.987Z</time></trkpt><trkpt lat="43.8610417" lon="11.5787483"><ele>304.0</ele><time>2026-04-04T07:45:14.984Z</time></trkpt><trkpt lat="43.8610833" lon="11.5788217"><ele>304.0</ele><time>2026-04-04T07:45:15.985Z</time></trkpt><trkpt lat="43.86111" lon="11.5789767"><ele>304.0</ele><time>2026-04-04T07:45:17.985Z</time></trkpt><trkpt lat="43.8610583" lon="11.5791383"><ele>307.0</ele><time>2026-04-04T07:45:19.987Z</time></trkpt><trkpt lat="43.8610217" lon="11.579225"><ele>310.0</ele><time>2026-04-04T07:45:20.985Z</time></trkpt><trkpt lat="43.8609833" lon="11.5793133"><ele>313.0</ele><time>2026-04-04T07:45:21.985Z</time></trkpt><trkpt lat="43.8609517" lon="11.5794017"><ele>316.0</ele><time>2026-04-04T07:45:22.987Z</time></trkpt><trkpt lat="43.860915" lon="11.5795417"><ele>319.0</ele><time>2026-04-04T07:45:24.986Z</time></trkpt><trkpt lat="43.8610017" lon="11.579595"><ele>322.0</ele><time>2026-04-04T07:45:27.985Z</time></trkpt><trkpt lat="43.861065" lon="11.57956"><ele>322.0</ele><time>2026-04-04T07:45:28.984Z</time></trkpt><trkpt lat="43.8611317" lon="11.57951"><ele>322.0</ele><time>2026-04-04T07:45:29.984Z</time></trkpt><trkpt lat="43.8612017" lon="11.57946"><ele>322.0</ele><time>2026-04-04T07:45:30.984Z</time></trkpt><trkpt lat="43.8612767" lon="11.5794067"><ele>322.0</ele><time>2026-04-04T07:45:31.986Z</time></trkpt><trkpt lat="43.8613533" lon="11.579355"><ele>322.0</ele><time>2026-04-04T07:45:32.983Z</time></trkpt><trkpt lat="43.86143" lon="11.5793083"><ele>322.0</ele><time>2026-04-04T07:45:33.986Z</time></trkpt><trkpt lat="43.86151" lon="11.579265"><ele>322.0</ele><time>2026-04-04T07:45:34.984Z</time></trkpt><trkpt lat="43.861585" lon="11.579225"><ele>322.0</ele><time>2026-04-04T07:45:35.983Z</time></trkpt><trkpt lat="43.86165" lon="11.579195"><ele>322.0</ele><time>2026-04-04T07:45:36.986Z</time></trkpt><trkpt lat="43.861755" lon="11.5792133"><ele>322.0</ele><time>2026-04-04T07:45:38.984Z</time></trkpt><trkpt lat="43.8617667" lon="11.579305"><ele>322.0</ele><time>2026-04-04T07:45:40.985Z</time></trkpt><trkpt lat="43.86173" lon="11.579395"><ele>322.0</ele><time>2026-04-04T07:45:42.985Z</time></trkpt><trkpt lat="43.8616783" lon="11.5795183"><ele>324.85714285714283</ele><time>2026-04-04T07:45:44.985Z</time></trkpt><trkpt lat="43.861645" lon="11.5796083"><ele>327.7142857142857</ele><time>2026-04-04T07:45:45.985Z</time></trkpt><trkpt lat="43.8616133" lon="11.5796983"><ele>330.57142857142856</ele><time>2026-04-04T07:45:46.986Z</time></trkpt><trkpt lat="43.8615783" lon="11.57979"><ele>333.42857142857144</ele><time>2026-04-04T07:45:47.985Z</time></trkpt><trkpt lat="43.8615383" lon="11.5798767"><ele>336.2857142857143</ele><time>2026-04-04T07:45:48.987Z</time></trkpt><trkpt lat="43.861495" lon="11.57996"><ele>339.1428571428571</ele><time>2026-04-04T07:45:49.986Z</time></trkpt><trkpt lat="43.8614567" lon="11.58004"><ele>342.0</ele><time>2026-04-04T07:45:50.985Z</time></trkpt><trkpt lat="43.8614133" lon="11.5801783"><ele>342.0</ele><time>2026-04-04T07:45:52.984Z</time></trkpt><trkpt lat="43.8614383" lon="11.5803283"><ele>342.0</ele><time>2026-04-04T07:45:54.985Z</time></trkpt><trkpt lat="43.8614733" lon="11.5804067"><ele>342.0</ele><time>2026-04-04T07:45:55.985Z</time></trkpt><trkpt lat="43.8615217" lon="11.58047"><ele>342.0</ele><time>2026-04-04T07:45:56.984Z</time></trkpt><trkpt lat="43.861615" lon="11.5805433"><ele>342.0</ele><time>2026-04-04T07:45:58.985Z</time></trkpt><trkpt lat="43.8617" lon="11.5805717"><ele>342.0</ele><time>2026-04-04T07:46:00.974Z</time></trkpt><trkpt lat="43.861765" lon="11.580635"><ele>346.20000000000005</ele><time>2026-04-04T07:46:02.984Z</time></trkpt><trkpt lat="43.861755" lon="11.5807683"><ele>350.4</ele><time>2026-04-04T07:46:04.984Z</time></trkpt><trkpt lat="43.8616783" lon="11.5809217"><ele>354.6</ele><time>2026-04-04T07:46:06.986Z</time></trkpt><trkpt lat="43.8616183" lon="11.580995"><ele>358.79999999999995</ele><time>2026-04-04T07:46:07.986Z</time></trkpt><trkpt lat="43.8615467" lon="11.581065"><ele>363.0</ele><time>2026-04-04T07:46:08.984Z</time></trkpt><trkpt lat="43.8614683" lon="11.5811367"><ele>365.5</ele><time>2026-04-04T07:46:09.985Z</time></trkpt><trkpt lat="43.8613917" lon="11.5812"><ele>368.0</ele><time>2026-04-04T07:46:10.984Z</time></trkpt><trkpt lat="43.8613133" lon="11.5812583"><ele>370.5</ele><time>2026-04-04T07:46:11.983Z</time></trkpt><trkpt lat="43.861235" lon="11.5813167"><ele>373.0</ele><time>2026-04-04T07:46:12.986Z</time></trkpt><trkpt lat="43.8611683" lon="11.5813717"><ele>375.5</ele><time>2026-04-04T07:46:13.987Z</time></trkpt><trkpt lat="43.8611133" lon="11.5814167"><ele>378.0</ele><time>2026-04-04T07:46:14.984Z</time></trkpt><trkpt lat="43.8610533" lon="11.58149"><ele>378.0</ele><time>2026-04-04T07:46:16.985Z</time></trkpt><trkpt lat="43.86109" lon="11.5815717"><ele>378.0</ele><time>2026-04-04T07:46:18.985Z</time></trkpt><trkpt lat="43.8611433" lon="11.5816633"><ele>378.0</ele><time>2026-04-04T07:46:20.984Z</time></trkpt><trkpt lat="43.8612017" lon="11.5817567"><ele>378.0</ele><time>2026-04-04T07:46:22.985Z</time></trkpt><trkpt lat="43.8612817" lon="11.5817683"><ele>378.0</ele><time>2026-04-04T07:46:23.985Z</time></trkpt><trkpt lat="43.86136" lon="11.5817933"><ele>378.0</ele><time>2026-04-04T07:46:24.985Z</time></trkpt><trkpt lat="43.86144" lon="11.5818317"><ele>378.0</ele><time>2026-04-04T07:46:25.988Z</time></trkpt><trkpt lat="43.8615133" lon="11.581865"><ele>378.0</ele><time>2026-04-04T07:46:26.983Z</time></trkpt><trkpt lat="43.8615817" lon="11.581895"><ele>378.0</ele><time>2026-04-04T07:46:27.985Z</time></trkpt><trkpt lat="43.8616467" lon="11.5819317"><ele>378.0</ele><time>2026-04-04T07:46:28.992Z</time></trkpt><trkpt lat="43.8617083" lon="11.58196"><ele>378.0</ele><time>2026-04-04T07:46:29.982Z</time></trkpt><trkpt lat="43.861825" lon="11.581985"><ele>378.0</ele><time>2026-04-04T07:46:31.986Z</time></trkpt><trkpt lat="43.8619" lon="11.5819717"><ele>380.6666666666667</ele><time>2026-04-04T07:46:32.986Z</time></trkpt><trkpt lat="43.86199" lon="11.5819433"><ele>383.33333333333337</ele><time>2026-04-04T07:46:33.984Z</time></trkpt><trkpt lat="43.862065" lon="11.5819267"><ele>386.0</ele><time>2026-04-04T07:46:34.985Z</time></trkpt><trkpt lat="43.8621283" lon="11.5819183"><ele>388.6666666666667</ele><time>2026-04-04T07:46:35.985Z</time></trkpt><trkpt lat="43.8622133" lon="11.581935"><ele>391.33333333333337</ele><time>2026-04-04T07:46:37.987Z</time></trkpt><trkpt lat="43.8621783" lon="11.5820583"><ele>394.0</ele><time>2026-04-04T07:46:40.987Z</time></trkpt><trkpt lat="43.8621167" lon="11.582205"><ele>395.83333333333337</ele><time>2026-04-04T07:46:42.985Z</time></trkpt><trkpt lat="43.8620883" lon="11.5822983"><ele>397.6666666666667</ele><time>2026-04-04T07:46:43.985Z</time></trkpt><trkpt lat="43.8620733" lon="11.5823833"><ele>399.5</ele><time>2026-04-04T07:46:44.985Z</time></trkpt><trkpt lat="43.8621" lon="11.5824883"><ele>401.33333333333337</ele><time>2026-04-04T07:46:46.987Z</time></trkpt><trkpt lat="43.8621933" lon="11.5824967"><ele>403.1666666666667</ele><time>2026-04-04T07:46:48.985Z</time></trkpt><trkpt lat="43.8622733" lon="11.5824867"><ele>405.0</ele><time>2026-04-04T07:46:49.987Z</time></trkpt><trkpt lat="43.8623367" lon="11.5824717"><ele>405.0</ele><time>2026-04-04T07:46:50.985Z</time></trkpt><trkpt lat="43.8624017" lon="11.582495"><ele>405.0</ele><time>2026-04-04T07:46:52.985Z</time></trkpt><trkpt lat="43.862405" lon="11.5826117"><ele>405.0</ele><time>2026-04-04T07:46:54.985Z</time></trkpt><trkpt lat="43.8623717" lon="11.58277"><ele>405.0</ele><time>2026-04-04T07:46:56.985Z</time></trkpt><trkpt lat="43.8623067" lon="11.5829183"><ele>405.0</ele><time>2026-04-04T07:46:58.984Z</time></trkpt><trkpt lat="43.86224" lon="11.5830533"><ele>406.1666666666667</ele><time>2026-04-04T07:47:00.985Z</time></trkpt><trkpt lat="43.862195" lon="11.5831917"><ele>407.33333333333337</ele><time>2026-04-04T07:47:02.984Z</time></trkpt><trkpt lat="43.862175" lon="11.5832883"><ele>408.5</ele><time>2026-04-04T07:47:03.984Z</time></trkpt><trkpt lat="43.8621533" lon="11.5833883"><ele>409.6666666666667</ele><time>2026-04-04T07:47:04.984Z</time></trkpt><trkpt lat="43.8621317" lon="11.5835"><ele>410.83333333333337</ele><time>2026-04-04T07:47:05.984Z</time></trkpt><trkpt lat="43.8621067" lon="11.5836133"><ele>412.0</ele><time>2026-04-04T07:47:06.986Z</time></trkpt><trkpt lat="43.8620833" lon="11.5837317"><ele>412.00000000000006</ele><time>2026-04-04T07:47:07.986Z</time></trkpt><trkpt lat="43.86206" lon="11.5838483"><ele>412.0</ele><time>2026-04-04T07:47:08.985Z</time></trkpt><trkpt lat="43.8620433" lon="11.583965"><ele>412.0</ele><time>2026-04-04T07:47:09.984Z</time></trkpt><trkpt lat="43.8620267" lon="11.584075"><ele>412.0</ele><time>2026-04-04T07:47:10.985Z</time></trkpt><trkpt lat="43.8620067" lon="11.584175"><ele>412.00000000000006</ele><time>2026-04-04T07:47:11.984Z</time></trkpt><trkpt lat="43.8619817" lon="11.584275"><ele>412.0</ele><time>2026-04-04T07:47:12.985Z</time></trkpt><trkpt lat="43.8619567" lon="11.5843867"><ele>412.0</ele><time>2026-04-04T07:47:13.986Z</time></trkpt><trkpt lat="43.8619317" lon="11.58451"><ele>412.0</ele><time>2026-04-04T07:47:14.984Z</time></trkpt><trkpt lat="43.8619083" lon="11.5846433"><ele>412.0</ele><time>2026-04-04T07:47:15.986Z</time></trkpt><trkpt lat="43.861885" lon="11.584765"><ele>412.0</ele><time>2026-04-04T07:47:16.985Z</time></trkpt><trkpt lat="43.861855" lon="11.5848817"><ele>412.0</ele><time>2026-04-04T07:47:17.986Z</time></trkpt><trkpt lat="43.8618283" lon="11.5850017"><ele>412.40000000000003</ele><time>2026-04-04T07:47:18.986Z</time></trkpt><trkpt lat="43.8618033" lon="11.5851067"><ele>412.8</ele><time>2026-04-04T07:47:19.986Z</time></trkpt><trkpt lat="43.8617667" lon="11.5852183"><ele>413.2</ele><time>2026-04-04T07:47:21.986Z</time></trkpt><trkpt lat="43.8617483" lon="11.5853567"><ele>413.6</ele><time>2026-04-04T07:47:35.985Z</time></trkpt><trkpt lat="43.861755" lon="11.58552"><ele>414.0</ele><time>2026-04-04T07:47:37.987Z</time></trkpt><trkpt lat="43.861755" lon="11.5856117"><ele>419.8571428571429</ele><time>2026-04-04T07:47:38.986Z</time></trkpt><trkpt lat="43.8617433" lon="11.5857"><ele>425.7142857142857</ele><time>2026-04-04T07:47:39.985Z</time></trkpt><trkpt lat="43.86172" lon="11.5857883"><ele>431.57142857142856</ele><time>2026-04-04T07:47:40.986Z</time></trkpt><trkpt lat="43.8616867" lon="11.58587"><ele>437.42857142857144</ele><time>2026-04-04T07:47:41.985Z</time></trkpt><trkpt lat="43.8616517" lon="11.5859583"><ele>443.2857142857143</ele><time>2026-04-04T07:47:42.989Z</time></trkpt><trkpt lat="43.86162" lon="11.586065"><ele>449.14285714285717</ele><time>2026-04-04T07:47:43.989Z</time></trkpt><trkpt lat="43.8615933" lon="11.586185"><ele>455.0</ele><time>2026-04-04T07:47:44.985Z</time></trkpt><trkpt lat="43.8615683" lon="11.5863117"><ele>455.3333333333333</ele><time>2026-04-04T07:47:45.985Z</time></trkpt><trkpt lat="43.86154" lon="11.5864283"><ele>455.66666666666663</ele><time>2026-04-04T07:47:46.987Z</time></trkpt><trkpt lat="43.86151" lon="11.5865417"><ele>456.0</ele><time>2026-04-04T07:47:47.985Z</time></trkpt><trkpt lat="43.86148" lon="11.5866517"><ele>456.33333333333337</ele><time>2026-04-04T07:47:48.986Z</time></trkpt><trkpt lat="43.86145" lon="11.5867533"><ele>456.6666666666667</ele><time>2026-04-04T07:47:49.987Z</time></trkpt><trkpt lat="43.861425" lon="11.5868417"><ele>457.0</ele><time>2026-04-04T07:47:50.986Z</time></trkpt><trkpt lat="43.8613683" lon="11.5869317"><ele>457.00000000000006</ele><time>2026-04-04T07:47:52.986Z</time></trkpt><trkpt lat="43.8612783" lon="11.5869417"><ele>457.0</ele><time>2026-04-04T07:47:54.986Z</time></trkpt><trkpt lat="43.861175" lon="11.586975"><ele>457.0</ele><time>2026-04-04T07:47:56.985Z</time></trkpt><trkpt lat="43.861115" lon="11.587045"><ele>457.0</ele><time>2026-04-04T07:47:57.987Z</time></trkpt><trkpt lat="43.8610483" lon="11.5871317"><ele>457.00000000000006</ele><time>2026-04-04T07:47:58.988Z</time></trkpt><trkpt lat="43.860995" lon="11.58721"><ele>457.0</ele><time>2026-04-04T07:47:59.986Z</time></trkpt><trkpt lat="43.860945" lon="11.5873033"><ele>461.1666666666667</ele><time>2026-04-04T07:48:00.987Z</time></trkpt><trkpt lat="43.86089" lon="11.587405"><ele>465.33333333333337</ele><time>2026-04-04T07:48:01.99Z</time></trkpt><trkpt lat="43.8608333" lon="11.5874983"><ele>469.5</ele><time>2026-04-04T07:48:02.985Z</time></trkpt><trkpt lat="43.8607833" lon="11.5875817"><ele>473.66666666666663</ele><time>2026-04-04T07:48:03.987Z</time></trkpt><trkpt lat="43.860725" lon="11.5876633"><ele>477.8333333333333</ele><time>2026-04-04T07:48:04.987Z</time></trkpt><trkpt lat="43.860655" lon="11.5877417"><ele>482.0</ele><time>2026-04-04T07:48:05.985Z</time></trkpt><trkpt lat="43.860565" lon="11.5878183"><ele>483.99999999999994</ele><time>2026-04-04T07:48:06.987Z</time></trkpt><trkpt lat="43.86048" lon="11.5878833"><ele>486.0</ele><time>2026-04-04T07:48:07.987Z</time></trkpt><trkpt lat="43.8604017" lon="11.5879117"><ele>488.0</ele><time>2026-04-04T07:48:08.985Z</time></trkpt><trkpt lat="43.8603167" lon="11.5879117"><ele>490.0</ele><time>2026-04-04T07:48:09.985Z</time></trkpt><trkpt lat="43.860235" lon="11.587915"><ele>491.99999999999994</ele><time>2026-04-04T07:48:10.987Z</time></trkpt><trkpt lat="43.8601567" lon="11.5879283"><ele>494.0</ele><time>2026-04-04T07:48:11.985Z</time></trkpt><trkpt lat="43.8600867" lon="11.5879467"><ele>496.99999999999994</ele><time>2026-04-04T07:48:12.985Z</time></trkpt><trkpt lat="43.860025" lon="11.5879767"><ele>500.0</ele><time>2026-04-04T07:48:13.988Z</time></trkpt><trkpt lat="43.8599683" lon="11.5880267"><ele>503.0</ele><time>2026-04-04T07:48:14.985Z</time></trkpt><trkpt lat="43.8599117" lon="11.5880817"><ele>506.0</ele><time>2026-04-04T07:48:15.985Z</time></trkpt><trkpt lat="43.859805" lon="11.5881383"><ele>508.99999999999994</ele><time>2026-04-04T07:48:17.984Z</time></trkpt><trkpt lat="43.8597317" lon="11.5881633"><ele>512.0</ele><time>2026-04-04T07:48:18.986Z</time></trkpt><trkpt lat="43.8596617" lon="11.588195"><ele>511.99999999999994</ele><time>2026-04-04T07:48:19.988Z</time></trkpt><trkpt lat="43.8595967" lon="11.588235"><ele>512.0</ele><time>2026-04-04T07:48:20.986Z</time></trkpt><trkpt lat="43.859525" lon="11.5882933"><ele>512.0</ele><time>2026-04-04T07:48:21.985Z</time></trkpt><trkpt lat="43.859445" lon="11.58835"><ele>512.0</ele><time>2026-04-04T07:48:22.988Z</time></trkpt><trkpt lat="43.8593567" lon="11.5883933"><ele>511.99999999999994</ele><time>2026-04-04T07:48:23.985Z</time></trkpt><trkpt lat="43.8592633" lon="11.58842"><ele>512.0</ele><time>2026-04-04T07:48:24.985Z</time></trkpt><trkpt lat="43.8591667" lon="11.588445"><ele>513.5</ele><time>2026-04-04T07:48:25.988Z</time></trkpt><trkpt lat="43.8590683" lon="11.58847"><ele>515.0</ele><time>2026-04-04T07:48:26.984Z</time></trkpt><trkpt lat="43.8589733" lon="11.5885"><ele>516.5</ele><time>2026-04-04T07:48:27.985Z</time></trkpt><trkpt lat="43.8588867" lon="11.5885333"><ele>518.0</ele><time>2026-04-04T07:48:28.985Z</time></trkpt><trkpt lat="43.8588167" lon="11.5885783"><ele>519.5</ele><time>2026-04-04T07:48:29.985Z</time></trkpt><trkpt lat="43.8587567" lon="11.5886317"><ele>521.0</ele><time>2026-04-04T07:48:30.987Z</time></trkpt><trkpt lat="43.858705" lon="11.588685"><ele>524.6</ele><time>2026-04-04T07:48:31.987Z</time></trkpt><trkpt lat="43.85866" lon="11.5887533"><ele>528.2</ele><time>2026-04-04T07:48:32.986Z</time></trkpt><trkpt lat="43.8586033" lon="11.5888733"><ele>531.8</ele><time>2026-04-04T07:48:34.986Z</time></trkpt><trkpt lat="43.85861" lon="11.589005"><ele>535.4</ele><time>2026-04-04T07:48:36.988Z</time></trkpt><trkpt lat="43.8586717" lon="11.5891533"><ele>539.0</ele><time>2026-04-04T07:48:38.985Z</time></trkpt><trkpt lat="43.8586867" lon="11.5892467"><ele>539.0</ele><time>2026-04-04T07:48:39.986Z</time></trkpt><trkpt lat="43.85869" lon="11.5893383"><ele>539.0</ele><time>2026-04-04T07:48:40.986Z</time></trkpt><trkpt lat="43.85869" lon="11.589435"><ele>539.0</ele><time>2026-04-04T07:48:41.983Z</time></trkpt><trkpt lat="43.8586833" lon="11.5895283"><ele>539.0</ele><time>2026-04-04T07:48:42.985Z</time></trkpt><trkpt lat="43.8586717" lon="11.5896317"><ele>539.0</ele><time>2026-04-04T07:48:43.987Z</time></trkpt><trkpt lat="43.8586533" lon="11.5897367"><ele>539.0</ele><time>2026-04-04T07:48:44.985Z</time></trkpt><trkpt lat="43.8586333" lon="11.58985"><ele>539.0</ele><time>2026-04-04T07:48:45.985Z</time></trkpt><trkpt lat="43.8586183" lon="11.589955"><ele>540.5</ele><time>2026-04-04T07:48:46.987Z</time></trkpt><trkpt lat="43.8586" lon="11.5901117"><ele>542.0</ele><time>2026-04-04T07:48:48.988Z</time></trkpt><trkpt lat="43.858535" lon="11.5902167"><ele>543.5</ele><time>2026-04-04T07:48:50.985Z</time></trkpt><trkpt lat="43.858455" lon="11.590345"><ele>545.0</ele><time>2026-04-04T07:48:52.988Z</time></trkpt><trkpt lat="43.858395" lon="11.590505"><ele>547.5</ele><time>2026-04-04T07:48:54.988Z</time></trkpt><trkpt lat="43.8583733" lon="11.5906"><ele>550.0</ele><time>2026-04-04T07:48:55.989Z</time></trkpt><trkpt lat="43.8583533" lon="11.5906933"><ele>552.5</ele><time>2026-04-04T07:48:56.985Z</time></trkpt><trkpt lat="43.858345" lon="11.5907833"><ele>555.0</ele><time>2026-04-04T07:48:57.985Z</time></trkpt><trkpt lat="43.8583283" lon="11.59092"><ele>557.5</ele><time>2026-04-04T07:48:59.985Z</time></trkpt><trkpt lat="43.8583233" lon="11.5910417"><ele>560.0</ele><time>2026-04-04T07:49:05.986Z</time></trkpt><trkpt lat="43.85833" lon="11.5911417"><ele>562.0</ele><time>2026-04-04T07:49:07.987Z</time></trkpt><trkpt lat="43.8583433" lon="11.5912767"><ele>564.0</ele><time>2026-04-04T07:49:09.985Z</time></trkpt><trkpt lat="43.8583167" lon="11.5914533"><ele>566.0</ele><time>2026-04-04T07:49:11.985Z</time></trkpt><trkpt lat="43.8582867" lon="11.5915817"><ele>568.0</ele><time>2026-04-04T07:49:12.987Z</time></trkpt><trkpt lat="43.858255" lon="11.5917333"><ele>570.0</ele><time>2026-04-04T07:49:13.987Z</time></trkpt><trkpt lat="43.85823" lon="11.591905"><ele>572.25</ele><time>2026-04-04T07:49:14.985Z</time></trkpt><trkpt lat="43.8582083" lon="11.5920883"><ele>574.5</ele><time>2026-04-04T07:49:15.985Z</time></trkpt><trkpt lat="43.8581867" lon="11.5922767"><ele>576.75</ele><time>2026-04-04T07:49:16.985Z</time></trkpt><trkpt lat="43.8581633" lon="11.5924567"><ele>579.0</ele><time>2026-04-04T07:49:17.985Z</time></trkpt><trkpt lat="43.858145" lon="11.5926267"><ele>579.0</ele><time>2026-04-04T07:49:18.988Z</time></trkpt><trkpt lat="43.8581267" lon="11.5927817"><ele>579.0</ele><time>2026-04-04T07:49:19.988Z</time></trkpt><trkpt lat="43.8580967" lon="11.59292"><ele>579.0</ele><time>2026-04-04T07:49:20.985Z</time></trkpt><trkpt lat="43.8580583" lon="11.5930417"><ele>579.0</ele><time>2026-04-04T07:49:21.985Z</time></trkpt><trkpt lat="43.8580133" lon="11.5931567"><ele>579.0</ele><time>2026-04-04T07:49:22.988Z</time></trkpt><trkpt lat="43.857965" lon="11.5932617"><ele>579.3333333333334</ele><time>2026-04-04T07:49:23.987Z</time></trkpt><trkpt lat="43.8579267" lon="11.59337"><ele>579.6666666666666</ele><time>2026-04-04T07:49:24.987Z</time></trkpt><trkpt lat="43.8578833" lon="11.5934767"><ele>580.0</ele><time>2026-04-04T07:49:25.986Z</time></trkpt><trkpt lat="43.8578417" lon="11.59358"><ele>580.3333333333333</ele><time>2026-04-04T07:49:26.985Z</time></trkpt><trkpt lat="43.8578017" lon="11.5936717"><ele>580.6666666666666</ele><time>2026-04-04T07:49:27.985Z</time></trkpt><trkpt lat="43.8577683" lon="11.59375"><ele>581.0</ele><time>2026-04-04T07:49:28.986Z</time></trkpt><trkpt lat="43.857745" lon="11.59387"><ele>581.1666666666666</ele><time>2026-04-04T07:49:30.985Z</time></trkpt><trkpt lat="43.8578083" lon="11.5939433"><ele>581.3333333333333</ele><time>2026-04-04T07:49:47.985Z</time></trkpt><trkpt lat="43.8578383" lon="11.594065"><ele>581.5</ele><time>2026-04-04T07:49:49.987Z</time></trkpt><trkpt lat="43.857825" lon="11.5941533"><ele>581.6666666666666</ele><time>2026-04-04T07:49:50.985Z</time></trkpt><trkpt lat="43.8578217" lon="11.5942533"><ele>581.8333333333334</ele><time>2026-04-04T07:49:51.985Z</time></trkpt><trkpt lat="43.85777" lon="11.5943533"><ele>582.0</ele><time>2026-04-04T07:49:52.986Z</time></trkpt><trkpt lat="43.8577017" lon="11.594425"><ele>585.8000000000001</ele><time>2026-04-04T07:49:53.985Z</time></trkpt><trkpt lat="43.8576033" lon="11.5944383"><ele>589.6</ele><time>2026-04-04T07:49:54.985Z</time></trkpt><trkpt lat="43.8574983" lon="11.5944417"><ele>593.4000000000001</ele><time>2026-04-04T07:49:55.987Z</time></trkpt><trkpt lat="43.8573867" lon="11.5943783"><ele>597.2</ele><time>2026-04-04T07:49:56.986Z</time></trkpt><trkpt lat="43.8572833" lon="11.5943333"><ele>601.0</ele><time>2026-04-04T07:49:57.985Z</time></trkpt><trkpt lat="43.8572" lon="11.5942983"><ele>601.0</ele><time>2026-04-04T07:49:58.987Z</time></trkpt><trkpt lat="43.8571283" lon="11.594335"><ele>601.0</ele><time>2026-04-04T07:49:59.986Z</time></trkpt><trkpt lat="43.8570783" lon="11.5944033"><ele>601.0</ele><time>2026-04-04T07:50:00.987Z</time></trkpt><trkpt lat="43.85704" lon="11.5944767"><ele>601.0</ele><time>2026-04-04T07:50:01.988Z</time></trkpt><trkpt lat="43.857015" lon="11.5945717"><ele>601.0</ele><time>2026-04-04T07:50:02.986Z</time></trkpt><trkpt lat="43.8570017" lon="11.5946867"><ele>601.0</ele><time>2026-04-04T07:50:03.986Z</time></trkpt><trkpt lat="43.85699" lon="11.5948167"><ele>603.4</ele><time>2026-04-04T07:50:04.987Z</time></trkpt><trkpt lat="43.857005" lon="11.5949567"><ele>605.8</ele><time>2026-04-04T07:50:05.986Z</time></trkpt><trkpt lat="43.8570083" lon="11.5950867"><ele>608.1999999999999</ele><time>2026-04-04T07:50:06.988Z</time></trkpt><trkpt lat="43.857" lon="11.5952133"><ele>610.6</ele><time>2026-04-04T07:50:07.988Z</time></trkpt><trkpt lat="43.85702" lon="11.5953483"><ele>613.0</ele><time>2026-04-04T07:50:08.984Z</time></trkpt><trkpt lat="43.8570017" lon="11.595485"><ele>614.4</ele><time>2026-04-04T07:50:09.985Z</time></trkpt><trkpt lat="43.8570083" lon="11.5956217"><ele>615.8</ele><time>2026-04-04T07:50:10.987Z</time></trkpt><trkpt lat="43.8569883" lon="11.5957533"><ele>617.2</ele><time>2026-04-04T07:50:11.985Z</time></trkpt><trkpt lat="43.8569717" lon="11.595885"><ele>618.6</ele><time>2026-04-04T07:50:12.988Z</time></trkpt><trkpt lat="43.8569567" lon="11.5960217"><ele>620.0</ele><time>2026-04-04T07:50:13.988Z</time></trkpt><trkpt lat="43.856945" lon="11.5961517"><ele>619.6666666666666</ele><time>2026-04-04T07:50:14.986Z</time></trkpt><trkpt lat="43.8569217" lon="11.596265"><ele>619.3333333333333</ele><time>2026-04-04T07:50:15.986Z</time></trkpt><trkpt lat="43.8568867" lon="11.5963767"><ele>619.0</ele><time>2026-04-04T07:50:16.987Z</time></trkpt><trkpt lat="43.8568433" lon="11.5964767"><ele>618.6666666666666</ele><time>2026-04-04T07:50:17.985Z</time></trkpt><trkpt lat="43.8568067" lon="11.5965683"><ele>618.3333333333334</ele><time>2026-04-04T07:50:18.988Z</time></trkpt><trkpt lat="43.856775" lon="11.5966667"><ele>618.0</ele><time>2026-04-04T07:50:19.987Z</time></trkpt><trkpt lat="43.85674" lon="11.5967633"><ele>620.3333333333334</ele><time>2026-04-04T07:50:20.985Z</time></trkpt><trkpt lat="43.8567" lon="11.59685"><ele>622.6666666666666</ele><time>2026-04-04T07:50:21.985Z</time></trkpt><trkpt lat="43.856665" lon="11.596945"><ele>625.0</ele><time>2026-04-04T07:50:22.986Z</time></trkpt><trkpt lat="43.8566383" lon="11.5970533"><ele>627.3333333333333</ele><time>2026-04-04T07:50:23.985Z</time></trkpt><trkpt lat="43.8566083" lon="11.597145"><ele>629.6666666666666</ele><time>2026-04-04T07:50:24.987Z</time></trkpt><trkpt lat="43.8565083" lon="11.5972517"><ele>632.0</ele><time>2026-04-04T07:50:26.986Z</time></trkpt><trkpt lat="43.8564333" lon="11.5972733"><ele>634.4000000000001</ele><time>2026-04-04T07:50:27.989Z</time></trkpt><trkpt lat="43.8563383" lon="11.597275"><ele>636.8000000000001</ele><time>2026-04-04T07:50:28.987Z</time></trkpt><trkpt lat="43.856235" lon="11.5972617"><ele>639.2</ele><time>2026-04-04T07:50:29.987Z</time></trkpt><trkpt lat="43.8561383" lon="11.5972517"><ele>641.6</ele><time>2026-04-04T07:50:30.985Z</time></trkpt><trkpt lat="43.8560383" lon="11.59724"><ele>644.0</ele><time>2026-04-04T07:50:31.988Z</time></trkpt><trkpt lat="43.85594" lon="11.597225"><ele>646.2</ele><time>2026-04-04T07:50:32.985Z</time></trkpt><trkpt lat="43.8558467" lon="11.5972083"><ele>648.4000000000001</ele><time>2026-04-04T07:50:33.986Z</time></trkpt><trkpt lat="43.8557483" lon="11.5972"><ele>650.6</ele><time>2026-04-04T07:50:34.987Z</time></trkpt><trkpt lat="43.8556417" lon="11.5971967"><ele>652.8</ele><time>2026-04-04T07:50:35.987Z</time></trkpt><trkpt lat="43.8555367" lon="11.5972017"><ele>655.0</ele><time>2026-04-04T07:50:36.987Z</time></trkpt><trkpt lat="43.8554483" lon="11.597205"><ele>655.0</ele><time>2026-04-04T07:50:37.988Z</time></trkpt><trkpt lat="43.8553767" lon="11.5972167"><ele>655.0</ele><time>2026-04-04T07:50:38.986Z</time></trkpt><trkpt lat="43.85531" lon="11.5972467"><ele>655.0</ele><time>2026-04-04T07:50:39.986Z</time></trkpt><trkpt lat="43.8552483" lon="11.5973033"><ele>655.0</ele><time>2026-04-04T07:50:40.987Z</time></trkpt><trkpt lat="43.8551933" lon="11.59738"><ele>655.0</ele><time>2026-04-04T07:50:41.985Z</time></trkpt><trkpt lat="43.85515" lon="11.5974817"><ele>655.0</ele><time>2026-04-04T07:50:42.987Z</time></trkpt><trkpt lat="43.855115" lon="11.5975983"><ele>654.5</ele><time>2026-04-04T07:50:43.987Z</time></trkpt><trkpt lat="43.855075" lon="11.5977"><ele>654.0</ele><time>2026-04-04T07:50:44.985Z</time></trkpt><trkpt lat="43.8550217" lon="11.5977667"><ele>653.5</ele><time>2026-04-04T07:50:45.986Z</time></trkpt><trkpt lat="43.8549567" lon="11.5978283"><ele>653.0</ele><time>2026-04-04T07:50:46.988Z</time></trkpt><trkpt lat="43.8548733" lon="11.5979033"><ele>652.5</ele><time>2026-04-04T07:50:47.985Z</time></trkpt><trkpt lat="43.85479" lon="11.5979717"><ele>652.0</ele><time>2026-04-04T07:50:48.987Z</time></trkpt><trkpt lat="43.85471" lon="11.5980167"><ele>652.0</ele><time>2026-04-04T07:50:49.991Z</time></trkpt><trkpt lat="43.8546383" lon="11.5980267"><ele>652.0</ele><time>2026-04-04T07:50:50.984Z</time></trkpt><trkpt lat="43.8545583" lon="11.5979933"><ele>652.0</ele><time>2026-04-04T07:50:51.986Z</time></trkpt><trkpt lat="43.8544767" lon="11.5979467"><ele>652.0</ele><time>2026-04-04T07:50:52.988Z</time></trkpt><trkpt lat="43.8543833" lon="11.5978867"><ele>652.0</ele><time>2026-04-04T07:50:53.986Z</time></trkpt><trkpt lat="43.8542967" lon="11.5978283"><ele>652.0</ele><time>2026-04-04T07:50:54.989Z</time></trkpt><trkpt lat="43.8542167" lon="11.597775"><ele>652.5</ele><time>2026-04-04T07:50:55.987Z</time></trkpt><trkpt lat="43.8541433" lon="11.59774"><ele>653.0</ele><time>2026-04-04T07:50:56.986Z</time></trkpt><trkpt lat="43.8540683" lon="11.59773"><ele>653.5</ele><time>2026-04-04T07:50:57.986Z</time></trkpt><trkpt lat="43.8540017" lon="11.5977317"><ele>654.0</ele><time>2026-04-04T07:50:58.987Z</time></trkpt><trkpt lat="43.85393" lon="11.5977317"><ele>654.5</ele><time>2026-04-04T07:50:59.985Z</time></trkpt><trkpt lat="43.8538533" lon="11.5977483"><ele>655.0</ele><time>2026-04-04T07:51:00.987Z</time></trkpt><trkpt lat="43.85377" lon="11.597775"><ele>655.0</ele><time>2026-04-04T07:51:01.988Z</time></trkpt><trkpt lat="43.8536967" lon="11.597815"><ele>655.0</ele><time>2026-04-04T07:51:02.985Z</time></trkpt><trkpt lat="43.8536383" lon="11.59786"><ele>655.0</ele><time>2026-04-04T07:51:03.989Z</time></trkpt><trkpt lat="43.85358" lon="11.5979117"><ele>655.0</ele><time>2026-04-04T07:51:04.987Z</time></trkpt><trkpt lat="43.8535333" lon="11.59798"><ele>655.0</ele><time>2026-04-04T07:51:05.986Z</time></trkpt><trkpt lat="43.85349" lon="11.59807"><ele>655.0</ele><time>2026-04-04T07:51:06.986Z</time></trkpt><trkpt lat="43.8534467" lon="11.5981783"><ele>658.4</ele><time>2026-04-04T07:51:07.988Z</time></trkpt><trkpt lat="43.853385" lon="11.5982933"><ele>661.8</ele><time>2026-04-04T07:51:08.985Z</time></trkpt><trkpt lat="43.8533283" lon="11.5984117"><ele>665.2</ele><time>2026-04-04T07:51:09.985Z</time></trkpt><trkpt lat="43.8532733" lon="11.5985333"><ele>668.6</ele><time>2026-04-04T07:51:10.99Z</time></trkpt><trkpt lat="43.85322" lon="11.5986483"><ele>672.0</ele><time>2026-04-04T07:51:11.984Z</time></trkpt><trkpt lat="43.85318" lon="11.5987617"><ele>674.0</ele><time>2026-04-04T07:51:12.987Z</time></trkpt><trkpt lat="43.853155" lon="11.598885"><ele>676.0</ele><time>2026-04-04T07:51:13.987Z</time></trkpt><trkpt lat="43.8531583" lon="11.5990233"><ele>678.0</ele><time>2026-04-04T07:51:14.985Z</time></trkpt><trkpt lat="43.8531633" lon="11.599155"><ele>680.0</ele><time>2026-04-04T07:51:15.987Z</time></trkpt><trkpt lat="43.8531517" lon="11.5992783"><ele>682.0</ele><time>2026-04-04T07:51:16.99Z</time></trkpt><trkpt lat="43.85313" lon="11.5993817"><ele>682.0</ele><time>2026-04-04T07:51:17.985Z</time></trkpt><trkpt lat="43.8530133" lon="11.5994883"><ele>682.0</ele><time>2026-04-04T07:51:19.988Z</time></trkpt><trkpt lat="43.85293" lon="11.59952"><ele>682.0</ele><time>2026-04-04T07:51:20.986Z</time></trkpt><trkpt lat="43.8528483" lon="11.5995483"><ele>682.0</ele><time>2026-04-04T07:51:21.986Z</time></trkpt><trkpt lat="43.8527667" lon="11.5995717"><ele>682.0</ele><time>2026-04-04T07:51:22.987Z</time></trkpt><trkpt lat="43.8527" lon="11.5995817"><ele>683.0</ele><time>2026-04-04T07:51:23.986Z</time></trkpt><trkpt lat="43.8526283" lon="11.5995983"><ele>684.0</ele><time>2026-04-04T07:51:24.988Z</time></trkpt><trkpt lat="43.8525633" lon="11.599635"><ele>685.0</ele><time>2026-04-04T07:51:25.987Z</time></trkpt><trkpt lat="43.8525017" lon="11.5996883"><ele>686.0</ele><time>2026-04-04T07:51:26.985Z</time></trkpt><trkpt lat="43.8524333" lon="11.599755"><ele>687.0</ele><time>2026-04-04T07:51:27.986Z</time></trkpt><trkpt lat="43.8523583" lon="11.5998283"><ele>688.0</ele><time>2026-04-04T07:51:28.987Z</time></trkpt><trkpt lat="43.85228" lon="11.5998967"><ele>688.0</ele><time>2026-04-04T07:51:29.986Z</time></trkpt><trkpt lat="43.8522017" lon="11.5999467"><ele>688.0</ele><time>2026-04-04T07:51:30.987Z</time></trkpt><trkpt lat="43.8521283" lon="11.599995"><ele>688.0</ele><time>2026-04-04T07:51:31.987Z</time></trkpt><trkpt lat="43.8520583" lon="11.60006"><ele>688.0</ele><time>2026-04-04T07:51:32.986Z</time></trkpt><trkpt lat="43.85199" lon="11.6001317"><ele>688.0</ele><time>2026-04-04T07:51:33.985Z</time></trkpt><trkpt lat="43.85192" lon="11.600205"><ele>688.0</ele><time>2026-04-04T07:51:34.989Z</time></trkpt><trkpt lat="43.8518517" lon="11.600285"><ele>688.8333333333334</ele><time>2026-04-04T07:51:35.984Z</time></trkpt><trkpt lat="43.8517933" lon="11.6003733"><ele>689.6666666666667</ele><time>2026-04-04T07:51:36.987Z</time></trkpt><trkpt lat="43.851735" lon="11.60044"><ele>690.5</ele><time>2026-04-04T07:51:37.987Z</time></trkpt><trkpt lat="43.8516733" lon="11.60047"><ele>691.3333333333334</ele><time>2026-04-04T07:51:38.986Z</time></trkpt><trkpt lat="43.85161" lon="11.6004383"><ele>692.1666666666666</ele><time>2026-04-04T07:51:39.985Z</time></trkpt><trkpt lat="43.8515433" lon="11.6003683"><ele>693.0</ele><time>2026-04-04T07:51:40.986Z</time></trkpt><trkpt lat="43.851465" lon="11.6002767"><ele>693.0</ele><time>2026-04-04T07:51:41.986Z</time></trkpt><trkpt lat="43.8513767" lon="11.6001933"><ele>693.0</ele><time>2026-04-04T07:51:42.986Z</time></trkpt><trkpt lat="43.85129" lon="11.600125"><ele>693.0</ele><time>2026-04-04T07:51:43.988Z</time></trkpt><trkpt lat="43.851205" lon="11.6000833"><ele>693.0</ele><time>2026-04-04T07:51:44.985Z</time></trkpt><trkpt lat="43.851125" lon="11.6000617"><ele>693.0</ele><time>2026-04-04T07:51:45.986Z</time></trkpt><trkpt lat="43.8510533" lon="11.600055"><ele>693.0</ele><time>2026-04-04T07:51:46.985Z</time></trkpt><trkpt lat="43.8509833" lon="11.600075"><ele>693.0</ele><time>2026-04-04T07:51:47.985Z</time></trkpt><trkpt lat="43.85092" lon="11.6001233"><ele>693.0</ele><time>2026-04-04T07:51:48.987Z</time></trkpt><trkpt lat="43.8508667" lon="11.6001817"><ele>693.0</ele><time>2026-04-04T07:51:49.988Z</time></trkpt><trkpt lat="43.850815" lon="11.6002517"><ele>693.0</ele><time>2026-04-04T07:51:50.985Z</time></trkpt><trkpt lat="43.850765" lon="11.600335"><ele>693.0</ele><time>2026-04-04T07:51:51.987Z</time></trkpt><trkpt lat="43.8507083" lon="11.60043"><ele>697.1666666666666</ele><time>2026-04-04T07:51:52.987Z</time></trkpt><trkpt lat="43.850665" lon="11.60053"><ele>701.3333333333334</ele><time>2026-04-04T07:51:53.985Z</time></trkpt><trkpt lat="43.8506317" lon="11.6006233"><ele>705.5</ele><time>2026-04-04T07:51:54.987Z</time></trkpt><trkpt lat="43.8506067" lon="11.60072"><ele>709.6666666666667</ele><time>2026-04-04T07:51:55.989Z</time></trkpt><trkpt lat="43.8505933" lon="11.6008367"><ele>713.8333333333334</ele><time>2026-04-04T07:51:56.985Z</time></trkpt><trkpt lat="43.8505717" lon="11.6009567"><ele>718.0</ele><time>2026-04-04T07:51:57.986Z</time></trkpt><trkpt lat="43.85054" lon="11.6010733"><ele>721.2</ele><time>2026-04-04T07:51:58.988Z</time></trkpt><trkpt lat="43.8504917" lon="11.6011733"><ele>724.4</ele><time>2026-04-04T07:51:59.986Z</time></trkpt><trkpt lat="43.8504267" lon="11.6012633"><ele>727.6</ele><time>2026-04-04T07:52:00.988Z</time></trkpt><trkpt lat="43.8503517" lon="11.6013567"><ele>730.8000000000001</ele><time>2026-04-04T07:52:01.988Z</time></trkpt><trkpt lat="43.85027" lon="11.60145"><ele>734.0</ele><time>2026-04-04T07:52:02.985Z</time></trkpt><trkpt lat="43.85018" lon="11.601535"><ele>734.2</ele><time>2026-04-04T07:52:03.986Z</time></trkpt><trkpt lat="43.8500883" lon="11.6016133"><ele>734.4000000000001</ele><time>2026-04-04T07:52:04.987Z</time></trkpt><trkpt lat="43.85" lon="11.60169"><ele>734.6</ele><time>2026-04-04T07:52:05.987Z</time></trkpt><trkpt lat="43.849925" lon="11.60178"><ele>734.8</ele><time>2026-04-04T07:52:06.987Z</time></trkpt><trkpt lat="43.84986" lon="11.6018817"><ele>735.0</ele><time>2026-04-04T07:52:07.987Z</time></trkpt><trkpt lat="43.8498083" lon="11.6020033"><ele>735.0</ele><time>2026-04-04T07:52:08.985Z</time></trkpt><trkpt lat="43.8497583" lon="11.6021267"><ele>735.0</ele><time>2026-04-04T07:52:09.986Z</time></trkpt><trkpt lat="43.8497083" lon="11.602255"><ele>735.0</ele><time>2026-04-04T07:52:10.987Z</time></trkpt><trkpt lat="43.8496617" lon="11.6023967"><ele>735.0</ele><time>2026-04-04T07:52:11.986Z</time></trkpt><trkpt lat="43.8496183" lon="11.602545"><ele>735.0</ele><time>2026-04-04T07:52:12.988Z</time></trkpt><trkpt lat="43.849575" lon="11.6026817"><ele>735.0</ele><time>2026-04-04T07:52:13.986Z</time></trkpt><trkpt lat="43.849535" lon="11.602775"><ele>735.0</ele><time>2026-04-04T07:52:14.986Z</time></trkpt><trkpt lat="43.8494967" lon="11.602875"><ele>735.0</ele><time>2026-04-04T07:52:16.984Z</time></trkpt><trkpt lat="43.84946" lon="11.6029817"><ele>735.0</ele><time>2026-04-04T07:52:18.991Z</time></trkpt><trkpt lat="43.8493633" lon="11.60314"><ele>735.0</ele><time>2026-04-04T07:54:18.985Z</time></trkpt><trkpt lat="43.8493183" lon="11.6032267"><ele>736.6666666666666</ele><time>2026-04-04T07:54:20.985Z</time></trkpt><trkpt lat="43.8492683" lon="11.6033283"><ele>738.3333333333334</ele><time>2026-04-04T07:54:22.986Z</time></trkpt><trkpt lat="43.8492067" lon="11.6034933"><ele>740.0</ele><time>2026-04-04T07:54:24.985Z</time></trkpt><trkpt lat="43.8491783" lon="11.603585"><ele>741.6666666666667</ele><time>2026-04-04T07:54:25.986Z</time></trkpt><trkpt lat="43.8491533" lon="11.6036767"><ele>743.3333333333334</ele><time>2026-04-04T07:54:26.985Z</time></trkpt><trkpt lat="43.8491267" lon="11.6037683"><ele>745.0</ele><time>2026-04-04T07:54:27.985Z</time></trkpt><trkpt lat="43.84908" lon="11.6039183"><ele>746.4</ele><time>2026-04-04T07:54:29.985Z</time></trkpt><trkpt lat="43.8490567" lon="11.60405"><ele>747.8</ele><time>2026-04-04T07:54:31.988Z</time></trkpt><trkpt lat="43.8490467" lon="11.6041883"><ele>749.2</ele><time>2026-04-04T07:54:33.986Z</time></trkpt><trkpt lat="43.848995" lon="11.6043133"><ele>750.6</ele><time>2026-04-04T07:54:35.986Z</time></trkpt><trkpt lat="43.8489317" lon="11.6044217"><ele>752.0</ele><time>2026-04-04T07:54:37.988Z</time></trkpt><trkpt lat="43.8488783" lon="11.6045667"><ele>752.0</ele><time>2026-04-04T07:54:39.986Z</time></trkpt><trkpt lat="43.8488267" lon="11.6047133"><ele>752.0</ele><time>2026-04-04T07:54:41.987Z</time></trkpt><trkpt lat="43.8487883" lon="11.6048383"><ele>752.0</ele><time>2026-04-04T07:54:43.987Z</time></trkpt><trkpt lat="43.84875" lon="11.6049567"><ele>752.0</ele><time>2026-04-04T07:54:45.986Z</time></trkpt><trkpt lat="43.8486467" lon="11.605045"><ele>752.0</ele><time>2026-04-04T07:54:47.985Z</time></trkpt><trkpt lat="43.8485567" lon="11.60502"><ele>752.0</ele><time>2026-04-04T07:54:49.974Z</time></trkpt><trkpt lat="43.84848" lon="11.604945"><ele>752.0</ele><time>2026-04-04T07:54:51.985Z</time></trkpt><trkpt lat="43.8483817" lon="11.6048817"><ele>752.0</ele><time>2026-04-04T07:54:53.986Z</time></trkpt><trkpt lat="43.8482733" lon="11.60485"><ele>752.0</ele><time>2026-04-04T07:54:55.987Z</time></trkpt><trkpt lat="43.8481983" lon="11.60483"><ele>752.0</ele><time>2026-04-04T07:54:56.985Z</time></trkpt><trkpt lat="43.8481167" lon="11.6048167"><ele>758.2</ele><time>2026-04-04T07:54:57.987Z</time></trkpt><trkpt lat="43.84804" lon="11.6048167"><ele>764.4000000000001</ele><time>2026-04-04T07:54:58.985Z</time></trkpt><trkpt lat="43.847975" lon="11.6048283"><ele>770.5999999999999</ele><time>2026-04-04T07:54:59.986Z</time></trkpt><trkpt lat="43.8478633" lon="11.6048683"><ele>776.8</ele><time>2026-04-04T07:55:01.988Z</time></trkpt><trkpt lat="43.8477617" lon="11.6049067"><ele>783.0</ele><time>2026-04-04T07:55:03.986Z</time></trkpt><trkpt lat="43.8476533" lon="11.6049233"><ele>786.8333333333334</ele><time>2026-04-04T07:55:05.985Z</time></trkpt><trkpt lat="43.8475267" lon="11.6049333"><ele>790.6666666666667</ele><time>2026-04-04T07:55:07.988Z</time></trkpt><trkpt lat="43.8474517" lon="11.6049517"><ele>794.5</ele><time>2026-04-04T07:55:08.985Z</time></trkpt><trkpt lat="43.8473783" lon="11.604975"><ele>798.3333333333334</ele><time>2026-04-04T07:55:09.986Z</time></trkpt><trkpt lat="43.8473167" lon="11.6050067"><ele>802.1666666666667</ele><time>2026-04-04T07:55:10.988Z</time></trkpt><trkpt lat="43.847255" lon="11.6050467"><ele>806.0</ele><time>2026-04-04T07:55:11.986Z</time></trkpt><trkpt lat="43.8471917" lon="11.6051017"><ele>806.0000000000001</ele><time>2026-04-04T07:55:12.987Z</time></trkpt><trkpt lat="43.8471317" lon="11.605165"><ele>806.0</ele><time>2026-04-04T07:55:13.987Z</time></trkpt><trkpt lat="43.8470633" lon="11.6052333"><ele>806.0</ele><time>2026-04-04T07:55:14.985Z</time></trkpt><trkpt lat="43.8469883" lon="11.6053033"><ele>806.0</ele><time>2026-04-04T07:55:15.985Z</time></trkpt><trkpt lat="43.8469133" lon="11.6053667"><ele>806.0000000000001</ele><time>2026-04-04T07:55:16.988Z</time></trkpt><trkpt lat="43.8468367" lon="11.605435"><ele>806.0</ele><time>2026-04-04T07:55:17.985Z</time></trkpt><trkpt lat="43.8467583" lon="11.6055083"><ele>809.1666666666667</ele><time>2026-04-04T07:55:18.986Z</time></trkpt><trkpt lat="43.8466917" lon="11.6055833"><ele>812.3333333333334</ele><time>2026-04-04T07:55:19.987Z</time></trkpt><trkpt lat="43.8466383" lon="11.6056467"><ele>815.5</ele><time>2026-04-04T07:55:20.985Z</time></trkpt><trkpt lat="43.846585" lon="11.6056967"><ele>818.6666666666667</ele><time>2026-04-04T07:55:21.986Z</time></trkpt><trkpt lat="43.8464867" lon="11.6057783"><ele>821.8333333333334</ele><time>2026-04-04T07:55:23.985Z</time></trkpt><trkpt lat="43.8464283" lon="11.6058183"><ele>825.0</ele><time>2026-04-04T07:55:24.987Z</time></trkpt><trkpt lat="43.8463733" lon="11.6058633"><ele>825.0</ele><time>2026-04-04T07:55:25.988Z</time></trkpt><trkpt lat="43.8463233" lon="11.6059217"><ele>825.0</ele><time>2026-04-04T07:55:26.987Z</time></trkpt><trkpt lat="43.84626" lon="11.6060567"><ele>825.0</ele><time>2026-04-04T07:55:28.985Z</time></trkpt><trkpt lat="43.8462517" lon="11.606145"><ele>825.0</ele><time>2026-04-04T07:55:29.985Z</time></trkpt><trkpt lat="43.8462667" lon="11.60624"><ele>825.0</ele><time>2026-04-04T07:55:30.985Z</time></trkpt><trkpt lat="43.846285" lon="11.6063283"><ele>825.0</ele><time>2026-04-04T07:55:31.986Z</time></trkpt><trkpt lat="43.8462733" lon="11.6064833"><ele>825.0</ele><time>2026-04-04T07:55:33.986Z</time></trkpt><trkpt lat="43.8461567" lon="11.6065067"><ele>825.0</ele><time>2026-04-04T07:55:35.986Z</time></trkpt><trkpt lat="43.8460383" lon="11.6064733"><ele>825.0</ele><time>2026-04-04T07:55:37.987Z</time></trkpt><trkpt lat="43.8459267" lon="11.60654"><ele>825.0</ele><time>2026-04-04T07:56:23.986Z</time></trkpt><trkpt lat="43.8458467" lon="11.6066733"><ele>830.0</ele><time>2026-04-04T07:56:25.987Z</time></trkpt><trkpt lat="43.8457533" lon="11.6067883"><ele>835.0</ele><time>2026-04-04T07:56:27.985Z</time></trkpt><trkpt lat="43.8456933" lon="11.6068167"><ele>840.0</ele><time>2026-04-04T07:56:28.985Z</time></trkpt><trkpt lat="43.84559" lon="11.6068633"><ele>845.0</ele><time>2026-04-04T07:56:30.985Z</time></trkpt><trkpt lat="43.8454817" lon="11.6068233"><ele>850.0</ele><time>2026-04-04T07:56:32.986Z</time></trkpt><trkpt lat="43.8453517" lon="11.6068317"><ele>849.9999999999999</ele><time>2026-04-04T07:56:34.985Z</time></trkpt><trkpt lat="43.845275" lon="11.6068467"><ele>850.0</ele><time>2026-04-04T07:56:35.985Z</time></trkpt><trkpt lat="43.8452133" lon="11.6068833"><ele>850.0</ele><time>2026-04-04T07:56:36.986Z</time></trkpt><trkpt lat="43.8451333" lon="11.6069983"><ele>850.0</ele><time>2026-04-04T07:56:38.985Z</time></trkpt><trkpt lat="43.8450867" lon="11.6071"><ele>849.9999999999999</ele><time>2026-04-04T07:56:40.982Z</time></trkpt><trkpt lat="43.845065" lon="11.60722"><ele>850.0</ele><time>2026-04-04T07:56:42.986Z</time></trkpt><trkpt lat="43.8450317" lon="11.6073233"><ele>852.6666666666666</ele><time>2026-04-04T07:56:44.985Z</time></trkpt><trkpt lat="43.8449933" lon="11.607435"><ele>855.3333333333333</ele><time>2026-04-04T07:56:46.985Z</time></trkpt><trkpt lat="43.844975" lon="11.6075283"><ele>858.0</ele><time>2026-04-04T07:56:47.985Z</time></trkpt><trkpt lat="43.84497" lon="11.6076517"><ele>860.6666666666667</ele><time>2026-04-04T07:56:48.986Z</time></trkpt><trkpt lat="43.844955" lon="11.6077783"><ele>863.3333333333334</ele><time>2026-04-04T07:56:49.987Z</time></trkpt><trkpt lat="43.8449317" lon="11.607895"><ele>866.0</ele><time>2026-04-04T07:56:50.985Z</time></trkpt><trkpt lat="43.8449033" lon="11.6079933"><ele>866.0</ele><time>2026-04-04T07:56:51.985Z</time></trkpt><trkpt lat="43.844835" lon="11.608105"><ele>865.9999999999999</ele><time>2026-04-04T07:56:53.985Z</time></trkpt><trkpt lat="43.844775" lon="11.6081767"><ele>865.9999999999999</ele><time>2026-04-04T07:56:56.985Z</time></trkpt><trkpt lat="43.84472" lon="11.608245"><ele>866.0</ele><time>2026-04-04T07:57:05.986Z</time></trkpt><trkpt lat="43.8446267" lon="11.608365"><ele>866.0</ele><time>2026-04-04T07:57:07.987Z</time></trkpt><trkpt lat="43.844565" lon="11.60843"><ele>866.0000000000001</ele><time>2026-04-04T07:57:08.985Z</time></trkpt><trkpt lat="43.8444933" lon="11.608495"><ele>866.0</ele><time>2026-04-04T07:57:09.985Z</time></trkpt><trkpt lat="43.844425" lon="11.608565"><ele>866.0</ele><time>2026-04-04T07:57:10.988Z</time></trkpt><trkpt lat="43.8443567" lon="11.6086533"><ele>866.0</ele><time>2026-04-04T07:57:11.986Z</time></trkpt><trkpt lat="43.8442933" lon="11.608745"><ele>866.0000000000001</ele><time>2026-04-04T07:57:12.986Z</time></trkpt><trkpt lat="43.84423" lon="11.608835"><ele>866.0</ele><time>2026-04-04T07:57:13.987Z</time></trkpt><trkpt lat="43.8441717" lon="11.6089217"><ele>870.8333333333334</ele><time>2026-04-04T07:57:14.985Z</time></trkpt><trkpt lat="43.844115" lon="11.6090133"><ele>875.6666666666667</ele><time>2026-04-04T07:57:15.989Z</time></trkpt><trkpt lat="43.8440567" lon="11.6090917"><ele>880.5</ele><time>2026-04-04T07:57:16.987Z</time></trkpt><trkpt lat="43.8439983" lon="11.6091567"><ele>885.3333333333333</ele><time>2026-04-04T07:57:17.985Z</time></trkpt><trkpt lat="43.8439467" lon="11.6092217"><ele>890.1666666666666</ele><time>2026-04-04T07:57:18.986Z</time></trkpt><trkpt lat="43.8439" lon="11.6092833"><ele>895.0</ele><time>2026-04-04T07:57:19.989Z</time></trkpt><trkpt lat="43.843825" lon="11.6094033"><ele>894.9999999999999</ele><time>2026-04-04T07:57:21.986Z</time></trkpt><trkpt lat="43.8437917" lon="11.6094783"><ele>895.0</ele><time>2026-04-04T07:57:22.987Z</time></trkpt><trkpt lat="43.8437483" lon="11.6096367"><ele>895.0</ele><time>2026-04-04T07:57:24.988Z</time></trkpt><trkpt lat="43.8437217" lon="11.609735"><ele>895.0</ele><time>2026-04-04T07:57:26.985Z</time></trkpt><trkpt lat="43.8436767" lon="11.6098417"><ele>894.9999999999999</ele><time>2026-04-04T07:57:29.986Z</time></trkpt><trkpt lat="43.843655" lon="11.60994"><ele>895.0</ele><time>2026-04-04T07:57:31.988Z</time></trkpt><trkpt lat="43.8436483" lon="11.6100283"><ele>894.8333333333333</ele><time>2026-04-04T07:57:32.986Z</time></trkpt><trkpt lat="43.843635" lon="11.610185"><ele>894.6666666666666</ele><time>2026-04-04T07:57:34.987Z</time></trkpt><trkpt lat="43.8435967" lon="11.6102867"><ele>894.5</ele><time>2026-04-04T07:57:36.975Z</time></trkpt><trkpt lat="43.8435667" lon="11.6104033"><ele>894.3333333333333</ele><time>2026-04-04T07:57:38.984Z</time></trkpt><trkpt lat="43.84354" lon="11.6104867"><ele>894.1666666666666</ele><time>2026-04-04T07:57:39.984Z</time></trkpt><trkpt lat="43.84352" lon="11.6105833"><ele>894.0</ele><time>2026-04-04T07:57:40.985Z</time></trkpt><trkpt lat="43.8435" lon="11.610685"><ele>893.9999999999999</ele><time>2026-04-04T07:57:41.984Z</time></trkpt><trkpt lat="43.843485" lon="11.61078"><ele>894.0</ele><time>2026-04-04T07:57:42.985Z</time></trkpt><trkpt lat="43.84348" lon="11.6108683"><ele>894.0</ele><time>2026-04-04T07:57:43.987Z</time></trkpt><trkpt lat="43.84348" lon="11.61096"><ele>894.0</ele><time>2026-04-04T07:57:44.986Z</time></trkpt><trkpt lat="43.8435167" lon="11.611065"><ele>894.0</ele><time>2026-04-04T07:57:45.986Z</time></trkpt><trkpt lat="43.8435433" lon="11.6111683"><ele>893.9999999999999</ele><time>2026-04-04T07:57:46.986Z</time></trkpt><trkpt lat="43.8435433" lon="11.6112583"><ele>894.0</ele><time>2026-04-04T07:57:47.985Z</time></trkpt><trkpt lat="43.8435317" lon="11.61135"><ele>895.0</ele><time>2026-04-04T07:57:48.986Z</time></trkpt><trkpt lat="43.8435133" lon="11.6114383"><ele>896.0</ele><time>2026-04-04T07:57:49.989Z</time></trkpt><trkpt lat="43.8434867" lon="11.6115183"><ele>897.0</ele><time>2026-04-04T07:57:50.985Z</time></trkpt><trkpt lat="43.8434533" lon="11.611595"><ele>898.0</ele><time>2026-04-04T07:57:51.987Z</time></trkpt><trkpt lat="43.8433883" lon="11.6117333"><ele>899.0</ele><time>2026-04-04T07:57:53.985Z</time></trkpt><trkpt lat="43.8433333" lon="11.6117867"><ele>900.0</ele><time>2026-04-04T07:57:54.988Z</time></trkpt><trkpt lat="43.84327" lon="11.611845"><ele>903.0</ele><time>2026-04-04T07:57:55.987Z</time></trkpt><trkpt lat="43.8432" lon="11.611925"><ele>906.0</ele><time>2026-04-04T07:57:56.986Z</time></trkpt><trkpt lat="43.8431333" lon="11.61201"><ele>909.0</ele><time>2026-04-04T07:57:57.984Z</time></trkpt><trkpt lat="43.8430617" lon="11.6120917"><ele>912.0</ele><time>2026-04-04T07:57:58.984Z</time></trkpt><trkpt lat="43.84298" lon="11.6121683"><ele>915.0</ele><time>2026-04-04T07:57:59.986Z</time></trkpt><trkpt lat="43.842905" lon="11.6122317"><ele>915.0</ele><time>2026-04-04T07:58:00.985Z</time></trkpt><trkpt lat="43.8428317" lon="11.6122733"><ele>915.0</ele><time>2026-04-04T07:58:01.987Z</time></trkpt><trkpt lat="43.8427567" lon="11.6123"><ele>915.0</ele><time>2026-04-04T07:58:02.984Z</time></trkpt><trkpt lat="43.8426717" lon="11.61232"><ele>915.0</ele><time>2026-04-04T07:58:03.985Z</time></trkpt><trkpt lat="43.8425833" lon="11.612345"><ele>915.0</ele><time>2026-04-04T07:58:04.986Z</time></trkpt><trkpt lat="43.842495" lon="11.6123783"><ele>915.0</ele><time>2026-04-04T07:58:05.985Z</time></trkpt><trkpt lat="43.8424033" lon="11.6124183"><ele>919.6</ele><time>2026-04-04T07:58:06.985Z</time></trkpt><trkpt lat="43.84231" lon="11.6124667"><ele>924.2</ele><time>2026-04-04T07:58:07.987Z</time></trkpt><trkpt lat="43.8422317" lon="11.6125"><ele>928.8</ele><time>2026-04-04T07:58:08.984Z</time></trkpt><trkpt lat="43.8421367" lon="11.6125333"><ele>933.4</ele><time>2026-04-04T07:58:10.985Z</time></trkpt><trkpt lat="43.8420567" lon="11.612555"><ele>938.0</ele><time>2026-04-04T07:58:12.986Z</time></trkpt><trkpt lat="43.84195" lon="11.6125183"><ele>938.0</ele><time>2026-04-04T08:05:01.987Z</time></trkpt><trkpt lat="43.8419533" lon="11.6124083"><ele>938.0</ele><time>2026-04-04T08:05:03.987Z</time></trkpt><trkpt lat="43.8419583" lon="11.6123183"><ele>938.0</ele><time>2026-04-04T08:05:05.985Z</time></trkpt><trkpt lat="43.8419683" lon="11.6122167"><ele>938.0</ele><time>2026-04-04T08:05:08.986Z</time></trkpt><trkpt lat="43.8419717" lon="11.6121283"><ele>938.0</ele><time>2026-04-04T08:05:11.986Z</time></trkpt><trkpt lat="43.84197" lon="11.6120217"><ele>938.0</ele><time>2026-04-04T08:05:13.987Z</time></trkpt><trkpt lat="43.8419767" lon="11.6118983"><ele>938.0</ele><time>2026-04-04T08:05:16.985Z</time></trkpt><trkpt lat="43.841975" lon="11.6118067"><ele>938.6666666666667</ele><time>2026-04-04T08:05:19.989Z</time></trkpt><trkpt lat="43.8419383" lon="11.6117117"><ele>939.3333333333334</ele><time>2026-04-04T08:05:29.984Z</time></trkpt><trkpt lat="43.8419283" lon="11.6116183"><ele>940.0</ele><time>2026-04-04T08:05:31.986Z</time></trkpt><trkpt lat="43.8419083" lon="11.6115267"><ele>940.6666666666667</ele><time>2026-04-04T08:05:33.985Z</time></trkpt><trkpt lat="43.8418767" lon="11.6114083"><ele>941.3333333333334</ele><time>2026-04-04T08:05:36.984Z</time></trkpt><trkpt lat="43.8418167" lon="11.6112983"><ele>942.0</ele><time>2026-04-04T08:05:39.974Z</time></trkpt><trkpt lat="43.841775" lon="11.6112167"><ele>942.0</ele><time>2026-04-04T08:05:41.986Z</time></trkpt><trkpt lat="43.8417317" lon="11.6111533"><ele>942.0</ele><time>2026-04-04T08:05:43.987Z</time></trkpt><trkpt lat="43.8416567" lon="11.6111133"><ele>942.0</ele><time>2026-04-04T08:05:46.985Z</time></trkpt><trkpt lat="43.8415883" lon="11.6111067"><ele>942.0</ele><time>2026-04-04T08:05:48.987Z</time></trkpt><trkpt lat="43.8414983" lon="11.61115"><ele>942.0</ele><time>2026-04-04T08:05:50.984Z</time></trkpt><trkpt lat="43.84142" lon="11.6112233"><ele>942.0</ele><time>2026-04-04T08:05:52.987Z</time></trkpt><trkpt lat="43.841355" lon="11.6112733"><ele>942.0</ele><time>2026-04-04T08:05:54.989Z</time></trkpt><trkpt lat="43.8412783" lon="11.6112933"><ele>942.0</ele><time>2026-04-04T08:05:56.986Z</time></trkpt><trkpt lat="43.8412067" lon="11.6113067"><ele>942.0</ele><time>2026-04-04T08:05:58.984Z</time></trkpt><trkpt lat="43.8411267" lon="11.6112633"><ele>942.0</ele><time>2026-04-04T08:06:00.974Z</time></trkpt><trkpt lat="43.8410583" lon="11.61117"><ele>942.0</ele><time>2026-04-04T08:06:02.985Z</time></trkpt><trkpt lat="43.8410067" lon="11.61107"><ele>942.0</ele><time>2026-04-04T08:06:04.985Z</time></trkpt><trkpt lat="43.8409683" lon="11.6109467"><ele>942.0</ele><time>2026-04-04T08:06:06.984Z</time></trkpt><trkpt lat="43.84094" lon="11.6107967"><ele>942.0</ele><time>2026-04-04T08:06:08.984Z</time></trkpt><trkpt lat="43.840905" lon="11.610635"><ele>942.0</ele><time>2026-04-04T08:06:10.983Z</time></trkpt><trkpt lat="43.84088" lon="11.6105417"><ele>942.0</ele><time>2026-04-04T08:06:11.985Z</time></trkpt><trkpt lat="43.8408683" lon="11.6104433"><ele>942.0</ele><time>2026-04-04T08:06:12.986Z</time></trkpt><trkpt lat="43.84086" lon="11.6103433"><ele>943.1666666666666</ele><time>2026-04-04T08:06:13.985Z</time></trkpt><trkpt lat="43.8408567" lon="11.6102433"><ele>944.3333333333333</ele><time>2026-04-04T08:06:14.985Z</time></trkpt><trkpt lat="43.8408617" lon="11.6100767"><ele>945.5</ele><time>2026-04-04T08:06:16.986Z</time></trkpt><trkpt lat="43.8408783" lon="11.6099533"><ele>946.6666666666666</ele><time>2026-04-04T08:06:18.984Z</time></trkpt><trkpt lat="43.840885" lon="11.60985"><ele>947.8333333333333</ele><time>2026-04-04T08:06:20.986Z</time></trkpt><trkpt lat="43.84087" lon="11.6097533"><ele>949.0</ele><time>2026-04-04T08:06:22.985Z</time></trkpt><trkpt lat="43.8408383" lon="11.60964"><ele>948.9999999999999</ele><time>2026-04-04T08:06:24.984Z</time></trkpt><trkpt lat="43.8408267" lon="11.6094933"><ele>949.0</ele><time>2026-04-04T08:06:26.984Z</time></trkpt><trkpt lat="43.840815" lon="11.6094"><ele>949.0</ele><time>2026-04-04T08:06:28.975Z</time></trkpt><trkpt lat="43.8407833" lon="11.6093233"><ele>949.0</ele><time>2026-04-04T08:06:30.985Z</time></trkpt><trkpt lat="43.8407817" lon="11.6092033"><ele>948.9999999999999</ele><time>2026-04-04T08:06:33.987Z</time></trkpt><trkpt lat="43.84077" lon="11.6090367"><ele>949.0</ele><time>2026-04-04T08:06:36.987Z</time></trkpt><trkpt lat="43.8407617" lon="11.6089367"><ele>948.2</ele><time>2026-04-04T08:06:37.987Z</time></trkpt><trkpt lat="43.8407467" lon="11.6087983"><ele>947.4000000000001</ele><time>2026-04-04T08:06:39.984Z</time></trkpt><trkpt lat="43.8407267" lon="11.6086917"><ele>946.6</ele><time>2026-04-04T08:06:41.986Z</time></trkpt><trkpt lat="43.84072" lon="11.608555"><ele>945.8</ele><time>2026-04-04T08:06:44.985Z</time></trkpt><trkpt lat="43.84072" lon="11.6084367"><ele>945.0</ele><time>2026-04-04T08:06:46.984Z</time></trkpt><trkpt lat="43.8407133" lon="11.608305"><ele>944.0</ele><time>2026-04-04T08:06:48.985Z</time></trkpt><trkpt lat="43.84072" lon="11.6082083"><ele>943.0</ele><time>2026-04-04T08:06:50.986Z</time></trkpt><trkpt lat="43.8407183" lon="11.6081183"><ele>942.0</ele><time>2026-04-04T08:06:52.986Z</time></trkpt><trkpt lat="43.8406633" lon="11.6080183"><ele>941.0</ele><time>2026-04-04T08:06:54.985Z</time></trkpt><trkpt lat="43.8405817" lon="11.6078867"><ele>940.0</ele><time>2026-04-04T08:06:56.986Z</time></trkpt><trkpt lat="43.8405467" lon="11.6078083"><ele>939.0</ele><time>2026-04-04T08:06:57.986Z</time></trkpt><trkpt lat="43.8405133" lon="11.607725"><ele>938.3333333333334</ele><time>2026-04-04T08:06:58.985Z</time></trkpt><trkpt lat="43.840485" lon="11.6076467"><ele>937.6666666666667</ele><time>2026-04-04T08:06:59.984Z</time></trkpt><trkpt lat="43.84045" lon="11.60752"><ele>937.0</ele><time>2026-04-04T08:07:01.988Z</time></trkpt><trkpt lat="43.84044" lon="11.6074233"><ele>936.3333333333334</ele><time>2026-04-04T08:07:03.985Z</time></trkpt><trkpt lat="43.840415" lon="11.6072933"><ele>935.6666666666667</ele><time>2026-04-04T08:07:06.985Z</time></trkpt><trkpt lat="43.840375" lon="11.607135"><ele>935.0</ele><time>2026-04-04T08:07:08.985Z</time></trkpt><trkpt lat="43.8403433" lon="11.6070333"><ele>934.1428571428573</ele><time>2026-04-04T08:07:09.985Z</time></trkpt><trkpt lat="43.8403033" lon="11.6069433"><ele>933.2857142857143</ele><time>2026-04-04T08:07:10.986Z</time></trkpt><trkpt lat="43.840265" lon="11.6068667"><ele>932.4285714285716</ele><time>2026-04-04T08:07:11.985Z</time></trkpt><trkpt lat="43.8402233" lon="11.6067983"><ele>931.5714285714287</ele><time>2026-04-04T08:07:12.985Z</time></trkpt><trkpt lat="43.84018" lon="11.6067283"><ele>930.7142857142858</ele><time>2026-04-04T08:07:13.988Z</time></trkpt><trkpt lat="43.8401417" lon="11.6066517"><ele>929.8571428571429</ele><time>2026-04-04T08:07:14.985Z</time></trkpt><trkpt lat="43.8401" lon="11.6065633"><ele>929.0</ele><time>2026-04-04T08:07:15.986Z</time></trkpt><trkpt lat="43.840065" lon="11.606475"><ele>932.4000000000001</ele><time>2026-04-04T08:07:16.986Z</time></trkpt><trkpt lat="43.8400317" lon="11.6063917"><ele>935.8000000000001</ele><time>2026-04-04T08:07:17.985Z</time></trkpt><trkpt lat="43.84001" lon="11.60624"><ele>939.1999999999999</ele><time>2026-04-04T08:07:19.991Z</time></trkpt><trkpt lat="43.839995" lon="11.60609"><ele>942.5999999999999</ele><time>2026-04-04T08:07:21.987Z</time></trkpt><trkpt lat="43.8399933" lon="11.6059333"><ele>946.0</ele><time>2026-04-04T08:07:23.983Z</time></trkpt><trkpt lat="43.83998" lon="11.6058433"><ele>946.5714285714287</ele><time>2026-04-04T08:07:24.985Z</time></trkpt><trkpt lat="43.8399717" lon="11.60575"><ele>947.1428571428571</ele><time>2026-04-04T08:07:25.987Z</time></trkpt><trkpt lat="43.8399667" lon="11.605645"><ele>947.7142857142858</ele><time>2026-04-04T08:07:26.985Z</time></trkpt><trkpt lat="43.83996" lon="11.6055417"><ele>948.2857142857143</ele><time>2026-04-04T08:07:27.986Z</time></trkpt><trkpt lat="43.83995" lon="11.6054333"><ele>948.8571428571429</ele><time>2026-04-04T08:07:28.988Z</time></trkpt><trkpt lat="43.8399333" lon="11.6053367"><ele>949.4285714285714</ele><time>2026-04-04T08:07:29.987Z</time></trkpt><trkpt lat="43.83991" lon="11.6052383"><ele>950.0</ele><time>2026-04-04T08:07:30.985Z</time></trkpt><trkpt lat="43.8398733" lon="11.6051433"><ele>950.4285714285714</ele><time>2026-04-04T08:07:31.989Z</time></trkpt><trkpt lat="43.839825" lon="11.6050517"><ele>950.8571428571429</ele><time>2026-04-04T08:07:32.985Z</time></trkpt><trkpt lat="43.839775" lon="11.6049617"><ele>951.2857142857143</ele><time>2026-04-04T08:07:33.985Z</time></trkpt><trkpt lat="43.8397217" lon="11.6048867"><ele>951.7142857142858</ele><time>2026-04-04T08:07:34.985Z</time></trkpt><trkpt lat="43.8396633" lon="11.6048233"><ele>952.1428571428571</ele><time>2026-04-04T08:07:35.985Z</time></trkpt><trkpt lat="43.8396117" lon="11.60477"><ele>952.5714285714287</ele><time>2026-04-04T08:07:36.985Z</time></trkpt><trkpt lat="43.8395633" lon="11.6047117"><ele>953.0</ele><time>2026-04-04T08:07:37.991Z</time></trkpt><trkpt lat="43.83951" lon="11.6046517"><ele>953.0000000000001</ele><time>2026-04-04T08:07:38.985Z</time></trkpt><trkpt lat="43.839455" lon="11.6045883"><ele>953.0</ele><time>2026-04-04T08:07:39.987Z</time></trkpt><trkpt lat="43.8394033" lon="11.604515"><ele>953.0</ele><time>2026-04-04T08:07:40.987Z</time></trkpt><trkpt lat="43.8393483" lon="11.604445"><ele>953.0</ele><time>2026-04-04T08:07:41.986Z</time></trkpt><trkpt lat="43.8392883" lon="11.604395"><ele>953.0000000000001</ele><time>2026-04-04T08:07:42.986Z</time></trkpt><trkpt lat="43.8391917" lon="11.6043133"><ele>953.0</ele><time>2026-04-04T08:07:44.985Z</time></trkpt><trkpt lat="43.8391033" lon="11.604245"><ele>953.8333333333334</ele><time>2026-04-04T08:07:46.986Z</time></trkpt><trkpt lat="43.8390083" lon="11.60417"><ele>954.6666666666667</ele><time>2026-04-04T08:07:48.988Z</time></trkpt><trkpt lat="43.838955" lon="11.6041117"><ele>955.5</ele><time>2026-04-04T08:07:49.987Z</time></trkpt><trkpt lat="43.8389083" lon="11.6040517"><ele>956.3333333333333</ele><time>2026-04-04T08:07:50.984Z</time></trkpt><trkpt lat="43.8388583" lon="11.6039933"><ele>957.1666666666666</ele><time>2026-04-04T08:07:51.986Z</time></trkpt><trkpt lat="43.8387617" lon="11.6038633"><ele>958.0</ele><time>2026-04-04T08:07:53.985Z</time></trkpt><trkpt lat="43.83871" lon="11.6038067"><ele>958.0</ele><time>2026-04-04T08:07:54.985Z</time></trkpt><trkpt lat="43.8386433" lon="11.60377"><ele>958.0</ele><time>2026-04-04T08:07:55.989Z</time></trkpt><trkpt lat="43.83858" lon="11.6037667"><ele>958.0</ele><time>2026-04-04T08:07:56.985Z</time></trkpt><trkpt lat="43.83847" lon="11.6037817"><ele>958.0</ele><time>2026-04-04T08:07:58.986Z</time></trkpt><trkpt lat="43.838375" lon="11.6038233"><ele>958.0</ele><time>2026-04-04T08:08:00.985Z</time></trkpt><trkpt lat="43.838265" lon="11.6039083"><ele>959.1666666666666</ele><time>2026-04-04T08:08:02.986Z</time></trkpt><trkpt lat="43.8382067" lon="11.6039567"><ele>960.3333333333333</ele><time>2026-04-04T08:08:03.986Z</time></trkpt><trkpt lat="43.8381133" lon="11.6040333"><ele>961.5</ele><time>2026-04-04T08:08:05.984Z</time></trkpt><trkpt lat="43.8380583" lon="11.6041083"><ele>962.6666666666667</ele><time>2026-04-04T08:08:07.989Z</time></trkpt><trkpt lat="43.8379933" lon="11.6041767"><ele>963.8333333333334</ele><time>2026-04-04T08:08:09.987Z</time></trkpt><trkpt lat="43.837915" lon="11.604255"><ele>965.0</ele><time>2026-04-04T08:08:11.986Z</time></trkpt><trkpt lat="43.8378117" lon="11.6043317"><ele>965.0</ele><time>2026-04-04T08:08:13.985Z</time></trkpt><trkpt lat="43.8377033" lon="11.6044033"><ele>965.0</ele><time>2026-04-04T08:08:15.986Z</time></trkpt><trkpt lat="43.8376017" lon="11.6045017"><ele>965.0</ele><time>2026-04-04T08:08:17.988Z</time></trkpt><trkpt lat="43.8375033" lon="11.6046083"><ele>965.0</ele><time>2026-04-04T08:08:19.987Z</time></trkpt><trkpt lat="43.8374167" lon="11.6046833"><ele>968.6</ele><time>2026-04-04T08:08:21.984Z</time></trkpt><trkpt lat="43.83732" lon="11.6047217"><ele>972.2</ele><time>2026-04-04T08:08:23.985Z</time></trkpt><trkpt lat="43.8372067" lon="11.6047417"><ele>975.8</ele><time>2026-04-04T08:08:25.986Z</time></trkpt><trkpt lat="43.8371067" lon="11.604755"><ele>979.4</ele><time>2026-04-04T08:08:27.984Z</time></trkpt><trkpt lat="43.8370083" lon="11.6047733"><ele>983.0</ele><time>2026-04-04T08:08:29.983Z</time></trkpt><trkpt lat="43.8369233" lon="11.6047917"><ele>983.0</ele><time>2026-04-04T08:08:31.985Z</time></trkpt><trkpt lat="43.8368483" lon="11.60483"><ele>983.0</ele><time>2026-04-04T08:08:33.984Z</time></trkpt><trkpt lat="43.8367817" lon="11.6048967"><ele>983.0</ele><time>2026-04-04T08:08:35.973Z</time></trkpt><trkpt lat="43.8366833" lon="11.6049633"><ele>983.0</ele><time>2026-04-04T08:08:37.987Z</time></trkpt><trkpt lat="43.8365783" lon="11.6050083"><ele>983.0</ele><time>2026-04-04T08:08:39.984Z</time></trkpt><trkpt lat="43.8365083" lon="11.6050183"><ele>984.6666666666667</ele><time>2026-04-04T08:08:40.986Z</time></trkpt><trkpt lat="43.8364067" lon="11.60503"><ele>986.3333333333334</ele><time>2026-04-04T08:08:42.984Z</time></trkpt><trkpt lat="43.8363283" lon="11.6050267"><ele>988.0</ele><time>2026-04-04T08:08:44.975Z</time></trkpt><trkpt lat="43.8362467" lon="11.6050083"><ele>989.6666666666667</ele><time>2026-04-04T08:08:59.983Z</time></trkpt><trkpt lat="43.8361733" lon="11.6049817"><ele>991.3333333333334</ele><time>2026-04-04T08:09:03.987Z</time></trkpt><trkpt lat="43.8361033" lon="11.6049683"><ele>993.0</ele><time>2026-04-04T08:09:06.986Z</time></trkpt><trkpt lat="43.8360383" lon="11.6049467"><ele>993.0</ele><time>2026-04-04T08:09:09.985Z</time></trkpt><trkpt lat="43.8359833" lon="11.60489"><ele>993.0</ele><time>2026-04-04T08:09:12.987Z</time></trkpt><trkpt lat="43.8359283" lon="11.6048183"><ele>993.0</ele><time>2026-04-04T08:09:14.983Z</time></trkpt><trkpt lat="43.8358433" lon="11.6047283"><ele>993.0</ele><time>2026-04-04T08:09:16.975Z</time></trkpt><trkpt lat="43.8357833" lon="11.6046867"><ele>993.0</ele><time>2026-04-04T08:09:17.986Z</time></trkpt><trkpt lat="43.8357267" lon="11.6046467"><ele>993.0</ele><time>2026-04-04T08:09:18.985Z</time></trkpt><trkpt lat="43.83564" lon="11.6045933"><ele>992.8333333333334</ele><time>2026-04-04T08:09:20.985Z</time></trkpt><trkpt lat="43.8355683" lon="11.6045283"><ele>992.6666666666667</ele><time>2026-04-04T08:09:22.985Z</time></trkpt><trkpt lat="43.8355167" lon="11.6044667"><ele>992.5</ele><time>2026-04-04T08:09:24.986Z</time></trkpt><trkpt lat="43.8354517" lon="11.60441"><ele>992.3333333333334</ele><time>2026-04-04T08:09:26.985Z</time></trkpt><trkpt lat="43.83534" lon="11.6043283"><ele>992.1666666666667</ele><time>2026-04-04T08:09:28.985Z</time></trkpt><trkpt lat="43.83528" lon="11.6042867"><ele>992.0</ele><time>2026-04-04T08:09:29.984Z</time></trkpt><trkpt lat="43.835175" lon="11.6042233"><ele>994.8333333333334</ele><time>2026-04-04T08:09:31.986Z</time></trkpt><trkpt lat="43.835075" lon="11.6041733"><ele>997.6666666666667</ele><time>2026-04-04T08:09:33.985Z</time></trkpt><trkpt lat="43.83496" lon="11.604125"><ele>1000.5</ele><time>2026-04-04T08:09:35.985Z</time></trkpt><trkpt lat="43.8348883" lon="11.6041033"><ele>1003.3333333333333</ele><time>2026-04-04T08:09:36.986Z</time></trkpt><trkpt lat="43.83482" lon="11.60409"><ele>1006.1666666666666</ele><time>2026-04-04T08:09:37.987Z</time></trkpt><trkpt lat="43.8347533" lon="11.60409"><ele>1009.0</ele><time>2026-04-04T08:09:38.986Z</time></trkpt><trkpt lat="43.8346567" lon="11.6041133"><ele>1009.0</ele><time>2026-04-04T08:09:40.986Z</time></trkpt><trkpt lat="43.834585" lon="11.6041517"><ele>1009.0000000000001</ele><time>2026-04-04T08:09:43.988Z</time></trkpt><trkpt lat="43.8345433" lon="11.6040467"><ele>1009.0000000000001</ele><time>2026-04-04T08:09:54.975Z</time></trkpt><trkpt lat="43.8345333" lon="11.6039317"><ele>1009.0</ele><time>2026-04-04T08:09:56.985Z</time></trkpt><trkpt lat="43.8345167" lon="11.60379"><ele>1009.0</ele><time>2026-04-04T08:09:58.985Z</time></trkpt><trkpt lat="43.8344933" lon="11.6036383"><ele>1007.9999999999999</ele><time>2026-04-04T08:10:00.987Z</time></trkpt><trkpt lat="43.8344583" lon="11.6035133"><ele>1007.0</ele><time>2026-04-04T08:10:02.984Z</time></trkpt><trkpt lat="43.834415" lon="11.60344"><ele>1006.0</ele><time>2026-04-04T08:10:03.985Z</time></trkpt><trkpt lat="43.8343567" lon="11.6033783"><ele>1005.0</ele><time>2026-04-04T08:10:04.985Z</time></trkpt><trkpt lat="43.8342583" lon="11.60328"><ele>1003.9999999999999</ele><time>2026-04-04T08:10:06.988Z</time></trkpt><trkpt lat="43.8342" lon="11.6032367"><ele>1003.0</ele><time>2026-04-04T08:10:07.987Z</time></trkpt><trkpt lat="43.83414" lon="11.6031983"><ele>1002.9999999999999</ele><time>2026-04-04T08:10:08.984Z</time></trkpt><trkpt lat="43.8340767" lon="11.6031567"><ele>1003.0</ele><time>2026-04-04T08:10:09.985Z</time></trkpt><trkpt lat="43.83401" lon="11.60312"><ele>1003.0</ele><time>2026-04-04T08:10:10.985Z</time></trkpt><trkpt lat="43.8339417" lon="11.6031017"><ele>1003.0</ele><time>2026-04-04T08:10:11.983Z</time></trkpt><trkpt lat="43.8338267" lon="11.6031017"><ele>1002.9999999999999</ele><time>2026-04-04T08:10:13.987Z</time></trkpt><trkpt lat="43.833735" lon="11.6031417"><ele>1003.0</ele><time>2026-04-04T08:10:15.986Z</time></trkpt><trkpt lat="43.8336617" lon="11.6032083"><ele>1002.9999999999999</ele><time>2026-04-04T08:10:17.986Z</time></trkpt><trkpt lat="43.8336133" lon="11.6032867"><ele>1003.0</ele><time>2026-04-04T08:10:19.986Z</time></trkpt><trkpt lat="43.8335533" lon="11.60337"><ele>1003.0</ele><time>2026-04-04T08:10:21.985Z</time></trkpt><trkpt lat="43.83349" lon="11.6034617"><ele>1003.0</ele><time>2026-04-04T08:10:23.986Z</time></trkpt><trkpt lat="43.833435" lon="11.603535"><ele>1002.9999999999999</ele><time>2026-04-04T08:10:31.986Z</time></trkpt><trkpt lat="43.833385" lon="11.6036"><ele>1003.0</ele><time>2026-04-04T08:10:35.986Z</time></trkpt><trkpt lat="43.8332583" lon="11.603625"><ele>1002.4999999999999</ele><time>2026-04-04T08:10:47.985Z</time></trkpt><trkpt lat="43.8331717" lon="11.6036033"><ele>1002.0</ele><time>2026-04-04T08:10:51.985Z</time></trkpt><trkpt lat="43.8331" lon="11.6035783"><ele>1001.5</ele><time>2026-04-04T08:10:54.987Z</time></trkpt><trkpt lat="43.8330433" lon="11.603535"><ele>1001.0</ele><time>2026-04-04T08:10:57.986Z</time></trkpt><trkpt lat="43.8329533" lon="11.60352"><ele>1000.4999999999999</ele><time>2026-04-04T08:11:01.987Z</time></trkpt><trkpt lat="43.83288" lon="11.6035283"><ele>1000.0</ele><time>2026-04-04T08:11:04.986Z</time></trkpt><trkpt lat="43.8328167" lon="11.60353"><ele>1000.0</ele><time>2026-04-04T08:11:06.987Z</time></trkpt><trkpt lat="43.83274" lon="11.603505"><ele>1000.0</ele><time>2026-04-04T08:11:10.986Z</time></trkpt><trkpt lat="43.83267" lon="11.6034767"><ele>1000.0</ele><time>2026-04-04T08:11:13.988Z</time></trkpt><trkpt lat="43.8326033" lon="11.6034467"><ele>1000.0</ele><time>2026-04-04T08:11:15.987Z</time></trkpt><trkpt lat="43.8325217" lon="11.6033917"><ele>1000.0</ele><time>2026-04-04T08:11:18.987Z</time></trkpt><trkpt lat="43.83237" lon="11.60337"><ele>999.4</ele><time>2026-04-04T08:11:31.986Z</time></trkpt><trkpt lat="43.8324383" lon="11.60333"><ele>998.8</ele><time>2026-04-04T08:12:36.987Z</time></trkpt><trkpt lat="43.8325283" lon="11.6034583"><ele>998.2</ele><time>2026-04-04T08:12:52.985Z</time></trkpt><trkpt lat="43.8325367" lon="11.6035483"><ele>997.6</ele><time>2026-04-04T08:12:57.985Z</time></trkpt><trkpt lat="43.832505" lon="11.6037233"><ele>997.0</ele><time>2026-04-04T08:13:53.986Z</time></trkpt><trkpt lat="43.832385" lon="11.6038583"><ele>999.2</ele><time>2026-04-04T08:14:34.989Z</time></trkpt><trkpt lat="43.83226" lon="11.6039233"><ele>1001.4000000000001</ele><time>2026-04-04T08:14:49.987Z</time></trkpt><trkpt lat="43.8322133" lon="11.60384"><ele>1003.5999999999999</ele><time>2026-04-04T08:14:59.985Z</time></trkpt><trkpt lat="43.8321583" lon="11.60379"><ele>1005.8</ele><time>2026-04-04T08:15:05.986Z</time></trkpt><trkpt lat="43.8320317" lon="11.6038417"><ele>1008.0</ele><time>2026-04-04T08:15:32.984Z</time></trkpt><trkpt lat="43.83188" lon="11.60388"><ele>1006.1666666666666</ele><time>2026-04-04T08:15:47.986Z</time></trkpt><trkpt lat="43.8318" lon="11.6038867"><ele>1004.3333333333333</ele><time>2026-04-04T08:15:51.985Z</time></trkpt><trkpt lat="43.8317117" lon="11.603745"><ele>1002.5</ele><time>2026-04-04T08:16:06.976Z</time></trkpt><trkpt lat="43.8316583" lon="11.6036933"><ele>1000.6666666666666</ele><time>2026-04-04T08:16:09.985Z</time></trkpt><trkpt lat="43.83159" lon="11.6037083"><ele>998.8333333333333</ele><time>2026-04-04T08:16:11.985Z</time></trkpt><trkpt lat="43.8315" lon="11.6036883"><ele>997.0</ele><time>2026-04-04T08:16:12.986Z</time></trkpt><trkpt lat="43.8314083" lon="11.6036733"><ele>996.9999999999999</ele><time>2026-04-04T08:16:13.986Z</time></trkpt><trkpt lat="43.83132" lon="11.6036617"><ele>997.0</ele><time>2026-04-04T08:16:14.984Z</time></trkpt><trkpt lat="43.83123" lon="11.60367"><ele>997.0</ele><time>2026-04-04T08:16:15.986Z</time></trkpt><trkpt lat="43.8311433" lon="11.60368"><ele>997.0</ele><time>2026-04-04T08:16:16.987Z</time></trkpt><trkpt lat="43.8310667" lon="11.603675"><ele>996.9999999999999</ele><time>2026-04-04T08:16:17.983Z</time></trkpt><trkpt lat="43.8310017" lon="11.6036733"><ele>997.0</ele><time>2026-04-04T08:16:18.985Z</time></trkpt><trkpt lat="43.8308833" lon="11.6036983"><ele>994.8</ele><time>2026-04-04T08:16:20.984Z</time></trkpt><trkpt lat="43.8307933" lon="11.6037883"><ele>992.6</ele><time>2026-04-04T08:16:22.987Z</time></trkpt><trkpt lat="43.83075" lon="11.60387"><ele>990.3999999999999</ele><time>2026-04-04T08:16:25.987Z</time></trkpt><trkpt lat="43.8306567" lon="11.6038783"><ele>988.1999999999999</ele><time>2026-04-04T08:19:39.985Z</time></trkpt><trkpt lat="43.83055" lon="11.60388"><ele>986.0</ele><time>2026-04-04T08:19:41.985Z</time></trkpt><trkpt lat="43.8304733" lon="11.6038483"><ele>986.0</ele><time>2026-04-04T08:19:43.987Z</time></trkpt><trkpt lat="43.83039" lon="11.6038383"><ele>985.9999999999999</ele><time>2026-04-04T08:19:45.986Z</time></trkpt><trkpt lat="43.8302917" lon="11.6038367"><ele>985.9999999999999</ele><time>2026-04-04T08:19:47.985Z</time></trkpt><trkpt lat="43.8301883" lon="11.6037817"><ele>986.0</ele><time>2026-04-04T08:19:49.986Z</time></trkpt><trkpt lat="43.8300683" lon="11.6037467"><ele>986.0</ele><time>2026-04-04T08:19:51.985Z</time></trkpt><trkpt lat="43.8299683" lon="11.6037033"><ele>986.0000000000001</ele><time>2026-04-04T08:19:53.984Z</time></trkpt><trkpt lat="43.829905" lon="11.6037733"><ele>986.0</ele><time>2026-04-04T08:19:55.989Z</time></trkpt><trkpt lat="43.8298267" lon="11.603835"><ele>986.0</ele><time>2026-04-04T08:19:57.986Z</time></trkpt><trkpt lat="43.8297433" lon="11.6038783"><ele>986.0</ele><time>2026-04-04T08:19:59.975Z</time></trkpt><trkpt lat="43.8296933" lon="11.60396"><ele>986.0000000000001</ele><time>2026-04-04T08:20:01.988Z</time></trkpt><trkpt lat="43.8297" lon="11.6040617"><ele>986.0</ele><time>2026-04-04T08:20:03.986Z</time></trkpt><trkpt lat="43.829755" lon="11.6041533"><ele>986.0</ele><time>2026-04-04T08:20:05.985Z</time></trkpt><trkpt lat="43.8298033" lon="11.6042133"><ele>986.0</ele><time>2026-04-04T08:20:06.985Z</time></trkpt><trkpt lat="43.8298267" lon="11.604295"><ele>986.0</ele><time>2026-04-04T08:20:07.987Z</time></trkpt><trkpt lat="43.82987" lon="11.6044367"><ele>986.0</ele><time>2026-04-04T08:20:09.985Z</time></trkpt><trkpt lat="43.829875" lon="11.6045417"><ele>986.0</ele><time>2026-04-04T08:20:10.985Z</time></trkpt><trkpt lat="43.8298633" lon="11.6046283"><ele>986.0</ele><time>2026-04-04T08:20:11.986Z</time></trkpt><trkpt lat="43.8298083" lon="11.6046833"><ele>986.0</ele><time>2026-04-04T08:20:12.985Z</time></trkpt><trkpt lat="43.8297517" lon="11.6047333"><ele>984.6666666666667</ele><time>2026-04-04T08:20:13.987Z</time></trkpt><trkpt lat="43.8296817" lon="11.6047883"><ele>983.3333333333334</ele><time>2026-04-04T08:20:14.985Z</time></trkpt><trkpt lat="43.829615" lon="11.6048417"><ele>982.0</ele><time>2026-04-04T08:20:15.985Z</time></trkpt><trkpt lat="43.8295483" lon="11.6048717"><ele>980.6666666666667</ele><time>2026-04-04T08:20:16.986Z</time></trkpt><trkpt lat="43.82943" lon="11.6048933"><ele>979.3333333333334</ele><time>2026-04-04T08:20:18.986Z</time></trkpt><trkpt lat="43.829355" lon="11.60499"><ele>978.0</ele><time>2026-04-04T08:20:20.985Z</time></trkpt><trkpt lat="43.82926" lon="11.6050667"><ele>979.8</ele><time>2026-04-04T08:20:22.985Z</time></trkpt><trkpt lat="43.8292067" lon="11.605195"><ele>981.5999999999999</ele><time>2026-04-04T08:20:24.986Z</time></trkpt><trkpt lat="43.8291583" lon="11.6052833"><ele>983.4000000000001</ele><time>2026-04-04T08:20:26.986Z</time></trkpt><trkpt lat="43.8290867" lon="11.60538"><ele>985.2</ele><time>2026-04-04T08:20:28.985Z</time></trkpt><trkpt lat="43.82899" lon="11.6055017"><ele>987.0</ele><time>2026-04-04T08:20:30.985Z</time></trkpt><trkpt lat="43.8289417" lon="11.60557"><ele>987.0</ele><time>2026-04-04T08:20:31.988Z</time></trkpt><trkpt lat="43.8288517" lon="11.6056783"><ele>987.0</ele><time>2026-04-04T08:20:33.985Z</time></trkpt><trkpt lat="43.828805" lon="11.6057733"><ele>987.0</ele><time>2026-04-04T08:20:35.985Z</time></trkpt><trkpt lat="43.82875" lon="11.605865"><ele>987.0</ele><time>2026-04-04T08:20:37.986Z</time></trkpt><trkpt lat="43.828705" lon="11.6059367"><ele>987.0</ele><time>2026-04-04T08:20:39.986Z</time></trkpt><trkpt lat="43.8286667" lon="11.60604"><ele>987.0</ele><time>2026-04-04T08:20:41.985Z</time></trkpt><trkpt lat="43.8286217" lon="11.606215"><ele>985.4285714285714</ele><time>2026-04-04T08:20:43.988Z</time></trkpt><trkpt lat="43.8285883" lon="11.6063067"><ele>983.8571428571429</ele><time>2026-04-04T08:20:44.986Z</time></trkpt><trkpt lat="43.8285367" lon="11.6063833"><ele>982.2857142857142</ele><time>2026-04-04T08:20:45.987Z</time></trkpt><trkpt lat="43.8284683" lon="11.6064317"><ele>980.7142857142857</ele><time>2026-04-04T08:20:46.986Z</time></trkpt><trkpt lat="43.828395" lon="11.60646"><ele>979.1428571428571</ele><time>2026-04-04T08:20:47.985Z</time></trkpt><trkpt lat="43.828325" lon="11.60648"><ele>977.5714285714284</ele><time>2026-04-04T08:20:48.985Z</time></trkpt><trkpt lat="43.8282517" lon="11.6064833"><ele>975.9999999999999</ele><time>2026-04-04T08:20:49.988Z</time></trkpt><trkpt lat="43.82818" lon="11.60649"><ele>980.4</ele><time>2026-04-04T08:20:50.984Z</time></trkpt><trkpt lat="43.8281133" lon="11.606495"><ele>984.8</ele><time>2026-04-04T08:20:51.986Z</time></trkpt><trkpt lat="43.82801" lon="11.606515"><ele>989.1999999999999</ele><time>2026-04-04T08:20:53.985Z</time></trkpt><trkpt lat="43.827955" lon="11.60661"><ele>993.5999999999999</ele><time>2026-04-04T08:20:56.985Z</time></trkpt><trkpt lat="43.8278867" lon="11.6066867"><ele>998.0</ele><time>2026-04-04T08:20:59.987Z</time></trkpt><trkpt lat="43.82783" lon="11.6068067"><ele>998.0000000000001</ele><time>2026-04-04T08:21:06.975Z</time></trkpt><trkpt lat="43.8278333" lon="11.6069333"><ele>998.0</ele><time>2026-04-04T08:21:10.984Z</time></trkpt><trkpt lat="43.82785" lon="11.60703"><ele>998.0</ele><time>2026-04-04T08:21:12.984Z</time></trkpt><trkpt lat="43.82787" lon="11.6071217"><ele>998.0</ele><time>2026-04-04T08:21:14.984Z</time></trkpt><trkpt lat="43.8279083" lon="11.6072217"><ele>998.0000000000001</ele><time>2026-04-04T08:21:17.984Z</time></trkpt><trkpt lat="43.8279183" lon="11.607335"><ele>998.0</ele><time>2026-04-04T08:21:20.986Z</time></trkpt><trkpt lat="43.8279233" lon="11.6074467"><ele>995.6666666666667</ele><time>2026-04-04T08:21:22.984Z</time></trkpt><trkpt lat="43.8279383" lon="11.6075433"><ele>993.3333333333334</ele><time>2026-04-04T08:21:23.983Z</time></trkpt><trkpt lat="43.82793" lon="11.607665"><ele>991.0</ele><time>2026-04-04T08:21:25.988Z</time></trkpt><trkpt lat="43.82787" lon="11.6078067"><ele>988.6666666666667</ele><time>2026-04-04T08:21:27.984Z</time></trkpt><trkpt lat="43.827825" lon="11.6078867"><ele>986.3333333333334</ele><time>2026-04-04T08:21:28.985Z</time></trkpt><trkpt lat="43.8277767" lon="11.6079783"><ele>984.0</ele><time>2026-04-04T08:21:29.986Z</time></trkpt><trkpt lat="43.8277233" lon="11.60806"><ele>986.3333333333334</ele><time>2026-04-04T08:21:30.984Z</time></trkpt><trkpt lat="43.827665" lon="11.6081317"><ele>988.6666666666667</ele><time>2026-04-04T08:21:31.986Z</time></trkpt><trkpt lat="43.8276083" lon="11.60819"><ele>991.0</ele><time>2026-04-04T08:21:32.985Z</time></trkpt><trkpt lat="43.82751" lon="11.6083"><ele>993.3333333333334</ele><time>2026-04-04T08:21:34.985Z</time></trkpt><trkpt lat="43.8274533" lon="11.6083883"><ele>995.6666666666667</ele><time>2026-04-04T08:21:35.984Z</time></trkpt><trkpt lat="43.8274267" lon="11.6084683"><ele>998.0</ele><time>2026-04-04T08:21:36.986Z</time></trkpt><trkpt lat="43.8274033" lon="11.6085567"><ele>998.0000000000001</ele><time>2026-04-04T08:21:37.986Z</time></trkpt><trkpt lat="43.827415" lon="11.6086533"><ele>998.0</ele><time>2026-04-04T08:21:38.983Z</time></trkpt><trkpt lat="43.8274" lon="11.6087567"><ele>998.0</ele><time>2026-04-04T08:21:39.986Z</time></trkpt><trkpt lat="43.8274083" lon="11.6088633"><ele>998.0</ele><time>2026-04-04T08:21:40.984Z</time></trkpt><trkpt lat="43.8273783" lon="11.6090033"><ele>998.0000000000001</ele><time>2026-04-04T08:21:42.985Z</time></trkpt><trkpt lat="43.8273333" lon="11.6091033"><ele>998.0</ele><time>2026-04-04T08:21:44.986Z</time></trkpt><trkpt lat="43.827265" lon="11.6092"><ele>995.0</ele><time>2026-04-04T08:21:46.985Z</time></trkpt><trkpt lat="43.82714" lon="11.60917"><ele>992.0</ele><time>2026-04-04T08:21:48.984Z</time></trkpt><trkpt lat="43.82707" lon="11.6091267"><ele>989.0</ele><time>2026-04-04T08:21:49.986Z</time></trkpt><trkpt lat="43.8269933" lon="11.60908"><ele>986.0</ele><time>2026-04-04T08:21:50.985Z</time></trkpt><trkpt lat="43.8269133" lon="11.60903"><ele>983.0</ele><time>2026-04-04T08:21:51.985Z</time></trkpt><trkpt lat="43.8268317" lon="11.6089833"><ele>982.1666666666667</ele><time>2026-04-04T08:21:52.985Z</time></trkpt><trkpt lat="43.8267483" lon="11.60893"><ele>981.3333333333334</ele><time>2026-04-04T08:21:53.987Z</time></trkpt><trkpt lat="43.8266667" lon="11.6088767"><ele>980.5</ele><time>2026-04-04T08:21:54.985Z</time></trkpt><trkpt lat="43.826595" lon="11.6088283"><ele>979.6666666666667</ele><time>2026-04-04T08:21:55.986Z</time></trkpt><trkpt lat="43.8265283" lon="11.6087833"><ele>978.8333333333334</ele><time>2026-04-04T08:21:56.987Z</time></trkpt><trkpt lat="43.826465" lon="11.6087417"><ele>978.0</ele><time>2026-04-04T08:21:57.985Z</time></trkpt><trkpt lat="43.8264017" lon="11.6086917"><ele>977.0</ele><time>2026-04-04T08:21:58.986Z</time></trkpt><trkpt lat="43.8263367" lon="11.6086533"><ele>976.0000000000001</ele><time>2026-04-04T08:21:59.986Z</time></trkpt><trkpt lat="43.8262767" lon="11.6086167"><ele>975.0</ele><time>2026-04-04T08:22:00.985Z</time></trkpt><trkpt lat="43.8262133" lon="11.6085833"><ele>974.0</ele><time>2026-04-04T08:22:01.986Z</time></trkpt><trkpt lat="43.826135" lon="11.6084717"><ele>973.0000000000001</ele><time>2026-04-04T08:22:03.985Z</time></trkpt><trkpt lat="43.8260867" lon="11.6084133"><ele>972.0</ele><time>2026-04-04T08:22:04.985Z</time></trkpt><trkpt lat="43.8260383" lon="11.6083533"><ele>971.0</ele><time>2026-04-04T08:22:05.983Z</time></trkpt><trkpt lat="43.8259567" lon="11.608235"><ele>971.0</ele><time>2026-04-04T08:22:07.986Z</time></trkpt><trkpt lat="43.8258817" lon="11.6081117"><ele>971.0</ele><time>2026-04-04T08:22:09.985Z</time></trkpt><trkpt lat="43.8258033" lon="11.6079983"><ele>971.0</ele><time>2026-04-04T08:22:11.983Z</time></trkpt><trkpt lat="43.8256967" lon="11.6079133"><ele>971.0</ele><time>2026-04-04T08:22:13.987Z</time></trkpt><trkpt lat="43.82562" lon="11.60782"><ele>973.5000000000001</ele><time>2026-04-04T08:22:15.983Z</time></trkpt><trkpt lat="43.8255783" lon="11.6077533"><ele>976.0</ele><time>2026-04-04T08:22:16.985Z</time></trkpt><trkpt lat="43.8254883" lon="11.6076217"><ele>978.5</ele><time>2026-04-04T08:22:18.985Z</time></trkpt><trkpt lat="43.825435" lon="11.6075483"><ele>981.0</ele><time>2026-04-04T08:22:19.986Z</time></trkpt><trkpt lat="43.825385" lon="11.607475"><ele>983.5000000000001</ele><time>2026-04-04T08:22:20.983Z</time></trkpt><trkpt lat="43.82533" lon="11.6074017"><ele>986.0</ele><time>2026-04-04T08:22:21.985Z</time></trkpt><trkpt lat="43.8252817" lon="11.6073317"><ele>986.0000000000001</ele><time>2026-04-04T08:22:22.987Z</time></trkpt><trkpt lat="43.8252133" lon="11.60725"><ele>986.0</ele><time>2026-04-04T08:22:24.985Z</time></trkpt><trkpt lat="43.82516" lon="11.6071983"><ele>986.0</ele><time>2026-04-04T08:22:26.986Z</time></trkpt><trkpt lat="43.825105" lon="11.60714"><ele>986.0</ele><time>2026-04-04T08:22:30.985Z</time></trkpt><trkpt lat="43.825055" lon="11.6070867"><ele>986.0000000000001</ele><time>2026-04-04T08:22:32.983Z</time></trkpt><trkpt lat="43.82499" lon="11.6070017"><ele>986.0</ele><time>2026-04-04T08:22:34.985Z</time></trkpt><trkpt lat="43.8249483" lon="11.606895"><ele>983.5000000000001</ele><time>2026-04-04T08:22:36.985Z</time></trkpt><trkpt lat="43.8249217" lon="11.6068033"><ele>981.0</ele><time>2026-04-04T08:22:38.974Z</time></trkpt><trkpt lat="43.8248583" lon="11.60675"><ele>978.5</ele><time>2026-04-04T08:22:40.984Z</time></trkpt><trkpt lat="43.8247733" lon="11.6067533"><ele>976.0</ele><time>2026-04-04T08:22:42.985Z</time></trkpt><trkpt lat="43.8247083" lon="11.6067733"><ele>973.5000000000001</ele><time>2026-04-04T08:22:43.986Z</time></trkpt><trkpt lat="43.82458" lon="11.6067933"><ele>971.0</ele><time>2026-04-04T08:22:45.985Z</time></trkpt><trkpt lat="43.8245117" lon="11.6068"><ele>971.0000000000001</ele><time>2026-04-04T08:22:46.985Z</time></trkpt><trkpt lat="43.824445" lon="11.60678"><ele>971.0</ele><time>2026-04-04T08:22:48.988Z</time></trkpt><trkpt lat="43.8244183" lon="11.6066967"><ele>971.0</ele><time>2026-04-04T08:22:50.985Z</time></trkpt><trkpt lat="43.8244" lon="11.60659"><ele>971.0</ele><time>2026-04-04T08:22:52.976Z</time></trkpt><trkpt lat="43.8243283" lon="11.6064883"><ele>971.0000000000001</ele><time>2026-04-04T08:24:49.986Z</time></trkpt><trkpt lat="43.8242783" lon="11.6063817"><ele>971.0</ele><time>2026-04-04T08:24:51.985Z</time></trkpt><trkpt lat="43.8242283" lon="11.6062633"><ele>971.3333333333334</ele><time>2026-04-04T08:24:53.983Z</time></trkpt><trkpt lat="43.8241867" lon="11.6061433"><ele>971.6666666666667</ele><time>2026-04-04T08:24:55.986Z</time></trkpt><trkpt lat="43.8241267" lon="11.6060417"><ele>972.0</ele><time>2026-04-04T08:24:57.984Z</time></trkpt><trkpt lat="43.8240583" lon="11.6059733"><ele>972.3333333333333</ele><time>2026-04-04T08:24:59.985Z</time></trkpt><trkpt lat="43.82399" lon="11.6059333"><ele>972.6666666666666</ele><time>2026-04-04T08:25:01.986Z</time></trkpt><trkpt lat="43.8239183" lon="11.60596"><ele>973.0</ele><time>2026-04-04T08:25:04.984Z</time></trkpt><trkpt lat="43.82386" lon="11.606"><ele>973.0</ele><time>2026-04-04T08:25:06.984Z</time></trkpt><trkpt lat="43.8237833" lon="11.6060683"><ele>973.0</ele><time>2026-04-04T08:25:09.985Z</time></trkpt><trkpt lat="43.8237067" lon="11.6061117"><ele>973.0</ele><time>2026-04-04T08:25:11.984Z</time></trkpt><trkpt lat="43.8236117" lon="11.606145"><ele>973.0</ele><time>2026-04-04T08:25:13.986Z</time></trkpt><trkpt lat="43.82351" lon="11.606155"><ele>973.0</ele><time>2026-04-04T08:25:15.985Z</time></trkpt><trkpt lat="43.823385" lon="11.6061633"><ele>971.3333333333333</ele><time>2026-04-04T08:25:17.985Z</time></trkpt><trkpt lat="43.8233217" lon="11.606155"><ele>969.6666666666666</ele><time>2026-04-04T08:25:18.986Z</time></trkpt><trkpt lat="43.8231983" lon="11.606125"><ele>968.0</ele><time>2026-04-04T08:25:20.986Z</time></trkpt><trkpt lat="43.823135" lon="11.6061067"><ele>966.3333333333333</ele><time>2026-04-04T08:25:21.989Z</time></trkpt><trkpt lat="43.8230133" lon="11.6060667"><ele>964.6666666666666</ele><time>2026-04-04T08:25:23.987Z</time></trkpt><trkpt lat="43.8229483" lon="11.6060583"><ele>963.0</ele><time>2026-04-04T08:25:24.984Z</time></trkpt><trkpt lat="43.82288" lon="11.6060517"><ele>963.0</ele><time>2026-04-04T08:25:25.986Z</time></trkpt><trkpt lat="43.8227733" lon="11.6060017"><ele>963.0</ele><time>2026-04-04T08:25:27.985Z</time></trkpt><trkpt lat="43.822715" lon="11.6059033"><ele>963.0</ele><time>2026-04-04T08:25:29.984Z</time></trkpt><trkpt lat="43.8226633" lon="11.605805"><ele>963.0</ele><time>2026-04-04T08:25:31.986Z</time></trkpt><trkpt lat="43.82261" lon="11.6057467"><ele>963.0</ele><time>2026-04-04T08:25:33.986Z</time></trkpt><trkpt lat="43.8225333" lon="11.60577"><ele>963.0</ele><time>2026-04-04T08:25:36.984Z</time></trkpt><trkpt lat="43.82249" lon="11.6058983"><ele>963.0</ele><time>2026-04-04T08:25:39.974Z</time></trkpt><trkpt lat="43.822475" lon="11.60603"><ele>963.0</ele><time>2026-04-04T08:25:41.984Z</time></trkpt><trkpt lat="43.82247" lon="11.6061667"><ele>963.0</ele><time>2026-04-04T08:25:43.986Z</time></trkpt><trkpt lat="43.8224433" lon="11.606335"><ele>963.0</ele><time>2026-04-04T08:25:45.985Z</time></trkpt><trkpt lat="43.822425" lon="11.6064267"><ele>963.0</ele><time>2026-04-04T08:25:46.985Z</time></trkpt><trkpt lat="43.8224167" lon="11.6065283"><ele>963.0</ele><time>2026-04-04T08:25:47.985Z</time></trkpt><trkpt lat="43.8224083" lon="11.60663"><ele>963.0</ele><time>2026-04-04T08:25:48.985Z</time></trkpt><trkpt lat="43.8223983" lon="11.60673"><ele>963.0</ele><time>2026-04-04T08:25:49.985Z</time></trkpt><trkpt lat="43.822395" lon="11.6068283"><ele>963.0</ele><time>2026-04-04T08:25:50.986Z</time></trkpt><trkpt lat="43.8223867" lon="11.6069883"><ele>963.0</ele><time>2026-04-04T08:25:52.985Z</time></trkpt><trkpt lat="43.822375" lon="11.60708"><ele>963.0</ele><time>2026-04-04T08:25:53.986Z</time></trkpt><trkpt lat="43.8223633" lon="11.6071667"><ele>961.1428571428573</ele><time>2026-04-04T08:25:54.984Z</time></trkpt><trkpt lat="43.8223617" lon="11.6072567"><ele>959.2857142857143</ele><time>2026-04-04T08:25:55.987Z</time></trkpt><trkpt lat="43.8223767" lon="11.607345"><ele>957.4285714285716</ele><time>2026-04-04T08:25:56.983Z</time></trkpt><trkpt lat="43.822405" lon="11.607435"><ele>955.5714285714287</ele><time>2026-04-04T08:25:57.985Z</time></trkpt><trkpt lat="43.822435" lon="11.607535"><ele>953.7142857142858</ele><time>2026-04-04T08:25:58.984Z</time></trkpt><trkpt lat="43.8224717" lon="11.6076283"><ele>951.8571428571429</ele><time>2026-04-04T08:25:59.984Z</time></trkpt><trkpt lat="43.8225017" lon="11.6077083"><ele>950.0</ele><time>2026-04-04T08:26:00.987Z</time></trkpt><trkpt lat="43.8225117" lon="11.6078633"><ele>947.5000000000001</ele><time>2026-04-04T08:26:02.985Z</time></trkpt><trkpt lat="43.8224933" lon="11.6079483"><ele>945.0</ele><time>2026-04-04T08:26:03.986Z</time></trkpt><trkpt lat="43.8224567" lon="11.6080417"><ele>942.5</ele><time>2026-04-04T08:26:04.987Z</time></trkpt><trkpt lat="43.8224167" lon="11.60813"><ele>940.0</ele><time>2026-04-04T08:26:05.987Z</time></trkpt><trkpt lat="43.8223717" lon="11.6082183"><ele>937.5000000000001</ele><time>2026-04-04T08:26:06.984Z</time></trkpt><trkpt lat="43.822335" lon="11.6082967"><ele>935.0</ele><time>2026-04-04T08:26:07.987Z</time></trkpt><trkpt lat="43.8222783" lon="11.6084383"><ele>935.0</ele><time>2026-04-04T08:26:09.986Z</time></trkpt><trkpt lat="43.8222017" lon="11.6085067"><ele>935.0</ele><time>2026-04-04T08:26:11.985Z</time></trkpt><trkpt lat="43.8220917" lon="11.6084917"><ele>935.0</ele><time>2026-04-04T08:26:13.986Z</time></trkpt><trkpt lat="43.8219867" lon="11.6084517"><ele>935.0</ele><time>2026-04-04T08:26:15.986Z</time></trkpt><trkpt lat="43.82189" lon="11.6084433"><ele>935.0</ele><time>2026-04-04T08:26:17.985Z</time></trkpt><trkpt lat="43.8217833" lon="11.608415"><ele>933.8</ele><time>2026-04-04T08:26:19.987Z</time></trkpt><trkpt lat="43.821685" lon="11.6083367"><ele>932.6</ele><time>2026-04-04T08:26:21.985Z</time></trkpt><trkpt lat="43.8216367" lon="11.60828"><ele>931.4000000000001</ele><time>2026-04-04T08:26:22.985Z</time></trkpt><trkpt lat="43.82155" lon="11.608185"><ele>930.2</ele><time>2026-04-04T08:26:24.984Z</time></trkpt><trkpt lat="43.8214667" lon="11.6081717"><ele>929.0</ele><time>2026-04-04T08:26:26.985Z</time></trkpt><trkpt lat="43.8213767" lon="11.6081667"><ele>929.0</ele><time>2026-04-04T08:26:29.985Z</time></trkpt><trkpt lat="43.8212933" lon="11.6081233"><ele>929.0000000000001</ele><time>2026-04-04T08:26:32.984Z</time></trkpt><trkpt lat="43.8211967" lon="11.6080717"><ele>929.0000000000001</ele><time>2026-04-04T08:26:34.986Z</time></trkpt><trkpt lat="43.8211017" lon="11.6080167"><ele>929.0</ele><time>2026-04-04T08:26:36.985Z</time></trkpt><trkpt lat="43.8210133" lon="11.60797"><ele>929.0</ele><time>2026-04-04T08:26:38.974Z</time></trkpt><trkpt lat="43.820935" lon="11.6079"><ele>928.8333333333334</ele><time>2026-04-04T08:26:40.986Z</time></trkpt><trkpt lat="43.820845" lon="11.6078083"><ele>928.6666666666667</ele><time>2026-04-04T08:26:42.988Z</time></trkpt><trkpt lat="43.8207967" lon="11.60775"><ele>928.5</ele><time>2026-04-04T08:26:43.987Z</time></trkpt><trkpt lat="43.8207467" lon="11.607685"><ele>928.3333333333333</ele><time>2026-04-04T08:26:44.985Z</time></trkpt><trkpt lat="43.8206733" lon="11.607605"><ele>928.1666666666666</ele><time>2026-04-04T08:26:46.986Z</time></trkpt><trkpt lat="43.820575" lon="11.6075483"><ele>928.0</ele><time>2026-04-04T08:26:49.987Z</time></trkpt><trkpt lat="43.820485" lon="11.60752"><ele>927.9999999999999</ele><time>2026-04-04T08:26:51.988Z</time></trkpt><trkpt lat="43.8204033" lon="11.6074867"><ele>928.0</ele><time>2026-04-04T08:26:53.987Z</time></trkpt><trkpt lat="43.82032" lon="11.607455"><ele>928.0</ele><time>2026-04-04T08:26:55.988Z</time></trkpt><trkpt lat="43.8202417" lon="11.6074483"><ele>928.0</ele><time>2026-04-04T08:26:57.987Z</time></trkpt><trkpt lat="43.8201567" lon="11.6074517"><ele>927.9999999999999</ele><time>2026-04-04T08:26:59.983Z</time></trkpt><trkpt lat="43.8200717" lon="11.607465"><ele>928.0</ele><time>2026-04-04T08:27:01.987Z</time></trkpt><trkpt lat="43.8199967" lon="11.6074833"><ele>925.1666666666666</ele><time>2026-04-04T08:27:03.985Z</time></trkpt><trkpt lat="43.819925" lon="11.607485"><ele>922.3333333333333</ele><time>2026-04-04T08:27:05.986Z</time></trkpt><trkpt lat="43.81985" lon="11.6074933"><ele>919.5</ele><time>2026-04-04T08:27:09.986Z</time></trkpt><trkpt lat="43.8197717" lon="11.60749"><ele>916.6666666666667</ele><time>2026-04-04T08:27:13.987Z</time></trkpt><trkpt lat="43.8196783" lon="11.6075067"><ele>913.8333333333334</ele><time>2026-04-04T08:27:16.986Z</time></trkpt><trkpt lat="43.8196067" lon="11.607535"><ele>911.0</ele><time>2026-04-04T08:27:18.986Z</time></trkpt><trkpt lat="43.8195417" lon="11.6075833"><ele>911.0000000000001</ele><time>2026-04-04T08:27:20.984Z</time></trkpt><trkpt lat="43.8194633" lon="11.6076017"><ele>911.0</ele><time>2026-04-04T08:27:22.985Z</time></trkpt><trkpt lat="43.8193983" lon="11.6076467"><ele>911.0</ele><time>2026-04-04T08:27:24.986Z</time></trkpt><trkpt lat="43.81935" lon="11.6077167"><ele>911.0</ele><time>2026-04-04T08:27:27.985Z</time></trkpt><trkpt lat="43.8193217" lon="11.60783"><ele>911.0000000000001</ele><time>2026-04-04T08:27:31.988Z</time></trkpt><trkpt lat="43.8192983" lon="11.6079367"><ele>911.0</ele><time>2026-04-04T08:27:34.985Z</time></trkpt><trkpt lat="43.8192417" lon="11.6079967"><ele>911.8333333333334</ele><time>2026-04-04T08:27:36.988Z</time></trkpt><trkpt lat="43.8192033" lon="11.6078983"><ele>912.6666666666667</ele><time>2026-04-04T08:38:35.974Z</time></trkpt><trkpt lat="43.8191167" lon="11.6079583"><ele>913.5</ele><time>2026-04-04T08:38:48.986Z</time></trkpt><trkpt lat="43.8190367" lon="11.6080717"><ele>914.3333333333333</ele><time>2026-04-04T08:39:09.985Z</time></trkpt><trkpt lat="43.8190683" lon="11.6081833"><ele>915.1666666666666</ele><time>2026-04-04T08:39:13.985Z</time></trkpt><trkpt lat="43.8191317" lon="11.6081933"><ele>916.0</ele><time>2026-04-04T08:39:16.985Z</time></trkpt><trkpt lat="43.8192483" lon="11.6082883"><ele>916.0</ele><time>2026-04-04T08:39:23.984Z</time></trkpt><trkpt lat="43.81927" lon="11.6084633"><ele>915.9999999999999</ele><time>2026-04-04T08:40:05.985Z</time></trkpt><trkpt lat="43.8193183" lon="11.608535"><ele>915.9999999999999</ele><time>2026-04-04T08:40:08.984Z</time></trkpt><trkpt lat="43.8194083" lon="11.6086117"><ele>916.0</ele><time>2026-04-04T08:40:11.976Z</time></trkpt><trkpt lat="43.8194383" lon="11.6087067"><ele>916.0</ele><time>2026-04-04T08:40:19.987Z</time></trkpt><trkpt lat="43.8194567" lon="11.60882"><ele>917.8</ele><time>2026-04-04T08:40:24.975Z</time></trkpt><trkpt lat="43.8194717" lon="11.6089283"><ele>919.5999999999999</ele><time>2026-04-04T08:40:27.987Z</time></trkpt><trkpt lat="43.8194767" lon="11.6090467"><ele>921.4</ele><time>2026-04-04T08:40:30.985Z</time></trkpt><trkpt lat="43.8195117" lon="11.6092383"><ele>923.2</ele><time>2026-04-04T08:41:15.984Z</time></trkpt><trkpt lat="43.81955" lon="11.609355"><ele>925.0</ele><time>2026-04-04T08:41:18.976Z</time></trkpt><trkpt lat="43.819575" lon="11.609455"><ele>926.9999999999999</ele><time>2026-04-04T08:41:21.986Z</time></trkpt><trkpt lat="43.8195917" lon="11.60955"><ele>929.0</ele><time>2026-04-04T08:41:25.986Z</time></trkpt><trkpt lat="43.81966" lon="11.60962"><ele>931.0</ele><time>2026-04-04T08:41:29.986Z</time></trkpt><trkpt lat="43.819745" lon="11.6096433"><ele>933.0</ele><time>2026-04-04T08:41:32.985Z</time></trkpt><trkpt lat="43.8198333" lon="11.609665"><ele>934.9999999999999</ele><time>2026-04-04T08:41:34.986Z</time></trkpt><trkpt lat="43.819895" lon="11.6096867"><ele>937.0</ele><time>2026-04-04T08:41:35.985Z</time></trkpt><trkpt lat="43.8199933" lon="11.6097083"><ele>936.9999999999999</ele><time>2026-04-04T08:41:37.985Z</time></trkpt><trkpt lat="43.8200733" lon="11.609805"><ele>937.0</ele><time>2026-04-04T08:41:39.984Z</time></trkpt><trkpt lat="43.8201367" lon="11.609875"><ele>937.0</ele><time>2026-04-04T08:41:41.983Z</time></trkpt><trkpt lat="43.8201883" lon="11.6099533"><ele>937.0</ele><time>2026-04-04T08:41:43.987Z</time></trkpt><trkpt lat="43.8202217" lon="11.6100733"><ele>936.9999999999999</ele><time>2026-04-04T08:41:46.985Z</time></trkpt><trkpt lat="43.8202783" lon="11.61016"><ele>937.0</ele><time>2026-04-04T08:41:49.987Z</time></trkpt><trkpt lat="43.8203417" lon="11.6102183"><ele>936.4999999999999</ele><time>2026-04-04T08:41:52.987Z</time></trkpt><trkpt lat="43.820395" lon="11.610285"><ele>936.0</ele><time>2026-04-04T08:41:54.986Z</time></trkpt><trkpt lat="43.8204633" lon="11.610315"><ele>935.5</ele><time>2026-04-04T08:41:56.985Z</time></trkpt><trkpt lat="43.820575" lon="11.610365"><ele>935.0</ele><time>2026-04-04T08:41:58.986Z</time></trkpt><trkpt lat="43.820635" lon="11.610405"><ele>934.4999999999999</ele><time>2026-04-04T08:41:59.986Z</time></trkpt><trkpt lat="43.8206967" lon="11.6104533"><ele>934.0</ele><time>2026-04-04T08:42:00.986Z</time></trkpt><trkpt lat="43.8207483" lon="11.6105033"><ele>933.9999999999999</ele><time>2026-04-04T08:42:01.988Z</time></trkpt><trkpt lat="43.8208367" lon="11.610565"><ele>934.0</ele><time>2026-04-04T08:42:03.989Z</time></trkpt><trkpt lat="43.8208933" lon="11.6106367"><ele>934.0</ele><time>2026-04-04T08:42:05.986Z</time></trkpt><trkpt lat="43.8209333" lon="11.6107083"><ele>934.0</ele><time>2026-04-04T08:42:07.988Z</time></trkpt><trkpt lat="43.8209717" lon="11.61078"><ele>933.9999999999999</ele><time>2026-04-04T08:42:09.986Z</time></trkpt><trkpt lat="43.8210133" lon="11.610875"><ele>934.0</ele><time>2026-04-04T08:42:12.987Z</time></trkpt><trkpt lat="43.8210517" lon="11.61095"><ele>930.4999999999999</ele><time>2026-04-04T08:42:15.986Z</time></trkpt><trkpt lat="43.8210683" lon="11.6110683"><ele>927.0</ele><time>2026-04-04T08:45:55.987Z</time></trkpt><trkpt lat="43.8210867" lon="11.611175"><ele>923.5</ele><time>2026-04-04T08:45:57.985Z</time></trkpt><trkpt lat="43.8210867" lon="11.6113267"><ele>920.0</ele><time>2026-04-04T08:45:59.984Z</time></trkpt><trkpt lat="43.8210717" lon="11.6114683"><ele>916.4999999999999</ele><time>2026-04-04T08:46:01.986Z</time></trkpt><trkpt lat="43.82106" lon="11.611555"><ele>913.0</ele><time>2026-04-04T08:46:03.987Z</time></trkpt><trkpt lat="43.821025" lon="11.61165"><ele>913.0</ele><time>2026-04-04T08:46:06.984Z</time></trkpt><trkpt lat="43.82098" lon="11.6117533"><ele>913.0</ele><time>2026-04-04T08:46:09.985Z</time></trkpt><trkpt lat="43.820995" lon="11.61187"><ele>913.0</ele><time>2026-04-04T08:46:12.986Z</time></trkpt><trkpt lat="43.82107" lon="11.611935"><ele>913.0</ele><time>2026-04-04T08:46:14.983Z</time></trkpt><trkpt lat="43.8211817" lon="11.6119667"><ele>913.0</ele><time>2026-04-04T08:46:16.985Z</time></trkpt><trkpt lat="43.8212683" lon="11.6119933"><ele>917.2</ele><time>2026-04-04T08:46:28.974Z</time></trkpt><trkpt lat="43.8213633" lon="11.612"><ele>921.4</ele><time>2026-04-04T08:46:30.984Z</time></trkpt><trkpt lat="43.8214383" lon="11.612"><ele>925.6000000000001</ele><time>2026-04-04T08:46:32.986Z</time></trkpt><trkpt lat="43.821565" lon="11.6120417"><ele>929.8000000000001</ele><time>2026-04-04T08:46:42.986Z</time></trkpt><trkpt lat="43.821635" lon="11.6120633"><ele>934.0</ele><time>2026-04-04T08:46:44.984Z</time></trkpt><trkpt lat="43.82174" lon="11.6121033"><ele>934.0</ele><time>2026-04-04T08:46:46.985Z</time></trkpt><trkpt lat="43.8218033" lon="11.6121233"><ele>934.0000000000001</ele><time>2026-04-04T08:46:47.986Z</time></trkpt><trkpt lat="43.8219283" lon="11.6121167"><ele>934.0000000000001</ele><time>2026-04-04T08:46:49.987Z</time></trkpt><trkpt lat="43.8220267" lon="11.612075"><ele>934.0</ele><time>2026-04-04T08:46:51.986Z</time></trkpt><trkpt lat="43.8221233" lon="11.612045"><ele>934.0</ele><time>2026-04-04T08:46:53.987Z</time></trkpt><trkpt lat="43.82219" lon="11.6120267"><ele>930.3333333333333</ele><time>2026-04-04T08:46:55.987Z</time></trkpt><trkpt lat="43.8222617" lon="11.6120083"><ele>926.6666666666666</ele><time>2026-04-04T08:46:59.985Z</time></trkpt><trkpt lat="43.8223333" lon="11.6119917"><ele>923.0</ele><time>2026-04-04T08:47:01.987Z</time></trkpt><trkpt lat="43.8224117" lon="11.611985"><ele>919.3333333333333</ele><time>2026-04-04T08:47:03.985Z</time></trkpt><trkpt lat="43.8224867" lon="11.611995"><ele>915.6666666666666</ele><time>2026-04-04T08:47:08.977Z</time></trkpt><trkpt lat="43.8225617" lon="11.6120067"><ele>912.0</ele><time>2026-04-04T08:47:11.985Z</time></trkpt><trkpt lat="43.8226417" lon="11.6120333"><ele>907.1428571428571</ele><time>2026-04-04T08:47:14.985Z</time></trkpt><trkpt lat="43.822715" lon="11.61206"><ele>902.2857142857142</ele><time>2026-04-04T08:47:17.985Z</time></trkpt><trkpt lat="43.8227817" lon="11.612065"><ele>897.4285714285713</ele><time>2026-04-04T08:47:19.987Z</time></trkpt><trkpt lat="43.8228483" lon="11.6120917"><ele>892.5714285714286</ele><time>2026-04-04T08:47:21.985Z</time></trkpt><trkpt lat="43.8229183" lon="11.6121433"><ele>887.7142857142857</ele><time>2026-04-04T08:47:23.985Z</time></trkpt><trkpt lat="43.8229683" lon="11.612205"><ele>882.8571428571429</ele><time>2026-04-04T08:47:25.988Z</time></trkpt><trkpt lat="43.82301" lon="11.6122883"><ele>878.0</ele><time>2026-04-04T08:47:28.986Z</time></trkpt><trkpt lat="43.8230483" lon="11.6124"><ele>878.0000000000001</ele><time>2026-04-04T08:47:31.989Z</time></trkpt><trkpt lat="43.8230833" lon="11.6125"><ele>878.0</ele><time>2026-04-04T08:47:33.986Z</time></trkpt><trkpt lat="43.8231167" lon="11.6126033"><ele>878.0</ele><time>2026-04-04T08:47:35.986Z</time></trkpt><trkpt lat="43.8231583" lon="11.612675"><ele>878.0</ele><time>2026-04-04T08:47:38.983Z</time></trkpt><trkpt lat="43.823155" lon="11.6127883"><ele>878.0000000000001</ele><time>2026-04-04T08:47:46.973Z</time></trkpt><trkpt lat="43.8231433" lon="11.612895"><ele>878.0</ele><time>2026-04-04T08:47:48.985Z</time></trkpt><trkpt lat="43.82313" lon="11.6130117"><ele>879.4285714285714</ele><time>2026-04-04T08:47:50.984Z</time></trkpt><trkpt lat="43.82311" lon="11.6131167"><ele>880.8571428571429</ele><time>2026-04-04T08:47:52.984Z</time></trkpt><trkpt lat="43.8230633" lon="11.6131933"><ele>882.2857142857142</ele><time>2026-04-04T08:47:54.985Z</time></trkpt><trkpt lat="43.8230167" lon="11.6132767"><ele>883.7142857142858</ele><time>2026-04-04T08:47:56.983Z</time></trkpt><trkpt lat="43.82297" lon="11.613345"><ele>885.1428571428572</ele><time>2026-04-04T08:47:58.974Z</time></trkpt><trkpt lat="43.82293" lon="11.613415"><ele>886.5714285714286</ele><time>2026-04-04T08:48:02.986Z</time></trkpt><trkpt lat="43.822875" lon="11.613495"><ele>888.0</ele><time>2026-04-04T08:48:11.975Z</time></trkpt><trkpt lat="43.8228383" lon="11.6135867"><ele>891.1666666666666</ele><time>2026-04-04T08:48:14.983Z</time></trkpt><trkpt lat="43.8227967" lon="11.6136583"><ele>894.3333333333333</ele><time>2026-04-04T08:48:17.984Z</time></trkpt><trkpt lat="43.8227333" lon="11.613735"><ele>897.5</ele><time>2026-04-04T08:48:49.988Z</time></trkpt><trkpt lat="43.8227733" lon="11.61381"><ele>900.6666666666666</ele><time>2026-04-04T08:48:54.985Z</time></trkpt><trkpt lat="43.8228433" lon="11.6137833"><ele>903.8333333333333</ele><time>2026-04-04T08:48:56.984Z</time></trkpt><trkpt lat="43.82292" lon="11.613745"><ele>907.0</ele><time>2026-04-04T08:48:58.984Z</time></trkpt><trkpt lat="43.82301" lon="11.6136867"><ele>903.2</ele><time>2026-04-04T08:49:00.985Z</time></trkpt><trkpt lat="43.8231117" lon="11.6135567"><ele>899.4000000000001</ele><time>2026-04-04T08:49:02.987Z</time></trkpt><trkpt lat="43.8231767" lon="11.61347"><ele>895.5999999999999</ele><time>2026-04-04T08:49:03.984Z</time></trkpt><trkpt lat="43.8232333" lon="11.6133883"><ele>891.8</ele><time>2026-04-04T08:49:04.985Z</time></trkpt><trkpt lat="43.82329" lon="11.6133283"><ele>888.0</ele><time>2026-04-04T08:49:05.985Z</time></trkpt><trkpt lat="43.8233533" lon="11.6132917"><ele>888.0</ele><time>2026-04-04T08:49:06.987Z</time></trkpt><trkpt lat="43.8234167" lon="11.6132483"><ele>888.0</ele><time>2026-04-04T08:49:07.988Z</time></trkpt><trkpt lat="43.823475" lon="11.6131967"><ele>888.0</ele><time>2026-04-04T08:49:08.986Z</time></trkpt><trkpt lat="43.8235283" lon="11.6131317"><ele>888.0</ele><time>2026-04-04T08:49:09.986Z</time></trkpt><trkpt lat="43.8235867" lon="11.613065"><ele>888.0</ele><time>2026-04-04T08:49:10.986Z</time></trkpt><trkpt lat="43.82364" lon="11.6130033"><ele>888.0</ele><time>2026-04-04T08:49:11.985Z</time></trkpt><trkpt lat="43.8237283" lon="11.6129283"><ele>888.3333333333334</ele><time>2026-04-04T08:49:13.989Z</time></trkpt><trkpt lat="43.8237517" lon="11.613025"><ele>888.6666666666667</ele><time>2026-04-04T08:49:16.985Z</time></trkpt><trkpt lat="43.8237167" lon="11.61315"><ele>889.0</ele><time>2026-04-04T08:49:18.987Z</time></trkpt><trkpt lat="43.8236967" lon="11.6133267"><ele>889.3333333333334</ele><time>2026-04-04T08:49:20.985Z</time></trkpt><trkpt lat="43.8237117" lon="11.6134283"><ele>889.6666666666667</ele><time>2026-04-04T08:49:21.988Z</time></trkpt><trkpt lat="43.8237283" lon="11.6135183"><ele>890.0</ele><time>2026-04-04T08:49:22.986Z</time></trkpt><trkpt lat="43.823775" lon="11.6136017"><ele>893.1666666666667</ele><time>2026-04-04T08:49:23.985Z</time></trkpt><trkpt lat="43.8238067" lon="11.6136817"><ele>896.3333333333334</ele><time>2026-04-04T08:49:24.988Z</time></trkpt><trkpt lat="43.8238483" lon="11.6137567"><ele>899.5</ele><time>2026-04-04T08:49:25.987Z</time></trkpt><trkpt lat="43.8239033" lon="11.6138967"><ele>902.6666666666667</ele><time>2026-04-04T08:49:27.984Z</time></trkpt><trkpt lat="43.8239167" lon="11.61402"><ele>905.8333333333334</ele><time>2026-04-04T08:49:29.985Z</time></trkpt><trkpt lat="43.8239133" lon="11.6141167"><ele>909.0</ele><time>2026-04-04T08:49:30.987Z</time></trkpt><trkpt lat="43.8239217" lon="11.61421"><ele>909.0</ele><time>2026-04-04T08:49:31.988Z</time></trkpt><trkpt lat="43.8239317" lon="11.6143167"><ele>909.0</ele><time>2026-04-04T08:49:32.985Z</time></trkpt><trkpt lat="43.8239383" lon="11.6144333"><ele>909.0</ele><time>2026-04-04T08:49:33.986Z</time></trkpt><trkpt lat="43.8239433" lon="11.6145417"><ele>909.0</ele><time>2026-04-04T08:49:34.986Z</time></trkpt><trkpt lat="43.823945" lon="11.614645"><ele>909.0</ele><time>2026-04-04T08:49:35.986Z</time></trkpt><trkpt lat="43.8239283" lon="11.6147667"><ele>909.0</ele><time>2026-04-04T08:49:37.987Z</time></trkpt><trkpt lat="43.8240217" lon="11.6148067"><ele>911.5</ele><time>2026-04-04T08:49:40.985Z</time></trkpt><trkpt lat="43.8240867" lon="11.614755"><ele>914.0</ele><time>2026-04-04T08:49:41.985Z</time></trkpt><trkpt lat="43.824165" lon="11.6147083"><ele>916.5</ele><time>2026-04-04T08:49:43.987Z</time></trkpt><trkpt lat="43.8242283" lon="11.614775"><ele>919.0</ele><time>2026-04-04T08:49:46.985Z</time></trkpt><trkpt lat="43.824235" lon="11.6148867"><ele>921.5</ele><time>2026-04-04T08:49:48.986Z</time></trkpt><trkpt lat="43.8242467" lon="11.6150033"><ele>924.0</ele><time>2026-04-04T08:49:50.984Z</time></trkpt><trkpt lat="43.8242333" lon="11.615135"><ele>924.0</ele><time>2026-04-04T08:49:53.986Z</time></trkpt><trkpt lat="43.8242217" lon="11.61524"><ele>924.0</ele><time>2026-04-04T08:49:55.989Z</time></trkpt><trkpt lat="43.8241983" lon="11.6153617"><ele>924.0</ele><time>2026-04-04T08:49:57.986Z</time></trkpt><trkpt lat="43.8241717" lon="11.6154433"><ele>924.0</ele><time>2026-04-04T08:49:59.985Z</time></trkpt><trkpt lat="43.82412" lon="11.615505"><ele>924.0</ele><time>2026-04-04T08:50:01.988Z</time></trkpt><trkpt lat="43.8240617" lon="11.615585"><ele>924.0</ele><time>2026-04-04T08:50:03.986Z</time></trkpt><trkpt lat="43.8239983" lon="11.6156717"><ele>926.2</ele><time>2026-04-04T08:50:05.987Z</time></trkpt><trkpt lat="43.823945" lon="11.6157917"><ele>928.4000000000001</ele><time>2026-04-04T08:50:07.988Z</time></trkpt><trkpt lat="43.8238783" lon="11.6159417"><ele>930.6</ele><time>2026-04-04T08:50:09.985Z</time></trkpt><trkpt lat="43.8238533" lon="11.6160233"><ele>932.8</ele><time>2026-04-04T08:50:10.987Z</time></trkpt><trkpt lat="43.8238317" lon="11.61618"><ele>935.0</ele><time>2026-04-04T08:50:12.987Z</time></trkpt><trkpt lat="43.8237983" lon="11.6163267"><ele>935.6</ele><time>2026-04-04T08:50:14.985Z</time></trkpt><trkpt lat="43.8237717" lon="11.6164683"><ele>936.2</ele><time>2026-04-04T08:50:16.987Z</time></trkpt><trkpt lat="43.82374" lon="11.6166017"><ele>936.8</ele><time>2026-04-04T08:50:18.986Z</time></trkpt><trkpt lat="43.82368" lon="11.6167583"><ele>937.4</ele><time>2026-04-04T08:50:20.984Z</time></trkpt><trkpt lat="43.8236017" lon="11.6168733"><ele>938.0</ele><time>2026-04-04T08:50:22.986Z</time></trkpt><trkpt lat="43.82351" lon="11.6169567"><ele>941.4</ele><time>2026-04-04T08:50:24.986Z</time></trkpt><trkpt lat="43.8234267" lon="11.6170583"><ele>944.8</ele><time>2026-04-04T08:50:26.985Z</time></trkpt><trkpt lat="43.823355" lon="11.617195"><ele>948.2</ele><time>2026-04-04T08:50:28.986Z</time></trkpt><trkpt lat="43.8232883" lon="11.617295"><ele>951.6</ele><time>2026-04-04T08:50:30.986Z</time></trkpt><trkpt lat="43.8231833" lon="11.6173133"><ele>955.0</ele><time>2026-04-04T08:50:33.987Z</time></trkpt><trkpt lat="43.823055" lon="11.61736"><ele>955.0</ele><time>2026-04-04T08:53:10.985Z</time></trkpt><trkpt lat="43.82297" lon="11.6174117"><ele>955.0</ele><time>2026-04-04T08:56:57.974Z</time></trkpt><trkpt lat="43.82283" lon="11.617335"><ele>955.0</ele><time>2026-04-04T08:57:38.985Z</time></trkpt><trkpt lat="43.8227467" lon="11.617345"><ele>955.0</ele><time>2026-04-04T08:57:40.984Z</time></trkpt><trkpt lat="43.8226367" lon="11.617355"><ele>955.0</ele><time>2026-04-04T08:57:42.985Z</time></trkpt><trkpt lat="43.82257" lon="11.6173483"><ele>956.4</ele><time>2026-04-04T08:57:43.986Z</time></trkpt><trkpt lat="43.8224817" lon="11.617295"><ele>957.8</ele><time>2026-04-04T08:57:45.984Z</time></trkpt><trkpt lat="43.8223933" lon="11.61722"><ele>959.2</ele><time>2026-04-04T08:57:47.985Z</time></trkpt><trkpt lat="43.8223133" lon="11.6171917"><ele>960.6</ele><time>2026-04-04T08:57:49.987Z</time></trkpt><trkpt lat="43.8222183" lon="11.6171783"><ele>962.0</ele><time>2026-04-04T08:57:51.983Z</time></trkpt><trkpt lat="43.8221167" lon="11.6172"><ele>961.9999999999999</ele><time>2026-04-04T08:57:53.983Z</time></trkpt><trkpt lat="43.8220533" lon="11.61724"><ele>962.0</ele><time>2026-04-04T08:57:55.986Z</time></trkpt><trkpt lat="43.821975" lon="11.617295"><ele>961.9999999999999</ele><time>2026-04-04T08:57:57.983Z</time></trkpt><trkpt lat="43.8219133" lon="11.6173167"><ele>961.9999999999999</ele><time>2026-04-04T08:57:58.983Z</time></trkpt><trkpt lat="43.821845" lon="11.617335"><ele>962.0</ele><time>2026-04-04T08:57:59.983Z</time></trkpt><trkpt lat="43.82177" lon="11.617335"><ele>961.9999999999999</ele><time>2026-04-04T08:58:00.983Z</time></trkpt><trkpt lat="43.82169" lon="11.61733"><ele>961.9999999999999</ele><time>2026-04-04T08:58:01.986Z</time></trkpt><trkpt lat="43.8216133" lon="11.6173317"><ele>964.4000000000001</ele><time>2026-04-04T08:58:02.984Z</time></trkpt><trkpt lat="43.8215467" lon="11.6173417"><ele>966.8000000000001</ele><time>2026-04-04T08:58:03.983Z</time></trkpt><trkpt lat="43.8214267" lon="11.617385"><ele>969.2</ele><time>2026-04-04T08:58:05.984Z</time></trkpt><trkpt lat="43.82132" lon="11.617465"><ele>971.6</ele><time>2026-04-04T08:58:07.986Z</time></trkpt><trkpt lat="43.82124" lon="11.6175517"><ele>974.0</ele><time>2026-04-04T08:58:09.985Z</time></trkpt><trkpt lat="43.8211533" lon="11.6175683"><ele>974.0000000000001</ele><time>2026-04-04T08:58:12.985Z</time></trkpt><trkpt lat="43.8210767" lon="11.61755"><ele>974.0</ele><time>2026-04-04T08:58:15.973Z</time></trkpt><trkpt lat="43.82104" lon="11.6176267"><ele>974.0</ele><time>2026-04-04T08:58:19.987Z</time></trkpt><trkpt lat="43.8209833" lon="11.617705"><ele>974.0</ele><time>2026-04-04T08:58:22.984Z</time></trkpt><trkpt lat="43.8209467" lon="11.6178"><ele>974.0000000000001</ele><time>2026-04-04T08:58:24.985Z</time></trkpt><trkpt lat="43.8209033" lon="11.6178967"><ele>974.0</ele><time>2026-04-04T08:58:26.983Z</time></trkpt><trkpt lat="43.82082" lon="11.6179967"><ele>977.1666666666667</ele><time>2026-04-04T08:58:28.984Z</time></trkpt><trkpt lat="43.8207667" lon="11.6180617"><ele>980.3333333333334</ele><time>2026-04-04T08:58:29.985Z</time></trkpt><trkpt lat="43.820705" lon="11.6181283"><ele>983.5</ele><time>2026-04-04T08:58:30.984Z</time></trkpt><trkpt lat="43.8206417" lon="11.61817"><ele>986.6666666666667</ele><time>2026-04-04T08:58:31.986Z</time></trkpt><trkpt lat="43.8205733" lon="11.6182117"><ele>989.8333333333334</ele><time>2026-04-04T08:58:32.984Z</time></trkpt><trkpt lat="43.8205" lon="11.6182583"><ele>993.0</ele><time>2026-04-04T08:58:33.985Z</time></trkpt><trkpt lat="43.8204283" lon="11.6183"><ele>993.0</ele><time>2026-04-04T08:58:34.984Z</time></trkpt><trkpt lat="43.8203633" lon="11.6183333"><ele>993.0</ele><time>2026-04-04T08:58:35.984Z</time></trkpt><trkpt lat="43.82026" lon="11.6183717"><ele>993.0</ele><time>2026-04-04T08:58:37.986Z</time></trkpt><trkpt lat="43.8201583" lon="11.61845"><ele>993.0</ele><time>2026-04-04T08:58:39.985Z</time></trkpt><trkpt lat="43.8200967" lon="11.6185717"><ele>993.0</ele><time>2026-04-04T08:58:41.985Z</time></trkpt><trkpt lat="43.8200417" lon="11.6186217"><ele>994.8333333333334</ele><time>2026-04-04T08:58:42.984Z</time></trkpt><trkpt lat="43.8199717" lon="11.6186617"><ele>996.6666666666667</ele><time>2026-04-04T08:58:43.986Z</time></trkpt><trkpt lat="43.8198933" lon="11.618695"><ele>998.5</ele><time>2026-04-04T08:58:44.984Z</time></trkpt><trkpt lat="43.8198183" lon="11.6187167"><ele>1000.3333333333334</ele><time>2026-04-04T08:58:45.985Z</time></trkpt><trkpt lat="43.819745" lon="11.618745"><ele>1002.1666666666667</ele><time>2026-04-04T08:58:46.985Z</time></trkpt><trkpt lat="43.8196783" lon="11.6187717"><ele>1004.0</ele><time>2026-04-04T08:58:47.985Z</time></trkpt><trkpt lat="43.8195817" lon="11.618855"><ele>1004.0</ele><time>2026-04-04T08:58:49.988Z</time></trkpt><trkpt lat="43.8195283" lon="11.6189317"><ele>1004.0000000000001</ele><time>2026-04-04T08:58:51.986Z</time></trkpt><trkpt lat="43.8195133" lon="11.6190217"><ele>1004.0000000000001</ele><time>2026-04-04T08:58:53.986Z</time></trkpt><trkpt lat="43.8194433" lon="11.61917"><ele>1004.0</ele><time>2026-04-04T09:00:52.983Z</time></trkpt><trkpt lat="43.8194067" lon="11.6193483"><ele>1004.0</ele><time>2026-04-04T09:00:54.984Z</time></trkpt><trkpt lat="43.819395" lon="11.619435"><ele>1002.4000000000001</ele><time>2026-04-04T09:00:55.986Z</time></trkpt><trkpt lat="43.8193633" lon="11.6195733"><ele>1000.8000000000001</ele><time>2026-04-04T09:00:57.986Z</time></trkpt><trkpt lat="43.8193533" lon="11.61973"><ele>999.1999999999999</ele><time>2026-04-04T09:00:59.987Z</time></trkpt><trkpt lat="43.8193233" lon="11.6198833"><ele>997.5999999999999</ele><time>2026-04-04T09:01:01.985Z</time></trkpt><trkpt lat="43.8192683" lon="11.6200117"><ele>996.0</ele><time>2026-04-04T09:01:03.984Z</time></trkpt><trkpt lat="43.81923" lon="11.6201433"><ele>998.5999999999999</ele><time>2026-04-04T09:01:05.984Z</time></trkpt><trkpt lat="43.81921" lon="11.620275"><ele>1001.1999999999999</ele><time>2026-04-04T09:01:07.986Z</time></trkpt><trkpt lat="43.8191517" lon="11.6203567"><ele>1003.8000000000001</ele><time>2026-04-04T09:01:09.983Z</time></trkpt><trkpt lat="43.819055" lon="11.6204267"><ele>1006.4000000000001</ele><time>2026-04-04T09:01:11.985Z</time></trkpt><trkpt lat="43.8189767" lon="11.6204917"><ele>1009.0</ele><time>2026-04-04T09:01:13.986Z</time></trkpt><trkpt lat="43.81884" lon="11.620575"><ele>1008.9999999999999</ele><time>2026-04-04T09:01:36.984Z</time></trkpt><trkpt lat="43.81887" lon="11.6206583"><ele>1009.0</ele><time>2026-04-04T09:02:13.985Z</time></trkpt><trkpt lat="43.8189367" lon="11.6207533"><ele>1009.0</ele><time>2026-04-04T09:02:15.984Z</time></trkpt><trkpt lat="43.8189633" lon="11.6208333"><ele>1009.0</ele><time>2026-04-04T09:02:16.984Z</time></trkpt><trkpt lat="43.81901" lon="11.6209133"><ele>1008.9999999999999</ele><time>2026-04-04T09:02:18.985Z</time></trkpt><trkpt lat="43.8190441" lon="11.620996"><ele>1009.0</ele><time>2026-04-04T09:02:22.88Z</time></trkpt><trkpt lat="43.8189831" lon="11.6210742"><ele>1008.9999999999999</ele><time>2026-04-04T09:02:25.039Z</time></trkpt><trkpt lat="43.818905" lon="11.621125"><ele>1009.0</ele><time>2026-04-04T09:02:25.987Z</time></trkpt><trkpt lat="43.81886" lon="11.6211867"><ele>1009.0</ele><time>2026-04-04T09:02:27.987Z</time></trkpt><trkpt lat="43.81889" lon="11.6212767"><ele>1009.0</ele><time>2026-04-04T09:02:29.987Z</time></trkpt><trkpt lat="43.81894" lon="11.6213767"><ele>1008.9999999999999</ele><time>2026-04-04T09:02:31.985Z</time></trkpt><trkpt lat="43.818995" lon="11.6214383"><ele>1009.0</ele><time>2026-04-04T09:02:33.984Z</time></trkpt><trkpt lat="43.8190633" lon="11.6215317"><ele>1009.6666666666666</ele><time>2026-04-04T09:02:35.983Z</time></trkpt><trkpt lat="43.8191183" lon="11.6215933"><ele>1010.3333333333333</ele><time>2026-04-04T09:02:37.987Z</time></trkpt><trkpt lat="43.8192033" lon="11.6216183"><ele>1011.0</ele><time>2026-04-04T09:02:40.984Z</time></trkpt><trkpt lat="43.8192867" lon="11.621655"><ele>1011.6666666666667</ele><time>2026-04-04T09:02:42.985Z</time></trkpt><trkpt lat="43.819395" lon="11.6217167"><ele>1012.3333333333334</ele><time>2026-04-04T09:02:44.985Z</time></trkpt><trkpt lat="43.8194533" lon="11.6217583"><ele>1013.0</ele><time>2026-04-04T09:02:45.985Z</time></trkpt><trkpt lat="43.8195517" lon="11.6218917"><ele>1015.5999999999999</ele><time>2026-04-04T09:02:47.974Z</time></trkpt><trkpt lat="43.8196217" lon="11.622025"><ele>1018.1999999999999</ele><time>2026-04-04T09:02:49.986Z</time></trkpt><trkpt lat="43.819705" lon="11.6221467"><ele>1020.8</ele><time>2026-04-04T09:02:51.984Z</time></trkpt><trkpt lat="43.8197433" lon="11.622275"><ele>1023.4</ele><time>2026-04-04T09:02:53.982Z</time></trkpt><trkpt lat="43.8197767" lon="11.622385"><ele>1026.0</ele><time>2026-04-04T09:02:56.984Z</time></trkpt><trkpt lat="43.8198267" lon="11.622495"><ele>1026.0</ele><time>2026-04-04T09:02:59.986Z</time></trkpt><trkpt lat="43.819895" lon="11.6225317"><ele>1026.0</ele><time>2026-04-04T09:03:01.988Z</time></trkpt><trkpt lat="43.819955" lon="11.6226183"><ele>1026.0</ele><time>2026-04-04T09:03:03.986Z</time></trkpt><trkpt lat="43.82002" lon="11.6227017"><ele>1026.0</ele><time>2026-04-04T09:03:06.985Z</time></trkpt><trkpt lat="43.820055" lon="11.6228117"><ele>1026.0</ele><time>2026-04-04T09:03:09.984Z</time></trkpt><trkpt lat="43.820095" lon="11.622915"><ele>1026.0</ele><time>2026-04-04T09:03:12.987Z</time></trkpt><trkpt lat="43.8201783" lon="11.622975"><ele>1025.6666666666667</ele><time>2026-04-04T09:03:15.985Z</time></trkpt><trkpt lat="43.8202483" lon="11.6230133"><ele>1025.3333333333333</ele><time>2026-04-04T09:03:18.987Z</time></trkpt><trkpt lat="43.8203183" lon="11.62304"><ele>1025.0</ele><time>2026-04-04T09:03:21.985Z</time></trkpt><trkpt lat="43.8203467" lon="11.6229433"><ele>1024.6666666666665</ele><time>2026-04-04T09:03:24.987Z</time></trkpt><trkpt lat="43.8204217" lon="11.622795"><ele>1024.3333333333333</ele><time>2026-04-04T09:03:26.984Z</time></trkpt><trkpt lat="43.8205017" lon="11.6227367"><ele>1024.0</ele><time>2026-04-04T09:03:28.987Z</time></trkpt><trkpt lat="43.8205983" lon="11.6226817"><ele>1023.9999999999999</ele><time>2026-04-04T09:03:31.987Z</time></trkpt><trkpt lat="43.8206833" lon="11.62265"><ele>1024.0</ele><time>2026-04-04T09:03:33.985Z</time></trkpt><trkpt lat="43.8207233" lon="11.6225717"><ele>1024.0</ele><time>2026-04-04T09:03:36.985Z</time></trkpt><trkpt lat="43.82073" lon="11.622465"><ele>1024.0</ele><time>2026-04-04T09:03:38.987Z</time></trkpt><trkpt lat="43.820775" lon="11.6223583"><ele>1023.9999999999999</ele><time>2026-04-04T09:03:40.984Z</time></trkpt><trkpt lat="43.820835" lon="11.6222867"><ele>1024.0</ele><time>2026-04-04T09:03:42.983Z</time></trkpt><trkpt lat="43.8208967" lon="11.6222133"><ele>1024.0</ele><time>2026-04-04T09:03:44.983Z</time></trkpt><trkpt lat="43.8209517" lon="11.6221217"><ele>1024.0</ele><time>2026-04-04T09:03:46.987Z</time></trkpt><trkpt lat="43.8210317" lon="11.6220267"><ele>1024.0</ele><time>2026-04-04T09:03:48.985Z</time></trkpt><trkpt lat="43.82112" lon="11.62201"><ele>1024.0</ele><time>2026-04-04T09:03:50.985Z</time></trkpt><trkpt lat="43.821215" lon="11.6220467"><ele>1024.0</ele><time>2026-04-04T09:03:52.987Z</time></trkpt><trkpt lat="43.8213" lon="11.6220783"><ele>1026.0</ele><time>2026-04-04T09:03:54.987Z</time></trkpt><trkpt lat="43.8213683" lon="11.622085"><ele>1028.0</ele><time>2026-04-04T09:03:56.986Z</time></trkpt><trkpt lat="43.8214317" lon="11.6220833"><ele>1030.0</ele><time>2026-04-04T09:03:58.987Z</time></trkpt><trkpt lat="43.82151" lon="11.6220483"><ele>1032.0</ele><time>2026-04-04T09:04:00.986Z</time></trkpt><trkpt lat="43.8215967" lon="11.621985"><ele>1034.0</ele><time>2026-04-04T09:04:02.986Z</time></trkpt><trkpt lat="43.8216933" lon="11.622005"><ele>1036.0</ele><time>2026-04-04T09:04:04.986Z</time></trkpt><trkpt lat="43.8218117" lon="11.6220167"><ele>1036.6666666666665</ele><time>2026-04-04T09:04:06.986Z</time></trkpt><trkpt lat="43.8219033" lon="11.6220267"><ele>1037.3333333333333</ele><time>2026-04-04T09:04:08.986Z</time></trkpt><trkpt lat="43.8219767" lon="11.6220217"><ele>1038.0</ele><time>2026-04-04T09:04:10.986Z</time></trkpt><trkpt lat="43.82207" lon="11.6219833"><ele>1038.6666666666667</ele><time>2026-04-04T09:06:09.983Z</time></trkpt><trkpt lat="43.8221167" lon="11.621895"><ele>1039.3333333333335</ele><time>2026-04-04T09:06:13.983Z</time></trkpt><trkpt lat="43.822165" lon="11.6218217"><ele>1040.0</ele><time>2026-04-04T09:06:15.983Z</time></trkpt><trkpt lat="43.82225" lon="11.62171"><ele>1037.4</ele><time>2026-04-04T09:06:17.982Z</time></trkpt><trkpt lat="43.822365" lon="11.621645"><ele>1034.8</ele><time>2026-04-04T09:06:19.984Z</time></trkpt><trkpt lat="43.8224267" lon="11.6216133"><ele>1032.2</ele><time>2026-04-04T09:06:20.983Z</time></trkpt><trkpt lat="43.8225317" lon="11.6215883"><ele>1029.6</ele><time>2026-04-04T09:06:22.983Z</time></trkpt><trkpt lat="43.8226267" lon="11.6216283"><ele>1027.0</ele><time>2026-04-04T09:06:24.983Z</time></trkpt><trkpt lat="43.82269" lon="11.6216983"><ele>1026.8</ele><time>2026-04-04T09:06:26.983Z</time></trkpt><trkpt lat="43.8226833" lon="11.6218383"><ele>1026.6</ele><time>2026-04-04T09:06:29.974Z</time></trkpt><trkpt lat="43.822675" lon="11.6219433"><ele>1026.3999999999999</ele><time>2026-04-04T09:06:31.985Z</time></trkpt><trkpt lat="43.8226633" lon="11.622075"><ele>1026.2</ele><time>2026-04-04T09:06:33.985Z</time></trkpt><trkpt lat="43.8226567" lon="11.6222267"><ele>1026.0</ele><time>2026-04-04T09:06:35.986Z</time></trkpt><trkpt lat="43.8226367" lon="11.6223383"><ele>1026.0</ele><time>2026-04-04T09:06:37.986Z</time></trkpt><trkpt lat="43.8227533" lon="11.6224283"><ele>1026.0</ele><time>2026-04-04T09:09:28.984Z</time></trkpt><trkpt lat="43.822765" lon="11.62252"><ele>1026.0</ele><time>2026-04-04T09:10:06.975Z</time></trkpt><trkpt lat="43.822695" lon="11.6225783"><ele>1026.0</ele><time>2026-04-04T09:10:12.974Z</time></trkpt><trkpt lat="43.8226183" lon="11.62268"><ele>1026.0</ele><time>2026-04-04T09:10:24.985Z</time></trkpt><trkpt lat="43.8225517" lon="11.6227233"><ele>1028.8</ele><time>2026-04-04T09:10:28.985Z</time></trkpt><trkpt lat="43.8224917" lon="11.6228033"><ele>1031.6</ele><time>2026-04-04T09:10:32.984Z</time></trkpt><trkpt lat="43.8224417" lon="11.62288"><ele>1034.4</ele><time>2026-04-04T09:10:35.983Z</time></trkpt><trkpt lat="43.8224" lon="11.6229467"><ele>1037.2</ele><time>2026-04-04T09:10:39.985Z</time></trkpt><trkpt lat="43.8223617" lon="11.6230833"><ele>1040.0</ele><time>2026-04-04T09:10:55.988Z</time></trkpt><trkpt lat="43.8222533" lon="11.62327"><ele>1041.3333333333335</ele><time>2026-04-04T09:11:51.985Z</time></trkpt><trkpt lat="43.82221" lon="11.62334"><ele>1042.6666666666667</ele><time>2026-04-04T09:11:55.987Z</time></trkpt><trkpt lat="43.8221567" lon="11.6234167"><ele>1044.0</ele><time>2026-04-04T09:11:58.985Z</time></trkpt><trkpt lat="43.8221033" lon="11.6234883"><ele>1045.3333333333333</ele><time>2026-04-04T09:12:05.988Z</time></trkpt><trkpt lat="43.8220817" lon="11.6235833"><ele>1046.6666666666665</ele><time>2026-04-04T09:12:08.984Z</time></trkpt><trkpt lat="43.8220567" lon="11.6236933"><ele>1048.0</ele><time>2026-04-04T09:12:10.984Z</time></trkpt><trkpt lat="43.822065" lon="11.6238183"><ele>1050.3333333333333</ele><time>2026-04-04T09:12:12.986Z</time></trkpt><trkpt lat="43.82213" lon="11.6239083"><ele>1052.6666666666665</ele><time>2026-04-04T09:12:14.986Z</time></trkpt><trkpt lat="43.8221983" lon="11.6239667"><ele>1055.0</ele><time>2026-04-04T09:12:16.985Z</time></trkpt><trkpt lat="43.8222683" lon="11.6240217"><ele>1057.3333333333333</ele><time>2026-04-04T09:12:19.986Z</time></trkpt><trkpt lat="43.822315" lon="11.6241117"><ele>1059.6666666666667</ele><time>2026-04-04T09:12:23.984Z</time></trkpt><trkpt lat="43.82235" lon="11.624185"><ele>1062.0</ele><time>2026-04-04T09:12:25.989Z</time></trkpt><trkpt lat="43.8223867" lon="11.6242767"><ele>1062.0</ele><time>2026-04-04T09:12:27.986Z</time></trkpt><trkpt lat="43.8224067" lon="11.6243667"><ele>1062.0</ele><time>2026-04-04T09:12:29.987Z</time></trkpt><trkpt lat="43.8224333" lon="11.624485"><ele>1062.0</ele><time>2026-04-04T09:12:31.985Z</time></trkpt><trkpt lat="43.8224633" lon="11.6245983"><ele>1062.0</ele><time>2026-04-04T09:12:33.984Z</time></trkpt><trkpt lat="43.82249" lon="11.62468"><ele>1062.0</ele><time>2026-04-04T09:12:35.985Z</time></trkpt><trkpt lat="43.822525" lon="11.624775"><ele>1062.0</ele><time>2026-04-04T09:12:37.987Z</time></trkpt><trkpt lat="43.8225533" lon="11.6248867"><ele>1062.3333333333333</ele><time>2026-04-04T09:12:39.984Z</time></trkpt><trkpt lat="43.8225983" lon="11.625"><ele>1062.6666666666667</ele><time>2026-04-04T09:12:41.984Z</time></trkpt><trkpt lat="43.82263" lon="11.6250867"><ele>1063.0</ele><time>2026-04-04T09:12:43.985Z</time></trkpt><trkpt lat="43.8226517" lon="11.6252633"><ele>1063.3333333333335</ele><time>2026-04-04T09:12:59.973Z</time></trkpt><trkpt lat="43.822705" lon="11.62531"><ele>1063.6666666666667</ele><time>2026-04-04T09:13:01.985Z</time></trkpt><trkpt lat="43.82277" lon="11.6253633"><ele>1064.0</ele><time>2026-04-04T09:13:03.984Z</time></trkpt><trkpt lat="43.8228433" lon="11.62543"><ele>1064.0</ele><time>2026-04-04T09:13:06.983Z</time></trkpt><trkpt lat="43.8229" lon="11.625505"><ele>1064.0</ele><time>2026-04-04T09:13:09.985Z</time></trkpt><trkpt lat="43.8229483" lon="11.6255817"><ele>1064.0</ele><time>2026-04-04T09:13:12.986Z</time></trkpt><trkpt lat="43.823" lon="11.6256533"><ele>1064.0</ele><time>2026-04-04T09:13:15.983Z</time></trkpt><trkpt lat="43.8230467" lon="11.6257217"><ele>1064.0</ele><time>2026-04-04T09:13:18.986Z</time></trkpt><trkpt lat="43.82312" lon="11.6257483"><ele>1064.0</ele><time>2026-04-04T09:13:21.986Z</time></trkpt><trkpt lat="43.8231933" lon="11.6257067"><ele>1064.0</ele><time>2026-04-04T09:13:24.986Z</time></trkpt><trkpt lat="43.8232617" lon="11.6256217"><ele>1064.0</ele><time>2026-04-04T09:13:27.983Z</time></trkpt><trkpt lat="43.8233333" lon="11.6255033"><ele>1064.0</ele><time>2026-04-04T09:13:29.983Z</time></trkpt><trkpt lat="43.8234083" lon="11.625385"><ele>1064.0</ele><time>2026-04-04T09:13:31.985Z</time></trkpt><trkpt lat="43.82348" lon="11.6253033"><ele>1064.0</ele><time>2026-04-04T09:13:33.983Z</time></trkpt><trkpt lat="43.82354" lon="11.625225"><ele>1064.0</ele><time>2026-04-04T09:13:35.983Z</time></trkpt><trkpt lat="43.8236017" lon="11.6251683"><ele>1064.0</ele><time>2026-04-04T09:13:38.985Z</time></trkpt><trkpt lat="43.8237317" lon="11.625225"><ele>1064.0</ele><time>2026-04-04T09:15:15.984Z</time></trkpt><trkpt lat="43.8236583" lon="11.6252867"><ele>1064.0</ele><time>2026-04-04T09:15:50.986Z</time></trkpt><trkpt lat="43.8235283" lon="11.6253333"><ele>1064.0</ele><time>2026-04-04T09:16:18.975Z</time></trkpt><trkpt lat="43.823485" lon="11.6254017"><ele>1064.0</ele><time>2026-04-04T09:16:20.984Z</time></trkpt><trkpt lat="43.8234217" lon="11.6255283"><ele>1064.0</ele><time>2026-04-04T09:16:22.985Z</time></trkpt><trkpt lat="43.8233783" lon="11.6256217"><ele>1064.0</ele><time>2026-04-04T09:16:23.986Z</time></trkpt><trkpt lat="43.8233183" lon="11.625775"><ele>1064.0</ele><time>2026-04-04T09:16:25.988Z</time></trkpt><trkpt lat="43.82327" lon="11.6258717"><ele>1064.0</ele><time>2026-04-04T09:16:27.986Z</time></trkpt><trkpt lat="43.8231767" lon="11.6258583"><ele>1064.0</ele><time>2026-04-04T09:16:29.984Z</time></trkpt><trkpt lat="43.8231017" lon="11.6257967"><ele>1064.0</ele><time>2026-04-04T09:16:31.986Z</time></trkpt><trkpt lat="43.8230133" lon="11.6257017"><ele>1064.0</ele><time>2026-04-04T09:16:33.985Z</time></trkpt><trkpt lat="43.8229633" lon="11.625645"><ele>1064.0</ele><time>2026-04-04T09:16:34.984Z</time></trkpt><trkpt lat="43.8228717" lon="11.6255633"><ele>1064.0</ele><time>2026-04-04T09:16:36.974Z</time></trkpt><trkpt lat="43.82278" lon="11.6255033"><ele>1064.0</ele><time>2026-04-04T09:16:38.986Z</time></trkpt><trkpt lat="43.8227133" lon="11.62545"><ele>1064.0</ele><time>2026-04-04T09:16:40.984Z</time></trkpt><trkpt lat="43.8226583" lon="11.6253867"><ele>1064.0</ele><time>2026-04-04T09:16:42.976Z</time></trkpt><trkpt lat="43.822615" lon="11.6252717"><ele>1064.0</ele><time>2026-04-04T09:16:45.984Z</time></trkpt><trkpt lat="43.82258" lon="11.6251833"><ele>1064.0</ele><time>2026-04-04T09:16:47.988Z</time></trkpt><trkpt lat="43.82256" lon="11.6250917"><ele>1064.0</ele><time>2026-04-04T09:16:49.986Z</time></trkpt><trkpt lat="43.8225167" lon="11.624975"><ele>1064.0</ele><time>2026-04-04T09:16:51.985Z</time></trkpt><trkpt lat="43.82248" lon="11.6248483"><ele>1063.6666666666667</ele><time>2026-04-04T09:16:54.985Z</time></trkpt><trkpt lat="43.8224617" lon="11.624725"><ele>1063.3333333333335</ele><time>2026-04-04T09:16:57.986Z</time></trkpt><trkpt lat="43.8224567" lon="11.624625"><ele>1063.0</ele><time>2026-04-04T09:16:59.976Z</time></trkpt><trkpt lat="43.8224367" lon="11.6245267"><ele>1062.6666666666667</ele><time>2026-04-04T09:17:02.984Z</time></trkpt><trkpt lat="43.8223817" lon="11.6244033"><ele>1062.3333333333333</ele><time>2026-04-04T09:17:05.974Z</time></trkpt><trkpt lat="43.8223517" lon="11.62431"><ele>1062.0</ele><time>2026-04-04T09:17:07.989Z</time></trkpt><trkpt lat="43.8222817" lon="11.6241867"><ele>1062.0</ele><time>2026-04-04T09:17:10.983Z</time></trkpt><trkpt lat="43.8222333" lon="11.6241017"><ele>1062.0</ele><time>2026-04-04T09:17:12.983Z</time></trkpt><trkpt lat="43.8221883" lon="11.6240283"><ele>1062.0</ele><time>2026-04-04T09:17:14.984Z</time></trkpt><trkpt lat="43.8221417" lon="11.6239517"><ele>1062.0</ele><time>2026-04-04T09:17:16.984Z</time></trkpt><trkpt lat="43.822085" lon="11.62386"><ele>1062.0</ele><time>2026-04-04T09:17:18.985Z</time></trkpt><trkpt lat="43.8220533" lon="11.6237683"><ele>1062.0</ele><time>2026-04-04T09:17:20.985Z</time></trkpt><trkpt lat="43.82206" lon="11.6236783"><ele>1062.0</ele><time>2026-04-04T09:17:22.984Z</time></trkpt><trkpt lat="43.8220767" lon="11.623585"><ele>1059.6666666666667</ele><time>2026-04-04T09:17:24.984Z</time></trkpt><trkpt lat="43.822115" lon="11.6234833"><ele>1057.3333333333333</ele><time>2026-04-04T09:17:28.985Z</time></trkpt><trkpt lat="43.822145" lon="11.6234"><ele>1055.0</ele><time>2026-04-04T09:17:38.974Z</time></trkpt><trkpt lat="43.8221917" lon="11.6233133"><ele>1052.6666666666665</ele><time>2026-04-04T09:17:41.984Z</time></trkpt><trkpt lat="43.8222383" lon="11.6232517"><ele>1050.3333333333333</ele><time>2026-04-04T09:17:43.984Z</time></trkpt><trkpt lat="43.8222983" lon="11.6231517"><ele>1048.0</ele><time>2026-04-04T09:17:46.985Z</time></trkpt><trkpt lat="43.8223433" lon="11.623055"><ele>1048.0</ele><time>2026-04-04T09:17:49.987Z</time></trkpt><trkpt lat="43.8223917" lon="11.62298"><ele>1048.0</ele><time>2026-04-04T09:17:53.987Z</time></trkpt><trkpt lat="43.8224433" lon="11.6228783"><ele>1048.0</ele><time>2026-04-04T09:17:56.986Z</time></trkpt><trkpt lat="43.822495" lon="11.6227883"><ele>1048.0</ele><time>2026-04-04T09:17:59.983Z</time></trkpt><trkpt lat="43.8225633" lon="11.6227467"><ele>1048.0</ele><time>2026-04-04T09:18:04.984Z</time></trkpt><trkpt lat="43.8225483" lon="11.6225967"><ele>1048.0</ele><time>2026-04-04T09:22:36.983Z</time></trkpt><trkpt lat="43.8224883" lon="11.622635"><ele>1048.0</ele><time>2026-04-04T09:22:41.985Z</time></trkpt><trkpt lat="43.82242" lon="11.6226883"><ele>1048.0</ele><time>2026-04-04T09:22:56.984Z</time></trkpt><trkpt lat="43.8224083" lon="11.6228067"><ele>1048.0</ele><time>2026-04-04T09:23:00.984Z</time></trkpt><trkpt lat="43.82234" lon="11.6228817"><ele>1048.0</ele><time>2026-04-04T09:23:03.985Z</time></trkpt><trkpt lat="43.8222767" lon="11.622875"><ele>1048.0</ele><time>2026-04-04T09:23:05.983Z</time></trkpt><trkpt lat="43.8222117" lon="11.6228733"><ele>1048.0</ele><time>2026-04-04T09:23:08.983Z</time></trkpt><trkpt lat="43.8220767" lon="11.62287"><ele>1048.0</ele><time>2026-04-04T09:24:28.985Z</time></trkpt><trkpt lat="43.8219883" lon="11.6228717"><ele>1048.0</ele><time>2026-04-04T09:24:36.984Z</time></trkpt><trkpt lat="43.821885" lon="11.6229167"><ele>1048.0</ele><time>2026-04-04T09:24:38.984Z</time></trkpt><trkpt lat="43.821775" lon="11.62296"><ele>1048.0</ele><time>2026-04-04T09:24:40.985Z</time></trkpt><trkpt lat="43.8217083" lon="11.6229883"><ele>1048.0</ele><time>2026-04-04T09:24:42.983Z</time></trkpt><trkpt lat="43.821635" lon="11.62304"><ele>1049.2</ele><time>2026-04-04T09:24:44.987Z</time></trkpt><trkpt lat="43.8215517" lon="11.6231283"><ele>1050.4</ele><time>2026-04-04T09:24:46.984Z</time></trkpt><trkpt lat="43.8215067" lon="11.62319"><ele>1051.6000000000001</ele><time>2026-04-04T09:24:47.985Z</time></trkpt><trkpt lat="43.82147" lon="11.623265"><ele>1052.8</ele><time>2026-04-04T09:24:48.986Z</time></trkpt><trkpt lat="43.8214333" lon="11.6234167"><ele>1054.0</ele><time>2026-04-04T09:24:50.985Z</time></trkpt><trkpt lat="43.8213967" lon="11.623565"><ele>1058.6000000000001</ele><time>2026-04-04T09:24:52.987Z</time></trkpt><trkpt lat="43.821335" lon="11.6236867"><ele>1063.2</ele><time>2026-04-04T09:24:54.983Z</time></trkpt><trkpt lat="43.8212417" lon="11.6237833"><ele>1067.8000000000002</ele><time>2026-04-04T09:24:56.985Z</time></trkpt><trkpt lat="43.8211567" lon="11.6238367"><ele>1072.4</ele><time>2026-04-04T09:24:58.984Z</time></trkpt><trkpt lat="43.8210983" lon="11.6238933"><ele>1077.0</ele><time>2026-04-04T09:25:00.973Z</time></trkpt><trkpt lat="43.8210417" lon="11.6239833"><ele>1077.0</ele><time>2026-04-04T09:25:02.983Z</time></trkpt><trkpt lat="43.8209967" lon="11.6240917"><ele>1077.0</ele><time>2026-04-04T09:25:04.984Z</time></trkpt><trkpt lat="43.8209167" lon="11.6241733"><ele>1077.0</ele><time>2026-04-04T09:25:06.984Z</time></trkpt><trkpt lat="43.820855" lon="11.6242383"><ele>1077.0</ele><time>2026-04-04T09:25:08.985Z</time></trkpt><trkpt lat="43.8208267" lon="11.62434"><ele>1077.0</ele><time>2026-04-04T09:25:11.984Z</time></trkpt><trkpt lat="43.82079" lon="11.6244583"><ele>1077.0</ele><time>2026-04-04T09:25:13.984Z</time></trkpt><trkpt lat="43.82076" lon="11.624615"><ele>1076.2</ele><time>2026-04-04T09:25:15.983Z</time></trkpt><trkpt lat="43.8207183" lon="11.6247367"><ele>1075.4</ele><time>2026-04-04T09:25:17.986Z</time></trkpt><trkpt lat="43.8206533" lon="11.6248583"><ele>1074.6</ele><time>2026-04-04T09:25:19.985Z</time></trkpt><trkpt lat="43.8205767" lon="11.6249517"><ele>1073.8</ele><time>2026-04-04T09:25:21.984Z</time></trkpt><trkpt lat="43.8204667" lon="11.62502"><ele>1073.0</ele><time>2026-04-04T09:25:23.985Z</time></trkpt><trkpt lat="43.8203983" lon="11.625055"><ele>1073.0</ele><time>2026-04-04T09:25:24.983Z</time></trkpt><trkpt lat="43.8202867" lon="11.6251117"><ele>1073.0</ele><time>2026-04-04T09:25:26.982Z</time></trkpt><trkpt lat="43.8202167" lon="11.625145"><ele>1073.0</ele><time>2026-04-04T09:25:27.983Z</time></trkpt><trkpt lat="43.8201333" lon="11.6251733"><ele>1073.0</ele><time>2026-04-04T09:25:28.983Z</time></trkpt><trkpt lat="43.820065" lon="11.62519"><ele>1073.0</ele><time>2026-04-04T09:25:29.985Z</time></trkpt><trkpt lat="43.81999" lon="11.6251917"><ele>1073.0</ele><time>2026-04-04T09:25:30.983Z</time></trkpt><trkpt lat="43.819925" lon="11.6251933"><ele>1071.3333333333335</ele><time>2026-04-04T09:25:31.984Z</time></trkpt><trkpt lat="43.8198417" lon="11.6252167"><ele>1069.6666666666667</ele><time>2026-04-04T09:25:33.983Z</time></trkpt><trkpt lat="43.81978" lon="11.6252417"><ele>1068.0</ele><time>2026-04-04T09:25:35.985Z</time></trkpt><trkpt lat="43.8196917" lon="11.6252783"><ele>1066.3333333333333</ele><time>2026-04-04T09:25:39.984Z</time></trkpt><trkpt lat="43.8196167" lon="11.6252917"><ele>1064.6666666666665</ele><time>2026-04-04T09:25:41.985Z</time></trkpt><trkpt lat="43.819515" lon="11.6252983"><ele>1063.0</ele><time>2026-04-04T09:25:43.987Z</time></trkpt><trkpt lat="43.8194067" lon="11.6252817"><ele>1065.5</ele><time>2026-04-04T09:25:45.984Z</time></trkpt><trkpt lat="43.81931" lon="11.6252383"><ele>1068.0</ele><time>2026-04-04T09:25:47.985Z</time></trkpt><trkpt lat="43.8192583" lon="11.6251883"><ele>1070.5</ele><time>2026-04-04T09:25:49.985Z</time></trkpt><trkpt lat="43.8192017" lon="11.6251367"><ele>1073.0</ele><time>2026-04-04T09:25:52.984Z</time></trkpt><trkpt lat="43.81914" lon="11.62506"><ele>1075.5</ele><time>2026-04-04T09:25:55.987Z</time></trkpt><trkpt lat="43.8190583" lon="11.6250167"><ele>1078.0</ele><time>2026-04-04T09:25:57.984Z</time></trkpt><trkpt lat="43.818955" lon="11.625015"><ele>1078.0</ele><time>2026-04-04T09:25:59.984Z</time></trkpt><trkpt lat="43.8188417" lon="11.6250783"><ele>1078.0</ele><time>2026-04-04T09:26:01.987Z</time></trkpt><trkpt lat="43.8187817" lon="11.625115"><ele>1078.0</ele><time>2026-04-04T09:26:02.986Z</time></trkpt><trkpt lat="43.8186667" lon="11.6251367"><ele>1078.0</ele><time>2026-04-04T09:26:04.983Z</time></trkpt><trkpt lat="43.8185933" lon="11.6251433"><ele>1078.0</ele><time>2026-04-04T09:26:05.984Z</time></trkpt><trkpt lat="43.8185217" lon="11.625155"><ele>1078.0</ele><time>2026-04-04T09:26:06.985Z</time></trkpt><trkpt lat="43.8184567" lon="11.6251433"><ele>1079.8333333333333</ele><time>2026-04-04T09:26:07.986Z</time></trkpt><trkpt lat="43.8183917" lon="11.6251333"><ele>1081.6666666666665</ele><time>2026-04-04T09:26:08.984Z</time></trkpt><trkpt lat="43.818325" lon="11.625125"><ele>1083.5</ele><time>2026-04-04T09:26:09.984Z</time></trkpt><trkpt lat="43.8181933" lon="11.6251183"><ele>1085.3333333333333</ele><time>2026-04-04T09:26:11.984Z</time></trkpt><trkpt lat="43.8181133" lon="11.6251233"><ele>1087.1666666666667</ele><time>2026-04-04T09:26:12.984Z</time></trkpt><trkpt lat="43.818025" lon="11.625125"><ele>1089.0</ele><time>2026-04-04T09:26:13.985Z</time></trkpt><trkpt lat="43.81793" lon="11.6251217"><ele>1089.0</ele><time>2026-04-04T09:26:14.983Z</time></trkpt><trkpt lat="43.8178283" lon="11.6251267"><ele>1089.0</ele><time>2026-04-04T09:26:15.984Z</time></trkpt><trkpt lat="43.8177417" lon="11.625135"><ele>1089.0</ele><time>2026-04-04T09:26:16.987Z</time></trkpt><trkpt lat="43.8176617" lon="11.6251483"><ele>1089.0</ele><time>2026-04-04T09:26:17.985Z</time></trkpt><trkpt lat="43.8175883" lon="11.6251583"><ele>1089.0</ele><time>2026-04-04T09:26:18.985Z</time></trkpt><trkpt lat="43.8175133" lon="11.6251667"><ele>1089.0</ele><time>2026-04-04T09:26:20.984Z</time></trkpt><trkpt lat="43.8174283" lon="11.6251567"><ele>1091.3333333333333</ele><time>2026-04-04T09:35:56.983Z</time></trkpt><trkpt lat="43.81738" lon="11.6250683"><ele>1093.6666666666667</ele><time>2026-04-04T09:35:58.983Z</time></trkpt><trkpt lat="43.817345" lon="11.624945"><ele>1096.0</ele><time>2026-04-04T09:36:00.985Z</time></trkpt><trkpt lat="43.8173183" lon="11.624835"><ele>1098.3333333333335</ele><time>2026-04-04T09:36:02.982Z</time></trkpt><trkpt lat="43.81728" lon="11.6247167"><ele>1100.6666666666667</ele><time>2026-04-04T09:36:04.985Z</time></trkpt><trkpt lat="43.8172383" lon="11.6246183"><ele>1103.0</ele><time>2026-04-04T09:36:06.988Z</time></trkpt><trkpt lat="43.8171917" lon="11.6245"><ele>1101.2</ele><time>2026-04-04T09:36:08.984Z</time></trkpt><trkpt lat="43.81715" lon="11.624365"><ele>1099.4</ele><time>2026-04-04T09:36:10.983Z</time></trkpt><trkpt lat="43.8171217" lon="11.6242683"><ele>1097.6000000000001</ele><time>2026-04-04T09:36:11.987Z</time></trkpt><trkpt lat="43.81707" lon="11.6241433"><ele>1095.8</ele><time>2026-04-04T09:36:13.986Z</time></trkpt><trkpt lat="43.8169667" lon="11.6241083"><ele>1094.0</ele><time>2026-04-04T09:36:23.985Z</time></trkpt><trkpt lat="43.8169033" lon="11.62409"><ele>1094.0</ele><time>2026-04-04T09:36:25.985Z</time></trkpt><trkpt lat="43.8168133" lon="11.6240467"><ele>1094.0</ele><time>2026-04-04T09:36:28.983Z</time></trkpt><trkpt lat="43.8167517" lon="11.6239967"><ele>1094.0</ele><time>2026-04-04T09:36:31.987Z</time></trkpt><trkpt lat="43.81669" lon="11.623915"><ele>1094.0</ele><time>2026-04-04T09:38:03.983Z</time></trkpt><trkpt lat="43.8167717" lon="11.6239683"><ele>1094.0</ele><time>2026-04-04T09:38:06.985Z</time></trkpt><trkpt lat="43.8168533" lon="11.6240067"><ele>1094.0</ele><time>2026-04-04T09:38:08.983Z</time></trkpt><trkpt lat="43.8169283" lon="11.6240317"><ele>1094.0</ele><time>2026-04-04T09:38:11.985Z</time></trkpt><trkpt lat="43.816995" lon="11.6240767"><ele>1094.0</ele><time>2026-04-04T09:38:13.985Z</time></trkpt><trkpt lat="43.8170567" lon="11.624155"><ele>1094.0</ele><time>2026-04-04T09:38:15.983Z</time></trkpt><trkpt lat="43.81713" lon="11.6242533"><ele>1094.0</ele><time>2026-04-04T09:38:17.985Z</time></trkpt><trkpt lat="43.817175" lon="11.6243433"><ele>1094.0</ele><time>2026-04-04T09:38:19.984Z</time></trkpt><trkpt lat="43.81721" lon="11.624425"><ele>1094.0</ele><time>2026-04-04T09:38:22.974Z</time></trkpt><trkpt lat="43.8172783" lon="11.6245317"><ele>1094.0</ele><time>2026-04-04T09:38:55.984Z</time></trkpt><trkpt lat="43.8171867" lon="11.6245417"><ele>1094.0</ele><time>2026-04-04T09:39:43.976Z</time></trkpt><trkpt lat="43.8171267" lon="11.6245"><ele>1094.0</ele><time>2026-04-04T09:40:03.983Z</time></trkpt><trkpt lat="43.817075" lon="11.6244167"><ele>1094.0</ele><time>2026-04-04T09:40:07.985Z</time></trkpt><trkpt lat="43.817025" lon="11.6243517"><ele>1094.0</ele><time>2026-04-04T09:40:09.983Z</time></trkpt><trkpt lat="43.8169567" lon="11.6243567"><ele>1094.0</ele><time>2026-04-04T09:40:11.986Z</time></trkpt><trkpt lat="43.8168467" lon="11.6244267"><ele>1097.0</ele><time>2026-04-04T09:40:20.985Z</time></trkpt><trkpt lat="43.8167783" lon="11.6245"><ele>1100.0</ele><time>2026-04-04T09:40:38.974Z</time></trkpt><trkpt lat="43.8167017" lon="11.62457"><ele>1103.0</ele><time>2026-04-04T09:40:41.983Z</time></trkpt><trkpt lat="43.8166367" lon="11.6245917"><ele>1106.0</ele><time>2026-04-04T09:40:44.983Z</time></trkpt><trkpt lat="43.8165467" lon="11.6245733"><ele>1109.0</ele><time>2026-04-04T09:41:09.984Z</time></trkpt><trkpt lat="43.8164833" lon="11.6245283"><ele>1112.0</ele><time>2026-04-04T09:41:11.984Z</time></trkpt><trkpt lat="43.81642" lon="11.624505"><ele>1111.8</ele><time>2026-04-04T09:41:13.985Z</time></trkpt><trkpt lat="43.8163517" lon="11.6244767"><ele>1111.6</ele><time>2026-04-04T09:41:16.987Z</time></trkpt><trkpt lat="43.8162483" lon="11.6244267"><ele>1111.3999999999999</ele><time>2026-04-04T09:41:19.987Z</time></trkpt><trkpt lat="43.816145" lon="11.624395"><ele>1111.2</ele><time>2026-04-04T09:41:21.984Z</time></trkpt><trkpt lat="43.8160717" lon="11.624335"><ele>1111.0</ele><time>2026-04-04T09:41:23.985Z</time></trkpt><trkpt lat="43.8159883" lon="11.6243233"><ele>1113.3999999999999</ele><time>2026-04-04T09:41:26.985Z</time></trkpt><trkpt lat="43.81592" lon="11.624285"><ele>1115.8</ele><time>2026-04-04T09:41:28.986Z</time></trkpt><trkpt lat="43.81583" lon="11.62423"><ele>1118.1999999999998</ele><time>2026-04-04T09:41:30.985Z</time></trkpt><trkpt lat="43.8157083" lon="11.6242033"><ele>1120.6</ele><time>2026-04-04T09:41:32.984Z</time></trkpt><trkpt lat="43.8155767" lon="11.624205"><ele>1123.0</ele><time>2026-04-04T09:41:34.984Z</time></trkpt><trkpt lat="43.81551" lon="11.6241933"><ele>1123.0</ele><time>2026-04-04T09:41:35.986Z</time></trkpt><trkpt lat="43.8154533" lon="11.624155"><ele>1123.0</ele><time>2026-04-04T09:41:36.984Z</time></trkpt><trkpt lat="43.815395" lon="11.624095"><ele>1123.0</ele><time>2026-04-04T09:41:37.976Z</time></trkpt><trkpt lat="43.8153367" lon="11.624045"><ele>1123.0</ele><time>2026-04-04T09:41:38.984Z</time></trkpt><trkpt lat="43.8152817" lon="11.6240017"><ele>1123.0</ele><time>2026-04-04T09:41:39.985Z</time></trkpt><trkpt lat="43.8152017" lon="11.62391"><ele>1123.0</ele><time>2026-04-04T09:41:41.986Z</time></trkpt><trkpt lat="43.81512" lon="11.6238767"><ele>1122.6666666666665</ele><time>2026-04-04T09:41:43.985Z</time></trkpt><trkpt lat="43.8150617" lon="11.6238217"><ele>1122.3333333333333</ele><time>2026-04-04T09:41:46.985Z</time></trkpt><trkpt lat="43.8150067" lon="11.6237633"><ele>1122.0</ele><time>2026-04-04T09:41:50.983Z</time></trkpt><trkpt lat="43.81494" lon="11.62371"><ele>1121.6666666666667</ele><time>2026-04-04T09:41:54.983Z</time></trkpt><trkpt lat="43.814885" lon="11.623635"><ele>1121.3333333333335</ele><time>2026-04-04T09:41:57.983Z</time></trkpt><trkpt lat="43.8148267" lon="11.6235533"><ele>1121.0</ele><time>2026-04-04T09:42:00.984Z</time></trkpt><trkpt lat="43.8148167" lon="11.6234517"><ele>1123.8</ele><time>2026-04-04T09:42:04.986Z</time></trkpt><trkpt lat="43.8148" lon="11.6233567"><ele>1126.6</ele><time>2026-04-04T09:42:08.984Z</time></trkpt><trkpt lat="43.8147717" lon="11.6232617"><ele>1129.4</ele><time>2026-04-04T09:42:11.984Z</time></trkpt><trkpt lat="43.81475" lon="11.623135"><ele>1132.2</ele><time>2026-04-04T09:42:13.984Z</time></trkpt><trkpt lat="43.81473" lon="11.6229933"><ele>1135.0</ele><time>2026-04-04T09:42:15.984Z</time></trkpt><trkpt lat="43.8147067" lon="11.622815"><ele>1134.8333333333333</ele><time>2026-04-04T09:42:17.983Z</time></trkpt><trkpt lat="43.814695" lon="11.6227"><ele>1134.6666666666665</ele><time>2026-04-04T09:42:18.976Z</time></trkpt><trkpt lat="43.814675" lon="11.6225917"><ele>1134.5</ele><time>2026-04-04T09:42:19.985Z</time></trkpt><trkpt lat="43.814655" lon="11.6224967"><ele>1134.3333333333333</ele><time>2026-04-04T09:42:20.983Z</time></trkpt><trkpt lat="43.8146383" lon="11.6224"><ele>1134.1666666666667</ele><time>2026-04-04T09:42:21.983Z</time></trkpt><trkpt lat="43.8146283" lon="11.6222883"><ele>1134.0</ele><time>2026-04-04T09:42:22.983Z</time></trkpt><trkpt lat="43.8146167" lon="11.62217"><ele>1134.0</ele><time>2026-04-04T09:42:23.984Z</time></trkpt><trkpt lat="43.8146017" lon="11.6220567"><ele>1134.0</ele><time>2026-04-04T09:42:24.983Z</time></trkpt><trkpt lat="43.81459" lon="11.6219583"><ele>1134.0</ele><time>2026-04-04T09:42:25.986Z</time></trkpt><trkpt lat="43.8145783" lon="11.6218533"><ele>1134.0</ele><time>2026-04-04T09:42:26.982Z</time></trkpt><trkpt lat="43.8145733" lon="11.621735"><ele>1134.0</ele><time>2026-04-04T09:42:27.983Z</time></trkpt><trkpt lat="43.8145717" lon="11.62161"><ele>1134.0</ele><time>2026-04-04T09:42:28.984Z</time></trkpt><trkpt lat="43.8145433" lon="11.6214867"><ele>1133.5</ele><time>2026-04-04T09:42:29.985Z</time></trkpt><trkpt lat="43.8145117" lon="11.62138"><ele>1133.0</ele><time>2026-04-04T09:42:30.985Z</time></trkpt><trkpt lat="43.8144733" lon="11.621285"><ele>1132.5</ele><time>2026-04-04T09:42:31.985Z</time></trkpt><trkpt lat="43.8144383" lon="11.6211983"><ele>1132.0</ele><time>2026-04-04T09:42:32.983Z</time></trkpt><trkpt lat="43.814405" lon="11.6211117"><ele>1131.5</ele><time>2026-04-04T09:42:33.983Z</time></trkpt><trkpt lat="43.81437" lon="11.62103"><ele>1131.0</ele><time>2026-04-04T09:42:34.984Z</time></trkpt><trkpt lat="43.8143467" lon="11.6208983"><ele>1132.0</ele><time>2026-04-04T09:42:36.985Z</time></trkpt><trkpt lat="43.8142983" lon="11.6207967"><ele>1133.0</ele><time>2026-04-04T09:42:38.984Z</time></trkpt><trkpt lat="43.81421" lon="11.6207167"><ele>1134.0</ele><time>2026-04-04T09:42:40.984Z</time></trkpt><trkpt lat="43.8141617" lon="11.6206033"><ele>1135.0</ele><time>2026-04-04T09:42:42.983Z</time></trkpt><trkpt lat="43.8141383" lon="11.620515"><ele>1136.0</ele><time>2026-04-04T09:42:43.989Z</time></trkpt><trkpt lat="43.8141233" lon="11.62042"><ele>1137.0</ele><time>2026-04-04T09:42:44.984Z</time></trkpt><trkpt lat="43.8141117" lon="11.62033"><ele>1137.3333333333333</ele><time>2026-04-04T09:42:45.984Z</time></trkpt><trkpt lat="43.8140867" lon="11.6202283"><ele>1137.6666666666667</ele><time>2026-04-04T09:42:46.984Z</time></trkpt><trkpt lat="43.8140467" lon="11.6201217"><ele>1138.0</ele><time>2026-04-04T09:42:47.984Z</time></trkpt><trkpt lat="43.814015" lon="11.6200317"><ele>1138.3333333333335</ele><time>2026-04-04T09:42:48.984Z</time></trkpt><trkpt lat="43.81399" lon="11.6199417"><ele>1138.6666666666667</ele><time>2026-04-04T09:42:49.987Z</time></trkpt><trkpt lat="43.8139783" lon="11.6198417"><ele>1139.0</ele><time>2026-04-04T09:42:50.984Z</time></trkpt><trkpt lat="43.8139633" lon="11.619705"><ele>1139.0</ele><time>2026-04-04T09:42:51.983Z</time></trkpt><trkpt lat="43.8139433" lon="11.6195567"><ele>1139.0</ele><time>2026-04-04T09:42:52.984Z</time></trkpt><trkpt lat="43.8139183" lon="11.6194233"><ele>1139.0</ele><time>2026-04-04T09:42:53.983Z</time></trkpt><trkpt lat="43.8138867" lon="11.6193117"><ele>1139.0</ele><time>2026-04-04T09:42:54.985Z</time></trkpt><trkpt lat="43.8138583" lon="11.6192117"><ele>1139.0</ele><time>2026-04-04T09:42:55.985Z</time></trkpt><trkpt lat="43.8138383" lon="11.6191167"><ele>1139.0</ele><time>2026-04-04T09:42:56.984Z</time></trkpt><trkpt lat="43.8138267" lon="11.61903"><ele>1138.6666666666667</ele><time>2026-04-04T09:42:57.984Z</time></trkpt><trkpt lat="43.8138167" lon="11.6189383"><ele>1138.3333333333335</ele><time>2026-04-04T09:42:58.984Z</time></trkpt><trkpt lat="43.8138133" lon="11.6188467"><ele>1138.0</ele><time>2026-04-04T09:42:59.982Z</time></trkpt><trkpt lat="43.8138" lon="11.6187567"><ele>1137.6666666666667</ele><time>2026-04-04T09:43:00.985Z</time></trkpt><trkpt lat="43.8137883" lon="11.618575"><ele>1137.3333333333333</ele><time>2026-04-04T09:43:02.984Z</time></trkpt><trkpt lat="43.8137867" lon="11.618475"><ele>1137.0</ele><time>2026-04-04T09:43:03.985Z</time></trkpt><trkpt lat="43.81376" lon="11.6183167"><ele>1137.0</ele><time>2026-04-04T09:43:05.985Z</time></trkpt><trkpt lat="43.8137417" lon="11.6181883"><ele>1137.0</ele><time>2026-04-04T09:43:07.986Z</time></trkpt><trkpt lat="43.8137433" lon="11.6180717"><ele>1137.0</ele><time>2026-04-04T09:43:09.987Z</time></trkpt><trkpt lat="43.8137317" lon="11.617955"><ele>1137.0</ele><time>2026-04-04T09:43:11.984Z</time></trkpt><trkpt lat="43.8137817" lon="11.6178983"><ele>1137.0</ele><time>2026-04-04T09:43:13.986Z</time></trkpt><trkpt lat="43.813845" lon="11.6178233"><ele>1137.0</ele><time>2026-04-04T09:43:15.984Z</time></trkpt><trkpt lat="43.813935" lon="11.617735"><ele>1137.5</ele><time>2026-04-04T09:43:17.984Z</time></trkpt><trkpt lat="43.813995" lon="11.617695"><ele>1138.0</ele><time>2026-04-04T09:43:18.984Z</time></trkpt><trkpt lat="43.8140533" lon="11.617655"><ele>1138.5</ele><time>2026-04-04T09:43:19.985Z</time></trkpt><trkpt lat="43.8141417" lon="11.61757"><ele>1139.0</ele><time>2026-04-04T09:43:21.985Z</time></trkpt><trkpt lat="43.8141967" lon="11.6175217"><ele>1139.5</ele><time>2026-04-04T09:43:23.974Z</time></trkpt><trkpt lat="43.8142583" lon="11.6174833"><ele>1140.0</ele><time>2026-04-04T09:43:25.986Z</time></trkpt><trkpt lat="43.81433" lon="11.61743"><ele>1135.8333333333333</ele><time>2026-04-04T09:43:27.984Z</time></trkpt><trkpt lat="43.814415" lon="11.617375"><ele>1131.6666666666667</ele><time>2026-04-04T09:43:29.986Z</time></trkpt><trkpt lat="43.8144867" lon="11.6173133"><ele>1127.5</ele><time>2026-04-04T09:43:31.986Z</time></trkpt><trkpt lat="43.8145317" lon="11.6172217"><ele>1123.3333333333335</ele><time>2026-04-04T09:43:33.984Z</time></trkpt><trkpt lat="43.814565" lon="11.61713"><ele>1119.1666666666667</ele><time>2026-04-04T09:43:35.984Z</time></trkpt><trkpt lat="43.8145917" lon="11.6170267"><ele>1115.0</ele><time>2026-04-04T09:43:37.992Z</time></trkpt><trkpt lat="43.8146267" lon="11.616925"><ele>1114.3333333333335</ele><time>2026-04-04T09:43:39.985Z</time></trkpt><trkpt lat="43.8146683" lon="11.6168233"><ele>1113.6666666666667</ele><time>2026-04-04T09:43:41.985Z</time></trkpt><trkpt lat="43.814705" lon="11.616695"><ele>1113.0</ele><time>2026-04-04T09:43:43.985Z</time></trkpt><trkpt lat="43.8147533" lon="11.6165833"><ele>1112.3333333333333</ele><time>2026-04-04T09:43:45.985Z</time></trkpt><trkpt lat="43.8148" lon="11.6164833"><ele>1111.6666666666665</ele><time>2026-04-04T09:43:47.984Z</time></trkpt><trkpt lat="43.8148267" lon="11.6163883"><ele>1111.0</ele><time>2026-04-04T09:43:49.985Z</time></trkpt><trkpt lat="43.814835" lon="11.616255"><ele>1108.3333333333333</ele><time>2026-04-04T09:43:51.985Z</time></trkpt><trkpt lat="43.81478" lon="11.61612"><ele>1105.6666666666665</ele><time>2026-04-04T09:43:53.986Z</time></trkpt><trkpt lat="43.81473" lon="11.616045"><ele>1103.0</ele><time>2026-04-04T09:43:54.986Z</time></trkpt><trkpt lat="43.81468" lon="11.615975"><ele>1100.3333333333333</ele><time>2026-04-04T09:43:55.986Z</time></trkpt><trkpt lat="43.814615" lon="11.6159167"><ele>1097.6666666666667</ele><time>2026-04-04T09:43:56.983Z</time></trkpt><trkpt lat="43.8145417" lon="11.6158817"><ele>1095.0</ele><time>2026-04-04T09:43:57.984Z</time></trkpt><trkpt lat="43.8144667" lon="11.6158783"><ele>1095.0</ele><time>2026-04-04T09:43:58.984Z</time></trkpt><trkpt lat="43.8143617" lon="11.6158983"><ele>1095.0</ele><time>2026-04-04T09:44:00.985Z</time></trkpt><trkpt lat="43.8142967" lon="11.6158817"><ele>1095.0</ele><time>2026-04-04T09:44:02.987Z</time></trkpt><trkpt lat="43.814255" lon="11.6158017"><ele>1095.0</ele><time>2026-04-04T09:44:05.986Z</time></trkpt><trkpt lat="43.8142417" lon="11.61569"><ele>1095.0</ele><time>2026-04-04T09:44:08.985Z</time></trkpt><trkpt lat="43.814235" lon="11.6155733"><ele>1095.0</ele><time>2026-04-04T09:44:10.985Z</time></trkpt><trkpt lat="43.81419" lon="11.61544"><ele>1097.0</ele><time>2026-04-04T09:44:12.983Z</time></trkpt><trkpt lat="43.8140833" lon="11.6153867"><ele>1099.0</ele><time>2026-04-04T09:44:14.983Z</time></trkpt><trkpt lat="43.8140117" lon="11.6154"><ele>1101.0</ele><time>2026-04-04T09:44:15.984Z</time></trkpt><trkpt lat="43.8139483" lon="11.6154233"><ele>1103.0</ele><time>2026-04-04T09:44:16.985Z</time></trkpt><trkpt lat="43.8138533" lon="11.61543"><ele>1105.0</ele><time>2026-04-04T09:44:18.986Z</time></trkpt><trkpt lat="43.813785" lon="11.6154433"><ele>1107.0</ele><time>2026-04-04T09:44:20.985Z</time></trkpt><trkpt lat="43.8137167" lon="11.6155117"><ele>1107.0</ele><time>2026-04-04T09:44:22.983Z</time></trkpt><trkpt lat="43.813645" lon="11.6155883"><ele>1107.0</ele><time>2026-04-04T09:44:24.984Z</time></trkpt><trkpt lat="43.8135583" lon="11.6156583"><ele>1107.0</ele><time>2026-04-04T09:44:26.984Z</time></trkpt><trkpt lat="43.8134917" lon="11.615705"><ele>1107.0</ele><time>2026-04-04T09:44:28.984Z</time></trkpt><trkpt lat="43.813425" lon="11.6157517"><ele>1107.0</ele><time>2026-04-04T09:44:30.986Z</time></trkpt><trkpt lat="43.8133583" lon="11.61576"><ele>1107.0</ele><time>2026-04-04T09:44:33.988Z</time></trkpt><trkpt lat="43.8132767" lon="11.6156817"><ele>1104.8</ele><time>2026-04-04T09:44:36.984Z</time></trkpt><trkpt lat="43.813205" lon="11.61563"><ele>1102.6</ele><time>2026-04-04T09:44:38.983Z</time></trkpt><trkpt lat="43.8131067" lon="11.6155683"><ele>1100.3999999999999</ele><time>2026-04-04T09:44:40.985Z</time></trkpt><trkpt lat="43.8129983" lon="11.6155417"><ele>1098.2</ele><time>2026-04-04T09:44:42.985Z</time></trkpt><trkpt lat="43.8128883" lon="11.6155717"><ele>1096.0</ele><time>2026-04-04T09:44:44.984Z</time></trkpt><trkpt lat="43.8128233" lon="11.6155967"><ele>1096.0</ele><time>2026-04-04T09:44:45.985Z</time></trkpt><trkpt lat="43.8127233" lon="11.6156267"><ele>1096.0</ele><time>2026-04-04T09:44:47.987Z</time></trkpt><trkpt lat="43.8126517" lon="11.6156067"><ele>1096.0</ele><time>2026-04-04T09:44:49.985Z</time></trkpt><trkpt lat="43.8125983" lon="11.6155317"><ele>1096.0</ele><time>2026-04-04T09:44:51.984Z</time></trkpt><trkpt lat="43.8125483" lon="11.615405"><ele>1096.0</ele><time>2026-04-04T09:44:53.984Z</time></trkpt><trkpt lat="43.8124767" lon="11.6152667"><ele>1090.0</ele><time>2026-04-04T09:44:55.985Z</time></trkpt><trkpt lat="43.8124233" lon="11.6152133"><ele>1084.0</ele><time>2026-04-04T09:44:56.983Z</time></trkpt><trkpt lat="43.8123183" lon="11.615125"><ele>1078.0</ele><time>2026-04-04T09:44:58.985Z</time></trkpt><trkpt lat="43.8122383" lon="11.6150367"><ele>1072.0</ele><time>2026-04-04T09:45:00.985Z</time></trkpt><trkpt lat="43.812245" lon="11.6148617"><ele>1066.0</ele><time>2026-04-04T09:53:15.984Z</time></trkpt><trkpt lat="43.81217" lon="11.6148317"><ele>1066.0</ele><time>2026-04-04T09:54:00.983Z</time></trkpt><trkpt lat="43.8120917" lon="11.6147033"><ele>1066.0</ele><time>2026-04-04T09:54:02.983Z</time></trkpt><trkpt lat="43.812055" lon="11.61463"><ele>1066.0</ele><time>2026-04-04T09:54:03.984Z</time></trkpt><trkpt lat="43.81199" lon="11.6145183"><ele>1066.0</ele><time>2026-04-04T09:54:05.987Z</time></trkpt><trkpt lat="43.81196" lon="11.61442"><ele>1066.0</ele><time>2026-04-04T09:54:07.985Z</time></trkpt><trkpt lat="43.8119633" lon="11.6142783"><ele>1064.8333333333333</ele><time>2026-04-04T09:54:09.985Z</time></trkpt><trkpt lat="43.8119733" lon="11.6141733"><ele>1063.6666666666665</ele><time>2026-04-04T09:54:11.983Z</time></trkpt><trkpt lat="43.81193" lon="11.6140817"><ele>1062.5</ele><time>2026-04-04T09:54:13.986Z</time></trkpt><trkpt lat="43.81187" lon="11.6140067"><ele>1061.3333333333333</ele><time>2026-04-04T09:54:15.984Z</time></trkpt><trkpt lat="43.8118017" lon="11.6139183"><ele>1060.1666666666667</ele><time>2026-04-04T09:54:17.974Z</time></trkpt><trkpt lat="43.8117267" lon="11.61384"><ele>1059.0</ele><time>2026-04-04T09:54:19.985Z</time></trkpt><trkpt lat="43.8116567" lon="11.6137717"><ele>1057.8333333333333</ele><time>2026-04-04T09:54:21.983Z</time></trkpt><trkpt lat="43.8115633" lon="11.613745"><ele>1056.6666666666667</ele><time>2026-04-04T09:54:23.984Z</time></trkpt><trkpt lat="43.811475" lon="11.6137"><ele>1055.5</ele><time>2026-04-04T09:54:25.986Z</time></trkpt><trkpt lat="43.81143" lon="11.6136367"><ele>1054.3333333333335</ele><time>2026-04-04T09:54:26.983Z</time></trkpt><trkpt lat="43.8113783" lon="11.6135483"><ele>1053.1666666666667</ele><time>2026-04-04T09:54:27.984Z</time></trkpt><trkpt lat="43.81132" lon="11.613485"><ele>1052.0</ele><time>2026-04-04T09:54:28.983Z</time></trkpt><trkpt lat="43.8112633" lon="11.6134333"><ele>1051.3333333333335</ele><time>2026-04-04T09:54:29.984Z</time></trkpt><trkpt lat="43.81121" lon="11.6133817"><ele>1050.6666666666667</ele><time>2026-04-04T09:54:30.984Z</time></trkpt><trkpt lat="43.8111133" lon="11.6132817"><ele>1050.0</ele><time>2026-04-04T09:54:32.984Z</time></trkpt><trkpt lat="43.81107" lon="11.6132183"><ele>1049.3333333333333</ele><time>2026-04-04T09:54:33.985Z</time></trkpt><trkpt lat="43.8110267" lon="11.6131317"><ele>1048.6666666666665</ele><time>2026-04-04T09:54:34.984Z</time></trkpt><trkpt lat="43.81098" lon="11.61304"><ele>1048.0</ele><time>2026-04-04T09:54:35.984Z</time></trkpt><trkpt lat="43.81093" lon="11.6129533"><ele>1046.0</ele><time>2026-04-04T09:54:36.984Z</time></trkpt><trkpt lat="43.810885" lon="11.6128683"><ele>1044.0</ele><time>2026-04-04T09:54:37.985Z</time></trkpt><trkpt lat="43.8108567" lon="11.6127783"><ele>1042.0</ele><time>2026-04-04T09:54:38.985Z</time></trkpt><trkpt lat="43.8108383" lon="11.6126783"><ele>1040.0</ele><time>2026-04-04T09:54:39.984Z</time></trkpt><trkpt lat="43.8108167" lon="11.6125733"><ele>1038.0</ele><time>2026-04-04T09:54:40.983Z</time></trkpt><trkpt lat="43.8107933" lon="11.6124833"><ele>1036.0</ele><time>2026-04-04T09:54:41.984Z</time></trkpt><trkpt lat="43.8107333" lon="11.6123783"><ele>1036.0</ele><time>2026-04-04T09:54:43.986Z</time></trkpt><trkpt lat="43.8106683" lon="11.61238"><ele>1036.0</ele><time>2026-04-04T09:54:45.985Z</time></trkpt><trkpt lat="43.8105767" lon="11.6124267"><ele>1036.0</ele><time>2026-04-04T09:54:47.984Z</time></trkpt><trkpt lat="43.8104717" lon="11.6124633"><ele>1036.0</ele><time>2026-04-04T09:54:49.986Z</time></trkpt><trkpt lat="43.810365" lon="11.612495"><ele>1036.0</ele><time>2026-04-04T09:54:51.985Z</time></trkpt><trkpt lat="43.8102633" lon="11.6125183"><ele>1036.0</ele><time>2026-04-04T09:54:53.984Z</time></trkpt><trkpt lat="43.8101617" lon="11.6125467"><ele>1036.0</ele><time>2026-04-04T09:54:55.986Z</time></trkpt><trkpt lat="43.810045" lon="11.6125733"><ele>1036.0</ele><time>2026-04-04T09:54:57.984Z</time></trkpt><trkpt lat="43.80998" lon="11.6125883"><ele>1036.0</ele><time>2026-04-04T09:54:58.984Z</time></trkpt><trkpt lat="43.8099017" lon="11.612605"><ele>1036.0</ele><time>2026-04-04T09:54:59.985Z</time></trkpt><trkpt lat="43.809835" lon="11.6125983"><ele>1036.0</ele><time>2026-04-04T09:55:00.984Z</time></trkpt><trkpt lat="43.8097267" lon="11.6125233"><ele>1032.0</ele><time>2026-04-04T09:55:02.984Z</time></trkpt><trkpt lat="43.8096833" lon="11.6124483"><ele>1028.0</ele><time>2026-04-04T09:55:03.984Z</time></trkpt><trkpt lat="43.8096583" lon="11.6123617"><ele>1024.0</ele><time>2026-04-04T09:55:04.983Z</time></trkpt><trkpt lat="43.8096483" lon="11.6122717"><ele>1020.0</ele><time>2026-04-04T09:55:05.983Z</time></trkpt><trkpt lat="43.809655" lon="11.6121467"><ele>1015.9999999999999</ele><time>2026-04-04T09:55:07.985Z</time></trkpt><trkpt lat="43.8097017" lon="11.612015"><ele>1012.0</ele><time>2026-04-04T09:55:09.984Z</time></trkpt><trkpt lat="43.809735" lon="11.6119383"><ele>1012.0</ele><time>2026-04-04T09:55:10.985Z</time></trkpt><trkpt lat="43.8097783" lon="11.61178"><ele>1012.0</ele><time>2026-04-04T09:55:12.984Z</time></trkpt><trkpt lat="43.8097783" lon="11.6116917"><ele>1012.0</ele><time>2026-04-04T09:55:13.985Z</time></trkpt><trkpt lat="43.809765" lon="11.6116017"><ele>1012.0</ele><time>2026-04-04T09:55:14.985Z</time></trkpt><trkpt lat="43.8096983" lon="11.61147"><ele>1012.0</ele><time>2026-04-04T09:55:16.984Z</time></trkpt><trkpt lat="43.8096667" lon="11.611355"><ele>1011.9999999999999</ele><time>2026-04-04T09:55:18.985Z</time></trkpt><trkpt lat="43.8096617" lon="11.6112067"><ele>1012.0</ele><time>2026-04-04T09:55:20.985Z</time></trkpt><trkpt lat="43.80968" lon="11.6111167"><ele>1012.0</ele><time>2026-04-04T09:55:21.984Z</time></trkpt><trkpt lat="43.8097083" lon="11.611035"><ele>1012.0</ele><time>2026-04-04T09:55:22.984Z</time></trkpt><trkpt lat="43.8097383" lon="11.6109567"><ele>1011.9999999999999</ele><time>2026-04-04T09:55:23.987Z</time></trkpt><trkpt lat="43.809765" lon="11.61078"><ele>1012.0</ele><time>2026-04-04T09:55:25.985Z</time></trkpt><trkpt lat="43.8097533" lon="11.6106817"><ele>1012.0</ele><time>2026-04-04T09:55:26.984Z</time></trkpt><trkpt lat="43.809745" lon="11.6105933"><ele>1012.0</ele><time>2026-04-04T09:55:27.984Z</time></trkpt><trkpt lat="43.80972" lon="11.610435"><ele>1012.0</ele><time>2026-04-04T09:55:29.984Z</time></trkpt><trkpt lat="43.8096867" lon="11.6103517"><ele>1012.0</ele><time>2026-04-04T09:55:30.985Z</time></trkpt><trkpt lat="43.8096717" lon="11.6101533"><ele>1012.0</ele><time>2026-04-04T09:55:32.984Z</time></trkpt><trkpt lat="43.80969" lon="11.6100367"><ele>1010.8</ele><time>2026-04-04T09:55:33.984Z</time></trkpt><trkpt lat="43.809685" lon="11.6099367"><ele>1009.6</ele><time>2026-04-04T09:55:34.984Z</time></trkpt><trkpt lat="43.8096517" lon="11.6097717"><ele>1008.3999999999999</ele><time>2026-04-04T09:55:36.986Z</time></trkpt><trkpt lat="43.8095917" lon="11.6096417"><ele>1007.1999999999999</ele><time>2026-04-04T09:55:38.992Z</time></trkpt><trkpt lat="43.8095517" lon="11.60957"><ele>1006.0</ele><time>2026-04-04T09:55:39.984Z</time></trkpt><trkpt lat="43.8094917" lon="11.6094917"><ele>1004.4</ele><time>2026-04-04T09:55:41.984Z</time></trkpt><trkpt lat="43.8094267" lon="11.6094283"><ele>1002.8</ele><time>2026-04-04T09:55:43.986Z</time></trkpt><trkpt lat="43.8093417" lon="11.6093817"><ele>1001.1999999999999</ele><time>2026-04-04T09:55:45.985Z</time></trkpt><trkpt lat="43.8092283" lon="11.60935"><ele>999.5999999999999</ele><time>2026-04-04T09:55:47.984Z</time></trkpt><trkpt lat="43.8091317" lon="11.6093117"><ele>998.0</ele><time>2026-04-04T09:55:49.985Z</time></trkpt><trkpt lat="43.809025" lon="11.6092717"><ele>995.1666666666667</ele><time>2026-04-04T09:55:51.983Z</time></trkpt><trkpt lat="43.80895" lon="11.6092467"><ele>992.3333333333334</ele><time>2026-04-04T09:55:52.983Z</time></trkpt><trkpt lat="43.8088767" lon="11.6092083"><ele>989.5</ele><time>2026-04-04T09:55:53.983Z</time></trkpt><trkpt lat="43.8088133" lon="11.6091667"><ele>986.6666666666667</ele><time>2026-04-04T09:55:54.984Z</time></trkpt><trkpt lat="43.808755" lon="11.6091083"><ele>983.8333333333334</ele><time>2026-04-04T09:55:55.984Z</time></trkpt><trkpt lat="43.8087033" lon="11.6090233"><ele>981.0</ele><time>2026-04-04T09:55:56.983Z</time></trkpt><trkpt lat="43.8086533" lon="11.6089367"><ele>981.0</ele><time>2026-04-04T09:55:57.984Z</time></trkpt><trkpt lat="43.8086067" lon="11.6088583"><ele>981.0</ele><time>2026-04-04T09:55:58.983Z</time></trkpt><trkpt lat="43.8085433" lon="11.6087633"><ele>981.0</ele><time>2026-04-04T09:56:00.983Z</time></trkpt><trkpt lat="43.808495" lon="11.608675"><ele>981.0</ele><time>2026-04-04T09:56:02.984Z</time></trkpt><trkpt lat="43.8084217" lon="11.6085767"><ele>981.0</ele><time>2026-04-04T09:56:04.983Z</time></trkpt><trkpt lat="43.80837" lon="11.6085117"><ele>981.0</ele><time>2026-04-04T09:56:05.984Z</time></trkpt><trkpt lat="43.8083167" lon="11.60844"><ele>980.5</ele><time>2026-04-04T09:56:06.983Z</time></trkpt><trkpt lat="43.8082667" lon="11.6083667"><ele>980.0</ele><time>2026-04-04T09:56:07.984Z</time></trkpt><trkpt lat="43.808225" lon="11.6082883"><ele>979.5</ele><time>2026-04-04T09:56:08.984Z</time></trkpt><trkpt lat="43.80819" lon="11.6081967"><ele>979.0</ele><time>2026-04-04T09:56:09.983Z</time></trkpt><trkpt lat="43.80817" lon="11.60808"><ele>978.5</ele><time>2026-04-04T09:56:10.983Z</time></trkpt><trkpt lat="43.8081617" lon="11.607965"><ele>978.0</ele><time>2026-04-04T09:56:11.983Z</time></trkpt><trkpt lat="43.8081633" lon="11.6078633"><ele>978.4285714285714</ele><time>2026-04-04T09:56:12.984Z</time></trkpt><trkpt lat="43.8081683" lon="11.60777"><ele>978.8571428571429</ele><time>2026-04-04T09:56:13.984Z</time></trkpt><trkpt lat="43.8081817" lon="11.6076817"><ele>979.2857142857143</ele><time>2026-04-04T09:56:14.983Z</time></trkpt><trkpt lat="43.8081983" lon="11.60759"><ele>979.7142857142858</ele><time>2026-04-04T09:56:15.983Z</time></trkpt><trkpt lat="43.8082267" lon="11.607505"><ele>980.1428571428571</ele><time>2026-04-04T09:56:16.983Z</time></trkpt><trkpt lat="43.8082533" lon="11.607415"><ele>980.5714285714287</ele><time>2026-04-04T09:56:17.983Z</time></trkpt><trkpt lat="43.8082867" lon="11.6073117"><ele>981.0</ele><time>2026-04-04T09:56:18.983Z</time></trkpt><trkpt lat="43.8083267" lon="11.6072067"><ele>981.0</ele><time>2026-04-04T09:56:19.985Z</time></trkpt><trkpt lat="43.8083817" lon="11.6071133"><ele>981.0</ele><time>2026-04-04T09:56:20.983Z</time></trkpt><trkpt lat="43.8084433" lon="11.607025"><ele>981.0</ele><time>2026-04-04T09:56:21.983Z</time></trkpt><trkpt lat="43.8084917" lon="11.606935"><ele>981.0</ele><time>2026-04-04T09:56:23.063Z</time></trkpt><trkpt lat="43.8085117" lon="11.606845"><ele>981.0</ele><time>2026-04-04T09:56:23.986Z</time></trkpt><trkpt lat="43.8085033" lon="11.6067433"><ele>981.0</ele><time>2026-04-04T09:56:24.984Z</time></trkpt><trkpt lat="43.808475" lon="11.6066233"><ele>984.0</ele><time>2026-04-04T09:56:25.986Z</time></trkpt><trkpt lat="43.8084217" lon="11.606475"><ele>987.0</ele><time>2026-04-04T09:56:26.984Z</time></trkpt><trkpt lat="43.8083683" lon="11.60631"><ele>990.0</ele><time>2026-04-04T09:56:27.983Z</time></trkpt><trkpt lat="43.8083183" lon="11.6061367"><ele>993.0</ele><time>2026-04-04T09:56:28.983Z</time></trkpt><trkpt lat="43.8082667" lon="11.6059617"><ele>996.25</ele><time>2026-04-04T09:56:29.984Z</time></trkpt><trkpt lat="43.8082083" lon="11.6057933"><ele>999.5</ele><time>2026-04-04T09:56:30.986Z</time></trkpt><trkpt lat="43.808155" lon="11.6056317"><ele>1002.75</ele><time>2026-04-04T09:56:31.985Z</time></trkpt><trkpt lat="43.8081017" lon="11.60548"><ele>1006.0</ele><time>2026-04-04T09:56:32.983Z</time></trkpt><trkpt lat="43.80805" lon="11.60535"><ele>1005.9999999999999</ele><time>2026-04-04T09:56:33.984Z</time></trkpt><trkpt lat="43.8079933" lon="11.6052517"><ele>1006.0</ele><time>2026-04-04T09:56:34.983Z</time></trkpt><trkpt lat="43.8079283" lon="11.605185"><ele>1006.0</ele><time>2026-04-04T09:56:35.984Z</time></trkpt><trkpt lat="43.8078533" lon="11.6051633"><ele>1006.0</ele><time>2026-04-04T09:56:36.984Z</time></trkpt><trkpt lat="43.8077667" lon="11.6051733"><ele>1005.9999999999999</ele><time>2026-04-04T09:56:37.986Z</time></trkpt><trkpt lat="43.8076717" lon="11.6051967"><ele>1006.0</ele><time>2026-04-04T09:56:38.984Z</time></trkpt><trkpt lat="43.8075817" lon="11.6052183"><ele>1004.6666666666666</ele><time>2026-04-04T09:56:39.984Z</time></trkpt><trkpt lat="43.8075" lon="11.605245"><ele>1003.3333333333333</ele><time>2026-04-04T09:56:40.986Z</time></trkpt><trkpt lat="43.80743" lon="11.605265"><ele>1002.0</ele><time>2026-04-04T09:56:41.986Z</time></trkpt><trkpt lat="43.80736" lon="11.6052917"><ele>1000.6666666666667</ele><time>2026-04-04T09:56:42.984Z</time></trkpt><trkpt lat="43.807285" lon="11.6053233"><ele>999.3333333333334</ele><time>2026-04-04T09:56:43.985Z</time></trkpt><trkpt lat="43.8072033" lon="11.605355"><ele>998.0</ele><time>2026-04-04T09:56:44.983Z</time></trkpt><trkpt lat="43.8071083" lon="11.605395"><ele>998.0</ele><time>2026-04-04T09:56:45.984Z</time></trkpt><trkpt lat="43.8070083" lon="11.6054283"><ele>998.0</ele><time>2026-04-04T09:56:46.984Z</time></trkpt><trkpt lat="43.8069033" lon="11.6054483"><ele>998.0</ele><time>2026-04-04T09:56:47.984Z</time></trkpt><trkpt lat="43.806795" lon="11.6054467"><ele>998.0</ele><time>2026-04-04T09:56:48.983Z</time></trkpt><trkpt lat="43.8066867" lon="11.60543"><ele>998.0</ele><time>2026-04-04T09:56:49.985Z</time></trkpt><trkpt lat="43.8065833" lon="11.6054033"><ele>997.0</ele><time>2026-04-04T09:56:50.984Z</time></trkpt><trkpt lat="43.8064867" lon="11.6053667"><ele>996.0</ele><time>2026-04-04T09:56:51.984Z</time></trkpt><trkpt lat="43.806385" lon="11.605325"><ele>995.0</ele><time>2026-04-04T09:56:52.984Z</time></trkpt><trkpt lat="43.8062717" lon="11.60529"><ele>994.0</ele><time>2026-04-04T09:56:53.984Z</time></trkpt><trkpt lat="43.8061583" lon="11.6052517"><ele>993.0</ele><time>2026-04-04T09:56:54.984Z</time></trkpt><trkpt lat="43.8060533" lon="11.6052133"><ele>994.0</ele><time>2026-04-04T09:56:55.985Z</time></trkpt><trkpt lat="43.8059567" lon="11.605175"><ele>995.0</ele><time>2026-04-04T09:56:56.983Z</time></trkpt><trkpt lat="43.8058667" lon="11.6051283"><ele>996.0</ele><time>2026-04-04T09:56:57.984Z</time></trkpt><trkpt lat="43.805785" lon="11.6050733"><ele>997.0</ele><time>2026-04-04T09:56:58.985Z</time></trkpt><trkpt lat="43.80572" lon="11.6050017"><ele>998.0</ele><time>2026-04-04T09:56:59.987Z</time></trkpt><trkpt lat="43.8056533" lon="11.6049267"><ele>998.0000000000001</ele><time>2026-04-04T09:57:00.985Z</time></trkpt><trkpt lat="43.8055883" lon="11.6048517"><ele>998.0</ele><time>2026-04-04T09:57:01.987Z</time></trkpt><trkpt lat="43.8055283" lon="11.6047733"><ele>998.0</ele><time>2026-04-04T09:57:02.986Z</time></trkpt><trkpt lat="43.8054733" lon="11.6046983"><ele>998.0</ele><time>2026-04-04T09:57:03.99Z</time></trkpt><trkpt lat="43.8054117" lon="11.6046267"><ele>998.0000000000001</ele><time>2026-04-04T09:57:04.985Z</time></trkpt><trkpt lat="43.805355" lon="11.6045583"><ele>998.0</ele><time>2026-04-04T09:57:05.985Z</time></trkpt><trkpt lat="43.8053067" lon="11.6044933"><ele>996.0000000000001</ele><time>2026-04-04T09:57:06.985Z</time></trkpt><trkpt lat="43.8052667" lon="11.60442"><ele>994.0</ele><time>2026-04-04T09:57:07.986Z</time></trkpt><trkpt lat="43.8052367" lon="11.604335"><ele>992.0</ele><time>2026-04-04T09:57:08.986Z</time></trkpt><trkpt lat="43.805205" lon="11.6042367"><ele>990.0</ele><time>2026-04-04T09:57:09.984Z</time></trkpt><trkpt lat="43.80518" lon="11.6041283"><ele>988.0000000000001</ele><time>2026-04-04T09:57:10.984Z</time></trkpt><trkpt lat="43.8051583" lon="11.6040083"><ele>986.0</ele><time>2026-04-04T09:57:11.986Z</time></trkpt><trkpt lat="43.8051517" lon="11.6038933"><ele>988.7142857142857</ele><time>2026-04-04T09:57:12.986Z</time></trkpt><trkpt lat="43.8051383" lon="11.6037867"><ele>991.4285714285716</ele><time>2026-04-04T09:57:13.986Z</time></trkpt><trkpt lat="43.805135" lon="11.6036783"><ele>994.1428571428572</ele><time>2026-04-04T09:57:14.985Z</time></trkpt><trkpt lat="43.8051333" lon="11.6035783"><ele>996.8571428571429</ele><time>2026-04-04T09:57:15.984Z</time></trkpt><trkpt lat="43.8051317" lon="11.603485"><ele>999.5714285714287</ele><time>2026-04-04T09:57:16.985Z</time></trkpt><trkpt lat="43.805125" lon="11.6033917"><ele>1002.2857142857144</ele><time>2026-04-04T09:57:17.984Z</time></trkpt><trkpt lat="43.8051083" lon="11.603305"><ele>1005.0000000000001</ele><time>2026-04-04T09:57:18.985Z</time></trkpt><trkpt lat="43.8050883" lon="11.6032117"><ele>1005.0000000000001</ele><time>2026-04-04T09:57:19.986Z</time></trkpt><trkpt lat="43.8050633" lon="11.6031217"><ele>1005.0</ele><time>2026-04-04T09:57:20.985Z</time></trkpt><trkpt lat="43.8050317" lon="11.6030317"><ele>1005.0000000000001</ele><time>2026-04-04T09:57:21.985Z</time></trkpt><trkpt lat="43.80499" lon="11.602945"><ele>1005.0000000000001</ele><time>2026-04-04T09:57:22.985Z</time></trkpt><trkpt lat="43.8049367" lon="11.602875"><ele>1005.0</ele><time>2026-04-04T09:57:23.985Z</time></trkpt><trkpt lat="43.8048783" lon="11.6028217"><ele>1005.0000000000001</ele><time>2026-04-04T09:57:24.985Z</time></trkpt><trkpt lat="43.8048133" lon="11.6027733"><ele>1005.0000000000001</ele><time>2026-04-04T09:57:25.985Z</time></trkpt><trkpt lat="43.8047383" lon="11.6027417"><ele>1005.3333333333334</ele><time>2026-04-04T09:57:26.984Z</time></trkpt><trkpt lat="43.8046717" lon="11.60271"><ele>1005.6666666666667</ele><time>2026-04-04T09:57:27.984Z</time></trkpt><trkpt lat="43.804595" lon="11.6026767"><ele>1006.0</ele><time>2026-04-04T09:57:28.985Z</time></trkpt><trkpt lat="43.8045033" lon="11.60266"><ele>1006.3333333333334</ele><time>2026-04-04T09:57:29.985Z</time></trkpt><trkpt lat="43.8044133" lon="11.6026433"><ele>1006.6666666666667</ele><time>2026-04-04T09:57:30.984Z</time></trkpt><trkpt lat="43.8043333" lon="11.6026267"><ele>1007.0</ele><time>2026-04-04T09:57:31.986Z</time></trkpt><trkpt lat="43.8042517" lon="11.60264"><ele>1007.0000000000001</ele><time>2026-04-04T09:57:32.984Z</time></trkpt><trkpt lat="43.8041683" lon="11.6026517"><ele>1007.0</ele><time>2026-04-04T09:57:33.984Z</time></trkpt><trkpt lat="43.8040767" lon="11.6026617"><ele>1007.0</ele><time>2026-04-04T09:57:34.985Z</time></trkpt><trkpt lat="43.8039917" lon="11.6026717"><ele>1007.0</ele><time>2026-04-04T09:57:35.984Z</time></trkpt><trkpt lat="43.8039117" lon="11.6026733"><ele>1007.0000000000001</ele><time>2026-04-04T09:57:36.984Z</time></trkpt><trkpt lat="43.8038383" lon="11.6026517"><ele>1007.0</ele><time>2026-04-04T09:57:37.986Z</time></trkpt><trkpt lat="43.8037617" lon="11.6026233"><ele>1007.0000000000001</ele><time>2026-04-04T09:57:38.983Z</time></trkpt><trkpt lat="43.8036867" lon="11.6025917"><ele>1007.0</ele><time>2026-04-04T09:57:39.984Z</time></trkpt><trkpt lat="43.803615" lon="11.6025517"><ele>1007.0</ele><time>2026-04-04T09:57:40.984Z</time></trkpt><trkpt lat="43.8035433" lon="11.6025"><ele>1007.0</ele><time>2026-04-04T09:57:41.984Z</time></trkpt><trkpt lat="43.80348" lon="11.60244"><ele>1007.0000000000001</ele><time>2026-04-04T09:57:42.984Z</time></trkpt><trkpt lat="43.8034217" lon="11.602365"><ele>1007.0</ele><time>2026-04-04T09:57:43.986Z</time></trkpt><trkpt lat="43.80337" lon="11.6022783"><ele>1008.1666666666667</ele><time>2026-04-04T09:57:44.984Z</time></trkpt><trkpt lat="43.8033167" lon="11.6021967"><ele>1009.3333333333334</ele><time>2026-04-04T09:57:45.984Z</time></trkpt><trkpt lat="43.80326" lon="11.60214"><ele>1010.5</ele><time>2026-04-04T09:57:46.985Z</time></trkpt><trkpt lat="43.8031967" lon="11.6021"><ele>1011.6666666666667</ele><time>2026-04-04T09:57:47.986Z</time></trkpt><trkpt lat="43.8031267" lon="11.6020683"><ele>1012.8333333333334</ele><time>2026-04-04T09:57:48.987Z</time></trkpt><trkpt lat="43.80304" lon="11.602045"><ele>1014.0</ele><time>2026-04-04T09:57:49.987Z</time></trkpt><trkpt lat="43.8029483" lon="11.60204"><ele>1014.0</ele><time>2026-04-04T09:57:50.986Z</time></trkpt><trkpt lat="43.8028567" lon="11.6020617"><ele>1014.0</ele><time>2026-04-04T09:57:51.984Z</time></trkpt><trkpt lat="43.80278" lon="11.6021"><ele>1014.0</ele><time>2026-04-04T09:57:52.984Z</time></trkpt><trkpt lat="43.8027083" lon="11.602145"><ele>1014.0</ele><time>2026-04-04T09:57:53.984Z</time></trkpt><trkpt lat="43.8026517" lon="11.6021883"><ele>1014.0</ele><time>2026-04-04T09:57:54.985Z</time></trkpt><trkpt lat="43.8025883" lon="11.6022617"><ele>1014.0</ele><time>2026-04-04T09:57:55.985Z</time></trkpt><trkpt lat="43.8025167" lon="11.602345"><ele>1013.0</ele><time>2026-04-04T09:57:56.985Z</time></trkpt><trkpt lat="43.80243" lon="11.602435"><ele>1012.0000000000001</ele><time>2026-04-04T09:57:57.985Z</time></trkpt><trkpt lat="43.8023483" lon="11.6025333"><ele>1011.0000000000001</ele><time>2026-04-04T09:57:58.985Z</time></trkpt><trkpt lat="43.8022617" lon="11.602615"><ele>1010.0</ele><time>2026-04-04T09:57:59.985Z</time></trkpt><trkpt lat="43.802195" lon="11.60271"><ele>1009.0</ele><time>2026-04-04T09:58:00.984Z</time></trkpt><trkpt lat="43.8021233" lon="11.602785"><ele>1007.1666666666666</ele><time>2026-04-04T09:58:01.986Z</time></trkpt><trkpt lat="43.802055" lon="11.6028583"><ele>1005.3333333333333</ele><time>2026-04-04T09:58:02.984Z</time></trkpt><trkpt lat="43.8019867" lon="11.6029267"><ele>1003.5</ele><time>2026-04-04T09:58:03.987Z</time></trkpt><trkpt lat="43.8019267" lon="11.603015"><ele>1001.6666666666667</ele><time>2026-04-04T09:58:04.985Z</time></trkpt><trkpt lat="43.80188" lon="11.603105"><ele>999.8333333333334</ele><time>2026-04-04T09:58:05.986Z</time></trkpt><trkpt lat="43.8018383" lon="11.6032033"><ele>998.0</ele><time>2026-04-04T09:58:06.986Z</time></trkpt><trkpt lat="43.801795" lon="11.6033033"><ele>998.0000000000001</ele><time>2026-04-04T09:58:07.985Z</time></trkpt><trkpt lat="43.801755" lon="11.6034017"><ele>998.0</ele><time>2026-04-04T09:58:08.984Z</time></trkpt><trkpt lat="43.8017283" lon="11.6034967"><ele>998.0</ele><time>2026-04-04T09:58:09.986Z</time></trkpt><trkpt lat="43.8016967" lon="11.6035917"><ele>998.0</ele><time>2026-04-04T09:58:10.984Z</time></trkpt><trkpt lat="43.801665" lon="11.6036917"><ele>998.0000000000001</ele><time>2026-04-04T09:58:11.984Z</time></trkpt><trkpt lat="43.8016283" lon="11.60381"><ele>998.0</ele><time>2026-04-04T09:58:12.985Z</time></trkpt><trkpt lat="43.8015767" lon="11.6039283"><ele>1000.2</ele><time>2026-04-04T09:58:13.986Z</time></trkpt><trkpt lat="43.8015233" lon="11.6040433"><ele>1002.4</ele><time>2026-04-04T09:58:14.984Z</time></trkpt><trkpt lat="43.80147" lon="11.60415"><ele>1004.6000000000001</ele><time>2026-04-04T09:58:15.984Z</time></trkpt><trkpt lat="43.8014167" lon="11.6042367"><ele>1006.8000000000001</ele><time>2026-04-04T09:58:16.983Z</time></trkpt><trkpt lat="43.801355" lon="11.604325"><ele>1009.0</ele><time>2026-04-04T09:58:17.984Z</time></trkpt><trkpt lat="43.8012883" lon="11.60442"><ele>1007.0</ele><time>2026-04-04T09:58:18.983Z</time></trkpt><trkpt lat="43.801205" lon="11.604515"><ele>1005.0000000000001</ele><time>2026-04-04T09:58:19.986Z</time></trkpt><trkpt lat="43.8011067" lon="11.6045933"><ele>1003.0000000000001</ele><time>2026-04-04T09:58:20.984Z</time></trkpt><trkpt lat="43.80102" lon="11.604675"><ele>1001.0</ele><time>2026-04-04T09:58:21.983Z</time></trkpt><trkpt lat="43.8009317" lon="11.6047417"><ele>999.0</ele><time>2026-04-04T09:58:22.984Z</time></trkpt><trkpt lat="43.8008433" lon="11.6047617"><ele>997.2</ele><time>2026-04-04T09:58:23.982Z</time></trkpt><trkpt lat="43.8007533" lon="11.6047533"><ele>995.4000000000001</ele><time>2026-04-04T09:58:24.983Z</time></trkpt><trkpt lat="43.8006617" lon="11.604725"><ele>993.6</ele><time>2026-04-04T09:58:25.984Z</time></trkpt><trkpt lat="43.80057" lon="11.6046867"><ele>991.8</ele><time>2026-04-04T09:58:26.984Z</time></trkpt><trkpt lat="43.80048" lon="11.6046467"><ele>990.0</ele><time>2026-04-04T09:58:27.984Z</time></trkpt><trkpt lat="43.8003867" lon="11.6046033"><ele>990.0</ele><time>2026-04-04T09:58:28.987Z</time></trkpt><trkpt lat="43.800295" lon="11.604545"><ele>990.0</ele><time>2026-04-04T09:58:29.986Z</time></trkpt><trkpt lat="43.8001983" lon="11.6044767"><ele>990.0</ele><time>2026-04-04T09:58:30.984Z</time></trkpt><trkpt lat="43.8000983" lon="11.6043933"><ele>990.0</ele><time>2026-04-04T09:58:31.985Z</time></trkpt><trkpt lat="43.8" lon="11.604305"><ele>990.0</ele><time>2026-04-04T09:58:32.984Z</time></trkpt><trkpt lat="43.799905" lon="11.6042383"><ele>989.8</ele><time>2026-04-04T09:58:33.983Z</time></trkpt><trkpt lat="43.79981" lon="11.6041917"><ele>989.6</ele><time>2026-04-04T09:58:34.983Z</time></trkpt><trkpt lat="43.7997117" lon="11.604165"><ele>989.4000000000001</ele><time>2026-04-04T09:58:35.983Z</time></trkpt><trkpt lat="43.7996183" lon="11.60415"><ele>989.2</ele><time>2026-04-04T09:58:36.983Z</time></trkpt><trkpt lat="43.7995367" lon="11.6041617"><ele>989.0</ele><time>2026-04-04T09:58:37.986Z</time></trkpt><trkpt lat="43.79944" lon="11.6041683"><ele>990.0</ele><time>2026-04-04T09:58:38.985Z</time></trkpt><trkpt lat="43.7993317" lon="11.6041617"><ele>991.0000000000001</ele><time>2026-04-04T09:58:39.983Z</time></trkpt><trkpt lat="43.7992167" lon="11.604145"><ele>992.0000000000001</ele><time>2026-04-04T09:58:40.983Z</time></trkpt><trkpt lat="43.7991" lon="11.6041217"><ele>993.0</ele><time>2026-04-04T09:58:41.983Z</time></trkpt><trkpt lat="43.7989967" lon="11.6040867"><ele>994.0</ele><time>2026-04-04T09:58:42.984Z</time></trkpt><trkpt lat="43.7989017" lon="11.6040517"><ele>994.0</ele><time>2026-04-04T09:58:43.981Z</time></trkpt><trkpt lat="43.798805" lon="11.6040183"><ele>994.0000000000001</ele><time>2026-04-04T09:58:44.984Z</time></trkpt><trkpt lat="43.7987083" lon="11.60398"><ele>994.0000000000001</ele><time>2026-04-04T09:58:45.983Z</time></trkpt><trkpt lat="43.79861" lon="11.6039467"><ele>994.0</ele><time>2026-04-04T09:58:46.984Z</time></trkpt><trkpt lat="43.79851" lon="11.603915"><ele>994.0</ele><time>2026-04-04T09:58:47.988Z</time></trkpt><trkpt lat="43.7984217" lon="11.6038783"><ele>993.9999999999999</ele><time>2026-04-04T09:58:48.985Z</time></trkpt><trkpt lat="43.79834" lon="11.6038283"><ele>994.0</ele><time>2026-04-04T09:58:49.985Z</time></trkpt><trkpt lat="43.7982667" lon="11.603755"><ele>994.0</ele><time>2026-04-04T09:58:50.983Z</time></trkpt><trkpt lat="43.798195" lon="11.6036767"><ele>994.0</ele><time>2026-04-04T09:58:51.984Z</time></trkpt><trkpt lat="43.7981317" lon="11.6035917"><ele>993.9999999999999</ele><time>2026-04-04T09:58:52.985Z</time></trkpt><trkpt lat="43.79807" lon="11.6035083"><ele>994.0</ele><time>2026-04-04T09:58:53.986Z</time></trkpt><trkpt lat="43.7980083" lon="11.6034317"><ele>993.9999999999999</ele><time>2026-04-04T09:58:54.987Z</time></trkpt><trkpt lat="43.797945" lon="11.603355"><ele>994.0</ele><time>2026-04-04T09:58:55.987Z</time></trkpt><trkpt lat="43.7978817" lon="11.6032867"><ele>994.0</ele><time>2026-04-04T09:58:56.983Z</time></trkpt><trkpt lat="43.7978133" lon="11.60324"><ele>994.0</ele><time>2026-04-04T09:58:57.982Z</time></trkpt><trkpt lat="43.7977433" lon="11.6032183"><ele>993.9999999999999</ele><time>2026-04-04T09:58:58.984Z</time></trkpt><trkpt lat="43.7976767" lon="11.60322"><ele>994.0</ele><time>2026-04-04T09:58:59.985Z</time></trkpt><trkpt lat="43.7975617" lon="11.6032683"><ele>991.8000000000001</ele><time>2026-04-04T09:59:01.985Z</time></trkpt><trkpt lat="43.7974683" lon="11.6033117"><ele>989.6000000000001</ele><time>2026-04-04T09:59:03.988Z</time></trkpt><trkpt lat="43.7973883" lon="11.6033317"><ele>987.4</ele><time>2026-04-04T09:59:05.986Z</time></trkpt><trkpt lat="43.7973217" lon="11.6033817"><ele>985.2</ele><time>2026-04-04T10:00:07.982Z</time></trkpt><trkpt lat="43.7972067" lon="11.6033517"><ele>983.0</ele><time>2026-04-04T10:00:09.984Z</time></trkpt><trkpt lat="43.7971283" lon="11.6033283"><ele>983.0000000000001</ele><time>2026-04-04T10:00:10.985Z</time></trkpt><trkpt lat="43.7970517" lon="11.60331"><ele>983.0</ele><time>2026-04-04T10:00:11.987Z</time></trkpt><trkpt lat="43.796975" lon="11.603295"><ele>983.0</ele><time>2026-04-04T10:00:12.985Z</time></trkpt><trkpt lat="43.7969117" lon="11.6032833"><ele>983.0</ele><time>2026-04-04T10:00:13.988Z</time></trkpt><trkpt lat="43.796835" lon="11.6032967"><ele>983.0000000000001</ele><time>2026-04-04T10:00:14.986Z</time></trkpt><trkpt lat="43.7967583" lon="11.6033417"><ele>983.0</ele><time>2026-04-04T10:00:15.989Z</time></trkpt><trkpt lat="43.7966917" lon="11.6033917"><ele>983.3333333333334</ele><time>2026-04-04T10:00:16.988Z</time></trkpt><trkpt lat="43.7966167" lon="11.6034217"><ele>983.6666666666667</ele><time>2026-04-04T10:00:17.987Z</time></trkpt><trkpt lat="43.79654" lon="11.6034417"><ele>984.0</ele><time>2026-04-04T10:00:18.984Z</time></trkpt><trkpt lat="43.7964633" lon="11.60349"><ele>984.3333333333333</ele><time>2026-04-04T10:00:19.986Z</time></trkpt><trkpt lat="43.796395" lon="11.6035467"><ele>984.6666666666666</ele><time>2026-04-04T10:00:20.984Z</time></trkpt><trkpt lat="43.7963133" lon="11.6035967"><ele>985.0</ele><time>2026-04-04T10:00:21.984Z</time></trkpt><trkpt lat="43.796235" lon="11.6036067"><ele>985.0</ele><time>2026-04-04T10:00:22.986Z</time></trkpt><trkpt lat="43.796155" lon="11.6036167"><ele>985.0</ele><time>2026-04-04T10:00:23.986Z</time></trkpt><trkpt lat="43.79607" lon="11.6035883"><ele>985.0</ele><time>2026-04-04T10:00:24.984Z</time></trkpt><trkpt lat="43.7959833" lon="11.6035483"><ele>985.0</ele><time>2026-04-04T10:00:25.985Z</time></trkpt><trkpt lat="43.79589" lon="11.6035"><ele>985.0</ele><time>2026-04-04T10:00:26.984Z</time></trkpt><trkpt lat="43.795805" lon="11.6034017"><ele>986.6</ele><time>2026-04-04T10:00:27.985Z</time></trkpt><trkpt lat="43.7957067" lon="11.6033133"><ele>988.2</ele><time>2026-04-04T10:00:28.986Z</time></trkpt><trkpt lat="43.795615" lon="11.603215"><ele>989.8</ele><time>2026-04-04T10:00:29.986Z</time></trkpt><trkpt lat="43.795535" lon="11.6031117"><ele>991.4</ele><time>2026-04-04T10:00:30.986Z</time></trkpt><trkpt lat="43.7954683" lon="11.6030083"><ele>993.0</ele><time>2026-04-04T10:00:31.99Z</time></trkpt><trkpt lat="43.795415" lon="11.6029067"><ele>993.0</ele><time>2026-04-04T10:00:32.986Z</time></trkpt><trkpt lat="43.79535" lon="11.6028467"><ele>993.0</ele><time>2026-04-04T10:00:33.985Z</time></trkpt><trkpt lat="43.7952767" lon="11.6028167"><ele>993.0</ele><time>2026-04-04T10:00:34.985Z</time></trkpt><trkpt lat="43.7952017" lon="11.6028133"><ele>993.0</ele><time>2026-04-04T10:00:35.986Z</time></trkpt><trkpt lat="43.7951233" lon="11.602835"><ele>993.0</ele><time>2026-04-04T10:00:36.986Z</time></trkpt><trkpt lat="43.79506" lon="11.602825"><ele>993.0</ele><time>2026-04-04T10:00:37.987Z</time></trkpt><trkpt lat="43.794995" lon="11.6028217"><ele>993.0</ele><time>2026-04-04T10:00:38.985Z</time></trkpt><trkpt lat="43.7949317" lon="11.60279"><ele>994.5</ele><time>2026-04-04T10:00:39.985Z</time></trkpt><trkpt lat="43.7948383" lon="11.602715"><ele>996.0</ele><time>2026-04-04T10:00:41.986Z</time></trkpt><trkpt lat="43.7947633" lon="11.6026217"><ele>997.5</ele><time>2026-04-04T10:00:44.983Z</time></trkpt><trkpt lat="43.79471" lon="11.6025733"><ele>999.0</ele><time>2026-04-04T10:00:46.984Z</time></trkpt><trkpt lat="43.794685" lon="11.6024783"><ele>1000.5</ele><time>2026-04-04T10:01:19.985Z</time></trkpt><trkpt lat="43.7946233" lon="11.602425"><ele>1002.0</ele><time>2026-04-04T10:01:22.985Z</time></trkpt><trkpt lat="43.794585" lon="11.6023433"><ele>1002.0</ele><time>2026-04-04T10:01:26.983Z</time></trkpt><trkpt lat="43.794525" lon="11.60227"><ele>1002.0</ele><time>2026-04-04T10:01:29.985Z</time></trkpt><trkpt lat="43.79446" lon="11.6022183"><ele>1002.0</ele><time>2026-04-04T10:01:31.985Z</time></trkpt><trkpt lat="43.7944133" lon="11.6021583"><ele>1002.0</ele><time>2026-04-04T10:01:33.985Z</time></trkpt><trkpt lat="43.79434" lon="11.60205"><ele>1002.0</ele><time>2026-04-04T10:01:35.987Z</time></trkpt><trkpt lat="43.7942967" lon="11.60197"><ele>1002.0</ele><time>2026-04-04T10:01:36.985Z</time></trkpt><trkpt lat="43.7942517" lon="11.601875"><ele>1005.8</ele><time>2026-04-04T10:01:37.986Z</time></trkpt><trkpt lat="43.7941767" lon="11.6017633"><ele>1009.6</ele><time>2026-04-04T10:01:38.987Z</time></trkpt><trkpt lat="43.7941133" lon="11.601655"><ele>1013.3999999999999</ele><time>2026-04-04T10:01:39.985Z</time></trkpt><trkpt lat="43.794055" lon="11.6015583"><ele>1017.1999999999999</ele><time>2026-04-04T10:01:40.983Z</time></trkpt><trkpt lat="43.7939933" lon="11.6014867"><ele>1021.0</ele><time>2026-04-04T10:01:41.984Z</time></trkpt><trkpt lat="43.7939467" lon="11.6014133"><ele>1021.0</ele><time>2026-04-04T10:01:42.983Z</time></trkpt><trkpt lat="43.7938333" lon="11.601365"><ele>1020.9999999999999</ele><time>2026-04-04T10:01:44.985Z</time></trkpt><trkpt lat="43.7937033" lon="11.6013533"><ele>1020.9999999999999</ele><time>2026-04-04T10:01:46.985Z</time></trkpt><trkpt lat="43.7936233" lon="11.6013617"><ele>1021.0</ele><time>2026-04-04T10:01:47.985Z</time></trkpt><trkpt lat="43.7935417" lon="11.6013417"><ele>1021.0</ele><time>2026-04-04T10:01:48.986Z</time></trkpt><trkpt lat="43.79345" lon="11.60127"><ele>1021.9999999999999</ele><time>2026-04-04T10:01:50.987Z</time></trkpt><trkpt lat="43.7933683" lon="11.6011717"><ele>1023.0</ele><time>2026-04-04T10:01:52.983Z</time></trkpt><trkpt lat="43.7933" lon="11.6010817"><ele>1024.0</ele><time>2026-04-04T10:01:54.985Z</time></trkpt><trkpt lat="43.7932483" lon="11.601005"><ele>1025.0</ele><time>2026-04-04T10:01:56.984Z</time></trkpt><trkpt lat="43.7932083" lon="11.600935"><ele>1026.0</ele><time>2026-04-04T10:01:58.984Z</time></trkpt><trkpt lat="43.7931733" lon="11.6008233"><ele>1027.0</ele><time>2026-04-04T10:02:01.985Z</time></trkpt><trkpt lat="43.7931467" lon="11.6007333"><ele>1027.0</ele><time>2026-04-04T10:02:03.985Z</time></trkpt><trkpt lat="43.7931117" lon="11.6006517"><ele>1027.0</ele><time>2026-04-04T10:02:05.984Z</time></trkpt><trkpt lat="43.7930883" lon="11.600515"><ele>1027.0</ele><time>2026-04-04T10:02:08.986Z</time></trkpt><trkpt lat="43.793015" lon="11.6003717"><ele>1027.0</ele><time>2026-04-04T10:02:10.984Z</time></trkpt><trkpt lat="43.7929733" lon="11.6002517"><ele>1027.0</ele><time>2026-04-04T10:02:11.983Z</time></trkpt><trkpt lat="43.7929267" lon="11.6001433"><ele>1023.6</ele><time>2026-04-04T10:02:12.984Z</time></trkpt><trkpt lat="43.7928833" lon="11.600025"><ele>1020.2</ele><time>2026-04-04T10:02:13.975Z</time></trkpt><trkpt lat="43.7928417" lon="11.5999233"><ele>1016.8</ele><time>2026-04-04T10:02:14.984Z</time></trkpt><trkpt lat="43.79281" lon="11.5998317"><ele>1013.4</ele><time>2026-04-04T10:02:15.984Z</time></trkpt><trkpt lat="43.7927617" lon="11.5996967"><ele>1010.0</ele><time>2026-04-04T10:02:17.984Z</time></trkpt><trkpt lat="43.79273" lon="11.599575"><ele>1008.1666666666667</ele><time>2026-04-04T10:02:19.985Z</time></trkpt><trkpt lat="43.792675" lon="11.59948"><ele>1006.3333333333334</ele><time>2026-04-04T10:02:21.984Z</time></trkpt><trkpt lat="43.7925833" lon="11.59938"><ele>1004.5</ele><time>2026-04-04T10:02:23.982Z</time></trkpt><trkpt lat="43.79252" lon="11.5993367"><ele>1002.6666666666667</ele><time>2026-04-04T10:02:24.984Z</time></trkpt><trkpt lat="43.7924533" lon="11.599305"><ele>1000.8333333333334</ele><time>2026-04-04T10:02:25.985Z</time></trkpt><trkpt lat="43.7923733" lon="11.5992883"><ele>999.0</ele><time>2026-04-04T10:02:26.984Z</time></trkpt><trkpt lat="43.7922983" lon="11.5992717"><ele>1003.3333333333334</ele><time>2026-04-04T10:02:27.986Z</time></trkpt><trkpt lat="43.7922267" lon="11.59926"><ele>1007.6666666666667</ele><time>2026-04-04T10:02:28.985Z</time></trkpt><trkpt lat="43.7921083" lon="11.599235"><ele>1012.0</ele><time>2026-04-04T10:02:30.984Z</time></trkpt><trkpt lat="43.7920083" lon="11.5992567"><ele>1016.3333333333334</ele><time>2026-04-04T10:02:32.984Z</time></trkpt><trkpt lat="43.7919267" lon="11.5993"><ele>1020.6666666666667</ele><time>2026-04-04T10:02:34.985Z</time></trkpt><trkpt lat="43.79186" lon="11.5992983"><ele>1025.0</ele><time>2026-04-04T10:02:36.985Z</time></trkpt><trkpt lat="43.7918067" lon="11.5992283"><ele>1024.8</ele><time>2026-04-04T10:02:38.986Z</time></trkpt><trkpt lat="43.7917533" lon="11.5991267"><ele>1024.6</ele><time>2026-04-04T10:02:40.986Z</time></trkpt><trkpt lat="43.7916983" lon="11.599"><ele>1024.4</ele><time>2026-04-04T10:02:42.987Z</time></trkpt><trkpt lat="43.7916667" lon="11.5988533"><ele>1024.2</ele><time>2026-04-04T10:02:44.984Z</time></trkpt><trkpt lat="43.7916467" lon="11.5987517"><ele>1024.0</ele><time>2026-04-04T10:02:45.985Z</time></trkpt><trkpt lat="43.7916267" lon="11.5986467"><ele>1023.9999999999999</ele><time>2026-04-04T10:02:46.988Z</time></trkpt><trkpt lat="43.7916167" lon="11.5985383"><ele>1024.0</ele><time>2026-04-04T10:02:47.986Z</time></trkpt><trkpt lat="43.791625" lon="11.5984383"><ele>1024.0</ele><time>2026-04-04T10:02:48.984Z</time></trkpt><trkpt lat="43.791625" lon="11.59835"><ele>1024.0</ele><time>2026-04-04T10:02:49.987Z</time></trkpt><trkpt lat="43.7916233" lon="11.5982317"><ele>1023.9999999999999</ele><time>2026-04-04T10:02:52.985Z</time></trkpt><trkpt lat="43.7915983" lon="11.5981317"><ele>1024.0</ele><time>2026-04-04T10:02:54.984Z</time></trkpt><trkpt lat="43.79151" lon="11.5980433"><ele>1023.9999999999999</ele><time>2026-04-04T10:02:56.985Z</time></trkpt><trkpt lat="43.7914483" lon="11.5979883"><ele>1024.0</ele><time>2026-04-04T10:02:58.987Z</time></trkpt><trkpt lat="43.79137" lon="11.59795"><ele>1024.0</ele><time>2026-04-04T10:03:01.988Z</time></trkpt><trkpt lat="43.7912983" lon="11.5979367"><ele>1024.0</ele><time>2026-04-04T10:03:03.985Z</time></trkpt><trkpt lat="43.7911967" lon="11.5979383"><ele>1023.9999999999999</ele><time>2026-04-04T10:03:05.987Z</time></trkpt><trkpt lat="43.7911167" lon="11.5979783"><ele>1024.0</ele><time>2026-04-04T10:03:07.988Z</time></trkpt><trkpt lat="43.79104" lon="11.598045"><ele>1023.2</ele><time>2026-04-04T10:03:10.988Z</time></trkpt><trkpt lat="43.7909683" lon="11.5981417"><ele>1022.4000000000001</ele><time>2026-04-04T10:03:13.989Z</time></trkpt><trkpt lat="43.7909183" lon="11.5982367"><ele>1021.6</ele><time>2026-04-04T10:03:15.986Z</time></trkpt><trkpt lat="43.7908817" lon="11.59833"><ele>1020.8</ele><time>2026-04-04T10:03:17.986Z</time></trkpt><trkpt lat="43.790845" lon="11.5984567"><ele>1020.0</ele><time>2026-04-04T10:03:19.985Z</time></trkpt><trkpt lat="43.790785" lon="11.5985817"><ele>1022.6666666666666</ele><time>2026-04-04T10:03:21.983Z</time></trkpt><trkpt lat="43.7907333" lon="11.5987083"><ele>1025.3333333333333</ele><time>2026-04-04T10:03:23.986Z</time></trkpt><trkpt lat="43.7907017" lon="11.5988267"><ele>1028.0</ele><time>2026-04-04T10:03:25.986Z</time></trkpt><trkpt lat="43.7906533" lon="11.598895"><ele>1030.6666666666665</ele><time>2026-04-04T10:03:27.983Z</time></trkpt><trkpt lat="43.7905733" lon="11.5989083"><ele>1033.3333333333333</ele><time>2026-04-04T10:03:30.984Z</time></trkpt><trkpt lat="43.79053" lon="11.5988417"><ele>1036.0</ele><time>2026-04-04T10:03:31.987Z</time></trkpt><trkpt lat="43.79047" lon="11.5988033"><ele>1036.0</ele><time>2026-04-04T10:03:32.985Z</time></trkpt><trkpt lat="43.7904217" lon="11.5987183"><ele>1036.0</ele><time>2026-04-04T10:03:34.985Z</time></trkpt><trkpt lat="43.790365" lon="11.598645"><ele>1036.0</ele><time>2026-04-04T10:03:37.985Z</time></trkpt><trkpt lat="43.7902933" lon="11.5986117"><ele>1036.0</ele><time>2026-04-04T10:03:39.984Z</time></trkpt><trkpt lat="43.7902283" lon="11.598605"><ele>1036.0</ele><time>2026-04-04T10:03:41.985Z</time></trkpt><trkpt lat="43.7901467" lon="11.598615"><ele>1036.0</ele><time>2026-04-04T10:03:44.985Z</time></trkpt><trkpt lat="43.7900567" lon="11.5985233"><ele>1035.8</ele><time>2026-04-04T10:04:30.983Z</time></trkpt><trkpt lat="43.7899667" lon="11.5986467"><ele>1035.6</ele><time>2026-04-04T10:06:12.975Z</time></trkpt><trkpt lat="43.78991" lon="11.5986983"><ele>1035.4</ele><time>2026-04-04T10:06:15.983Z</time></trkpt><trkpt lat="43.7898383" lon="11.5986983"><ele>1035.2</ele><time>2026-04-04T10:06:20.983Z</time></trkpt><trkpt lat="43.7897367" lon="11.5986933"><ele>1035.0</ele><time>2026-04-04T10:06:22.986Z</time></trkpt><trkpt lat="43.7896117" lon="11.598705"><ele>1035.0</ele><time>2026-04-04T10:06:24.985Z</time></trkpt><trkpt lat="43.7895183" lon="11.598715"><ele>1035.0</ele><time>2026-04-04T10:06:25.987Z</time></trkpt><trkpt lat="43.7894367" lon="11.5987167"><ele>1035.0</ele><time>2026-04-04T10:06:26.985Z</time></trkpt><trkpt lat="43.7893483" lon="11.5987167"><ele>1035.0</ele><time>2026-04-04T10:06:27.984Z</time></trkpt><trkpt lat="43.7892283" lon="11.598715"><ele>1035.0</ele><time>2026-04-04T10:06:28.986Z</time></trkpt><trkpt lat="43.7891033" lon="11.5987067"><ele>1034.6666666666667</ele><time>2026-04-04T10:06:29.986Z</time></trkpt><trkpt lat="43.7890117" lon="11.5987183"><ele>1034.3333333333333</ele><time>2026-04-04T10:06:30.985Z</time></trkpt><trkpt lat="43.78892" lon="11.5987383"><ele>1034.0</ele><time>2026-04-04T10:06:31.985Z</time></trkpt><trkpt lat="43.7888417" lon="11.598755"><ele>1033.6666666666665</ele><time>2026-04-04T10:06:32.985Z</time></trkpt><trkpt lat="43.7887767" lon="11.5987717"><ele>1033.3333333333333</ele><time>2026-04-04T10:06:33.983Z</time></trkpt><trkpt lat="43.7886867" lon="11.598845"><ele>1033.0</ele><time>2026-04-04T10:06:35.985Z</time></trkpt><trkpt lat="43.7886733" lon="11.5989417"><ele>1033.0</ele><time>2026-04-04T10:06:37.987Z</time></trkpt><trkpt lat="43.7885817" lon="11.598965"><ele>1033.0</ele><time>2026-04-04T10:06:41.985Z</time></trkpt><trkpt lat="43.7884817" lon="11.5989417"><ele>1033.0</ele><time>2026-04-04T10:06:43.976Z</time></trkpt><trkpt lat="43.7883767" lon="11.5989733"><ele>1033.0</ele><time>2026-04-04T10:06:45.984Z</time></trkpt><trkpt lat="43.788275" lon="11.5990533"><ele>1033.0</ele><time>2026-04-04T10:06:47.985Z</time></trkpt><trkpt lat="43.7881933" lon="11.59916"><ele>1033.5</ele><time>2026-04-04T10:06:49.985Z</time></trkpt><trkpt lat="43.7881817" lon="11.5992533"><ele>1034.0</ele><time>2026-04-04T10:06:50.984Z</time></trkpt><trkpt lat="43.7881683" lon="11.5993717"><ele>1034.5</ele><time>2026-04-04T10:06:51.985Z</time></trkpt><trkpt lat="43.788155" lon="11.59946"><ele>1035.0</ele><time>2026-04-04T10:06:52.985Z</time></trkpt><trkpt lat="43.78815" lon="11.599635"><ele>1035.5</ele><time>2026-04-04T10:06:54.986Z</time></trkpt><trkpt lat="43.7881417" lon="11.5997433"><ele>1036.0</ele><time>2026-04-04T10:06:56.985Z</time></trkpt><trkpt lat="43.7880567" lon="11.5997033"><ele>1036.0</ele><time>2026-04-04T10:07:00.987Z</time></trkpt><trkpt lat="43.787985" lon="11.5995767"><ele>1036.0</ele><time>2026-04-04T10:07:02.982Z</time></trkpt><trkpt lat="43.7879367" lon="11.5995"><ele>1036.0</ele><time>2026-04-04T10:07:03.984Z</time></trkpt><trkpt lat="43.7878367" lon="11.59939"><ele>1036.0</ele><time>2026-04-04T10:07:05.983Z</time></trkpt><trkpt lat="43.7877717" lon="11.5993617"><ele>1036.0</ele><time>2026-04-04T10:07:06.984Z</time></trkpt><trkpt lat="43.7877083" lon="11.5993433"><ele>1031.0</ele><time>2026-04-04T10:07:07.986Z</time></trkpt><trkpt lat="43.7876467" lon="11.5993617"><ele>1026.0</ele><time>2026-04-04T10:07:08.986Z</time></trkpt><trkpt lat="43.7875883" lon="11.5994033"><ele>1021.0</ele><time>2026-04-04T10:07:09.984Z</time></trkpt><trkpt lat="43.7875017" lon="11.5994433"><ele>1016.0</ele><time>2026-04-04T10:07:11.985Z</time></trkpt><trkpt lat="43.7874217" lon="11.599455"><ele>1010.9999999999999</ele><time>2026-04-04T10:07:13.985Z</time></trkpt><trkpt lat="43.7873417" lon="11.5994817"><ele>1006.0</ele><time>2026-04-04T10:07:16.986Z</time></trkpt><trkpt lat="43.787265" lon="11.5994883"><ele>1010.1999999999999</ele><time>2026-04-04T10:07:44.984Z</time></trkpt><trkpt lat="43.78721" lon="11.5995783"><ele>1014.3999999999999</ele><time>2026-04-04T10:07:46.985Z</time></trkpt><trkpt lat="43.7871567" lon="11.5997"><ele>1018.6</ele><time>2026-04-04T10:07:48.984Z</time></trkpt><trkpt lat="43.787085" lon="11.5997667"><ele>1022.8</ele><time>2026-04-04T10:07:50.983Z</time></trkpt><trkpt lat="43.7869633" lon="11.5998117"><ele>1027.0</ele><time>2026-04-04T10:07:52.985Z</time></trkpt><trkpt lat="43.7869" lon="11.5997717"><ele>1027.0</ele><time>2026-04-04T10:07:55.985Z</time></trkpt><trkpt lat="43.78686" lon="11.5996733"><ele>1027.0</ele><time>2026-04-04T10:07:57.984Z</time></trkpt><trkpt lat="43.7868333" lon="11.5995917"><ele>1027.0</ele><time>2026-04-04T10:07:58.986Z</time></trkpt><trkpt lat="43.7867967" lon="11.5995"><ele>1027.0</ele><time>2026-04-04T10:07:59.987Z</time></trkpt><trkpt lat="43.7867517" lon="11.599405"><ele>1027.0</ele><time>2026-04-04T10:08:00.984Z</time></trkpt><trkpt lat="43.7866933" lon="11.5992967"><ele>1027.0</ele><time>2026-04-04T10:08:01.985Z</time></trkpt><trkpt lat="43.78666" lon="11.59921"><ele>1024.6666666666665</ele><time>2026-04-04T10:08:02.975Z</time></trkpt><trkpt lat="43.78662" lon="11.5991133"><ele>1022.3333333333333</ele><time>2026-04-04T10:08:03.984Z</time></trkpt><trkpt lat="43.7865617" lon="11.5990167"><ele>1020.0</ele><time>2026-04-04T10:08:04.984Z</time></trkpt><trkpt lat="43.786525" lon="11.5989283"><ele>1017.6666666666667</ele><time>2026-04-04T10:08:05.985Z</time></trkpt><trkpt lat="43.7864783" lon="11.5988217"><ele>1015.3333333333334</ele><time>2026-04-04T10:08:06.985Z</time></trkpt><trkpt lat="43.7864133" lon="11.5986933"><ele>1013.0</ele><time>2026-04-04T10:08:08.984Z</time></trkpt><trkpt lat="43.786385" lon="11.598615"><ele>1010.75</ele><time>2026-04-04T10:08:10.985Z</time></trkpt><trkpt lat="43.7863517" lon="11.59854"><ele>1008.5</ele><time>2026-04-04T10:08:18.985Z</time></trkpt><trkpt lat="43.7862467" lon="11.59857"><ele>1006.25</ele><time>2026-04-04T10:08:45.983Z</time></trkpt><trkpt lat="43.7861417" lon="11.59864"><ele>1004.0</ele><time>2026-04-04T10:08:47.985Z</time></trkpt><trkpt lat="43.7859967" lon="11.5987483"><ele>1008.0</ele><time>2026-04-04T10:08:49.985Z</time></trkpt><trkpt lat="43.7858867" lon="11.5988183"><ele>1012.0000000000001</ele><time>2026-04-04T10:08:50.983Z</time></trkpt><trkpt lat="43.7857967" lon="11.5988883"><ele>1016.0000000000001</ele><time>2026-04-04T10:08:51.984Z</time></trkpt><trkpt lat="43.785715" lon="11.5989467"><ele>1020.0</ele><time>2026-04-04T10:08:52.984Z</time></trkpt><trkpt lat="43.78563" lon="11.599005"><ele>1024.0</ele><time>2026-04-04T10:08:53.985Z</time></trkpt><trkpt lat="43.78553" lon="11.5990917"><ele>1023.9999999999999</ele><time>2026-04-04T10:08:54.984Z</time></trkpt><trkpt lat="43.785445" lon="11.599155"><ele>1024.0</ele><time>2026-04-04T10:08:55.985Z</time></trkpt><trkpt lat="43.78536" lon="11.5991983"><ele>1024.0</ele><time>2026-04-04T10:08:56.983Z</time></trkpt><trkpt lat="43.78529" lon="11.5992367"><ele>1024.0</ele><time>2026-04-04T10:08:57.984Z</time></trkpt><trkpt lat="43.7852333" lon="11.59928"><ele>1023.9999999999999</ele><time>2026-04-04T10:08:58.985Z</time></trkpt><trkpt lat="43.785165" lon="11.59932"><ele>1024.0</ele><time>2026-04-04T10:08:59.985Z</time></trkpt><trkpt lat="43.7850883" lon="11.5993117"><ele>1026.1666666666665</ele><time>2026-04-04T10:09:00.973Z</time></trkpt><trkpt lat="43.7850267" lon="11.5992933"><ele>1028.3333333333333</ele><time>2026-04-04T10:09:01.975Z</time></trkpt><trkpt lat="43.7849833" lon="11.5991483"><ele>1030.5</ele><time>2026-04-04T10:09:03.984Z</time></trkpt><trkpt lat="43.7849967" lon="11.5990517"><ele>1032.6666666666667</ele><time>2026-04-04T10:09:04.984Z</time></trkpt><trkpt lat="43.7850233" lon="11.5989633"><ele>1034.8333333333335</ele><time>2026-04-04T10:09:05.985Z</time></trkpt><trkpt lat="43.7850633" lon="11.5988717"><ele>1037.0</ele><time>2026-04-04T10:09:06.984Z</time></trkpt><trkpt lat="43.7851083" lon="11.5987883"><ele>1036.4</ele><time>2026-04-04T10:09:07.985Z</time></trkpt><trkpt lat="43.785195" lon="11.5986833"><ele>1035.8000000000002</ele><time>2026-04-04T10:09:09.983Z</time></trkpt><trkpt lat="43.78527" lon="11.5985583"><ele>1035.2</ele><time>2026-04-04T10:09:11.983Z</time></trkpt><trkpt lat="43.785295" lon="11.5984167"><ele>1034.6000000000001</ele><time>2026-04-04T10:09:13.984Z</time></trkpt><trkpt lat="43.785255" lon="11.59828"><ele>1034.0</ele><time>2026-04-04T10:09:15.984Z</time></trkpt><trkpt lat="43.7851783" lon="11.5981633"><ele>1034.0</ele><time>2026-04-04T10:09:17.983Z</time></trkpt><trkpt lat="43.7850567" lon="11.59812"><ele>1034.0</ele><time>2026-04-04T10:09:19.984Z</time></trkpt><trkpt lat="43.784975" lon="11.5980883"><ele>1034.0</ele><time>2026-04-04T10:09:20.983Z</time></trkpt><trkpt lat="43.784905" lon="11.5980417"><ele>1034.0</ele><time>2026-04-04T10:09:21.985Z</time></trkpt><trkpt lat="43.7848417" lon="11.598"><ele>1034.0</ele><time>2026-04-04T10:09:22.985Z</time></trkpt><trkpt lat="43.7847833" lon="11.5979033"><ele>1034.0</ele><time>2026-04-04T10:09:24.984Z</time></trkpt><trkpt lat="43.784795" lon="11.5977733"><ele>1035.2</ele><time>2026-04-04T10:09:26.982Z</time></trkpt><trkpt lat="43.7848583" lon="11.5976283"><ele>1036.4</ele><time>2026-04-04T10:09:28.984Z</time></trkpt><trkpt lat="43.7848967" lon="11.5975517"><ele>1037.6</ele><time>2026-04-04T10:09:29.986Z</time></trkpt><trkpt lat="43.78498" lon="11.59743"><ele>1038.8</ele><time>2026-04-04T10:09:31.985Z</time></trkpt><trkpt lat="43.7850317" lon="11.5973733"><ele>1040.0</ele><time>2026-04-04T10:09:32.984Z</time></trkpt><trkpt lat="43.7850967" lon="11.5973183"><ele>1040.0</ele><time>2026-04-04T10:09:33.983Z</time></trkpt><trkpt lat="43.7851733" lon="11.5972633"><ele>1040.0</ele><time>2026-04-04T10:09:34.984Z</time></trkpt><trkpt lat="43.7852433" lon="11.5972"><ele>1040.0</ele><time>2026-04-04T10:09:35.985Z</time></trkpt><trkpt lat="43.7852967" lon="11.5971267"><ele>1040.0</ele><time>2026-04-04T10:09:36.984Z</time></trkpt><trkpt lat="43.7853467" lon="11.5970367"><ele>1040.0</ele><time>2026-04-04T10:09:37.985Z</time></trkpt><trkpt lat="43.7853933" lon="11.5969233"><ele>1040.0</ele><time>2026-04-04T10:09:38.984Z</time></trkpt><trkpt lat="43.78543" lon="11.5967917"><ele>1036.4</ele><time>2026-04-04T10:09:39.984Z</time></trkpt><trkpt lat="43.7854583" lon="11.5966617"><ele>1032.8</ele><time>2026-04-04T10:09:40.986Z</time></trkpt><trkpt lat="43.785465" lon="11.5965383"><ele>1029.2</ele><time>2026-04-04T10:09:41.986Z</time></trkpt><trkpt lat="43.78546" lon="11.59641"><ele>1025.6</ele><time>2026-04-04T10:09:42.984Z</time></trkpt><trkpt lat="43.785455" lon="11.5962733"><ele>1022.0</ele><time>2026-04-04T10:09:43.985Z</time></trkpt><trkpt lat="43.7854533" lon="11.5961333"><ele>1022.0000000000001</ele><time>2026-04-04T10:09:44.984Z</time></trkpt><trkpt lat="43.78547" lon="11.5959983"><ele>1022.0</ele><time>2026-04-04T10:09:45.984Z</time></trkpt><trkpt lat="43.7854583" lon="11.595885"><ele>1022.0</ele><time>2026-04-04T10:09:46.984Z</time></trkpt><trkpt lat="43.7854383" lon="11.5957817"><ele>1022.0</ele><time>2026-04-04T10:09:47.983Z</time></trkpt><trkpt lat="43.7854183" lon="11.595685"><ele>1022.0000000000001</ele><time>2026-04-04T10:09:48.988Z</time></trkpt><trkpt lat="43.78537" lon="11.5956083"><ele>1022.0</ele><time>2026-04-04T10:09:49.985Z</time></trkpt><trkpt lat="43.785325" lon="11.5955433"><ele>1022.0</ele><time>2026-04-04T10:09:50.984Z</time></trkpt><trkpt lat="43.78523" lon="11.5954333"><ele>1022.0</ele><time>2026-04-04T10:09:52.983Z</time></trkpt><trkpt lat="43.78517" lon="11.5954067"><ele>1022.0</ele><time>2026-04-04T10:09:53.983Z</time></trkpt><trkpt lat="43.7851067" lon="11.5954017"><ele>1022.0</ele><time>2026-04-04T10:09:54.983Z</time></trkpt><trkpt lat="43.7849983" lon="11.5953617"><ele>1022.0</ele><time>2026-04-04T10:09:56.984Z</time></trkpt><trkpt lat="43.784935" lon="11.5952533"><ele>1024.2</ele><time>2026-04-04T10:09:58.985Z</time></trkpt><trkpt lat="43.784925" lon="11.5950717"><ele>1026.4</ele><time>2026-04-04T10:10:00.984Z</time></trkpt><trkpt lat="43.784945" lon="11.59495"><ele>1028.6</ele><time>2026-04-04T10:10:01.985Z</time></trkpt><trkpt lat="43.7849567" lon="11.59483"><ele>1030.8</ele><time>2026-04-04T10:10:02.987Z</time></trkpt><trkpt lat="43.7849417" lon="11.594725"><ele>1033.0</ele><time>2026-04-04T10:10:03.984Z</time></trkpt><trkpt lat="43.7849267" lon="11.5946217"><ele>1033.0</ele><time>2026-04-04T10:10:04.984Z</time></trkpt><trkpt lat="43.7849" lon="11.5945283"><ele>1033.0</ele><time>2026-04-04T10:10:05.985Z</time></trkpt><trkpt lat="43.7848533" lon="11.5944583"><ele>1033.0</ele><time>2026-04-04T10:10:06.985Z</time></trkpt><trkpt lat="43.78475" lon="11.5944133"><ele>1033.0</ele><time>2026-04-04T10:10:08.984Z</time></trkpt><trkpt lat="43.7846917" lon="11.594475"><ele>1033.0</ele><time>2026-04-04T10:10:10.984Z</time></trkpt><trkpt lat="43.7847383" lon="11.5945483"><ele>1033.0</ele><time>2026-04-04T10:10:12.985Z</time></trkpt><trkpt lat="43.7847933" lon="11.5946533"><ele>1033.0</ele><time>2026-04-04T10:10:14.983Z</time></trkpt><trkpt lat="43.784815" lon="11.5947383"><ele>1033.0</ele><time>2026-04-04T10:10:15.984Z</time></trkpt><trkpt lat="43.7848217" lon="11.594835"><ele>1033.0</ele><time>2026-04-04T10:10:16.984Z</time></trkpt><trkpt lat="43.7848217" lon="11.5949383"><ele>1033.0</ele><time>2026-04-04T10:10:17.985Z</time></trkpt><trkpt lat="43.7848133" lon="11.5950483"><ele>1033.0</ele><time>2026-04-04T10:10:18.983Z</time></trkpt><trkpt lat="43.7848067" lon="11.5951683"><ele>1033.0</ele><time>2026-04-04T10:10:19.985Z</time></trkpt><trkpt lat="43.784785" lon="11.5953033"><ele>1034.8</ele><time>2026-04-04T10:10:20.986Z</time></trkpt><trkpt lat="43.7847733" lon="11.59544"><ele>1036.6</ele><time>2026-04-04T10:10:21.984Z</time></trkpt><trkpt lat="43.7848033" lon="11.59557"><ele>1038.4</ele><time>2026-04-04T10:10:22.983Z</time></trkpt><trkpt lat="43.7848433" lon="11.59569"><ele>1040.2</ele><time>2026-04-04T10:10:23.983Z</time></trkpt><trkpt lat="43.7848683" lon="11.59581"><ele>1042.0</ele><time>2026-04-04T10:10:24.984Z</time></trkpt><trkpt lat="43.784865" lon="11.5959283"><ele>1042.0</ele><time>2026-04-04T10:10:25.985Z</time></trkpt><trkpt lat="43.7848483" lon="11.5960417"><ele>1042.0</ele><time>2026-04-04T10:10:26.985Z</time></trkpt><trkpt lat="43.7848233" lon="11.5961467"><ele>1042.0</ele><time>2026-04-04T10:10:27.984Z</time></trkpt><trkpt lat="43.7847967" lon="11.5962617"><ele>1042.0</ele><time>2026-04-04T10:10:28.984Z</time></trkpt><trkpt lat="43.784745" lon="11.5963983"><ele>1042.0</ele><time>2026-04-04T10:10:29.984Z</time></trkpt><trkpt lat="43.784735" lon="11.5965333"><ele>1041.6</ele><time>2026-04-04T10:10:30.984Z</time></trkpt><trkpt lat="43.7847033" lon="11.5966567"><ele>1041.2</ele><time>2026-04-04T10:10:31.985Z</time></trkpt><trkpt lat="43.7846583" lon="11.59677"><ele>1040.8</ele><time>2026-04-04T10:10:32.984Z</time></trkpt><trkpt lat="43.7846083" lon="11.5968733"><ele>1040.4</ele><time>2026-04-04T10:10:33.984Z</time></trkpt><trkpt lat="43.7845433" lon="11.5969667"><ele>1040.0</ele><time>2026-04-04T10:10:34.985Z</time></trkpt><trkpt lat="43.7844983" lon="11.5970917"><ele>1040.0</ele><time>2026-04-04T10:10:35.984Z</time></trkpt><trkpt lat="43.7844567" lon="11.5972467"><ele>1040.0</ele><time>2026-04-04T10:10:36.985Z</time></trkpt><trkpt lat="43.7844083" lon="11.5974133"><ele>1040.0</ele><time>2026-04-04T10:10:37.986Z</time></trkpt><trkpt lat="43.784355" lon="11.5975733"><ele>1040.0</ele><time>2026-04-04T10:10:38.984Z</time></trkpt><trkpt lat="43.784295" lon="11.5977167"><ele>1044.0</ele><time>2026-04-04T10:10:39.985Z</time></trkpt><trkpt lat="43.7842467" lon="11.5978583"><ele>1048.0</ele><time>2026-04-04T10:10:40.984Z</time></trkpt><trkpt lat="43.7842" lon="11.5979867"><ele>1052.0</ele><time>2026-04-04T10:10:41.983Z</time></trkpt><trkpt lat="43.7841933" lon="11.5981167"><ele>1056.0</ele><time>2026-04-04T10:10:42.985Z</time></trkpt><trkpt lat="43.7841967" lon="11.5982433"><ele>1060.0</ele><time>2026-04-04T10:10:43.985Z</time></trkpt><trkpt lat="43.784205" lon="11.5983733"><ele>1060.0</ele><time>2026-04-04T10:10:44.983Z</time></trkpt><trkpt lat="43.78418" lon="11.598505"><ele>1060.0</ele><time>2026-04-04T10:10:45.984Z</time></trkpt><trkpt lat="43.7841633" lon="11.5986483"><ele>1060.0</ele><time>2026-04-04T10:10:46.984Z</time></trkpt><trkpt lat="43.78413" lon="11.5987783"><ele>1060.0</ele><time>2026-04-04T10:10:47.985Z</time></trkpt><trkpt lat="43.784095" lon="11.5988967"><ele>1060.0</ele><time>2026-04-04T10:10:48.987Z</time></trkpt><trkpt lat="43.7840483" lon="11.5989917"><ele>1059.0</ele><time>2026-04-04T10:10:49.987Z</time></trkpt><trkpt lat="43.7839917" lon="11.5990517"><ele>1058.0</ele><time>2026-04-04T10:10:50.984Z</time></trkpt><trkpt lat="43.783925" lon="11.5991083"><ele>1057.0</ele><time>2026-04-04T10:10:52.986Z</time></trkpt><trkpt lat="43.78385" lon="11.599155"><ele>1056.0</ele><time>2026-04-04T10:10:55.985Z</time></trkpt><trkpt lat="43.78378" lon="11.5992167"><ele>1055.0</ele><time>2026-04-04T10:10:57.983Z</time></trkpt><trkpt lat="43.7837117" lon="11.5992667"><ele>1054.0</ele><time>2026-04-04T10:10:59.975Z</time></trkpt><trkpt lat="43.783605" lon="11.5993033"><ele>1054.0</ele><time>2026-04-04T10:11:01.985Z</time></trkpt><trkpt lat="43.7835467" lon="11.5993567"><ele>1054.0</ele><time>2026-04-04T10:11:02.985Z</time></trkpt><trkpt lat="43.7834833" lon="11.5994167"><ele>1054.0</ele><time>2026-04-04T10:11:03.983Z</time></trkpt><trkpt lat="43.783415" lon="11.5994767"><ele>1054.0</ele><time>2026-04-04T10:11:04.983Z</time></trkpt><trkpt lat="43.7833433" lon="11.5995367"><ele>1054.0</ele><time>2026-04-04T10:11:05.983Z</time></trkpt><trkpt lat="43.78327" lon="11.5995883"><ele>1054.0</ele><time>2026-04-04T10:11:06.984Z</time></trkpt><trkpt lat="43.7832017" lon="11.59963"><ele>1054.3333333333333</ele><time>2026-04-04T10:11:07.984Z</time></trkpt><trkpt lat="43.7831333" lon="11.5996517"><ele>1054.6666666666665</ele><time>2026-04-04T10:11:08.984Z</time></trkpt><trkpt lat="43.78304" lon="11.5996967"><ele>1055.0</ele><time>2026-04-04T10:11:10.983Z</time></trkpt><trkpt lat="43.7829933" lon="11.5997617"><ele>1055.3333333333333</ele><time>2026-04-04T10:11:13.986Z</time></trkpt><trkpt lat="43.7829717" lon="11.5998683"><ele>1055.6666666666667</ele><time>2026-04-04T10:11:15.983Z</time></trkpt><trkpt lat="43.782965" lon="11.59996"><ele>1056.0</ele><time>2026-04-04T10:11:16.984Z</time></trkpt><trkpt lat="43.78296" lon="11.6000817"><ele>1056.0</ele><time>2026-04-04T10:11:17.984Z</time></trkpt><trkpt lat="43.7829517" lon="11.6002067"><ele>1056.0</ele><time>2026-04-04T10:11:18.984Z</time></trkpt><trkpt lat="43.7829283" lon="11.6003333"><ele>1056.0</ele><time>2026-04-04T10:11:19.985Z</time></trkpt><trkpt lat="43.7829033" lon="11.6004617"><ele>1056.0</ele><time>2026-04-04T10:11:20.984Z</time></trkpt><trkpt lat="43.7828783" lon="11.6005967"><ele>1056.0</ele><time>2026-04-04T10:11:21.983Z</time></trkpt><trkpt lat="43.7828467" lon="11.600735"><ele>1057.6666666666667</ele><time>2026-04-04T10:11:22.985Z</time></trkpt><trkpt lat="43.7828317" lon="11.6008617"><ele>1059.3333333333333</ele><time>2026-04-04T10:11:23.984Z</time></trkpt><trkpt lat="43.7828183" lon="11.6009617"><ele>1061.0</ele><time>2026-04-04T10:11:24.984Z</time></trkpt><trkpt lat="43.7828117" lon="11.601085"><ele>1062.6666666666665</ele><time>2026-04-04T10:11:26.983Z</time></trkpt><trkpt lat="43.7827683" lon="11.601155"><ele>1064.3333333333333</ele><time>2026-04-04T10:11:30.985Z</time></trkpt><trkpt lat="43.7827667" lon="11.6013033"><ele>1066.0</ele><time>2026-04-04T10:13:58.986Z</time></trkpt><trkpt lat="43.7827294" lon="11.6012109"><ele>1066.0</ele><time>2026-04-04T10:14:07.025Z</time></trkpt><trkpt lat="43.782709" lon="11.6011281"><ele>1066.0</ele><time>2026-04-04T10:19:30Z</time></trkpt><trkpt lat="43.7827733" lon="11.6010983"><ele>1066.0</ele><time>2026-04-04T10:38:22.982Z</time></trkpt><trkpt lat="43.7828283" lon="11.60097"><ele>1066.0</ele><time>2026-04-04T10:38:25.984Z</time></trkpt><trkpt lat="43.7828483" lon="11.60081"><ele>1066.0</ele><time>2026-04-04T10:38:27.984Z</time></trkpt><trkpt lat="43.78287" lon="11.6006383"><ele>1066.0</ele><time>2026-04-04T10:38:29.983Z</time></trkpt><trkpt lat="43.7828933" lon="11.6004933"><ele>1066.0</ele><time>2026-04-04T10:38:31.984Z</time></trkpt><trkpt lat="43.7829183" lon="11.60041"><ele>1066.0</ele><time>2026-04-04T10:38:33.982Z</time></trkpt><trkpt lat="43.7829417" lon="11.6003117"><ele>1066.0</ele><time>2026-04-04T10:38:35.984Z</time></trkpt><trkpt lat="43.7829467" lon="11.6002183"><ele>1066.0</ele><time>2026-04-04T10:38:36.984Z</time></trkpt><trkpt lat="43.782945" lon="11.6000983"><ele>1066.0</ele><time>2026-04-04T10:38:37.985Z</time></trkpt><trkpt lat="43.7829433" lon="11.5999617"><ele>1064.0</ele><time>2026-04-04T10:38:38.984Z</time></trkpt><trkpt lat="43.78294" lon="11.5998183"><ele>1062.0</ele><time>2026-04-04T10:38:39.985Z</time></trkpt><trkpt lat="43.7829333" lon="11.59967"><ele>1060.0</ele><time>2026-04-04T10:38:40.984Z</time></trkpt><trkpt lat="43.7829267" lon="11.5995133"><ele>1058.0</ele><time>2026-04-04T10:38:41.984Z</time></trkpt><trkpt lat="43.78292" lon="11.599355"><ele>1056.0</ele><time>2026-04-04T10:38:42.985Z</time></trkpt><trkpt lat="43.78291" lon="11.5992"><ele>1056.5</ele><time>2026-04-04T10:38:43.985Z</time></trkpt><trkpt lat="43.7828917" lon="11.599045"><ele>1057.0</ele><time>2026-04-04T10:38:44.985Z</time></trkpt><trkpt lat="43.78286" lon="11.5988967"><ele>1057.5</ele><time>2026-04-04T10:38:45.982Z</time></trkpt><trkpt lat="43.782815" lon="11.5987483"><ele>1058.0</ele><time>2026-04-04T10:38:46.983Z</time></trkpt><trkpt lat="43.782765" lon="11.5986017"><ele>1058.0</ele><time>2026-04-04T10:38:47.983Z</time></trkpt><trkpt lat="43.7827117" lon="11.5984633"><ele>1058.0</ele><time>2026-04-04T10:38:48.982Z</time></trkpt><trkpt lat="43.7826533" lon="11.5983267"><ele>1058.0</ele><time>2026-04-04T10:38:49.984Z</time></trkpt><trkpt lat="43.7825883" lon="11.5982017"><ele>1058.0</ele><time>2026-04-04T10:38:50.983Z</time></trkpt><trkpt lat="43.78251" lon="11.5980883"><ele>1053.5</ele><time>2026-04-04T10:38:51.983Z</time></trkpt><trkpt lat="43.7824167" lon="11.5979917"><ele>1049.0</ele><time>2026-04-04T10:38:52.982Z</time></trkpt><trkpt lat="43.782315" lon="11.5979117"><ele>1044.5</ele><time>2026-04-04T10:38:53.981Z</time></trkpt><trkpt lat="43.7822117" lon="11.597835"><ele>1040.0</ele><time>2026-04-04T10:38:54.984Z</time></trkpt><trkpt lat="43.7821083" lon="11.5977617"><ele>1040.0</ele><time>2026-04-04T10:38:55.986Z</time></trkpt><trkpt lat="43.7820017" lon="11.597695"><ele>1040.0</ele><time>2026-04-04T10:38:56.984Z</time></trkpt><trkpt lat="43.7819" lon="11.5976233"><ele>1040.0</ele><time>2026-04-04T10:38:57.985Z</time></trkpt><trkpt lat="43.7817983" lon="11.5975467"><ele>1040.0</ele><time>2026-04-04T10:38:58.984Z</time></trkpt><trkpt lat="43.7816983" lon="11.5974667"><ele>1036.25</ele><time>2026-04-04T10:38:59.982Z</time></trkpt><trkpt lat="43.7815933" lon="11.597395"><ele>1032.5</ele><time>2026-04-04T10:39:00.985Z</time></trkpt><trkpt lat="43.7814917" lon="11.5973183"><ele>1028.75</ele><time>2026-04-04T10:39:01.985Z</time></trkpt><trkpt lat="43.7813967" lon="11.5972283"><ele>1025.0</ele><time>2026-04-04T10:39:02.982Z</time></trkpt><trkpt lat="43.781315" lon="11.5971183"><ele>1024.4</ele><time>2026-04-04T10:39:03.986Z</time></trkpt><trkpt lat="43.7812483" lon="11.596995"><ele>1023.8</ele><time>2026-04-04T10:39:04.985Z</time></trkpt><trkpt lat="43.7811867" lon="11.5968683"><ele>1023.2</ele><time>2026-04-04T10:39:05.984Z</time></trkpt><trkpt lat="43.7811283" lon="11.5967417"><ele>1022.6</ele><time>2026-04-04T10:39:06.984Z</time></trkpt><trkpt lat="43.7810733" lon="11.5966183"><ele>1022.0</ele><time>2026-04-04T10:39:07.985Z</time></trkpt><trkpt lat="43.7810233" lon="11.5964917"><ele>1022.0</ele><time>2026-04-04T10:39:08.984Z</time></trkpt><trkpt lat="43.780945" lon="11.5964017"><ele>1022.0</ele><time>2026-04-04T10:39:09.983Z</time></trkpt><trkpt lat="43.78086" lon="11.59632"><ele>1022.0</ele><time>2026-04-04T10:39:10.984Z</time></trkpt><trkpt lat="43.7807733" lon="11.5962383"><ele>1022.0</ele><time>2026-04-04T10:39:11.984Z</time></trkpt><trkpt lat="43.78069" lon="11.5961483"><ele>1022.0</ele><time>2026-04-04T10:39:12.984Z</time></trkpt><trkpt lat="43.7806067" lon="11.5960617"><ele>1022.6</ele><time>2026-04-04T10:39:13.985Z</time></trkpt><trkpt lat="43.78052" lon="11.59597"><ele>1023.2</ele><time>2026-04-04T10:39:14.985Z</time></trkpt><trkpt lat="43.7804367" lon="11.5958767"><ele>1023.8</ele><time>2026-04-04T10:39:15.983Z</time></trkpt><trkpt lat="43.7803583" lon="11.5957767"><ele>1024.4</ele><time>2026-04-04T10:39:16.983Z</time></trkpt><trkpt lat="43.7802783" lon="11.59567"><ele>1025.0</ele><time>2026-04-04T10:39:17.985Z</time></trkpt><trkpt lat="43.780175" lon="11.59559"><ele>1025.0</ele><time>2026-04-04T10:39:18.984Z</time></trkpt><trkpt lat="43.780075" lon="11.5955033"><ele>1025.0</ele><time>2026-04-04T10:39:19.984Z</time></trkpt><trkpt lat="43.779985" lon="11.59541"><ele>1025.0</ele><time>2026-04-04T10:39:20.983Z</time></trkpt><trkpt lat="43.7799" lon="11.5953133"><ele>1025.0</ele><time>2026-04-04T10:39:21.983Z</time></trkpt><trkpt lat="43.77983" lon="11.5951967"><ele>1023.6</ele><time>2026-04-04T10:39:22.984Z</time></trkpt><trkpt lat="43.7797683" lon="11.5950683"><ele>1022.2</ele><time>2026-04-04T10:39:23.984Z</time></trkpt><trkpt lat="43.779725" lon="11.5949283"><ele>1020.8</ele><time>2026-04-04T10:39:24.985Z</time></trkpt><trkpt lat="43.779695" lon="11.5947817"><ele>1019.4</ele><time>2026-04-04T10:39:25.985Z</time></trkpt><trkpt lat="43.779675" lon="11.59463"><ele>1018.0</ele><time>2026-04-04T10:39:26.982Z</time></trkpt><trkpt lat="43.77966" lon="11.5944833"><ele>1017.5999999999999</ele><time>2026-04-04T10:39:27.985Z</time></trkpt><trkpt lat="43.779645" lon="11.5943333"><ele>1017.1999999999999</ele><time>2026-04-04T10:39:28.984Z</time></trkpt><trkpt lat="43.7796333" lon="11.59419"><ele>1016.8</ele><time>2026-04-04T10:39:29.982Z</time></trkpt><trkpt lat="43.77962" lon="11.5940417"><ele>1016.4</ele><time>2026-04-04T10:39:30.985Z</time></trkpt><trkpt lat="43.7796133" lon="11.593895"><ele>1016.0</ele><time>2026-04-04T10:39:31.985Z</time></trkpt><trkpt lat="43.7796083" lon="11.5937633"><ele>1016.5000000000001</ele><time>2026-04-04T10:39:32.982Z</time></trkpt><trkpt lat="43.7796083" lon="11.5936383"><ele>1017.0</ele><time>2026-04-04T10:39:33.983Z</time></trkpt><trkpt lat="43.7796267" lon="11.5935317"><ele>1017.5</ele><time>2026-04-04T10:39:34.983Z</time></trkpt><trkpt lat="43.7796417" lon="11.5934267"><ele>1018.0</ele><time>2026-04-04T10:39:35.984Z</time></trkpt><trkpt lat="43.7796567" lon="11.5933133"><ele>1018.5000000000001</ele><time>2026-04-04T10:39:36.984Z</time></trkpt><trkpt lat="43.77967" lon="11.5932017"><ele>1019.0</ele><time>2026-04-04T10:39:37.987Z</time></trkpt><trkpt lat="43.7796833" lon="11.593085"><ele>1019.0</ele><time>2026-04-04T10:39:38.982Z</time></trkpt><trkpt lat="43.779675" lon="11.592965"><ele>1019.0000000000001</ele><time>2026-04-04T10:39:39.983Z</time></trkpt><trkpt lat="43.7796583" lon="11.5928483"><ele>1019.0000000000001</ele><time>2026-04-04T10:39:40.984Z</time></trkpt><trkpt lat="43.7796333" lon="11.5927367"><ele>1019.0</ele><time>2026-04-04T10:39:41.985Z</time></trkpt><trkpt lat="43.7795783" lon="11.5926217"><ele>1019.0</ele><time>2026-04-04T10:39:42.986Z</time></trkpt><trkpt lat="43.7795067" lon="11.5925217"><ele>1018.8000000000001</ele><time>2026-04-04T10:39:43.985Z</time></trkpt><trkpt lat="43.7794233" lon="11.592445"><ele>1018.6000000000001</ele><time>2026-04-04T10:39:44.984Z</time></trkpt><trkpt lat="43.7793267" lon="11.5923933"><ele>1018.4</ele><time>2026-04-04T10:39:45.984Z</time></trkpt><trkpt lat="43.7792267" lon="11.5923683"><ele>1018.2</ele><time>2026-04-04T10:39:46.985Z</time></trkpt><trkpt lat="43.779115" lon="11.59236"><ele>1018.0</ele><time>2026-04-04T10:39:47.984Z</time></trkpt><trkpt lat="43.7789983" lon="11.5923783"><ele>1018.8</ele><time>2026-04-04T10:39:48.984Z</time></trkpt><trkpt lat="43.77888" lon="11.59242"><ele>1019.5999999999999</ele><time>2026-04-04T10:39:49.987Z</time></trkpt><trkpt lat="43.7787717" lon="11.5924617"><ele>1020.4000000000001</ele><time>2026-04-04T10:39:50.984Z</time></trkpt><trkpt lat="43.7786733" lon="11.5925133"><ele>1021.2</ele><time>2026-04-04T10:39:51.984Z</time></trkpt><trkpt lat="43.778575" lon="11.592565"><ele>1022.0</ele><time>2026-04-04T10:39:52.985Z</time></trkpt><trkpt lat="43.77848" lon="11.5926133"><ele>1022.3333333333334</ele><time>2026-04-04T10:39:53.985Z</time></trkpt><trkpt lat="43.778385" lon="11.5926417"><ele>1022.6666666666667</ele><time>2026-04-04T10:39:54.984Z</time></trkpt><trkpt lat="43.7783" lon="11.5926217"><ele>1023.0</ele><time>2026-04-04T10:39:55.985Z</time></trkpt><trkpt lat="43.7782317" lon="11.592565"><ele>1023.3333333333333</ele><time>2026-04-04T10:39:56.983Z</time></trkpt><trkpt lat="43.778185" lon="11.5924817"><ele>1023.6666666666666</ele><time>2026-04-04T10:39:57.984Z</time></trkpt><trkpt lat="43.7781717" lon="11.5923717"><ele>1024.0</ele><time>2026-04-04T10:39:58.984Z</time></trkpt><trkpt lat="43.77818" lon="11.592255"><ele>1024.0</ele><time>2026-04-04T10:39:59.984Z</time></trkpt><trkpt lat="43.7782017" lon="11.5921283"><ele>1024.0</ele><time>2026-04-04T10:40:00.982Z</time></trkpt><trkpt lat="43.7782433" lon="11.5919867"><ele>1024.0</ele><time>2026-04-04T10:40:01.975Z</time></trkpt><trkpt lat="43.7782867" lon="11.591835"><ele>1024.0</ele><time>2026-04-04T10:40:02.982Z</time></trkpt><trkpt lat="43.7783217" lon="11.5916767"><ele>1024.0</ele><time>2026-04-04T10:40:03.982Z</time></trkpt><trkpt lat="43.7783483" lon="11.591515"><ele>1023.25</ele><time>2026-04-04T10:40:04.985Z</time></trkpt><trkpt lat="43.7783583" lon="11.5913483"><ele>1022.5</ele><time>2026-04-04T10:40:05.984Z</time></trkpt><trkpt lat="43.7783533" lon="11.59118"><ele>1021.75</ele><time>2026-04-04T10:40:06.984Z</time></trkpt><trkpt lat="43.7783383" lon="11.591005"><ele>1021.0</ele><time>2026-04-04T10:40:07.984Z</time></trkpt><trkpt lat="43.778325" lon="11.5908283"><ele>1021.0</ele><time>2026-04-04T10:40:08.983Z</time></trkpt><trkpt lat="43.778305" lon="11.590655"><ele>1021.0</ele><time>2026-04-04T10:40:09.982Z</time></trkpt><trkpt lat="43.778285" lon="11.59048"><ele>1021.0</ele><time>2026-04-04T10:40:10.984Z</time></trkpt><trkpt lat="43.7782833" lon="11.5903133"><ele>1021.0</ele><time>2026-04-04T10:40:11.984Z</time></trkpt><trkpt lat="43.7782983" lon="11.5901483"><ele>1021.5</ele><time>2026-04-04T10:40:12.986Z</time></trkpt><trkpt lat="43.7783267" lon="11.5899933"><ele>1022.0</ele><time>2026-04-04T10:40:13.986Z</time></trkpt><trkpt lat="43.778375" lon="11.5898417"><ele>1022.5</ele><time>2026-04-04T10:40:14.984Z</time></trkpt><trkpt lat="43.7784433" lon="11.5897067"><ele>1023.0</ele><time>2026-04-04T10:40:15.982Z</time></trkpt><trkpt lat="43.7785267" lon="11.589585"><ele>1018.5</ele><time>2026-04-04T10:40:16.983Z</time></trkpt><trkpt lat="43.7786183" lon="11.589465"><ele>1014.0</ele><time>2026-04-04T10:40:17.983Z</time></trkpt><trkpt lat="43.7787017" lon="11.5893317"><ele>1009.5</ele><time>2026-04-04T10:40:18.984Z</time></trkpt><trkpt lat="43.7787733" lon="11.5891733"><ele>1005.0</ele><time>2026-04-04T10:40:19.985Z</time></trkpt><trkpt lat="43.7788467" lon="11.5890117"><ele>1005.0</ele><time>2026-04-04T10:40:20.983Z</time></trkpt><trkpt lat="43.7788967" lon="11.5888233"><ele>1005.0</ele><time>2026-04-04T10:40:21.983Z</time></trkpt><trkpt lat="43.7789367" lon="11.58863"><ele>1005.0</ele><time>2026-04-04T10:40:22.983Z</time></trkpt><trkpt lat="43.778965" lon="11.5884367"><ele>1005.0</ele><time>2026-04-04T10:40:23.984Z</time></trkpt><trkpt lat="43.7789817" lon="11.5882467"><ele>1006.25</ele><time>2026-04-04T10:40:24.985Z</time></trkpt><trkpt lat="43.778985" lon="11.5880533"><ele>1007.5</ele><time>2026-04-04T10:40:25.985Z</time></trkpt><trkpt lat="43.77897" lon="11.5878417"><ele>1008.75</ele><time>2026-04-04T10:40:26.984Z</time></trkpt><trkpt lat="43.7789667" lon="11.5876467"><ele>1010.0</ele><time>2026-04-04T10:40:27.984Z</time></trkpt><trkpt lat="43.7789667" lon="11.58745"><ele>1011.0</ele><time>2026-04-04T10:40:28.983Z</time></trkpt><trkpt lat="43.7789967" lon="11.5872833"><ele>1012.0</ele><time>2026-04-04T10:40:29.982Z</time></trkpt><trkpt lat="43.77902" lon="11.5871"><ele>1013.0</ele><time>2026-04-04T10:40:30.985Z</time></trkpt><trkpt lat="43.77907" lon="11.5869533"><ele>1014.0</ele><time>2026-04-04T10:40:31.984Z</time></trkpt><trkpt lat="43.7791383" lon="11.58684"><ele>1014.6</ele><time>2026-04-04T10:40:32.982Z</time></trkpt><trkpt lat="43.77922" lon="11.5867633"><ele>1015.2</ele><time>2026-04-04T10:40:33.982Z</time></trkpt><trkpt lat="43.7793067" lon="11.58669"><ele>1015.8000000000001</ele><time>2026-04-04T10:40:34.983Z</time></trkpt><trkpt lat="43.7793983" lon="11.58662"><ele>1016.4000000000001</ele><time>2026-04-04T10:40:35.983Z</time></trkpt><trkpt lat="43.779495" lon="11.586545"><ele>1017.0</ele><time>2026-04-04T10:40:36.983Z</time></trkpt><trkpt lat="43.7795917" lon="11.5864583"><ele>1017.0</ele><time>2026-04-04T10:40:37.985Z</time></trkpt><trkpt lat="43.7796867" lon="11.58636"><ele>1017.0</ele><time>2026-04-04T10:40:38.984Z</time></trkpt><trkpt lat="43.7797883" lon="11.5862717"><ele>1017.0</ele><time>2026-04-04T10:40:39.983Z</time></trkpt><trkpt lat="43.77989" lon="11.5861733"><ele>1017.0</ele><time>2026-04-04T10:40:40.984Z</time></trkpt><trkpt lat="43.7799933" lon="11.5860933"><ele>1017.2</ele><time>2026-04-04T10:40:41.984Z</time></trkpt><trkpt lat="43.780095" lon="11.5860183"><ele>1017.4000000000001</ele><time>2026-04-04T10:40:42.984Z</time></trkpt><trkpt lat="43.7801917" lon="11.5859517"><ele>1017.5999999999999</ele><time>2026-04-04T10:40:43.986Z</time></trkpt><trkpt lat="43.78028" lon="11.5858933"><ele>1017.8</ele><time>2026-04-04T10:40:44.983Z</time></trkpt><trkpt lat="43.7803633" lon="11.5858367"><ele>1018.0</ele><time>2026-04-04T10:40:45.982Z</time></trkpt><trkpt lat="43.7804483" lon="11.58579"><ele>1017.4</ele><time>2026-04-04T10:40:46.984Z</time></trkpt><trkpt lat="43.7805283" lon="11.58577"><ele>1016.8</ele><time>2026-04-04T10:40:47.985Z</time></trkpt><trkpt lat="43.7806067" lon="11.5857817"><ele>1016.2</ele><time>2026-04-04T10:40:48.985Z</time></trkpt><trkpt lat="43.7806917" lon="11.585825"><ele>1015.6</ele><time>2026-04-04T10:40:49.984Z</time></trkpt><trkpt lat="43.7807917" lon="11.5858883"><ele>1015.0</ele><time>2026-04-04T10:40:50.984Z</time></trkpt><trkpt lat="43.7808967" lon="11.58595"><ele>1015.0</ele><time>2026-04-04T10:40:51.984Z</time></trkpt><trkpt lat="43.7810017" lon="11.5860083"><ele>1015.0</ele><time>2026-04-04T10:40:52.985Z</time></trkpt><trkpt lat="43.781105" lon="11.5860567"><ele>1015.0</ele><time>2026-04-04T10:40:53.985Z</time></trkpt><trkpt lat="43.7812083" lon="11.5860883"><ele>1015.0</ele><time>2026-04-04T10:40:54.985Z</time></trkpt><trkpt lat="43.7813083" lon="11.5860867"><ele>1015.0</ele><time>2026-04-04T10:40:55.985Z</time></trkpt><trkpt lat="43.7813967" lon="11.58605"><ele>1013.9999999999999</ele><time>2026-04-04T10:40:56.984Z</time></trkpt><trkpt lat="43.7814717" lon="11.585995"><ele>1013.0</ele><time>2026-04-04T10:40:57.982Z</time></trkpt><trkpt lat="43.7815233" lon="11.5859117"><ele>1012.0</ele><time>2026-04-04T10:40:58.984Z</time></trkpt><trkpt lat="43.78157" lon="11.5858067"><ele>1011.0</ele><time>2026-04-04T10:40:59.983Z</time></trkpt><trkpt lat="43.7816067" lon="11.5856933"><ele>1009.9999999999999</ele><time>2026-04-04T10:41:00.982Z</time></trkpt><trkpt lat="43.781635" lon="11.585585"><ele>1009.0</ele><time>2026-04-04T10:41:01.984Z</time></trkpt><trkpt lat="43.7816583" lon="11.5854817"><ele>1008.9999999999999</ele><time>2026-04-04T10:41:02.983Z</time></trkpt><trkpt lat="43.7816833" lon="11.5853783"><ele>1009.0</ele><time>2026-04-04T10:41:03.983Z</time></trkpt><trkpt lat="43.7817117" lon="11.5852783"><ele>1009.0</ele><time>2026-04-04T10:41:04.982Z</time></trkpt><trkpt lat="43.7817517" lon="11.585175"><ele>1009.0</ele><time>2026-04-04T10:41:05.982Z</time></trkpt><trkpt lat="43.7818" lon="11.585075"><ele>1008.9999999999999</ele><time>2026-04-04T10:41:06.985Z</time></trkpt><trkpt lat="43.7818583" lon="11.5849767"><ele>1009.0</ele><time>2026-04-04T10:41:07.985Z</time></trkpt><trkpt lat="43.7819217" lon="11.58488"><ele>1008.3333333333333</ele><time>2026-04-04T10:41:08.984Z</time></trkpt><trkpt lat="43.78199" lon="11.5847917"><ele>1007.6666666666666</ele><time>2026-04-04T10:41:09.983Z</time></trkpt><trkpt lat="43.782055" lon="11.584705"><ele>1007.0</ele><time>2026-04-04T10:41:10.984Z</time></trkpt><trkpt lat="43.7821133" lon="11.5846267"><ele>1006.3333333333333</ele><time>2026-04-04T10:41:11.985Z</time></trkpt><trkpt lat="43.7821633" lon="11.5845533"><ele>1005.6666666666666</ele><time>2026-04-04T10:41:12.985Z</time></trkpt><trkpt lat="43.7822033" lon="11.584475"><ele>1005.0</ele><time>2026-04-04T10:41:13.985Z</time></trkpt><trkpt lat="43.782235" lon="11.5843933"><ele>1005.0</ele><time>2026-04-04T10:41:14.983Z</time></trkpt><trkpt lat="43.7822583" lon="11.58422"><ele>1005.0</ele><time>2026-04-04T10:41:16.985Z</time></trkpt><trkpt lat="43.78224" lon="11.58412"><ele>1005.0</ele><time>2026-04-04T10:41:17.984Z</time></trkpt><trkpt lat="43.78221" lon="11.5840233"><ele>1005.0</ele><time>2026-04-04T10:41:18.984Z</time></trkpt><trkpt lat="43.7821633" lon="11.5839367"><ele>1005.0</ele><time>2026-04-04T10:41:19.985Z</time></trkpt><trkpt lat="43.7821033" lon="11.5838617"><ele>1005.0</ele><time>2026-04-04T10:41:20.985Z</time></trkpt><trkpt lat="43.7820417" lon="11.5838017"><ele>1005.0</ele><time>2026-04-04T10:41:21.985Z</time></trkpt><trkpt lat="43.7819733" lon="11.5837717"><ele>1005.0</ele><time>2026-04-04T10:41:22.986Z</time></trkpt><trkpt lat="43.7819017" lon="11.5837667"><ele>1005.0</ele><time>2026-04-04T10:41:23.985Z</time></trkpt><trkpt lat="43.781835" lon="11.5837717"><ele>1005.0</ele><time>2026-04-04T10:41:24.983Z</time></trkpt><trkpt lat="43.781735" lon="11.5837383"><ele>1005.0</ele><time>2026-04-04T10:41:26.984Z</time></trkpt><trkpt lat="43.7816733" lon="11.5836683"><ele>1005.0</ele><time>2026-04-04T10:41:28.984Z</time></trkpt><trkpt lat="43.7816483" lon="11.5835767"><ele>1004.1666666666666</ele><time>2026-04-04T10:41:30.983Z</time></trkpt><trkpt lat="43.78161" lon="11.58345"><ele>1003.3333333333333</ele><time>2026-04-04T10:41:32.984Z</time></trkpt><trkpt lat="43.7815983" lon="11.583355"><ele>1002.5</ele><time>2026-04-04T10:41:33.983Z</time></trkpt><trkpt lat="43.7816" lon="11.5832433"><ele>1001.6666666666666</ele><time>2026-04-04T10:41:34.985Z</time></trkpt><trkpt lat="43.78162" lon="11.5831167"><ele>1000.8333333333333</ele><time>2026-04-04T10:41:35.986Z</time></trkpt><trkpt lat="43.78165" lon="11.5829867"><ele>1000.0</ele><time>2026-04-04T10:41:36.986Z</time></trkpt><trkpt lat="43.78169" lon="11.5828583"><ele>1000.1666666666666</ele><time>2026-04-04T10:41:37.985Z</time></trkpt><trkpt lat="43.7817317" lon="11.5827433"><ele>1000.3333333333333</ele><time>2026-04-04T10:41:38.983Z</time></trkpt><trkpt lat="43.78178" lon="11.5826367"><ele>1000.5</ele><time>2026-04-04T10:41:39.983Z</time></trkpt><trkpt lat="43.7818383" lon="11.5825517"><ele>1000.6666666666667</ele><time>2026-04-04T10:41:40.985Z</time></trkpt><trkpt lat="43.7819017" lon="11.5824783"><ele>1000.8333333333334</ele><time>2026-04-04T10:41:41.982Z</time></trkpt><trkpt lat="43.781975" lon="11.5824067"><ele>1001.0</ele><time>2026-04-04T10:41:42.985Z</time></trkpt><trkpt lat="43.7820567" lon="11.5823533"><ele>1001.0</ele><time>2026-04-04T10:41:43.985Z</time></trkpt><trkpt lat="43.7821483" lon="11.5823117"><ele>1000.9999999999999</ele><time>2026-04-04T10:41:44.984Z</time></trkpt><trkpt lat="43.7822533" lon="11.5822717"><ele>1000.9999999999999</ele><time>2026-04-04T10:41:45.983Z</time></trkpt><trkpt lat="43.7823617" lon="11.5822417"><ele>1001.0</ele><time>2026-04-04T10:41:46.985Z</time></trkpt><trkpt lat="43.7824733" lon="11.58221"><ele>1001.0</ele><time>2026-04-04T10:41:47.986Z</time></trkpt><trkpt lat="43.782575" lon="11.5821533"><ele>1001.0</ele><time>2026-04-04T10:41:48.984Z</time></trkpt><trkpt lat="43.7826633" lon="11.58207"><ele>1001.0</ele><time>2026-04-04T10:41:49.987Z</time></trkpt><trkpt lat="43.7827483" lon="11.5819667"><ele>1001.0</ele><time>2026-04-04T10:41:50.985Z</time></trkpt><trkpt lat="43.7828333" lon="11.5818517"><ele>1001.0</ele><time>2026-04-04T10:41:51.984Z</time></trkpt><trkpt lat="43.782925" lon="11.5817367"><ele>998.0</ele><time>2026-04-04T10:41:52.984Z</time></trkpt><trkpt lat="43.7830167" lon="11.5816333"><ele>994.9999999999999</ele><time>2026-04-04T10:41:53.986Z</time></trkpt><trkpt lat="43.7831067" lon="11.58154"><ele>991.9999999999999</ele><time>2026-04-04T10:41:54.983Z</time></trkpt><trkpt lat="43.783195" lon="11.581455"><ele>989.0</ele><time>2026-04-04T10:41:55.985Z</time></trkpt><trkpt lat="43.7832783" lon="11.5813733"><ele>986.0</ele><time>2026-04-04T10:41:56.984Z</time></trkpt><trkpt lat="43.783355" lon="11.5813033"><ele>986.0000000000001</ele><time>2026-04-04T10:41:57.984Z</time></trkpt><trkpt lat="43.783425" lon="11.58124"><ele>986.0</ele><time>2026-04-04T10:41:58.984Z</time></trkpt><trkpt lat="43.783495" lon="11.58119"><ele>986.0</ele><time>2026-04-04T10:41:59.983Z</time></trkpt><trkpt lat="43.7835617" lon="11.5811383"><ele>986.0</ele><time>2026-04-04T10:42:00.982Z</time></trkpt><trkpt lat="43.7836233" lon="11.58108"><ele>986.0000000000001</ele><time>2026-04-04T10:42:01.985Z</time></trkpt><trkpt lat="43.7836733" lon="11.5810117"><ele>986.0</ele><time>2026-04-04T10:42:02.982Z</time></trkpt><trkpt lat="43.783715" lon="11.5809317"><ele>985.6666666666667</ele><time>2026-04-04T10:42:03.983Z</time></trkpt><trkpt lat="43.7837583" lon="11.580855"><ele>985.3333333333334</ele><time>2026-04-04T10:42:04.984Z</time></trkpt><trkpt lat="43.78381" lon="11.5807733"><ele>985.0</ele><time>2026-04-04T10:42:05.986Z</time></trkpt><trkpt lat="43.7838733" lon="11.5806783"><ele>984.6666666666667</ele><time>2026-04-04T10:42:06.984Z</time></trkpt><trkpt lat="43.7839417" lon="11.58057"><ele>984.3333333333334</ele><time>2026-04-04T10:42:07.985Z</time></trkpt><trkpt lat="43.7840033" lon="11.5804617"><ele>984.0</ele><time>2026-04-04T10:42:08.983Z</time></trkpt><trkpt lat="43.7840633" lon="11.580365"><ele>983.3333333333334</ele><time>2026-04-04T10:42:09.983Z</time></trkpt><trkpt lat="43.7841267" lon="11.5802667"><ele>982.6666666666667</ele><time>2026-04-04T10:42:10.982Z</time></trkpt><trkpt lat="43.7841867" lon="11.5801733"><ele>982.0</ele><time>2026-04-04T10:42:11.984Z</time></trkpt><trkpt lat="43.7842367" lon="11.5800783"><ele>981.3333333333334</ele><time>2026-04-04T10:42:12.984Z</time></trkpt><trkpt lat="43.7842917" lon="11.57998"><ele>980.6666666666667</ele><time>2026-04-04T10:42:13.984Z</time></trkpt><trkpt lat="43.7843483" lon="11.579885"><ele>980.0</ele><time>2026-04-04T10:42:14.983Z</time></trkpt><trkpt lat="43.7844067" lon="11.5798033"><ele>980.0</ele><time>2026-04-04T10:42:15.985Z</time></trkpt><trkpt lat="43.7844683" lon="11.57972"><ele>980.0</ele><time>2026-04-04T10:42:16.983Z</time></trkpt><trkpt lat="43.7845317" lon="11.579635"><ele>980.0</ele><time>2026-04-04T10:42:17.985Z</time></trkpt><trkpt lat="43.7846033" lon="11.5795517"><ele>980.0</ele><time>2026-04-04T10:42:18.984Z</time></trkpt><trkpt lat="43.7846833" lon="11.579485"><ele>980.0</ele><time>2026-04-04T10:42:19.986Z</time></trkpt><trkpt lat="43.7847717" lon="11.5794117"><ele>975.5</ele><time>2026-04-04T10:42:20.982Z</time></trkpt><trkpt lat="43.7848667" lon="11.5793267"><ele>971.0</ele><time>2026-04-04T10:42:21.983Z</time></trkpt><trkpt lat="43.78497" lon="11.579235"><ele>966.5</ele><time>2026-04-04T10:42:22.982Z</time></trkpt><trkpt lat="43.7850733" lon="11.57915"><ele>962.0</ele><time>2026-04-04T10:42:23.982Z</time></trkpt><trkpt lat="43.785165" lon="11.579055"><ele>962.6</ele><time>2026-04-04T10:42:24.983Z</time></trkpt><trkpt lat="43.7852483" lon="11.5789533"><ele>963.2</ele><time>2026-04-04T10:42:25.984Z</time></trkpt><trkpt lat="43.7853367" lon="11.578875"><ele>963.8</ele><time>2026-04-04T10:42:26.983Z</time></trkpt><trkpt lat="43.78542" lon="11.5788067"><ele>964.4</ele><time>2026-04-04T10:42:27.982Z</time></trkpt><trkpt lat="43.785505" lon="11.5787617"><ele>965.0</ele><time>2026-04-04T10:42:28.983Z</time></trkpt><trkpt lat="43.7855917" lon="11.57876"><ele>965.0000000000001</ele><time>2026-04-04T10:42:29.983Z</time></trkpt><trkpt lat="43.7856667" lon="11.5787917"><ele>965.0</ele><time>2026-04-04T10:42:30.984Z</time></trkpt><trkpt lat="43.7857317" lon="11.5788533"><ele>965.0</ele><time>2026-04-04T10:42:31.984Z</time></trkpt><trkpt lat="43.7857833" lon="11.578925"><ele>965.0</ele><time>2026-04-04T10:42:32.982Z</time></trkpt><trkpt lat="43.7858183" lon="11.5790233"><ele>965.0000000000001</ele><time>2026-04-04T10:42:33.982Z</time></trkpt><trkpt lat="43.785835" lon="11.57914"><ele>965.0</ele><time>2026-04-04T10:42:34.983Z</time></trkpt><trkpt lat="43.7858383" lon="11.5792683"><ele>965.0</ele><time>2026-04-04T10:42:35.983Z</time></trkpt><trkpt lat="43.7858267" lon="11.579395"><ele>965.0</ele><time>2026-04-04T10:42:36.982Z</time></trkpt><trkpt lat="43.7858033" lon="11.5795117"><ele>965.0</ele><time>2026-04-04T10:42:37.984Z</time></trkpt><trkpt lat="43.78578" lon="11.579605"><ele>965.0</ele><time>2026-04-04T10:42:38.982Z</time></trkpt><trkpt lat="43.78576" lon="11.5797567"><ele>965.0</ele><time>2026-04-04T10:42:40.984Z</time></trkpt><trkpt lat="43.78575" lon="11.5798783"><ele>964.8333333333334</ele><time>2026-04-04T10:42:42.983Z</time></trkpt><trkpt lat="43.7857333" lon="11.5799817"><ele>964.6666666666667</ele><time>2026-04-04T10:42:44.981Z</time></trkpt><trkpt lat="43.7857217" lon="11.5800983"><ele>964.5</ele><time>2026-04-04T10:42:46.983Z</time></trkpt><trkpt lat="43.785735" lon="11.5802533"><ele>964.3333333333333</ele><time>2026-04-04T10:42:48.984Z</time></trkpt><trkpt lat="43.7857383" lon="11.5803567"><ele>964.1666666666666</ele><time>2026-04-04T10:42:49.984Z</time></trkpt><trkpt lat="43.7857417" lon="11.58047"><ele>964.0</ele><time>2026-04-04T10:42:50.985Z</time></trkpt><trkpt lat="43.78574" lon="11.5805733"><ele>964.0</ele><time>2026-04-04T10:42:51.984Z</time></trkpt><trkpt lat="43.7857333" lon="11.580665"><ele>964.0000000000001</ele><time>2026-04-04T10:42:52.982Z</time></trkpt><trkpt lat="43.78572" lon="11.5808283"><ele>964.0000000000001</ele><time>2026-04-04T10:42:54.983Z</time></trkpt><trkpt lat="43.7856883" lon="11.5809633"><ele>964.0</ele><time>2026-04-04T10:42:56.983Z</time></trkpt><trkpt lat="43.7856333" lon="11.581115"><ele>964.0</ele><time>2026-04-04T10:42:58.983Z</time></trkpt><trkpt lat="43.7856083" lon="11.581215"><ele>962.3333333333333</ele><time>2026-04-04T10:42:59.983Z</time></trkpt><trkpt lat="43.7855883" lon="11.581315"><ele>960.6666666666666</ele><time>2026-04-04T10:43:00.982Z</time></trkpt><trkpt lat="43.78557" lon="11.5814167"><ele>959.0</ele><time>2026-04-04T10:43:01.985Z</time></trkpt><trkpt lat="43.7855517" lon="11.581515"><ele>957.3333333333333</ele><time>2026-04-04T10:43:02.983Z</time></trkpt><trkpt lat="43.785545" lon="11.58165"><ele>955.6666666666666</ele><time>2026-04-04T10:43:04.982Z</time></trkpt><trkpt lat="43.7856067" lon="11.5816233"><ele>954.0</ele><time>2026-04-04T10:43:07.985Z</time></trkpt><trkpt lat="43.7856967" lon="11.5815717"><ele>954.0</ele><time>2026-04-04T10:43:08.984Z</time></trkpt><trkpt lat="43.7857983" lon="11.58153"><ele>954.0000000000001</ele><time>2026-04-04T10:43:09.982Z</time></trkpt><trkpt lat="43.7859067" lon="11.5815"><ele>954.0000000000001</ele><time>2026-04-04T10:43:10.983Z</time></trkpt><trkpt lat="43.78601" lon="11.5814717"><ele>954.0</ele><time>2026-04-04T10:43:11.982Z</time></trkpt><trkpt lat="43.7861083" lon="11.5814417"><ele>954.0</ele><time>2026-04-04T10:43:12.982Z</time></trkpt><trkpt lat="43.7861933" lon="11.5814217"><ele>954.5</ele><time>2026-04-04T10:43:13.983Z</time></trkpt><trkpt lat="43.7862817" lon="11.581405"><ele>955.0</ele><time>2026-04-04T10:43:14.982Z</time></trkpt><trkpt lat="43.786375" lon="11.5813983"><ele>955.5</ele><time>2026-04-04T10:43:15.983Z</time></trkpt><trkpt lat="43.7864633" lon="11.5813933"><ele>956.0</ele><time>2026-04-04T10:43:16.983Z</time></trkpt><trkpt lat="43.7865417" lon="11.5814033"><ele>956.5</ele><time>2026-04-04T10:43:17.984Z</time></trkpt><trkpt lat="43.7866133" lon="11.5814283"><ele>957.0</ele><time>2026-04-04T10:43:18.983Z</time></trkpt><trkpt lat="43.7866817" lon="11.58146"><ele>957.0</ele><time>2026-04-04T10:43:19.984Z</time></trkpt><trkpt lat="43.7867517" lon="11.5815"><ele>957.0</ele><time>2026-04-04T10:43:20.982Z</time></trkpt><trkpt lat="43.786825" lon="11.5815567"><ele>957.0</ele><time>2026-04-04T10:43:21.983Z</time></trkpt><trkpt lat="43.7869017" lon="11.58164"><ele>957.0</ele><time>2026-04-04T10:43:22.984Z</time></trkpt><trkpt lat="43.7869733" lon="11.5817467"><ele>957.0</ele><time>2026-04-04T10:43:23.984Z</time></trkpt><trkpt lat="43.78704" lon="11.5818533"><ele>958.4000000000001</ele><time>2026-04-04T10:43:24.985Z</time></trkpt><trkpt lat="43.7871017" lon="11.58197"><ele>959.8000000000001</ele><time>2026-04-04T10:43:25.987Z</time></trkpt><trkpt lat="43.787165" lon="11.5820833"><ele>961.2</ele><time>2026-04-04T10:43:26.982Z</time></trkpt><trkpt lat="43.7872267" lon="11.5821717"><ele>962.6</ele><time>2026-04-04T10:43:27.982Z</time></trkpt><trkpt lat="43.78731" lon="11.5822433"><ele>964.0</ele><time>2026-04-04T10:43:28.984Z</time></trkpt><trkpt lat="43.78741" lon="11.5823083"><ele>964.25</ele><time>2026-04-04T10:43:29.984Z</time></trkpt><trkpt lat="43.7875133" lon="11.5823733"><ele>964.5</ele><time>2026-04-04T10:43:30.983Z</time></trkpt><trkpt lat="43.7876383" lon="11.5824167"><ele>964.75</ele><time>2026-04-04T10:43:31.984Z</time></trkpt><trkpt lat="43.78776" lon="11.5824383"><ele>965.0</ele><time>2026-04-04T10:43:32.982Z</time></trkpt><trkpt lat="43.7878883" lon="11.58246"><ele>966.5</ele><time>2026-04-04T10:43:33.983Z</time></trkpt><trkpt lat="43.7880067" lon="11.58246"><ele>968.0</ele><time>2026-04-04T10:43:34.984Z</time></trkpt><trkpt lat="43.7881117" lon="11.5824267"><ele>969.5</ele><time>2026-04-04T10:43:35.984Z</time></trkpt><trkpt lat="43.78822" lon="11.582375"><ele>971.0</ele><time>2026-04-04T10:43:36.984Z</time></trkpt><trkpt lat="43.7883267" lon="11.5823083"><ele>971.0</ele><time>2026-04-04T10:43:37.984Z</time></trkpt><trkpt lat="43.788425" lon="11.582245"><ele>970.9999999999999</ele><time>2026-04-04T10:43:38.984Z</time></trkpt><trkpt lat="43.7885117" lon="11.58218"><ele>970.9999999999999</ele><time>2026-04-04T10:43:39.984Z</time></trkpt><trkpt lat="43.78858" lon="11.582125"><ele>971.0</ele><time>2026-04-04T10:43:40.984Z</time></trkpt><trkpt lat="43.7886833" lon="11.5820633"><ele>971.0</ele><time>2026-04-04T10:43:42.985Z</time></trkpt><trkpt lat="43.78877" lon="11.5820617"><ele>971.4</ele><time>2026-04-04T10:43:44.983Z</time></trkpt><trkpt lat="43.7888817" lon="11.5821133"><ele>971.8</ele><time>2026-04-04T10:43:46.983Z</time></trkpt><trkpt lat="43.788965" lon="11.5821567"><ele>972.1999999999999</ele><time>2026-04-04T10:43:47.986Z</time></trkpt><trkpt lat="43.7890567" lon="11.5821983"><ele>972.5999999999999</ele><time>2026-04-04T10:43:48.982Z</time></trkpt><trkpt lat="43.7891567" lon="11.5822417"><ele>973.0</ele><time>2026-04-04T10:43:49.984Z</time></trkpt><trkpt lat="43.7892583" lon="11.5822833"><ele>974.8</ele><time>2026-04-04T10:43:50.983Z</time></trkpt><trkpt lat="43.7893533" lon="11.58233"><ele>976.5999999999999</ele><time>2026-04-04T10:43:51.984Z</time></trkpt><trkpt lat="43.7894533" lon="11.5823733"><ele>978.4000000000001</ele><time>2026-04-04T10:43:52.984Z</time></trkpt><trkpt lat="43.789545" lon="11.5824133"><ele>980.2</ele><time>2026-04-04T10:43:53.983Z</time></trkpt><trkpt lat="43.7896317" lon="11.582445"><ele>982.0</ele><time>2026-04-04T10:43:54.984Z</time></trkpt><trkpt lat="43.7897133" lon="11.5824767"><ele>982.0</ele><time>2026-04-04T10:43:55.986Z</time></trkpt><trkpt lat="43.789805" lon="11.5824933"><ele>982.0</ele><time>2026-04-04T10:43:56.984Z</time></trkpt><trkpt lat="43.7899117" lon="11.582475"><ele>982.0</ele><time>2026-04-04T10:43:57.984Z</time></trkpt><trkpt lat="43.7900283" lon="11.5824167"><ele>982.0</ele><time>2026-04-04T10:43:58.985Z</time></trkpt><trkpt lat="43.7901283" lon="11.582355"><ele>982.0</ele><time>2026-04-04T10:43:59.985Z</time></trkpt><trkpt lat="43.79023" lon="11.5822983"><ele>981.9999999999999</ele><time>2026-04-04T10:44:00.984Z</time></trkpt><trkpt lat="43.79032" lon="11.5822617"><ele>982.0</ele><time>2026-04-04T10:44:01.986Z</time></trkpt><trkpt lat="43.7904117" lon="11.582245"><ele>982.0</ele><time>2026-04-04T10:44:02.984Z</time></trkpt><trkpt lat="43.790505" lon="11.5822267"><ele>982.0</ele><time>2026-04-04T10:44:03.984Z</time></trkpt><trkpt lat="43.79058" lon="11.58221"><ele>981.9999999999999</ele><time>2026-04-04T10:44:04.982Z</time></trkpt><trkpt lat="43.790655" lon="11.5821917"><ele>982.0</ele><time>2026-04-04T10:44:05.982Z</time></trkpt><trkpt lat="43.7907417" lon="11.5821767"><ele>982.0</ele><time>2026-04-04T10:44:06.984Z</time></trkpt><trkpt lat="43.7908417" lon="11.58215"><ele>982.0</ele><time>2026-04-04T10:44:07.986Z</time></trkpt><trkpt lat="43.7909417" lon="11.5821233"><ele>982.0</ele><time>2026-04-04T10:44:08.984Z</time></trkpt><trkpt lat="43.7910483" lon="11.5821"><ele>982.0</ele><time>2026-04-04T10:44:09.983Z</time></trkpt><trkpt lat="43.7911583" lon="11.5820783"><ele>982.0</ele><time>2026-04-04T10:44:10.983Z</time></trkpt><trkpt lat="43.7912633" lon="11.582075"><ele>982.4000000000001</ele><time>2026-04-04T10:44:11.984Z</time></trkpt><trkpt lat="43.7913683" lon="11.5820717"><ele>982.8000000000001</ele><time>2026-04-04T10:44:12.985Z</time></trkpt><trkpt lat="43.7914817" lon="11.5820617"><ele>983.2</ele><time>2026-04-04T10:44:13.986Z</time></trkpt><trkpt lat="43.7915933" lon="11.58205"><ele>983.6</ele><time>2026-04-04T10:44:14.984Z</time></trkpt><trkpt lat="43.7916867" lon="11.582035"><ele>984.0</ele><time>2026-04-04T10:44:15.985Z</time></trkpt><trkpt lat="43.7917633" lon="11.5820183"><ele>985.1666666666666</ele><time>2026-04-04T10:44:16.983Z</time></trkpt><trkpt lat="43.7918333" lon="11.5819967"><ele>986.3333333333333</ele><time>2026-04-04T10:44:17.984Z</time></trkpt><trkpt lat="43.7918967" lon="11.581965"><ele>987.5</ele><time>2026-04-04T10:44:19.986Z</time></trkpt><trkpt lat="43.79195" lon="11.5819017"><ele>988.6666666666666</ele><time>2026-04-04T10:44:24.982Z</time></trkpt><trkpt lat="43.7920467" lon="11.5819483"><ele>989.8333333333333</ele><time>2026-04-04T10:44:32.985Z</time></trkpt><trkpt lat="43.792145" lon="11.5818833"><ele>991.0</ele><time>2026-04-04T10:44:34.983Z</time></trkpt><trkpt lat="43.7922267" lon="11.5818217"><ele>990.8</ele><time>2026-04-04T10:44:35.984Z</time></trkpt><trkpt lat="43.7923033" lon="11.5817617"><ele>990.5999999999999</ele><time>2026-04-04T10:44:36.984Z</time></trkpt><trkpt lat="43.792385" lon="11.5817067"><ele>990.4</ele><time>2026-04-04T10:44:37.986Z</time></trkpt><trkpt lat="43.7924833" lon="11.5816333"><ele>990.2</ele><time>2026-04-04T10:44:38.984Z</time></trkpt><trkpt lat="43.7925817" lon="11.58156"><ele>990.0</ele><time>2026-04-04T10:44:39.984Z</time></trkpt><trkpt lat="43.7926817" lon="11.58148"><ele>990.0</ele><time>2026-04-04T10:44:40.985Z</time></trkpt><trkpt lat="43.7927717" lon="11.5814"><ele>990.0</ele><time>2026-04-04T10:44:41.983Z</time></trkpt><trkpt lat="43.7928633" lon="11.5813167"><ele>990.0</ele><time>2026-04-04T10:44:42.984Z</time></trkpt><trkpt lat="43.7929383" lon="11.58124"><ele>990.0</ele><time>2026-04-04T10:44:43.984Z</time></trkpt><trkpt lat="43.793005" lon="11.58117"><ele>990.0</ele><time>2026-04-04T10:44:44.983Z</time></trkpt><trkpt lat="43.79307" lon="11.5810983"><ele>990.8333333333334</ele><time>2026-04-04T10:44:45.982Z</time></trkpt><trkpt lat="43.7931267" lon="11.5810333"><ele>991.6666666666667</ele><time>2026-04-04T10:44:46.982Z</time></trkpt><trkpt lat="43.7931783" lon="11.5809617"><ele>992.5</ele><time>2026-04-04T10:44:47.982Z</time></trkpt><trkpt lat="43.7932333" lon="11.58088"><ele>993.3333333333334</ele><time>2026-04-04T10:44:48.982Z</time></trkpt><trkpt lat="43.7932883" lon="11.5808"><ele>994.1666666666667</ele><time>2026-04-04T10:44:49.984Z</time></trkpt><trkpt lat="43.7933383" lon="11.58072"><ele>995.0</ele><time>2026-04-04T10:44:50.984Z</time></trkpt><trkpt lat="43.7933983" lon="11.5806283"><ele>995.0</ele><time>2026-04-04T10:44:51.983Z</time></trkpt><trkpt lat="43.793475" lon="11.58054"><ele>995.0</ele><time>2026-04-04T10:44:52.982Z</time></trkpt><trkpt lat="43.7935417" lon="11.5804333"><ele>995.0</ele><time>2026-04-04T10:44:53.983Z</time></trkpt><trkpt lat="43.79361" lon="11.580325"><ele>995.0</ele><time>2026-04-04T10:44:54.982Z</time></trkpt><trkpt lat="43.7936717" lon="11.5802267"><ele>995.0</ele><time>2026-04-04T10:44:55.984Z</time></trkpt><trkpt lat="43.79373" lon="11.580135"><ele>993.4</ele><time>2026-04-04T10:44:56.983Z</time></trkpt><trkpt lat="43.7937833" lon="11.5800583"><ele>991.8</ele><time>2026-04-04T10:44:57.982Z</time></trkpt><trkpt lat="43.7938667" lon="11.57995"><ele>990.2</ele><time>2026-04-04T10:44:59.982Z</time></trkpt><trkpt lat="43.7939533" lon="11.579915"><ele>988.6</ele><time>2026-04-04T10:45:01.985Z</time></trkpt><trkpt lat="43.7940333" lon="11.5798783"><ele>987.0</ele><time>2026-04-04T10:45:03.984Z</time></trkpt><trkpt lat="43.79413" lon="11.57982"><ele>987.0</ele><time>2026-04-04T10:45:05.982Z</time></trkpt><trkpt lat="43.7942167" lon="11.5797617"><ele>987.0</ele><time>2026-04-04T10:45:07.985Z</time></trkpt><trkpt lat="43.7943067" lon="11.5797133"><ele>987.0</ele><time>2026-04-04T10:45:09.983Z</time></trkpt><trkpt lat="43.79441" lon="11.5796717"><ele>987.0</ele><time>2026-04-04T10:45:11.982Z</time></trkpt><trkpt lat="43.79452" lon="11.5796033"><ele>987.0</ele><time>2026-04-04T10:45:13.985Z</time></trkpt><trkpt lat="43.79458" lon="11.5795567"><ele>984.4000000000001</ele><time>2026-04-04T10:45:14.984Z</time></trkpt><trkpt lat="43.79468" lon="11.57947"><ele>981.8000000000001</ele><time>2026-04-04T10:45:16.983Z</time></trkpt><trkpt lat="43.7947783" lon="11.5793683"><ele>979.2</ele><time>2026-04-04T10:45:18.986Z</time></trkpt><trkpt lat="43.7948317" lon="11.5793017"><ele>976.6</ele><time>2026-04-04T10:45:19.985Z</time></trkpt><trkpt lat="43.7948833" lon="11.5792417"><ele>974.0</ele><time>2026-04-04T10:45:20.982Z</time></trkpt><trkpt lat="43.79496" lon="11.579135"><ele>974.0000000000001</ele><time>2026-04-04T10:45:22.984Z</time></trkpt><trkpt lat="43.795005" lon="11.57907"><ele>974.0</ele><time>2026-04-04T10:45:24.983Z</time></trkpt><trkpt lat="43.795055" lon="11.57897"><ele>974.0</ele><time>2026-04-04T10:55:08.984Z</time></trkpt><trkpt lat="43.7950683" lon="11.5788517"><ele>974.0</ele><time>2026-04-04T10:55:11.985Z</time></trkpt><trkpt lat="43.7951117" lon="11.5787467"><ele>974.0000000000001</ele><time>2026-04-04T10:55:13.985Z</time></trkpt><trkpt lat="43.7951517" lon="11.57862"><ele>974.0</ele><time>2026-04-04T10:55:15.983Z</time></trkpt><trkpt lat="43.7951967" lon="11.5785367"><ele>970.8333333333334</ele><time>2026-04-04T10:55:16.983Z</time></trkpt><trkpt lat="43.7952967" lon="11.578435"><ele>967.6666666666667</ele><time>2026-04-04T10:55:18.983Z</time></trkpt><trkpt lat="43.79536" lon="11.5784"><ele>964.5</ele><time>2026-04-04T10:55:19.985Z</time></trkpt><trkpt lat="43.7954233" lon="11.5783767"><ele>961.3333333333333</ele><time>2026-04-04T10:55:20.983Z</time></trkpt><trkpt lat="43.795495" lon="11.5783417"><ele>958.1666666666666</ele><time>2026-04-04T10:55:21.982Z</time></trkpt><trkpt lat="43.7955617" lon="11.5783167"><ele>955.0</ele><time>2026-04-04T10:55:22.985Z</time></trkpt><trkpt lat="43.795635" lon="11.5782967"><ele>954.9999999999999</ele><time>2026-04-04T10:55:23.983Z</time></trkpt><trkpt lat="43.7957167" lon="11.5782783"><ele>955.0</ele><time>2026-04-04T10:55:24.982Z</time></trkpt><trkpt lat="43.7958017" lon="11.5782533"><ele>955.0</ele><time>2026-04-04T10:55:25.985Z</time></trkpt><trkpt lat="43.7958883" lon="11.57822"><ele>955.0</ele><time>2026-04-04T10:55:26.982Z</time></trkpt><trkpt lat="43.79597" lon="11.5781967"><ele>954.9999999999999</ele><time>2026-04-04T10:55:27.982Z</time></trkpt><trkpt lat="43.796045" lon="11.5781783"><ele>955.0</ele><time>2026-04-04T10:55:28.985Z</time></trkpt><trkpt lat="43.7961133" lon="11.5781617"><ele>951.0</ele><time>2026-04-04T10:55:29.985Z</time></trkpt><trkpt lat="43.7961967" lon="11.5781383"><ele>947.0</ele><time>2026-04-04T10:55:31.985Z</time></trkpt><trkpt lat="43.7963533" lon="11.57811"><ele>943.0</ele><time>2026-04-04T10:56:22.984Z</time></trkpt><trkpt lat="43.7964233" lon="11.5781267"><ele>939.0</ele><time>2026-04-04T10:56:25.985Z</time></trkpt><trkpt lat="43.7964833" lon="11.5781833"><ele>935.0</ele><time>2026-04-04T10:56:26.985Z</time></trkpt><trkpt lat="43.7965483" lon="11.5782567"><ele>935.0000000000001</ele><time>2026-04-04T10:56:27.983Z</time></trkpt><trkpt lat="43.7966317" lon="11.5783117"><ele>935.0</ele><time>2026-04-04T10:56:28.983Z</time></trkpt><trkpt lat="43.796705" lon="11.5783383"><ele>935.0</ele><time>2026-04-04T10:56:29.983Z</time></trkpt><trkpt lat="43.79678" lon="11.57833"><ele>935.0</ele><time>2026-04-04T10:56:30.983Z</time></trkpt><trkpt lat="43.7968367" lon="11.578275"><ele>935.0000000000001</ele><time>2026-04-04T10:56:31.986Z</time></trkpt><trkpt lat="43.7968867" lon="11.57821"><ele>935.0</ele><time>2026-04-04T10:56:32.984Z</time></trkpt><trkpt lat="43.7969333" lon="11.5781317"><ele>930.0000000000001</ele><time>2026-04-04T10:56:33.984Z</time></trkpt><trkpt lat="43.7969667" lon="11.5780367"><ele>925.0</ele><time>2026-04-04T10:56:34.982Z</time></trkpt><trkpt lat="43.7970117" lon="11.57794"><ele>920.0</ele><time>2026-04-04T10:56:35.983Z</time></trkpt><trkpt lat="43.7970333" lon="11.5778333"><ele>915.0</ele><time>2026-04-04T10:56:36.984Z</time></trkpt><trkpt lat="43.797045" lon="11.57773"><ele>910.0000000000001</ele><time>2026-04-04T10:56:37.985Z</time></trkpt><trkpt lat="43.7970617" lon="11.5776283"><ele>905.0</ele><time>2026-04-04T10:56:38.984Z</time></trkpt><trkpt lat="43.7970617" lon="11.5775283"><ele>905.0</ele><time>2026-04-04T10:56:39.974Z</time></trkpt><trkpt lat="43.797055" lon="11.5774333"><ele>904.9999999999999</ele><time>2026-04-04T10:56:40.983Z</time></trkpt><trkpt lat="43.797065" lon="11.5773467"><ele>905.0</ele><time>2026-04-04T10:56:41.983Z</time></trkpt><trkpt lat="43.797105" lon="11.5772767"><ele>905.0</ele><time>2026-04-04T10:56:42.983Z</time></trkpt><trkpt lat="43.7971567" lon="11.5772"><ele>904.9999999999999</ele><time>2026-04-04T10:56:43.985Z</time></trkpt><trkpt lat="43.7972033" lon="11.5771083"><ele>905.0</ele><time>2026-04-04T10:56:44.984Z</time></trkpt><trkpt lat="43.7972767" lon="11.5770333"><ele>905.0</ele><time>2026-04-04T10:56:45.984Z</time></trkpt><trkpt lat="43.7973333" lon="11.5769483"><ele>905.2857142857142</ele><time>2026-04-04T10:56:46.985Z</time></trkpt><trkpt lat="43.7973767" lon="11.5768683"><ele>905.5714285714284</ele><time>2026-04-04T10:56:47.984Z</time></trkpt><trkpt lat="43.79739" lon="11.5767667"><ele>905.8571428571429</ele><time>2026-04-04T10:56:48.982Z</time></trkpt><trkpt lat="43.7974383" lon="11.5767"><ele>906.1428571428571</ele><time>2026-04-04T10:56:49.985Z</time></trkpt><trkpt lat="43.79749" lon="11.576645"><ele>906.4285714285714</ele><time>2026-04-04T10:56:50.984Z</time></trkpt><trkpt lat="43.7975483" lon="11.5766017"><ele>906.7142857142858</ele><time>2026-04-04T10:56:51.983Z</time></trkpt><trkpt lat="43.7976083" lon="11.5765533"><ele>907.0000000000001</ele><time>2026-04-04T10:56:52.983Z</time></trkpt><trkpt lat="43.797665" lon="11.576485"><ele>904.6666666666666</ele><time>2026-04-04T10:56:53.983Z</time></trkpt><trkpt lat="43.7977067" lon="11.5764133"><ele>902.3333333333333</ele><time>2026-04-04T10:56:54.984Z</time></trkpt><trkpt lat="43.7977333" lon="11.5763267"><ele>900.0</ele><time>2026-04-04T10:56:55.985Z</time></trkpt><trkpt lat="43.797765" lon="11.5762283"><ele>897.6666666666667</ele><time>2026-04-04T10:56:56.983Z</time></trkpt><trkpt lat="43.79781" lon="11.5761283"><ele>895.3333333333334</ele><time>2026-04-04T10:56:57.982Z</time></trkpt><trkpt lat="43.7978583" lon="11.57604"><ele>893.0</ele><time>2026-04-04T10:56:58.983Z</time></trkpt><trkpt lat="43.7979083" lon="11.575955"><ele>893.0000000000001</ele><time>2026-04-04T10:56:59.981Z</time></trkpt><trkpt lat="43.797955" lon="11.5758783"><ele>893.0</ele><time>2026-04-04T10:57:00.983Z</time></trkpt><trkpt lat="43.798005" lon="11.5758117"><ele>893.0</ele><time>2026-04-04T10:57:01.985Z</time></trkpt><trkpt lat="43.79813" lon="11.575785"><ele>893.0</ele><time>2026-04-04T10:57:03.984Z</time></trkpt><trkpt lat="43.798205" lon="11.57582"><ele>893.0000000000001</ele><time>2026-04-04T10:57:04.983Z</time></trkpt><trkpt lat="43.7982783" lon="11.575875"><ele>893.0</ele><time>2026-04-04T10:57:05.982Z</time></trkpt><trkpt lat="43.79836" lon="11.575935"><ele>893.0000000000001</ele><time>2026-04-04T10:57:06.983Z</time></trkpt><trkpt lat="43.7984417" lon="11.5759667"><ele>893.0</ele><time>2026-04-04T10:57:07.986Z</time></trkpt><trkpt lat="43.7985217" lon="11.5759883"><ele>893.0</ele><time>2026-04-04T10:57:08.987Z</time></trkpt><trkpt lat="43.7985917" lon="11.5760017"><ele>893.0</ele><time>2026-04-04T10:57:09.984Z</time></trkpt><trkpt lat="43.7986933" lon="11.576015"><ele>893.0000000000001</ele><time>2026-04-04T10:57:11.985Z</time></trkpt><trkpt lat="43.7987983" lon="11.576035"><ele>893.0</ele><time>2026-04-04T10:57:16.983Z</time></trkpt><trkpt lat="43.7988683" lon="11.576045"><ele>892.0</ele><time>2026-04-04T10:57:18.983Z</time></trkpt><trkpt lat="43.79895" lon="11.5760333"><ele>891.0</ele><time>2026-04-04T10:57:20.982Z</time></trkpt><trkpt lat="43.7990433" lon="11.5760317"><ele>890.0</ele><time>2026-04-04T10:57:22.983Z</time></trkpt><trkpt lat="43.79916" lon="11.5760333"><ele>889.0</ele><time>2026-04-04T10:57:24.984Z</time></trkpt><trkpt lat="43.7992317" lon="11.5760767"><ele>888.0</ele><time>2026-04-04T10:57:25.984Z</time></trkpt><trkpt lat="43.799335" lon="11.5761017"><ele>888.3333333333334</ele><time>2026-04-04T10:57:27.984Z</time></trkpt><trkpt lat="43.7994117" lon="11.57615"><ele>888.6666666666667</ele><time>2026-04-04T10:57:29.983Z</time></trkpt><trkpt lat="43.799495" lon="11.5761883"><ele>889.0</ele><time>2026-04-04T10:57:31.985Z</time></trkpt><trkpt lat="43.7995533" lon="11.576255"><ele>889.3333333333334</ele><time>2026-04-04T10:57:34.974Z</time></trkpt><trkpt lat="43.7996083" lon="11.5763133"><ele>889.6666666666667</ele><time>2026-04-04T10:57:36.982Z</time></trkpt><trkpt lat="43.7996717" lon="11.5763567"><ele>890.0</ele><time>2026-04-04T10:57:38.985Z</time></trkpt><trkpt lat="43.7997317" lon="11.5763967"><ele>890.0000000000001</ele><time>2026-04-04T10:57:40.985Z</time></trkpt><trkpt lat="43.7998033" lon="11.576445"><ele>890.0</ele><time>2026-04-04T10:57:42.984Z</time></trkpt><trkpt lat="43.7998783" lon="11.576495"><ele>890.0</ele><time>2026-04-04T10:57:44.987Z</time></trkpt><trkpt lat="43.799945" lon="11.5765383"><ele>890.0</ele><time>2026-04-04T10:57:46.983Z</time></trkpt><trkpt lat="43.8000333" lon="11.5765483"><ele>890.0000000000001</ele><time>2026-04-04T10:57:48.983Z</time></trkpt><trkpt lat="43.8000967" lon="11.5765517"><ele>890.0</ele><time>2026-04-04T10:57:49.985Z</time></trkpt><trkpt lat="43.800175" lon="11.576575"><ele>888.6666666666667</ele><time>2026-04-04T10:57:50.983Z</time></trkpt><trkpt lat="43.8002433" lon="11.5766167"><ele>887.3333333333334</ele><time>2026-04-04T10:57:51.984Z</time></trkpt><trkpt lat="43.8003133" lon="11.5766617"><ele>886.0</ele><time>2026-04-04T10:57:52.984Z</time></trkpt><trkpt lat="43.8003917" lon="11.5767033"><ele>884.6666666666667</ele><time>2026-04-04T10:57:53.974Z</time></trkpt><trkpt lat="43.8004617" lon="11.5767133"><ele>883.3333333333334</ele><time>2026-04-04T10:57:54.984Z</time></trkpt><trkpt lat="43.80053" lon="11.5767117"><ele>882.0</ele><time>2026-04-04T10:57:55.985Z</time></trkpt><trkpt lat="43.8006167" lon="11.5767017"><ele>882.0</ele><time>2026-04-04T10:57:56.982Z</time></trkpt><trkpt lat="43.8007" lon="11.5766883"><ele>882.0</ele><time>2026-04-04T10:57:57.983Z</time></trkpt><trkpt lat="43.8007617" lon="11.57666"><ele>882.0</ele><time>2026-04-04T10:57:58.983Z</time></trkpt><trkpt lat="43.8008617" lon="11.5766333"><ele>882.0</ele><time>2026-04-04T10:58:00.984Z</time></trkpt><trkpt lat="43.8009333" lon="11.57665"><ele>882.0</ele><time>2026-04-04T10:58:03.984Z</time></trkpt><trkpt lat="43.801005" lon="11.5766867"><ele>882.0</ele><time>2026-04-04T10:58:05.983Z</time></trkpt><trkpt lat="43.801125" lon="11.57676"><ele>880.8333333333334</ele><time>2026-04-04T10:58:07.984Z</time></trkpt><trkpt lat="43.8012083" lon="11.576805"><ele>879.6666666666667</ele><time>2026-04-04T10:58:08.982Z</time></trkpt><trkpt lat="43.801295" lon="11.576835"><ele>878.5</ele><time>2026-04-04T10:58:09.982Z</time></trkpt><trkpt lat="43.80137" lon="11.576855"><ele>877.3333333333334</ele><time>2026-04-04T10:58:10.983Z</time></trkpt><trkpt lat="43.801445" lon="11.5768667"><ele>876.1666666666667</ele><time>2026-04-04T10:58:11.985Z</time></trkpt><trkpt lat="43.8015217" lon="11.5768633"><ele>875.0</ele><time>2026-04-04T10:58:12.984Z</time></trkpt><trkpt lat="43.8015917" lon="11.5768533"><ele>875.0</ele><time>2026-04-04T10:58:13.985Z</time></trkpt><trkpt lat="43.80167" lon="11.5768367"><ele>875.0</ele><time>2026-04-04T10:58:14.983Z</time></trkpt><trkpt lat="43.80176" lon="11.5768167"><ele>875.0</ele><time>2026-04-04T10:58:15.982Z</time></trkpt><trkpt lat="43.8018533" lon="11.5768017"><ele>875.0</ele><time>2026-04-04T10:58:16.983Z</time></trkpt><trkpt lat="43.8019483" lon="11.576795"><ele>875.0</ele><time>2026-04-04T10:58:17.983Z</time></trkpt><trkpt lat="43.8020583" lon="11.5767867"><ele>871.8333333333334</ele><time>2026-04-04T10:58:18.983Z</time></trkpt><trkpt lat="43.802155" lon="11.5768"><ele>868.6666666666667</ele><time>2026-04-04T10:58:19.985Z</time></trkpt><trkpt lat="43.8022367" lon="11.5768317"><ele>865.5</ele><time>2026-04-04T10:58:20.984Z</time></trkpt><trkpt lat="43.8023133" lon="11.5768817"><ele>862.3333333333333</ele><time>2026-04-04T10:58:21.984Z</time></trkpt><trkpt lat="43.8023833" lon="11.576945"><ele>859.1666666666666</ele><time>2026-04-04T10:58:22.983Z</time></trkpt><trkpt lat="43.8024467" lon="11.5770167"><ele>856.0</ele><time>2026-04-04T10:58:23.983Z</time></trkpt><trkpt lat="43.8025083" lon="11.5770783"><ele>854.6666666666666</ele><time>2026-04-04T10:58:24.983Z</time></trkpt><trkpt lat="43.802565" lon="11.57712"><ele>853.3333333333333</ele><time>2026-04-04T10:58:25.985Z</time></trkpt><trkpt lat="43.8026917" lon="11.577125"><ele>852.0</ele><time>2026-04-04T10:58:27.983Z</time></trkpt><trkpt lat="43.80277" lon="11.5770817"><ele>850.6666666666667</ele><time>2026-04-04T10:58:28.984Z</time></trkpt><trkpt lat="43.8028383" lon="11.57702"><ele>849.3333333333334</ele><time>2026-04-04T10:58:29.983Z</time></trkpt><trkpt lat="43.80289" lon="11.576945"><ele>848.0</ele><time>2026-04-04T10:58:30.984Z</time></trkpt><trkpt lat="43.8029383" lon="11.5768567"><ele>848.0000000000001</ele><time>2026-04-04T10:58:31.985Z</time></trkpt><trkpt lat="43.802985" lon="11.576765"><ele>848.0</ele><time>2026-04-04T10:58:32.981Z</time></trkpt><trkpt lat="43.8030433" lon="11.57668"><ele>848.0</ele><time>2026-04-04T10:58:33.984Z</time></trkpt><trkpt lat="43.8031033" lon="11.5765933"><ele>848.0</ele><time>2026-04-04T10:58:34.984Z</time></trkpt><trkpt lat="43.8031633" lon="11.5765167"><ele>848.0000000000001</ele><time>2026-04-04T10:58:35.985Z</time></trkpt><trkpt lat="43.8032283" lon="11.576455"><ele>848.0</ele><time>2026-04-04T10:58:36.983Z</time></trkpt><trkpt lat="43.8033017" lon="11.5764117"><ele>848.0000000000001</ele><time>2026-04-04T10:58:37.984Z</time></trkpt><trkpt lat="43.8033733" lon="11.5763633"><ele>848.0</ele><time>2026-04-04T10:58:38.984Z</time></trkpt><trkpt lat="43.8034383" lon="11.5763033"><ele>848.0</ele><time>2026-04-04T10:58:39.983Z</time></trkpt><trkpt lat="43.8034917" lon="11.5762467"><ele>848.0</ele><time>2026-04-04T10:58:40.983Z</time></trkpt><trkpt lat="43.8035917" lon="11.5762067"><ele>848.0000000000001</ele><time>2026-04-04T10:58:42.984Z</time></trkpt><trkpt lat="43.8036833" lon="11.5762917"><ele>848.0</ele><time>2026-04-04T10:58:44.984Z</time></trkpt><trkpt lat="43.803755" lon="11.5764367"><ele>845.1666666666667</ele><time>2026-04-04T10:58:46.984Z</time></trkpt><trkpt lat="43.803795" lon="11.57652"><ele>842.3333333333334</ele><time>2026-04-04T10:58:47.984Z</time></trkpt><trkpt lat="43.8038433" lon="11.5765983"><ele>839.5</ele><time>2026-04-04T10:58:48.985Z</time></trkpt><trkpt lat="43.8038883" lon="11.57668"><ele>836.6666666666667</ele><time>2026-04-04T10:58:49.986Z</time></trkpt><trkpt lat="43.8039283" lon="11.5767533"><ele>833.8333333333334</ele><time>2026-04-04T10:58:50.984Z</time></trkpt><trkpt lat="43.8039917" lon="11.57687"><ele>831.0</ele><time>2026-04-04T10:58:52.985Z</time></trkpt><trkpt lat="43.8040533" lon="11.5769583"><ele>831.0</ele><time>2026-04-04T10:58:54.984Z</time></trkpt><trkpt lat="43.804125" lon="11.5768767"><ele>831.0</ele><time>2026-04-04T10:59:15.984Z</time></trkpt><trkpt lat="43.8041883" lon="11.5768683"><ele>831.0</ele><time>2026-04-04T10:59:16.985Z</time></trkpt><trkpt lat="43.8042633" lon="11.576865"><ele>831.0</ele><time>2026-04-04T10:59:17.991Z</time></trkpt><trkpt lat="43.8043317" lon="11.5768067"><ele>831.0</ele><time>2026-04-04T10:59:18.985Z</time></trkpt><trkpt lat="43.8043933" lon="11.5767583"><ele>831.0</ele><time>2026-04-04T10:59:19.985Z</time></trkpt><trkpt lat="43.8044817" lon="11.5766867"><ele>836.1999999999999</ele><time>2026-04-04T10:59:21.984Z</time></trkpt><trkpt lat="43.8045517" lon="11.5765567"><ele>841.4</ele><time>2026-04-04T10:59:23.985Z</time></trkpt><trkpt lat="43.8046033" lon="11.5764717"><ele>846.6</ele><time>2026-04-04T10:59:24.985Z</time></trkpt><trkpt lat="43.8046667" lon="11.5763767"><ele>851.8</ele><time>2026-04-04T10:59:25.986Z</time></trkpt><trkpt lat="43.804725" lon="11.5762917"><ele>857.0</ele><time>2026-04-04T10:59:26.984Z</time></trkpt><trkpt lat="43.804785" lon="11.57622"><ele>855.0000000000001</ele><time>2026-04-04T10:59:27.984Z</time></trkpt><trkpt lat="43.8048217" lon="11.5761117"><ele>853.0</ele><time>2026-04-04T10:59:28.984Z</time></trkpt><trkpt lat="43.8048783" lon="11.576"><ele>851.0</ele><time>2026-04-04T10:59:29.986Z</time></trkpt><trkpt lat="43.8049283" lon="11.5759083"><ele>849.0</ele><time>2026-04-04T10:59:30.985Z</time></trkpt><trkpt lat="43.8049917" lon="11.5758433"><ele>847.0000000000001</ele><time>2026-04-04T10:59:31.986Z</time></trkpt><trkpt lat="43.805045" lon="11.5757767"><ele>845.0</ele><time>2026-04-04T10:59:32.985Z</time></trkpt><trkpt lat="43.8050567" lon="11.5756867"><ele>845.0</ele><time>2026-04-04T10:59:33.984Z</time></trkpt><trkpt lat="43.8051083" lon="11.575545"><ele>845.0</ele><time>2026-04-04T10:59:35.985Z</time></trkpt><trkpt lat="43.8051667" lon="11.575375"><ele>845.0</ele><time>2026-04-04T10:59:37.984Z</time></trkpt><trkpt lat="43.8052017" lon="11.5752783"><ele>845.0</ele><time>2026-04-04T10:59:38.983Z</time></trkpt><trkpt lat="43.8052333" lon="11.5751833"><ele>845.0</ele><time>2026-04-04T10:59:39.982Z</time></trkpt><trkpt lat="43.8052617" lon="11.5750817"><ele>849.0000000000001</ele><time>2026-04-04T10:59:40.976Z</time></trkpt><trkpt lat="43.8052883" lon="11.5749617"><ele>853.0</ele><time>2026-04-04T10:59:41.985Z</time></trkpt><trkpt lat="43.8053133" lon="11.5748383"><ele>857.0</ele><time>2026-04-04T10:59:42.984Z</time></trkpt><trkpt lat="43.805345" lon="11.5747317"><ele>861.0</ele><time>2026-04-04T10:59:43.985Z</time></trkpt><trkpt lat="43.8053817" lon="11.5746517"><ele>865.0000000000001</ele><time>2026-04-04T10:59:44.983Z</time></trkpt><trkpt lat="43.80543" lon="11.574595"><ele>869.0</ele><time>2026-04-04T10:59:45.982Z</time></trkpt><trkpt lat="43.8054883" lon="11.5745367"><ele>868.3333333333334</ele><time>2026-04-04T10:59:46.973Z</time></trkpt><trkpt lat="43.80554" lon="11.5744817"><ele>867.6666666666667</ele><time>2026-04-04T10:59:47.984Z</time></trkpt><trkpt lat="43.8055933" lon="11.574415"><ele>867.0</ele><time>2026-04-04T10:59:48.982Z</time></trkpt><trkpt lat="43.8056483" lon="11.574355"><ele>866.3333333333333</ele><time>2026-04-04T10:59:49.984Z</time></trkpt><trkpt lat="43.8057233" lon="11.5743033"><ele>865.6666666666666</ele><time>2026-04-04T10:59:50.982Z</time></trkpt><trkpt lat="43.8058" lon="11.57424"><ele>865.0</ele><time>2026-04-04T10:59:51.982Z</time></trkpt><trkpt lat="43.8058883" lon="11.5742"><ele>864.9999999999999</ele><time>2026-04-04T10:59:52.983Z</time></trkpt><trkpt lat="43.8059583" lon="11.5741533"><ele>865.0</ele><time>2026-04-04T10:59:53.982Z</time></trkpt><trkpt lat="43.8060133" lon="11.5741067"><ele>865.0</ele><time>2026-04-04T10:59:54.983Z</time></trkpt><trkpt lat="43.8060733" lon="11.5739817"><ele>865.0</ele><time>2026-04-04T10:59:56.983Z</time></trkpt><trkpt lat="43.8060983" lon="11.5739"><ele>864.9999999999999</ele><time>2026-04-04T10:59:57.984Z</time></trkpt><trkpt lat="43.8061383" lon="11.5737983"><ele>865.0</ele><time>2026-04-04T10:59:58.983Z</time></trkpt><trkpt lat="43.8061883" lon="11.57368"><ele>867.0</ele><time>2026-04-04T10:59:59.986Z</time></trkpt><trkpt lat="43.8062383" lon="11.5735617"><ele>869.0</ele><time>2026-04-04T11:00:00.984Z</time></trkpt><trkpt lat="43.80629" lon="11.5734467"><ele>871.0</ele><time>2026-04-04T11:00:01.984Z</time></trkpt><trkpt lat="43.8063433" lon="11.5733533"><ele>873.0</ele><time>2026-04-04T11:00:02.984Z</time></trkpt><trkpt lat="43.8064567" lon="11.5732433"><ele>875.0</ele><time>2026-04-04T11:00:04.985Z</time></trkpt><trkpt lat="43.8065417" lon="11.573185"><ele>875.0</ele><time>2026-04-04T11:00:05.986Z</time></trkpt><trkpt lat="43.80663" lon="11.573145"><ele>875.0</ele><time>2026-04-04T11:00:06.985Z</time></trkpt><trkpt lat="43.806715" lon="11.573115"><ele>875.0</ele><time>2026-04-04T11:00:07.986Z</time></trkpt><trkpt lat="43.806805" lon="11.5730933"><ele>875.0</ele><time>2026-04-04T11:00:08.985Z</time></trkpt><trkpt lat="43.8068983" lon="11.5730567"><ele>875.0</ele><time>2026-04-04T11:00:09.984Z</time></trkpt><trkpt lat="43.8069917" lon="11.5730217"><ele>876.0</ele><time>2026-04-04T11:00:10.985Z</time></trkpt><trkpt lat="43.8070783" lon="11.5729733"><ele>877.0</ele><time>2026-04-04T11:00:11.985Z</time></trkpt><trkpt lat="43.807165" lon="11.5729033"><ele>878.0</ele><time>2026-04-04T11:00:12.984Z</time></trkpt><trkpt lat="43.8072467" lon="11.5728317"><ele>879.0</ele><time>2026-04-04T11:00:13.985Z</time></trkpt><trkpt lat="43.807315" lon="11.57276"><ele>880.0</ele><time>2026-04-04T11:00:14.986Z</time></trkpt><trkpt lat="43.8073667" lon="11.57267"><ele>879.9999999999999</ele><time>2026-04-04T11:00:15.983Z</time></trkpt><trkpt lat="43.8074067" lon="11.572575"><ele>880.0</ele><time>2026-04-04T11:00:16.984Z</time></trkpt><trkpt lat="43.8074367" lon="11.572475"><ele>880.0</ele><time>2026-04-04T11:00:17.983Z</time></trkpt><trkpt lat="43.8074583" lon="11.57238"><ele>880.0</ele><time>2026-04-04T11:00:18.983Z</time></trkpt><trkpt lat="43.8074817" lon="11.572275"><ele>879.9999999999999</ele><time>2026-04-04T11:00:19.987Z</time></trkpt><trkpt lat="43.8075117" lon="11.57217"><ele>880.0</ele><time>2026-04-04T11:00:20.983Z</time></trkpt><trkpt lat="43.8075467" lon="11.572065"><ele>879.6666666666666</ele><time>2026-04-04T11:00:21.982Z</time></trkpt><trkpt lat="43.807585" lon="11.5719633"><ele>879.3333333333333</ele><time>2026-04-04T11:00:22.983Z</time></trkpt><trkpt lat="43.8076133" lon="11.5718733"><ele>879.0</ele><time>2026-04-04T11:00:23.982Z</time></trkpt><trkpt lat="43.80764" lon="11.5717833"><ele>878.6666666666667</ele><time>2026-04-04T11:00:24.983Z</time></trkpt><trkpt lat="43.8076767" lon="11.5717033"><ele>878.3333333333334</ele><time>2026-04-04T11:00:25.985Z</time></trkpt><trkpt lat="43.80779" lon="11.5716317"><ele>878.0</ele><time>2026-04-04T11:00:27.983Z</time></trkpt><trkpt lat="43.8078683" lon="11.571595"><ele>876.1666666666667</ele><time>2026-04-04T11:00:28.983Z</time></trkpt><trkpt lat="43.8079517" lon="11.5715583"><ele>874.3333333333334</ele><time>2026-04-04T11:00:29.985Z</time></trkpt><trkpt lat="43.8080333" lon="11.571515"><ele>872.5</ele><time>2026-04-04T11:00:30.984Z</time></trkpt><trkpt lat="43.8081167" lon="11.5714767"><ele>870.6666666666667</ele><time>2026-04-04T11:00:31.986Z</time></trkpt><trkpt lat="43.8082017" lon="11.5714517"><ele>868.8333333333334</ele><time>2026-04-04T11:00:32.985Z</time></trkpt><trkpt lat="43.80829" lon="11.571425"><ele>867.0</ele><time>2026-04-04T11:00:33.985Z</time></trkpt><trkpt lat="43.8083767" lon="11.5714067"><ele>867.0</ele><time>2026-04-04T11:00:34.985Z</time></trkpt><trkpt lat="43.8084633" lon="11.571375"><ele>867.0</ele><time>2026-04-04T11:00:35.986Z</time></trkpt><trkpt lat="43.80854" lon="11.571325"><ele>867.0</ele><time>2026-04-04T11:00:36.985Z</time></trkpt><trkpt lat="43.8086167" lon="11.57125"><ele>867.0</ele><time>2026-04-04T11:00:37.985Z</time></trkpt><trkpt lat="43.808695" lon="11.5711717"><ele>867.0</ele><time>2026-04-04T11:00:38.985Z</time></trkpt><trkpt lat="43.80878" lon="11.5711033"><ele>864.4000000000001</ele><time>2026-04-04T11:00:39.983Z</time></trkpt><trkpt lat="43.8088717" lon="11.5710333"><ele>861.8000000000001</ele><time>2026-04-04T11:00:40.985Z</time></trkpt><trkpt lat="43.8089617" lon="11.570955"><ele>859.2</ele><time>2026-04-04T11:00:41.985Z</time></trkpt><trkpt lat="43.80904" lon="11.5708567"><ele>856.6</ele><time>2026-04-04T11:00:42.984Z</time></trkpt><trkpt lat="43.80911" lon="11.57076"><ele>854.0</ele><time>2026-04-04T11:00:43.985Z</time></trkpt><trkpt lat="43.8091867" lon="11.5706683"><ele>854.0</ele><time>2026-04-04T11:00:44.984Z</time></trkpt><trkpt lat="43.80927" lon="11.57057"><ele>854.0000000000001</ele><time>2026-04-04T11:00:45.984Z</time></trkpt><trkpt lat="43.8093517" lon="11.5704733"><ele>854.0000000000001</ele><time>2026-04-04T11:00:46.985Z</time></trkpt><trkpt lat="43.8094267" lon="11.570395"><ele>854.0</ele><time>2026-04-04T11:00:47.985Z</time></trkpt><trkpt lat="43.8094983" lon="11.5703317"><ele>854.0</ele><time>2026-04-04T11:00:48.983Z</time></trkpt><trkpt lat="43.8095983" lon="11.5702833"><ele>853.5</ele><time>2026-04-04T11:00:49.985Z</time></trkpt><trkpt lat="43.8097133" lon="11.5702417"><ele>853.0</ele><time>2026-04-04T11:00:50.985Z</time></trkpt><trkpt lat="43.8098383" lon="11.5702067"><ele>852.5</ele><time>2026-04-04T11:00:51.982Z</time></trkpt><trkpt lat="43.8099617" lon="11.57018"><ele>852.0</ele><time>2026-04-04T11:00:52.983Z</time></trkpt><trkpt lat="43.8100767" lon="11.570165"><ele>852.0</ele><time>2026-04-04T11:00:53.983Z</time></trkpt><trkpt lat="43.8101867" lon="11.57016"><ele>852.0</ele><time>2026-04-04T11:00:54.982Z</time></trkpt><trkpt lat="43.8102867" lon="11.570155"><ele>852.0</ele><time>2026-04-04T11:00:55.985Z</time></trkpt><trkpt lat="43.8103933" lon="11.5701317"><ele>852.0</ele><time>2026-04-04T11:00:56.983Z</time></trkpt><trkpt lat="43.8104933" lon="11.570105"><ele>852.0</ele><time>2026-04-04T11:00:57.982Z</time></trkpt><trkpt lat="43.8105933" lon="11.5700767"><ele>852.0</ele><time>2026-04-04T11:00:58.985Z</time></trkpt><trkpt lat="43.810695" lon="11.5700333"><ele>852.0</ele><time>2026-04-04T11:00:59.987Z</time></trkpt><trkpt lat="43.8107917" lon="11.5699733"><ele>852.0</ele><time>2026-04-04T11:01:00.985Z</time></trkpt><trkpt lat="43.81088" lon="11.5699"><ele>852.0</ele><time>2026-04-04T11:01:01.987Z</time></trkpt><trkpt lat="43.8109517" lon="11.5698133"><ele>852.0</ele><time>2026-04-04T11:01:02.985Z</time></trkpt><trkpt lat="43.8110067" lon="11.56972"><ele>849.5</ele><time>2026-04-04T11:01:03.986Z</time></trkpt><trkpt lat="43.81106" lon="11.56963"><ele>847.0</ele><time>2026-04-04T11:01:04.986Z</time></trkpt><trkpt lat="43.8111167" lon="11.5695583"><ele>844.5</ele><time>2026-04-04T11:01:05.985Z</time></trkpt><trkpt lat="43.8111783" lon="11.56951"><ele>842.0</ele><time>2026-04-04T11:01:06.986Z</time></trkpt><trkpt lat="43.811255" lon="11.5694667"><ele>839.5</ele><time>2026-04-04T11:01:07.989Z</time></trkpt><trkpt lat="43.8113467" lon="11.5694267"><ele>837.0</ele><time>2026-04-04T11:01:08.987Z</time></trkpt><trkpt lat="43.8114433" lon="11.569395"><ele>835.8</ele><time>2026-04-04T11:01:09.985Z</time></trkpt><trkpt lat="43.8115217" lon="11.5693633"><ele>834.6</ele><time>2026-04-04T11:01:10.987Z</time></trkpt><trkpt lat="43.8116" lon="11.5693533"><ele>833.4</ele><time>2026-04-04T11:01:11.986Z</time></trkpt><trkpt lat="43.8116783" lon="11.5693567"><ele>832.1999999999999</ele><time>2026-04-04T11:01:12.986Z</time></trkpt><trkpt lat="43.811775" lon="11.569395"><ele>831.0</ele><time>2026-04-04T11:01:13.986Z</time></trkpt><trkpt lat="43.8118933" lon="11.5694333"><ele>830.8</ele><time>2026-04-04T11:01:14.983Z</time></trkpt><trkpt lat="43.8120117" lon="11.5694767"><ele>830.5999999999999</ele><time>2026-04-04T11:01:15.984Z</time></trkpt><trkpt lat="43.8121117" lon="11.5695017"><ele>830.4</ele><time>2026-04-04T11:01:16.984Z</time></trkpt><trkpt lat="43.8122" lon="11.5694983"><ele>830.2</ele><time>2026-04-04T11:01:17.986Z</time></trkpt><trkpt lat="43.8122883" lon="11.5694667"><ele>830.0</ele><time>2026-04-04T11:01:18.984Z</time></trkpt><trkpt lat="43.8123767" lon="11.5693983"><ele>830.0</ele><time>2026-04-04T11:01:19.985Z</time></trkpt><trkpt lat="43.812455" lon="11.5693517"><ele>830.0</ele><time>2026-04-04T11:01:20.984Z</time></trkpt><trkpt lat="43.8125267" lon="11.5693217"><ele>830.0</ele><time>2026-04-04T11:01:21.984Z</time></trkpt><trkpt lat="43.81259" lon="11.5693133"><ele>830.0</ele><time>2026-04-04T11:01:22.985Z</time></trkpt><trkpt lat="43.8126533" lon="11.56931"><ele>830.0</ele><time>2026-04-04T11:01:24.985Z</time></trkpt><trkpt lat="43.8127217" lon="11.56924"><ele>830.0</ele><time>2026-04-04T11:03:38.984Z</time></trkpt><trkpt lat="43.812785" lon="11.5691933"><ele>830.0</ele><time>2026-04-04T11:03:39.986Z</time></trkpt><trkpt lat="43.8128717" lon="11.5691433"><ele>832.0</ele><time>2026-04-04T11:03:40.984Z</time></trkpt><trkpt lat="43.81296" lon="11.569105"><ele>834.0</ele><time>2026-04-04T11:03:41.982Z</time></trkpt><trkpt lat="43.8130467" lon="11.56904"><ele>836.0</ele><time>2026-04-04T11:03:42.985Z</time></trkpt><trkpt lat="43.8131367" lon="11.5690067"><ele>838.0</ele><time>2026-04-04T11:03:43.986Z</time></trkpt><trkpt lat="43.8132317" lon="11.5689933"><ele>840.0</ele><time>2026-04-04T11:03:44.984Z</time></trkpt><trkpt lat="43.81331" lon="11.5689067"><ele>840.0</ele><time>2026-04-04T11:03:45.985Z</time></trkpt><trkpt lat="43.8134033" lon="11.5688133"><ele>840.0</ele><time>2026-04-04T11:03:46.985Z</time></trkpt><trkpt lat="43.8134983" lon="11.5687183"><ele>840.0</ele><time>2026-04-04T11:03:47.987Z</time></trkpt><trkpt lat="43.8135933" lon="11.5686333"><ele>840.0</ele><time>2026-04-04T11:03:48.986Z</time></trkpt><trkpt lat="43.8136867" lon="11.5685583"><ele>839.6</ele><time>2026-04-04T11:03:49.986Z</time></trkpt><trkpt lat="43.8137783" lon="11.5684917"><ele>839.2</ele><time>2026-04-04T11:03:50.986Z</time></trkpt><trkpt lat="43.8138783" lon="11.5684383"><ele>838.8</ele><time>2026-04-04T11:03:51.984Z</time></trkpt><trkpt lat="43.8139867" lon="11.568395"><ele>838.4</ele><time>2026-04-04T11:03:52.986Z</time></trkpt><trkpt lat="43.8141" lon="11.568365"><ele>838.0</ele><time>2026-04-04T11:03:53.986Z</time></trkpt><trkpt lat="43.8142067" lon="11.568325"><ele>837.9999999999999</ele><time>2026-04-04T11:03:54.986Z</time></trkpt><trkpt lat="43.8143017" lon="11.5682817"><ele>838.0</ele><time>2026-04-04T11:03:55.985Z</time></trkpt><trkpt lat="43.8143767" lon="11.5681983"><ele>838.0</ele><time>2026-04-04T11:03:56.985Z</time></trkpt><trkpt lat="43.8144467" lon="11.56814"><ele>838.0</ele><time>2026-04-04T11:03:57.987Z</time></trkpt><trkpt lat="43.814525" lon="11.56812"><ele>837.9999999999999</ele><time>2026-04-04T11:03:58.986Z</time></trkpt><trkpt lat="43.8146033" lon="11.5681"><ele>838.0</ele><time>2026-04-04T11:03:59.984Z</time></trkpt><trkpt lat="43.81469" lon="11.5680483"><ele>837.8</ele><time>2026-04-04T11:04:00.985Z</time></trkpt><trkpt lat="43.8147717" lon="11.56797"><ele>837.5999999999999</ele><time>2026-04-04T11:04:01.986Z</time></trkpt><trkpt lat="43.8148583" lon="11.5679083"><ele>837.4000000000001</ele><time>2026-04-04T11:04:02.984Z</time></trkpt><trkpt lat="43.8149383" lon="11.5678367"><ele>837.2</ele><time>2026-04-04T11:04:03.985Z</time></trkpt><trkpt lat="43.8150017" lon="11.567745"><ele>837.0</ele><time>2026-04-04T11:04:04.984Z</time></trkpt><trkpt lat="43.8150583" lon="11.5676483"><ele>837.0</ele><time>2026-04-04T11:04:05.986Z</time></trkpt><trkpt lat="43.8151333" lon="11.567575"><ele>837.0</ele><time>2026-04-04T11:04:06.984Z</time></trkpt><trkpt lat="43.8152067" lon="11.5674917"><ele>837.0</ele><time>2026-04-04T11:04:07.986Z</time></trkpt><trkpt lat="43.815255" lon="11.56738"><ele>837.0</ele><time>2026-04-04T11:04:08.987Z</time></trkpt><trkpt lat="43.8153033" lon="11.5672667"><ele>837.0</ele><time>2026-04-04T11:04:09.984Z</time></trkpt><trkpt lat="43.81535" lon="11.5671567"><ele>835.6666666666666</ele><time>2026-04-04T11:04:10.984Z</time></trkpt><trkpt lat="43.8153983" lon="11.567055"><ele>834.3333333333333</ele><time>2026-04-04T11:04:11.984Z</time></trkpt><trkpt lat="43.8154333" lon="11.5669467"><ele>833.0</ele><time>2026-04-04T11:04:12.984Z</time></trkpt><trkpt lat="43.8154267" lon="11.5668383"><ele>831.6666666666666</ele><time>2026-04-04T11:04:13.987Z</time></trkpt><trkpt lat="43.8154067" lon="11.5667383"><ele>830.3333333333333</ele><time>2026-04-04T11:04:14.984Z</time></trkpt><trkpt lat="43.8153833" lon="11.5666383"><ele>829.0</ele><time>2026-04-04T11:04:15.987Z</time></trkpt><trkpt lat="43.81537" lon="11.5665267"><ele>830.8333333333333</ele><time>2026-04-04T11:04:16.986Z</time></trkpt><trkpt lat="43.8153767" lon="11.5664183"><ele>832.6666666666666</ele><time>2026-04-04T11:04:17.976Z</time></trkpt><trkpt lat="43.8153967" lon="11.5663317"><ele>834.5</ele><time>2026-04-04T11:04:18.987Z</time></trkpt><trkpt lat="43.81544" lon="11.5662583"><ele>836.3333333333333</ele><time>2026-04-04T11:04:19.987Z</time></trkpt><trkpt lat="43.8155133" lon="11.5661933"><ele>838.1666666666666</ele><time>2026-04-04T11:04:20.984Z</time></trkpt><trkpt lat="43.8155967" lon="11.5661283"><ele>840.0</ele><time>2026-04-04T11:04:21.986Z</time></trkpt><trkpt lat="43.8156783" lon="11.5660767"><ele>840.0</ele><time>2026-04-04T11:04:22.985Z</time></trkpt><trkpt lat="43.8157567" lon="11.5660467"><ele>840.0</ele><time>2026-04-04T11:04:23.984Z</time></trkpt><trkpt lat="43.8158367" lon="11.5660333"><ele>840.0</ele><time>2026-04-04T11:04:24.986Z</time></trkpt><trkpt lat="43.8159183" lon="11.56604"><ele>840.0</ele><time>2026-04-04T11:04:25.987Z</time></trkpt><trkpt lat="43.816005" lon="11.5660517"><ele>840.0</ele><time>2026-04-04T11:04:26.986Z</time></trkpt><trkpt lat="43.8160983" lon="11.5660717"><ele>840.0</ele><time>2026-04-04T11:04:27.985Z</time></trkpt><trkpt lat="43.81619" lon="11.5660883"><ele>839.3333333333334</ele><time>2026-04-04T11:04:28.985Z</time></trkpt><trkpt lat="43.816285" lon="11.5661067"><ele>838.6666666666667</ele><time>2026-04-04T11:04:29.987Z</time></trkpt><trkpt lat="43.8163783" lon="11.5661083"><ele>838.0</ele><time>2026-04-04T11:04:30.986Z</time></trkpt><trkpt lat="43.8164667" lon="11.56609"><ele>837.3333333333334</ele><time>2026-04-04T11:04:31.987Z</time></trkpt><trkpt lat="43.816545" lon="11.56606"><ele>836.6666666666667</ele><time>2026-04-04T11:04:32.987Z</time></trkpt><trkpt lat="43.8166183" lon="11.5660067"><ele>836.0</ele><time>2026-04-04T11:04:33.984Z</time></trkpt><trkpt lat="43.816685" lon="11.5659667"><ele>836.0000000000001</ele><time>2026-04-04T11:04:34.985Z</time></trkpt><trkpt lat="43.8167533" lon="11.565945"><ele>836.0</ele><time>2026-04-04T11:04:35.985Z</time></trkpt><trkpt lat="43.8168267" lon="11.5659417"><ele>836.0</ele><time>2026-04-04T11:04:36.985Z</time></trkpt><trkpt lat="43.8169117" lon="11.5659617"><ele>836.0</ele><time>2026-04-04T11:04:37.985Z</time></trkpt><trkpt lat="43.817005" lon="11.5659733"><ele>836.0000000000001</ele><time>2026-04-04T11:04:38.983Z</time></trkpt><trkpt lat="43.8170983" lon="11.5659633"><ele>836.0</ele><time>2026-04-04T11:04:39.984Z</time></trkpt><trkpt lat="43.8171783" lon="11.5659167"><ele>835.0</ele><time>2026-04-04T11:04:40.984Z</time></trkpt><trkpt lat="43.8172517" lon="11.56585"><ele>834.0</ele><time>2026-04-04T11:04:41.983Z</time></trkpt><trkpt lat="43.8173283" lon="11.56578"><ele>833.0</ele><time>2026-04-04T11:04:42.984Z</time></trkpt><trkpt lat="43.817415" lon="11.5657"><ele>832.0</ele><time>2026-04-04T11:04:43.981Z</time></trkpt><trkpt lat="43.8175083" lon="11.5656"><ele>831.0</ele><time>2026-04-04T11:04:44.983Z</time></trkpt><trkpt lat="43.8176" lon="11.5655183"><ele>830.5999999999999</ele><time>2026-04-04T11:04:45.984Z</time></trkpt><trkpt lat="43.81769" lon="11.56544"><ele>830.2</ele><time>2026-04-04T11:04:46.984Z</time></trkpt><trkpt lat="43.8177667" lon="11.5653583"><ele>829.8</ele><time>2026-04-04T11:04:47.986Z</time></trkpt><trkpt lat="43.81783" lon="11.5652767"><ele>829.4000000000001</ele><time>2026-04-04T11:04:48.986Z</time></trkpt><trkpt lat="43.8178933" lon="11.56518"><ele>829.0</ele><time>2026-04-04T11:04:49.988Z</time></trkpt><trkpt lat="43.8179583" lon="11.5650817"><ele>829.0</ele><time>2026-04-04T11:04:50.983Z</time></trkpt><trkpt lat="43.8180183" lon="11.5649667"><ele>829.0</ele><time>2026-04-04T11:04:51.985Z</time></trkpt><trkpt lat="43.81807" lon="11.5648483"><ele>829.0</ele><time>2026-04-04T11:04:52.986Z</time></trkpt><trkpt lat="43.818115" lon="11.564735"><ele>829.0</ele><time>2026-04-04T11:04:53.985Z</time></trkpt><trkpt lat="43.818165" lon="11.5646383"><ele>829.0</ele><time>2026-04-04T11:04:54.986Z</time></trkpt><trkpt lat="43.8182233" lon="11.564555"><ele>829.2</ele><time>2026-04-04T11:04:55.987Z</time></trkpt><trkpt lat="43.8182933" lon="11.5644983"><ele>829.4000000000001</ele><time>2026-04-04T11:04:56.984Z</time></trkpt><trkpt lat="43.81837" lon="11.5644483"><ele>829.6</ele><time>2026-04-04T11:04:57.985Z</time></trkpt><trkpt lat="43.81844" lon="11.5643883"><ele>829.8</ele><time>2026-04-04T11:04:58.985Z</time></trkpt><trkpt lat="43.818525" lon="11.5642883"><ele>830.0</ele><time>2026-04-04T11:04:59.985Z</time></trkpt><trkpt lat="43.818615" lon="11.564175"><ele>831.0000000000001</ele><time>2026-04-04T11:05:00.984Z</time></trkpt><trkpt lat="43.8186933" lon="11.5640817"><ele>832.0</ele><time>2026-04-04T11:05:01.985Z</time></trkpt><trkpt lat="43.8187633" lon="11.5640033"><ele>833.0</ele><time>2026-04-04T11:05:02.983Z</time></trkpt><trkpt lat="43.818825" lon="11.56393"><ele>834.0</ele><time>2026-04-04T11:05:03.985Z</time></trkpt><trkpt lat="43.8188817" lon="11.563865"><ele>835.0000000000001</ele><time>2026-04-04T11:05:04.983Z</time></trkpt><trkpt lat="43.81893" lon="11.5637917"><ele>836.0</ele><time>2026-04-04T11:05:05.983Z</time></trkpt><trkpt lat="43.8189633" lon="11.563695"><ele>836.8333333333334</ele><time>2026-04-04T11:05:06.983Z</time></trkpt><trkpt lat="43.8189983" lon="11.5636033"><ele>837.6666666666667</ele><time>2026-04-04T11:05:07.985Z</time></trkpt><trkpt lat="43.819055" lon="11.563515"><ele>838.5</ele><time>2026-04-04T11:05:08.983Z</time></trkpt><trkpt lat="43.8191083" lon="11.5634167"><ele>839.3333333333333</ele><time>2026-04-04T11:05:09.984Z</time></trkpt><trkpt lat="43.8191483" lon="11.56332"><ele>840.1666666666666</ele><time>2026-04-04T11:05:10.983Z</time></trkpt><trkpt lat="43.8191833" lon="11.563245"><ele>841.0</ele><time>2026-04-04T11:05:11.983Z</time></trkpt><trkpt lat="43.81926" lon="11.5631667"><ele>842.4</ele><time>2026-04-04T11:05:13.987Z</time></trkpt><trkpt lat="43.8193767" lon="11.563105"><ele>843.8</ele><time>2026-04-04T11:05:15.984Z</time></trkpt><trkpt lat="43.8194667" lon="11.5630133"><ele>845.1999999999999</ele><time>2026-04-04T11:05:17.985Z</time></trkpt><trkpt lat="43.8195283" lon="11.56294"><ele>846.5999999999999</ele><time>2026-04-04T11:05:19.987Z</time></trkpt><trkpt lat="43.8195967" lon="11.562885"><ele>848.0</ele><time>2026-04-04T11:05:21.985Z</time></trkpt><trkpt lat="43.8196817" lon="11.562815"><ele>848.0000000000001</ele><time>2026-04-04T11:05:23.986Z</time></trkpt><trkpt lat="43.8197383" lon="11.562775"><ele>848.0</ele><time>2026-04-04T11:05:24.984Z</time></trkpt><trkpt lat="43.8198067" lon="11.5627317"><ele>848.0</ele><time>2026-04-04T11:05:25.986Z</time></trkpt><trkpt lat="43.8198733" lon="11.562675"><ele>848.0</ele><time>2026-04-04T11:05:26.984Z</time></trkpt><trkpt lat="43.819945" lon="11.5626133"><ele>848.0000000000001</ele><time>2026-04-04T11:05:27.984Z</time></trkpt><trkpt lat="43.820025" lon="11.562545"><ele>848.0</ele><time>2026-04-04T11:05:28.985Z</time></trkpt><trkpt lat="43.8201067" lon="11.5624883"><ele>848.4</ele><time>2026-04-04T11:05:29.985Z</time></trkpt><trkpt lat="43.820175" lon="11.5624333"><ele>848.8</ele><time>2026-04-04T11:05:30.985Z</time></trkpt><trkpt lat="43.82023" lon="11.56237"><ele>849.2</ele><time>2026-04-04T11:05:31.985Z</time></trkpt><trkpt lat="43.8203017" lon="11.5622567"><ele>849.6</ele><time>2026-04-04T11:05:33.985Z</time></trkpt><trkpt lat="43.820405" lon="11.5621967"><ele>850.0</ele><time>2026-04-04T11:05:35.984Z</time></trkpt><trkpt lat="43.820485" lon="11.5621633"><ele>849.9999999999999</ele><time>2026-04-04T11:05:36.984Z</time></trkpt><trkpt lat="43.8205733" lon="11.562115"><ele>850.0</ele><time>2026-04-04T11:05:37.986Z</time></trkpt><trkpt lat="43.8206567" lon="11.56206"><ele>850.0</ele><time>2026-04-04T11:05:38.984Z</time></trkpt><trkpt lat="43.8207333" lon="11.562005"><ele>850.0</ele><time>2026-04-04T11:05:39.984Z</time></trkpt><trkpt lat="43.8208083" lon="11.5619533"><ele>849.9999999999999</ele><time>2026-04-04T11:05:40.984Z</time></trkpt><trkpt lat="43.8208783" lon="11.5618867"><ele>850.0</ele><time>2026-04-04T11:05:41.986Z</time></trkpt><trkpt lat="43.8209533" lon="11.5617967"><ele>850.5</ele><time>2026-04-04T11:05:42.984Z</time></trkpt><trkpt lat="43.8210267" lon="11.5616867"><ele>851.0</ele><time>2026-04-04T11:05:43.985Z</time></trkpt><trkpt lat="43.8211067" lon="11.5615667"><ele>851.5</ele><time>2026-04-04T11:05:44.984Z</time></trkpt><trkpt lat="43.8211867" lon="11.5614333"><ele>852.0</ele><time>2026-04-04T11:05:45.984Z</time></trkpt><trkpt lat="43.8212617" lon="11.5613033"><ele>850.2</ele><time>2026-04-04T11:05:46.984Z</time></trkpt><trkpt lat="43.8213217" lon="11.5611783"><ele>848.4000000000001</ele><time>2026-04-04T11:05:47.985Z</time></trkpt><trkpt lat="43.8213767" lon="11.561065"><ele>846.5999999999999</ele><time>2026-04-04T11:05:48.985Z</time></trkpt><trkpt lat="43.8214333" lon="11.5609567"><ele>844.8</ele><time>2026-04-04T11:05:49.985Z</time></trkpt><trkpt lat="43.8214983" lon="11.5608517"><ele>843.0</ele><time>2026-04-04T11:05:50.985Z</time></trkpt><trkpt lat="43.82157" lon="11.56074"><ele>843.0</ele><time>2026-04-04T11:05:51.985Z</time></trkpt><trkpt lat="43.82164" lon="11.5606317"><ele>843.0</ele><time>2026-04-04T11:05:52.986Z</time></trkpt><trkpt lat="43.8217133" lon="11.560535"><ele>843.0</ele><time>2026-04-04T11:05:53.986Z</time></trkpt><trkpt lat="43.8217833" lon="11.5604333"><ele>843.0</ele><time>2026-04-04T11:05:54.984Z</time></trkpt><trkpt lat="43.821855" lon="11.5603383"><ele>843.0</ele><time>2026-04-04T11:05:55.985Z</time></trkpt><trkpt lat="43.8219333" lon="11.56025"><ele>841.4</ele><time>2026-04-04T11:05:56.984Z</time></trkpt><trkpt lat="43.8220083" lon="11.5601633"><ele>839.8</ele><time>2026-04-04T11:05:57.984Z</time></trkpt><trkpt lat="43.822085" lon="11.5600733"><ele>838.2</ele><time>2026-04-04T11:05:58.984Z</time></trkpt><trkpt lat="43.8221583" lon="11.55998"><ele>836.6</ele><time>2026-04-04T11:05:59.984Z</time></trkpt><trkpt lat="43.8222317" lon="11.55989"><ele>835.0</ele><time>2026-04-04T11:06:00.986Z</time></trkpt><trkpt lat="43.82231" lon="11.5597917"><ele>835.0</ele><time>2026-04-04T11:06:01.986Z</time></trkpt><trkpt lat="43.8224" lon="11.5596817"><ele>835.0</ele><time>2026-04-04T11:06:02.985Z</time></trkpt><trkpt lat="43.8224917" lon="11.5595667"><ele>835.0</ele><time>2026-04-04T11:06:03.984Z</time></trkpt><trkpt lat="43.8225767" lon="11.55946"><ele>835.0</ele><time>2026-04-04T11:06:04.985Z</time></trkpt><trkpt lat="43.822655" lon="11.5593667"><ele>835.2</ele><time>2026-04-04T11:06:05.986Z</time></trkpt><trkpt lat="43.8227317" lon="11.5592883"><ele>835.4</ele><time>2026-04-04T11:06:06.984Z</time></trkpt><trkpt lat="43.822815" lon="11.559215"><ele>835.5999999999999</ele><time>2026-04-04T11:06:07.986Z</time></trkpt><trkpt lat="43.822915" lon="11.559135"><ele>835.8</ele><time>2026-04-04T11:06:08.983Z</time></trkpt><trkpt lat="43.82303" lon="11.55907"><ele>836.0</ele><time>2026-04-04T11:06:09.984Z</time></trkpt><trkpt lat="43.8231533" lon="11.559015"><ele>836.0</ele><time>2026-04-04T11:06:10.984Z</time></trkpt><trkpt lat="43.8232817" lon="11.5589667"><ele>836.0</ele><time>2026-04-04T11:06:11.983Z</time></trkpt><trkpt lat="43.823405" lon="11.558915"><ele>836.0</ele><time>2026-04-04T11:06:12.984Z</time></trkpt><trkpt lat="43.82351" lon="11.5588767"><ele>836.0</ele><time>2026-04-04T11:06:13.988Z</time></trkpt><trkpt lat="43.8235983" lon="11.5588"><ele>837.0</ele><time>2026-04-04T11:06:14.985Z</time></trkpt><trkpt lat="43.82368" lon="11.55873"><ele>838.0</ele><time>2026-04-04T11:06:15.984Z</time></trkpt><trkpt lat="43.8237683" lon="11.5586667"><ele>839.0</ele><time>2026-04-04T11:06:16.986Z</time></trkpt><trkpt lat="43.823865" lon="11.558625"><ele>840.0</ele><time>2026-04-04T11:06:17.985Z</time></trkpt><trkpt lat="43.8239683" lon="11.5585933"><ele>841.0</ele><time>2026-04-04T11:06:18.984Z</time></trkpt><trkpt lat="43.8240683" lon="11.5585417"><ele>841.1999999999999</ele><time>2026-04-04T11:06:19.988Z</time></trkpt><trkpt lat="43.82415" lon="11.5584383"><ele>841.4</ele><time>2026-04-04T11:06:20.984Z</time></trkpt><trkpt lat="43.8242267" lon="11.5583667"><ele>841.6</ele><time>2026-04-04T11:06:21.984Z</time></trkpt><trkpt lat="43.8243083" lon="11.5583567"><ele>841.8</ele><time>2026-04-04T11:06:22.984Z</time></trkpt><trkpt lat="43.824395" lon="11.5583567"><ele>842.0</ele><time>2026-04-04T11:06:23.984Z</time></trkpt><trkpt lat="43.8244883" lon="11.5584017"><ele>843.75</ele><time>2026-04-04T11:06:24.985Z</time></trkpt><trkpt lat="43.82459" lon="11.5584567"><ele>845.5</ele><time>2026-04-04T11:06:25.988Z</time></trkpt><trkpt lat="43.8247033" lon="11.5584567"><ele>847.25</ele><time>2026-04-04T11:06:26.984Z</time></trkpt><trkpt lat="43.8248333" lon="11.5584267"><ele>849.0</ele><time>2026-04-04T11:06:27.984Z</time></trkpt><trkpt lat="43.8249617" lon="11.5583833"><ele>849.0</ele><time>2026-04-04T11:06:28.984Z</time></trkpt><trkpt lat="43.82508" lon="11.5583217"><ele>849.0</ele><time>2026-04-04T11:06:29.987Z</time></trkpt><trkpt lat="43.825175" lon="11.5582283"><ele>849.0</ele><time>2026-04-04T11:06:30.988Z</time></trkpt><trkpt lat="43.8252383" lon="11.55809"><ele>849.0</ele><time>2026-04-04T11:06:31.989Z</time></trkpt><trkpt lat="43.8252983" lon="11.5579617"><ele>850.3333333333334</ele><time>2026-04-04T11:06:32.985Z</time></trkpt><trkpt lat="43.825365" lon="11.5578767"><ele>851.6666666666667</ele><time>2026-04-04T11:06:33.984Z</time></trkpt><trkpt lat="43.8254433" lon="11.5578333"><ele>853.0</ele><time>2026-04-04T11:06:34.985Z</time></trkpt><trkpt lat="43.8255333" lon="11.5578117"><ele>854.3333333333334</ele><time>2026-04-04T11:06:35.986Z</time></trkpt><trkpt lat="43.8256083" lon="11.5577867"><ele>855.6666666666667</ele><time>2026-04-04T11:06:36.985Z</time></trkpt><trkpt lat="43.8256883" lon="11.5577933"><ele>857.0</ele><time>2026-04-04T11:06:37.987Z</time></trkpt><trkpt lat="43.825765" lon="11.557805"><ele>857.0</ele><time>2026-04-04T11:06:38.985Z</time></trkpt><trkpt lat="43.8258617" lon="11.5578233"><ele>857.0</ele><time>2026-04-04T11:06:39.984Z</time></trkpt><trkpt lat="43.825955" lon="11.5578283"><ele>857.0</ele><time>2026-04-04T11:06:40.984Z</time></trkpt><trkpt lat="43.826055" lon="11.557815"><ele>857.0</ele><time>2026-04-04T11:06:41.984Z</time></trkpt><trkpt lat="43.8261567" lon="11.5577833"><ele>857.0</ele><time>2026-04-04T11:06:42.986Z</time></trkpt><trkpt lat="43.8262467" lon="11.5577467"><ele>859.6</ele><time>2026-04-04T11:06:43.987Z</time></trkpt><trkpt lat="43.8263167" lon="11.5576783"><ele>862.2</ele><time>2026-04-04T11:06:44.985Z</time></trkpt><trkpt lat="43.8263983" lon="11.5576"><ele>864.8</ele><time>2026-04-04T11:06:45.984Z</time></trkpt><trkpt lat="43.8264917" lon="11.557505"><ele>867.4</ele><time>2026-04-04T11:06:46.984Z</time></trkpt><trkpt lat="43.8265883" lon="11.557415"><ele>870.0</ele><time>2026-04-04T11:06:47.988Z</time></trkpt><trkpt lat="43.8266783" lon="11.5573233"><ele>870.0</ele><time>2026-04-04T11:06:48.986Z</time></trkpt><trkpt lat="43.82677" lon="11.5572183"><ele>870.0</ele><time>2026-04-04T11:06:49.987Z</time></trkpt><trkpt lat="43.8268683" lon="11.5571133"><ele>870.0</ele><time>2026-04-04T11:06:50.986Z</time></trkpt><trkpt lat="43.8269683" lon="11.557005"><ele>870.0</ele><time>2026-04-04T11:06:51.984Z</time></trkpt><trkpt lat="43.82706" lon="11.5569167"><ele>869.6</ele><time>2026-04-04T11:06:52.986Z</time></trkpt><trkpt lat="43.8271383" lon="11.5568483"><ele>869.2</ele><time>2026-04-04T11:06:53.987Z</time></trkpt><trkpt lat="43.8272067" lon="11.55678"><ele>868.8</ele><time>2026-04-04T11:06:54.984Z</time></trkpt><trkpt lat="43.8272817" lon="11.5567083"><ele>868.4</ele><time>2026-04-04T11:06:55.986Z</time></trkpt><trkpt lat="43.82736" lon="11.5566283"><ele>868.0</ele><time>2026-04-04T11:06:56.985Z</time></trkpt><trkpt lat="43.8274317" lon="11.5565617"><ele>868.0</ele><time>2026-04-04T11:06:57.984Z</time></trkpt><trkpt lat="43.8275017" lon="11.556495"><ele>868.0</ele><time>2026-04-04T11:06:58.983Z</time></trkpt><trkpt lat="43.8275667" lon="11.5564167"><ele>868.0</ele><time>2026-04-04T11:06:59.982Z</time></trkpt><trkpt lat="43.8276317" lon="11.5563133"><ele>868.0</ele><time>2026-04-04T11:07:00.983Z</time></trkpt><trkpt lat="43.8276983" lon="11.5561833"><ele>868.0</ele><time>2026-04-04T11:07:01.987Z</time></trkpt><trkpt lat="43.8277767" lon="11.5560533"><ele>869.75</ele><time>2026-04-04T11:07:02.983Z</time></trkpt><trkpt lat="43.8278633" lon="11.5559233"><ele>871.5</ele><time>2026-04-04T11:07:03.984Z</time></trkpt><trkpt lat="43.8279483" lon="11.5558067"><ele>873.25</ele><time>2026-04-04T11:07:04.984Z</time></trkpt><trkpt lat="43.8280367" lon="11.5557083"><ele>875.0</ele><time>2026-04-04T11:07:05.985Z</time></trkpt><trkpt lat="43.8281283" lon="11.5556183"><ele>875.0</ele><time>2026-04-04T11:07:06.984Z</time></trkpt><trkpt lat="43.8282267" lon="11.55552"><ele>875.0</ele><time>2026-04-04T11:07:07.985Z</time></trkpt><trkpt lat="43.8283217" lon="11.5554"><ele>875.0</ele><time>2026-04-04T11:07:08.983Z</time></trkpt><trkpt lat="43.8284183" lon="11.5552783"><ele>875.0</ele><time>2026-04-04T11:07:09.982Z</time></trkpt><trkpt lat="43.8285183" lon="11.555165"><ele>875.4</ele><time>2026-04-04T11:07:10.983Z</time></trkpt><trkpt lat="43.82861" lon="11.5550633"><ele>875.8</ele><time>2026-04-04T11:07:11.983Z</time></trkpt><trkpt lat="43.8286967" lon="11.5549633"><ele>876.2</ele><time>2026-04-04T11:07:12.983Z</time></trkpt><trkpt lat="43.8287683" lon="11.55488"><ele>876.6</ele><time>2026-04-04T11:07:13.986Z</time></trkpt><trkpt lat="43.8288233" lon="11.554795"><ele>877.0</ele><time>2026-04-04T11:07:14.984Z</time></trkpt><trkpt lat="43.8288767" lon="11.5547"><ele>877.0</ele><time>2026-04-04T11:07:15.984Z</time></trkpt><trkpt lat="43.82894" lon="11.5546067"><ele>877.0</ele><time>2026-04-04T11:07:16.983Z</time></trkpt><trkpt lat="43.8290333" lon="11.5545467"><ele>877.0</ele><time>2026-04-04T11:07:17.985Z</time></trkpt><trkpt lat="43.8291317" lon="11.554485"><ele>877.0</ele><time>2026-04-04T11:07:18.983Z</time></trkpt><trkpt lat="43.8292283" lon="11.5544183"><ele>877.0</ele><time>2026-04-04T11:07:19.985Z</time></trkpt><trkpt lat="43.8293333" lon="11.5543517"><ele>876.75</ele><time>2026-04-04T11:07:20.984Z</time></trkpt><trkpt lat="43.8294433" lon="11.5542967"><ele>876.5</ele><time>2026-04-04T11:07:21.984Z</time></trkpt><trkpt lat="43.8295583" lon="11.5542567"><ele>876.25</ele><time>2026-04-04T11:07:22.983Z</time></trkpt><trkpt lat="43.829675" lon="11.5542017"><ele>876.0</ele><time>2026-04-04T11:07:23.984Z</time></trkpt><trkpt lat="43.8297883" lon="11.5541233"><ele>876.0</ele><time>2026-04-04T11:07:24.983Z</time></trkpt><trkpt lat="43.8299017" lon="11.5540167"><ele>876.0</ele><time>2026-04-04T11:07:25.986Z</time></trkpt><trkpt lat="43.8300183" lon="11.55391"><ele>876.0</ele><time>2026-04-04T11:07:26.984Z</time></trkpt><trkpt lat="43.83014" lon="11.5538033"><ele>876.0</ele><time>2026-04-04T11:07:27.983Z</time></trkpt><trkpt lat="43.83025" lon="11.5537133"><ele>875.1999999999999</ele><time>2026-04-04T11:07:28.983Z</time></trkpt><trkpt lat="43.8303467" lon="11.5536267"><ele>874.3999999999999</ele><time>2026-04-04T11:07:29.983Z</time></trkpt><trkpt lat="43.83043" lon="11.5535467"><ele>873.6</ele><time>2026-04-04T11:07:30.983Z</time></trkpt><trkpt lat="43.8304967" lon="11.5534883"><ele>872.8</ele><time>2026-04-04T11:07:31.986Z</time></trkpt><trkpt lat="43.83062" lon="11.55345"><ele>872.0</ele><time>2026-04-04T11:07:33.984Z</time></trkpt><trkpt lat="43.8307" lon="11.5534283"><ele>872.0000000000001</ele><time>2026-04-04T11:07:34.985Z</time></trkpt><trkpt lat="43.8307883" lon="11.5533933"><ele>872.0</ele><time>2026-04-04T11:07:35.982Z</time></trkpt><trkpt lat="43.8308783" lon="11.5533317"><ele>872.0</ele><time>2026-04-04T11:07:36.985Z</time></trkpt><trkpt lat="43.830955" lon="11.5532717"><ele>872.0</ele><time>2026-04-04T11:07:37.985Z</time></trkpt><trkpt lat="43.83103" lon="11.55323"><ele>872.0000000000001</ele><time>2026-04-04T11:07:38.983Z</time></trkpt><trkpt lat="43.8311033" lon="11.55319"><ele>872.0</ele><time>2026-04-04T11:07:39.986Z</time></trkpt><trkpt lat="43.8311767" lon="11.553135"><ele>871.8</ele><time>2026-04-04T11:07:40.986Z</time></trkpt><trkpt lat="43.8312467" lon="11.5530567"><ele>871.6</ele><time>2026-04-04T11:07:41.985Z</time></trkpt><trkpt lat="43.831305" lon="11.5529583"><ele>871.3999999999999</ele><time>2026-04-04T11:07:42.986Z</time></trkpt><trkpt lat="43.8313517" lon="11.5528533"><ele>871.1999999999999</ele><time>2026-04-04T11:07:43.986Z</time></trkpt><trkpt lat="43.8313833" lon="11.5527333"><ele>871.0</ele><time>2026-04-04T11:07:44.986Z</time></trkpt><trkpt lat="43.8314083" lon="11.552605"><ele>871.0</ele><time>2026-04-04T11:07:45.983Z</time></trkpt><trkpt lat="43.8314417" lon="11.5524867"><ele>870.9999999999999</ele><time>2026-04-04T11:07:46.984Z</time></trkpt><trkpt lat="43.8314817" lon="11.5523617"><ele>870.9999999999999</ele><time>2026-04-04T11:07:47.985Z</time></trkpt><trkpt lat="43.831535" lon="11.5522367"><ele>871.0</ele><time>2026-04-04T11:07:48.984Z</time></trkpt><trkpt lat="43.83159" lon="11.5521167"><ele>871.0</ele><time>2026-04-04T11:07:49.986Z</time></trkpt><trkpt lat="43.83164" lon="11.5520033"><ele>869.4</ele><time>2026-04-04T11:07:50.984Z</time></trkpt><trkpt lat="43.83168" lon="11.5518883"><ele>867.8</ele><time>2026-04-04T11:07:51.985Z</time></trkpt><trkpt lat="43.8317067" lon="11.5517717"><ele>866.1999999999999</ele><time>2026-04-04T11:07:52.983Z</time></trkpt><trkpt lat="43.8317317" lon="11.55165"><ele>864.5999999999999</ele><time>2026-04-04T11:07:53.986Z</time></trkpt><trkpt lat="43.8317567" lon="11.5515233"><ele>863.0</ele><time>2026-04-04T11:07:54.983Z</time></trkpt><trkpt lat="43.8317817" lon="11.5514033"><ele>863.0000000000001</ele><time>2026-04-04T11:07:55.986Z</time></trkpt><trkpt lat="43.8317933" lon="11.5512867"><ele>863.0</ele><time>2026-04-04T11:07:56.984Z</time></trkpt><trkpt lat="43.831795" lon="11.5511833"><ele>863.0</ele><time>2026-04-04T11:07:57.985Z</time></trkpt><trkpt lat="43.83179" lon="11.5510867"><ele>863.0</ele><time>2026-04-04T11:07:58.985Z</time></trkpt><trkpt lat="43.83177" lon="11.55093"><ele>863.0000000000001</ele><time>2026-04-04T11:08:00.985Z</time></trkpt><trkpt lat="43.831725" lon="11.5508233"><ele>863.0</ele><time>2026-04-04T11:08:02.986Z</time></trkpt><trkpt lat="43.8317367" lon="11.5507317"><ele>860.8333333333334</ele><time>2026-04-04T11:08:06.983Z</time></trkpt><trkpt lat="43.8317767" lon="11.5506067"><ele>858.6666666666667</ele><time>2026-04-04T11:08:09.979Z</time></trkpt><trkpt lat="43.83183" lon="11.5504917"><ele>856.5</ele><time>2026-04-04T11:08:11.984Z</time></trkpt><trkpt lat="43.8318783" lon="11.5504283"><ele>854.3333333333333</ele><time>2026-04-04T11:08:12.984Z</time></trkpt><trkpt lat="43.8319283" lon="11.5503583"><ele>852.1666666666666</ele><time>2026-04-04T11:08:13.984Z</time></trkpt><trkpt lat="43.83198" lon="11.5502883"><ele>850.0</ele><time>2026-04-04T11:08:14.984Z</time></trkpt><trkpt lat="43.8320217" lon="11.5502183"><ele>847.2857142857142</ele><time>2026-04-04T11:08:15.984Z</time></trkpt><trkpt lat="43.832055" lon="11.5501333"><ele>844.5714285714286</ele><time>2026-04-04T11:08:16.984Z</time></trkpt><trkpt lat="43.8320833" lon="11.55005"><ele>841.8571428571429</ele><time>2026-04-04T11:08:17.984Z</time></trkpt><trkpt lat="43.832095" lon="11.549955"><ele>839.1428571428571</ele><time>2026-04-04T11:08:18.986Z</time></trkpt><trkpt lat="43.8320967" lon="11.5498367"><ele>836.4285714285714</ele><time>2026-04-04T11:08:19.985Z</time></trkpt><trkpt lat="43.8321033" lon="11.549725"><ele>833.7142857142857</ele><time>2026-04-04T11:08:20.983Z</time></trkpt><trkpt lat="43.8321167" lon="11.54963"><ele>831.0</ele><time>2026-04-04T11:08:21.984Z</time></trkpt><trkpt lat="43.832135" lon="11.5495433"><ele>830.0</ele><time>2026-04-04T11:08:22.984Z</time></trkpt><trkpt lat="43.8321567" lon="11.5494533"><ele>829.0</ele><time>2026-04-04T11:08:23.984Z</time></trkpt><trkpt lat="43.8321617" lon="11.5493517"><ele>828.0</ele><time>2026-04-04T11:08:24.984Z</time></trkpt><trkpt lat="43.8321467" lon="11.549245"><ele>827.0</ele><time>2026-04-04T11:08:25.985Z</time></trkpt><trkpt lat="43.8321217" lon="11.549135"><ele>826.0</ele><time>2026-04-04T11:08:26.984Z</time></trkpt><trkpt lat="43.832095" lon="11.5490333"><ele>825.0</ele><time>2026-04-04T11:08:27.984Z</time></trkpt><trkpt lat="43.8320717" lon="11.5489383"><ele>825.0</ele><time>2026-04-04T11:08:28.986Z</time></trkpt><trkpt lat="43.8320433" lon="11.548775"><ele>825.0</ele><time>2026-04-04T11:08:30.984Z</time></trkpt><trkpt lat="43.8320417" lon="11.5486867"><ele>825.0</ele><time>2026-04-04T11:08:31.987Z</time></trkpt><trkpt lat="43.8320333" lon="11.5485117"><ele>825.0</ele><time>2026-04-04T11:08:33.985Z</time></trkpt><trkpt lat="43.8320183" lon="11.5484133"><ele>825.0</ele><time>2026-04-04T11:08:34.984Z</time></trkpt><trkpt lat="43.832005" lon="11.54831"><ele>822.4</ele><time>2026-04-04T11:08:35.985Z</time></trkpt><trkpt lat="43.8319933" lon="11.548205"><ele>819.8</ele><time>2026-04-04T11:08:36.985Z</time></trkpt><trkpt lat="43.83199" lon="11.5481083"><ele>817.2</ele><time>2026-04-04T11:08:37.987Z</time></trkpt><trkpt lat="43.832005" lon="11.5479483"><ele>814.6</ele><time>2026-04-04T11:08:39.984Z</time></trkpt><trkpt lat="43.8320933" lon="11.5478133"><ele>812.0</ele><time>2026-04-04T11:08:41.987Z</time></trkpt><trkpt lat="43.8321517" lon="11.5477233"><ele>810.4000000000001</ele><time>2026-04-04T11:08:43.985Z</time></trkpt><trkpt lat="43.8322033" lon="11.547645"><ele>808.8000000000001</ele><time>2026-04-04T11:08:45.983Z</time></trkpt><trkpt lat="43.8322683" lon="11.547555"><ele>807.2</ele><time>2026-04-04T11:08:47.985Z</time></trkpt><trkpt lat="43.832335" lon="11.54747"><ele>805.6</ele><time>2026-04-04T11:08:49.975Z</time></trkpt><trkpt lat="43.8324083" lon="11.5473967"><ele>804.0</ele><time>2026-04-04T11:08:51.984Z</time></trkpt><trkpt lat="43.832485" lon="11.5473033"><ele>804.0</ele><time>2026-04-04T11:08:53.985Z</time></trkpt><trkpt lat="43.8325533" lon="11.5471867"><ele>804.0</ele><time>2026-04-04T11:08:55.987Z</time></trkpt><trkpt lat="43.8326233" lon="11.54709"><ele>804.0</ele><time>2026-04-04T11:08:57.984Z</time></trkpt><trkpt lat="43.8327267" lon="11.547025"><ele>804.0</ele><time>2026-04-04T11:08:59.988Z</time></trkpt><trkpt lat="43.8327867" lon="11.546995"><ele>804.0</ele><time>2026-04-04T11:09:00.986Z</time></trkpt><trkpt lat="43.8328467" lon="11.5469667"><ele>804.0</ele><time>2026-04-04T11:09:01.986Z</time></trkpt><trkpt lat="43.8329567" lon="11.5469083"><ele>801.6</ele><time>2026-04-04T11:09:03.984Z</time></trkpt><trkpt lat="43.8330383" lon="11.5467983"><ele>799.2</ele><time>2026-04-04T11:09:05.988Z</time></trkpt><trkpt lat="43.8330667" lon="11.54665"><ele>796.8000000000001</ele><time>2026-04-04T11:09:07.987Z</time></trkpt><trkpt lat="43.8330867" lon="11.5465233"><ele>794.4000000000001</ele><time>2026-04-04T11:09:09.984Z</time></trkpt><trkpt lat="43.833105" lon="11.5464117"><ele>792.0</ele><time>2026-04-04T11:09:11.985Z</time></trkpt><trkpt lat="43.8331317" lon="11.5463"><ele>791.0</ele><time>2026-04-04T11:09:14.985Z</time></trkpt><trkpt lat="43.8331467" lon="11.5462067"><ele>790.0</ele><time>2026-04-04T11:09:16.974Z</time></trkpt><trkpt lat="43.8331567" lon="11.546085"><ele>789.0</ele><time>2026-04-04T11:09:18.984Z</time></trkpt><trkpt lat="43.8331733" lon="11.5459717"><ele>788.0</ele><time>2026-04-04T11:09:20.986Z</time></trkpt><trkpt lat="43.83317" lon="11.54587"><ele>787.0</ele><time>2026-04-04T11:09:22.984Z</time></trkpt><trkpt lat="43.8331933" lon="11.545785"><ele>786.0</ele><time>2026-04-04T11:09:25.986Z</time></trkpt><trkpt lat="43.8332067" lon="11.545665"><ele>786.0</ele><time>2026-04-04T11:09:34.983Z</time></trkpt><trkpt lat="43.8332433" lon="11.54556"><ele>786.0</ele><time>2026-04-04T11:09:38.985Z</time></trkpt><trkpt lat="43.83331" lon="11.5454233"><ele>786.0</ele><time>2026-04-04T11:09:40.986Z</time></trkpt><trkpt lat="43.8333367" lon="11.54534"><ele>786.0</ele><time>2026-04-04T11:09:41.986Z</time></trkpt><trkpt lat="43.8333467" lon="11.545165"><ele>786.0</ele><time>2026-04-04T11:09:43.985Z</time></trkpt><trkpt lat="43.8333483" lon="11.54502"><ele>784.0</ele><time>2026-04-04T11:09:45.985Z</time></trkpt><trkpt lat="43.833405" lon="11.54492"><ele>782.0</ele><time>2026-04-04T11:09:47.974Z</time></trkpt><trkpt lat="43.8334667" lon="11.5448383"><ele>780.0</ele><time>2026-04-04T11:09:49.988Z</time></trkpt><trkpt lat="43.8335133" lon="11.5447717"><ele>778.0</ele><time>2026-04-04T11:09:51.985Z</time></trkpt><trkpt lat="43.833595" lon="11.5447083"><ele>776.0</ele><time>2026-04-04T11:09:54.983Z</time></trkpt><trkpt lat="43.8336967" lon="11.54463"><ele>774.3333333333334</ele><time>2026-04-04T11:09:56.984Z</time></trkpt><trkpt lat="43.8337567" lon="11.5445917"><ele>772.6666666666667</ele><time>2026-04-04T11:09:57.984Z</time></trkpt><trkpt lat="43.83382" lon="11.544555"><ele>771.0</ele><time>2026-04-04T11:09:58.983Z</time></trkpt><trkpt lat="43.8338817" lon="11.544525"><ele>769.3333333333334</ele><time>2026-04-04T11:09:59.984Z</time></trkpt><trkpt lat="43.8339783" lon="11.54448"><ele>767.6666666666667</ele><time>2026-04-04T11:10:01.987Z</time></trkpt><trkpt lat="43.8340667" lon="11.5444317"><ele>766.0</ele><time>2026-04-04T11:10:03.983Z</time></trkpt><trkpt lat="43.83419" lon="11.544395"><ele>766.0</ele><time>2026-04-04T11:10:05.983Z</time></trkpt><trkpt lat="43.8342567" lon="11.544365"><ele>766.0</ele><time>2026-04-04T11:10:06.984Z</time></trkpt><trkpt lat="43.83435" lon="11.5442717"><ele>766.0</ele><time>2026-04-04T11:10:08.984Z</time></trkpt><trkpt lat="43.83438" lon="11.5441317"><ele>766.0</ele><time>2026-04-04T11:10:10.983Z</time></trkpt><trkpt lat="43.834355" lon="11.5439783"><ele>766.0</ele><time>2026-04-04T11:10:12.984Z</time></trkpt><trkpt lat="43.834295" lon="11.54385"><ele>766.0</ele><time>2026-04-04T11:10:14.984Z</time></trkpt><trkpt lat="43.8342283" lon="11.543735"><ele>766.0</ele><time>2026-04-04T11:10:16.985Z</time></trkpt><trkpt lat="43.8341633" lon="11.5436083"><ele>766.0</ele><time>2026-04-04T11:10:18.986Z</time></trkpt><trkpt lat="43.8340867" lon="11.54351"><ele>766.0</ele><time>2026-04-04T11:10:20.982Z</time></trkpt><trkpt lat="43.8340333" lon="11.54342"><ele>766.0</ele><time>2026-04-04T11:10:22.984Z</time></trkpt><trkpt lat="43.833975" lon="11.5433317"><ele>764.1999999999999</ele><time>2026-04-04T11:10:24.986Z</time></trkpt><trkpt lat="43.8339233" lon="11.5432267"><ele>762.4</ele><time>2026-04-04T11:10:26.984Z</time></trkpt><trkpt lat="43.8338683" lon="11.5431067"><ele>760.6</ele><time>2026-04-04T11:10:28.984Z</time></trkpt><trkpt lat="43.8338033" lon="11.543005"><ele>758.8</ele><time>2026-04-04T11:10:30.986Z</time></trkpt><trkpt lat="43.8337483" lon="11.5428883"><ele>757.0</ele><time>2026-04-04T11:10:32.983Z</time></trkpt><trkpt lat="43.8337417" lon="11.5427217"><ele>755.6666666666667</ele><time>2026-04-04T11:10:34.987Z</time></trkpt><trkpt lat="43.833755" lon="11.5426267"><ele>754.3333333333334</ele><time>2026-04-04T11:10:35.986Z</time></trkpt><trkpt lat="43.8337883" lon="11.5425467"><ele>753.0</ele><time>2026-04-04T11:10:36.984Z</time></trkpt><trkpt lat="43.833835" lon="11.5424733"><ele>751.6666666666666</ele><time>2026-04-04T11:10:37.987Z</time></trkpt><trkpt lat="43.83389" lon="11.5424083"><ele>750.3333333333333</ele><time>2026-04-04T11:10:38.983Z</time></trkpt><trkpt lat="43.83399" lon="11.5423167"><ele>749.0</ele><time>2026-04-04T11:10:40.984Z</time></trkpt><trkpt lat="43.8340983" lon="11.542235"><ele>749.0</ele><time>2026-04-04T11:10:42.987Z</time></trkpt><trkpt lat="43.8341883" lon="11.5421617"><ele>749.0</ele><time>2026-04-04T11:10:44.984Z</time></trkpt><trkpt lat="43.8342833" lon="11.5420817"><ele>749.0</ele><time>2026-04-04T11:11:08.984Z</time></trkpt><trkpt lat="43.8343483" lon="11.5420083"><ele>749.0</ele><time>2026-04-04T11:11:11.987Z</time></trkpt><trkpt lat="43.8343817" lon="11.5419317"><ele>749.0</ele><time>2026-04-04T11:11:14.983Z</time></trkpt><trkpt lat="43.8344117" lon="11.54185"><ele>749.0</ele><time>2026-04-04T11:11:16.987Z</time></trkpt><trkpt lat="43.83443" lon="11.5417333"><ele>744.5</ele><time>2026-04-04T11:11:18.986Z</time></trkpt><trkpt lat="43.83445" lon="11.5416067"><ele>740.0</ele><time>2026-04-04T11:11:20.984Z</time></trkpt><trkpt lat="43.83446" lon="11.5414867"><ele>735.5</ele><time>2026-04-04T11:11:22.987Z</time></trkpt><trkpt lat="43.834485" lon="11.5413667"><ele>731.0</ele><time>2026-04-04T11:11:24.989Z</time></trkpt><trkpt lat="43.8345033" lon="11.5412633"><ele>726.5</ele><time>2026-04-04T11:11:26.985Z</time></trkpt><trkpt lat="43.83453" lon="11.5411417"><ele>722.0</ele><time>2026-04-04T11:11:28.984Z</time></trkpt><trkpt lat="43.8345383" lon="11.54099"><ele>721.0</ele><time>2026-04-04T11:11:30.985Z</time></trkpt><trkpt lat="43.834525" lon="11.540845"><ele>720.0</ele><time>2026-04-04T11:11:32.985Z</time></trkpt><trkpt lat="43.8345233" lon="11.540715"><ele>719.0</ele><time>2026-04-04T11:11:34.985Z</time></trkpt><trkpt lat="43.834505" lon="11.5405483"><ele>718.0</ele><time>2026-04-04T11:11:36.984Z</time></trkpt><trkpt lat="43.83448" lon="11.54039"><ele>717.0</ele><time>2026-04-04T11:11:38.985Z</time></trkpt><trkpt lat="43.8344717" lon="11.5403"><ele>716.0</ele><time>2026-04-04T11:11:39.984Z</time></trkpt><trkpt lat="43.8344583" lon="11.54021"><ele>715.0</ele><time>2026-04-04T11:11:40.985Z</time></trkpt><trkpt lat="43.834435" lon="11.540115"><ele>714.0</ele><time>2026-04-04T11:11:41.984Z</time></trkpt><trkpt lat="43.8344183" lon="11.5400233"><ele>713.0</ele><time>2026-04-04T11:11:42.984Z</time></trkpt><trkpt lat="43.8344017" lon="11.539875"><ele>712.0</ele><time>2026-04-04T11:11:44.983Z</time></trkpt><trkpt lat="43.8344033" lon="11.5397117"><ele>711.0</ele><time>2026-04-04T11:11:46.984Z</time></trkpt><trkpt lat="43.8344367" lon="11.5395617"><ele>711.0</ele><time>2026-04-04T11:11:48.985Z</time></trkpt><trkpt lat="43.8344717" lon="11.53948"><ele>711.0</ele><time>2026-04-04T11:11:50.984Z</time></trkpt><trkpt lat="43.8345217" lon="11.5394083"><ele>711.0</ele><time>2026-04-04T11:11:52.986Z</time></trkpt><trkpt lat="43.8346" lon="11.5393067"><ele>711.0</ele><time>2026-04-04T11:11:54.987Z</time></trkpt><trkpt lat="43.8346583" lon="11.5392533"><ele>711.0</ele><time>2026-04-04T11:11:55.987Z</time></trkpt><trkpt lat="43.8347167" lon="11.5392"><ele>711.0</ele><time>2026-04-04T11:11:56.984Z</time></trkpt><trkpt lat="43.8347717" lon="11.53914"><ele>711.0</ele><time>2026-04-04T11:11:57.987Z</time></trkpt><trkpt lat="43.8348333" lon="11.5390767"><ele>711.0</ele><time>2026-04-04T11:11:58.986Z</time></trkpt><trkpt lat="43.8348967" lon="11.53901"><ele>711.0</ele><time>2026-04-04T11:11:59.986Z</time></trkpt><trkpt lat="43.834965" lon="11.5389233"><ele>711.0</ele><time>2026-04-04T11:12:00.988Z</time></trkpt><trkpt lat="43.8350383" lon="11.538845"><ele>711.0</ele><time>2026-04-04T11:12:01.988Z</time></trkpt><trkpt lat="43.835105" lon="11.53877"><ele>711.0</ele><time>2026-04-04T11:12:02.986Z</time></trkpt><trkpt lat="43.83516" lon="11.5386917"><ele>708.1666666666666</ele><time>2026-04-04T11:12:03.985Z</time></trkpt><trkpt lat="43.835205" lon="11.5386083"><ele>705.3333333333334</ele><time>2026-04-04T11:12:04.986Z</time></trkpt><trkpt lat="43.8352367" lon="11.5385183"><ele>702.5</ele><time>2026-04-04T11:12:05.987Z</time></trkpt><trkpt lat="43.8352633" lon="11.5384233"><ele>699.6666666666667</ele><time>2026-04-04T11:12:06.986Z</time></trkpt><trkpt lat="43.8352783" lon="11.538335"><ele>696.8333333333334</ele><time>2026-04-04T11:12:07.99Z</time></trkpt><trkpt lat="43.835265" lon="11.5382183"><ele>694.0</ele><time>2026-04-04T11:12:09.985Z</time></trkpt><trkpt lat="43.8351817" lon="11.5381767"><ele>694.0</ele><time>2026-04-04T11:27:30.985Z</time></trkpt><trkpt lat="43.8351783" lon="11.5380667"><ele>694.0</ele><time>2026-04-04T11:27:34.975Z</time></trkpt><trkpt lat="43.8352067" lon="11.53796"><ele>694.0</ele><time>2026-04-04T11:27:36.985Z</time></trkpt><trkpt lat="43.8352517" lon="11.5378283"><ele>694.0</ele><time>2026-04-04T11:27:38.984Z</time></trkpt><trkpt lat="43.8352883" lon="11.53775"><ele>694.0</ele><time>2026-04-04T11:27:39.983Z</time></trkpt><trkpt lat="43.83533" lon="11.5376817"><ele>694.0</ele><time>2026-04-04T11:27:40.986Z</time></trkpt><trkpt lat="43.835395" lon="11.53753"><ele>694.4000000000001</ele><time>2026-04-04T11:27:42.984Z</time></trkpt><trkpt lat="43.835425" lon="11.5373633"><ele>694.8</ele><time>2026-04-04T11:27:44.984Z</time></trkpt><trkpt lat="43.8354483" lon="11.5372067"><ele>695.2</ele><time>2026-04-04T11:27:46.985Z</time></trkpt><trkpt lat="43.835465" lon="11.5370717"><ele>695.5999999999999</ele><time>2026-04-04T11:27:48.977Z</time></trkpt><trkpt lat="43.8355067" lon="11.5369317"><ele>696.0</ele><time>2026-04-04T11:27:50.985Z</time></trkpt><trkpt lat="43.83555" lon="11.5368667"><ele>696.0</ele><time>2026-04-04T11:27:51.984Z</time></trkpt><trkpt lat="43.8355983" lon="11.536805"><ele>696.0</ele><time>2026-04-04T11:27:52.988Z</time></trkpt><trkpt lat="43.8356467" lon="11.5367383"><ele>696.0</ele><time>2026-04-04T11:27:53.987Z</time></trkpt><trkpt lat="43.83572" lon="11.53663"><ele>696.0</ele><time>2026-04-04T11:27:55.987Z</time></trkpt><trkpt lat="43.83577" lon="11.5365133"><ele>696.0</ele><time>2026-04-04T11:27:57.986Z</time></trkpt><trkpt lat="43.8358033" lon="11.5364283"><ele>696.0</ele><time>2026-04-04T11:27:59.984Z</time></trkpt><trkpt lat="43.83583" lon="11.5363333"><ele>696.0</ele><time>2026-04-04T11:28:01.987Z</time></trkpt><trkpt lat="43.835845" lon="11.5362433"><ele>696.0</ele><time>2026-04-04T11:28:03.974Z</time></trkpt><trkpt lat="43.835865" lon="11.5360883"><ele>696.0</ele><time>2026-04-04T11:33:07.988Z</time></trkpt><trkpt lat="43.835855" lon="11.535915"><ele>696.0</ele><time>2026-04-04T11:33:09.974Z</time></trkpt><trkpt lat="43.8358417" lon="11.5358117"><ele>696.0</ele><time>2026-04-04T11:33:10.99Z</time></trkpt><trkpt lat="43.835845" lon="11.5357"><ele>695.0</ele><time>2026-04-04T11:33:11.986Z</time></trkpt><trkpt lat="43.8358517" lon="11.5355883"><ele>694.0</ele><time>2026-04-04T11:33:12.986Z</time></trkpt><trkpt lat="43.835845" lon="11.535485"><ele>693.0</ele><time>2026-04-04T11:33:13.987Z</time></trkpt><trkpt lat="43.83586" lon="11.5353867"><ele>692.0</ele><time>2026-04-04T11:33:14.985Z</time></trkpt><trkpt lat="43.8358633" lon="11.535285"><ele>691.0</ele><time>2026-04-04T11:33:15.987Z</time></trkpt><trkpt lat="43.8358567" lon="11.5351767"><ele>690.0</ele><time>2026-04-04T11:33:16.984Z</time></trkpt><trkpt lat="43.8358617" lon="11.5350683"><ele>689.3333333333334</ele><time>2026-04-04T11:33:17.984Z</time></trkpt><trkpt lat="43.8358733" lon="11.5349517"><ele>688.6666666666666</ele><time>2026-04-04T11:33:18.986Z</time></trkpt><trkpt lat="43.8358917" lon="11.5348383"><ele>688.0</ele><time>2026-04-04T11:33:19.986Z</time></trkpt><trkpt lat="43.8359183" lon="11.5347383"><ele>687.3333333333333</ele><time>2026-04-04T11:33:20.985Z</time></trkpt><trkpt lat="43.8359517" lon="11.534655"><ele>686.6666666666666</ele><time>2026-04-04T11:33:21.984Z</time></trkpt><trkpt lat="43.83599" lon="11.5345683"><ele>686.0</ele><time>2026-04-04T11:33:22.983Z</time></trkpt><trkpt lat="43.8360267" lon="11.5344933"><ele>682.8</ele><time>2026-04-04T11:33:23.983Z</time></trkpt><trkpt lat="43.8360683" lon="11.5344233"><ele>679.5999999999999</ele><time>2026-04-04T11:33:24.986Z</time></trkpt><trkpt lat="43.83614" lon="11.534295"><ele>676.4</ele><time>2026-04-04T11:33:26.983Z</time></trkpt><trkpt lat="43.8362" lon="11.534195"><ele>673.2</ele><time>2026-04-04T11:33:28.984Z</time></trkpt><trkpt lat="43.8362083" lon="11.5340633"><ele>670.0</ele><time>2026-04-04T11:33:31.987Z</time></trkpt><trkpt lat="43.8362467" lon="11.5339167"><ele>670.0</ele><time>2026-04-04T11:33:33.983Z</time></trkpt><trkpt lat="43.83628" lon="11.5338183"><ele>670.0</ele><time>2026-04-04T11:33:34.984Z</time></trkpt><trkpt lat="43.8363233" lon="11.5336983"><ele>670.0</ele><time>2026-04-04T11:33:35.973Z</time></trkpt><trkpt lat="43.8363733" lon="11.533575"><ele>670.0</ele><time>2026-04-04T11:33:36.984Z</time></trkpt><trkpt lat="43.8364333" lon="11.5334783"><ele>670.0</ele><time>2026-04-04T11:33:37.989Z</time></trkpt><trkpt lat="43.8364983" lon="11.5334283"><ele>670.0</ele><time>2026-04-04T11:33:38.988Z</time></trkpt><trkpt lat="43.8365683" lon="11.53342"><ele>670.0</ele><time>2026-04-04T11:33:39.986Z</time></trkpt><trkpt lat="43.8366383" lon="11.5334483"><ele>670.0</ele><time>2026-04-04T11:33:40.986Z</time></trkpt><trkpt lat="43.8367233" lon="11.5334533"><ele>670.0</ele><time>2026-04-04T11:33:42.986Z</time></trkpt><trkpt lat="43.836785" lon="11.5334317"><ele>670.0</ele><time>2026-04-04T11:33:44.986Z</time></trkpt><trkpt lat="43.8368533" lon="11.5333683"><ele>670.0</ele><time>2026-04-04T11:33:46.986Z</time></trkpt><trkpt lat="43.8369267" lon="11.5332433"><ele>670.0</ele><time>2026-04-04T11:33:48.988Z</time></trkpt><trkpt lat="43.8369983" lon="11.5331717"><ele>666.8333333333334</ele><time>2026-04-04T11:33:50.984Z</time></trkpt><trkpt lat="43.8370633" lon="11.5331467"><ele>663.6666666666667</ele><time>2026-04-04T11:33:52.985Z</time></trkpt><trkpt lat="43.83713" lon="11.533135"><ele>660.5</ele><time>2026-04-04T11:33:54.977Z</time></trkpt><trkpt lat="43.837205" lon="11.53313"><ele>657.3333333333334</ele><time>2026-04-04T11:33:56.984Z</time></trkpt><trkpt lat="43.8372917" lon="11.5330983"><ele>654.1666666666666</ele><time>2026-04-04T11:33:58.984Z</time></trkpt><trkpt lat="43.8373783" lon="11.5330367"><ele>651.0</ele><time>2026-04-04T11:34:00.985Z</time></trkpt><trkpt lat="43.8374533" lon="11.5329467"><ele>650.0</ele><time>2026-04-04T11:34:02.984Z</time></trkpt><trkpt lat="43.8375" lon="11.5328467"><ele>649.0</ele><time>2026-04-04T11:34:06.99Z</time></trkpt><trkpt lat="43.837535" lon="11.5327317"><ele>648.0</ele><time>2026-04-04T11:34:08.985Z</time></trkpt><trkpt lat="43.8376017" lon="11.5326833"><ele>647.0</ele><time>2026-04-04T11:34:11.974Z</time></trkpt><trkpt lat="43.83767" lon="11.53266"><ele>646.0</ele><time>2026-04-04T11:34:14.987Z</time></trkpt><trkpt lat="43.8377358" lon="11.5326349"><ele>645.0</ele><time>2026-04-04T11:34:17.998Z</time></trkpt><trkpt lat="43.8378309" lon="11.5325684"><ele>640.4</ele><time>2026-04-04T11:34:20.001Z</time></trkpt><trkpt lat="43.8379026" lon="11.5325029"><ele>635.8</ele><time>2026-04-04T11:34:22.004Z</time></trkpt><trkpt lat="43.8378968" lon="11.5323613"><ele>631.2</ele><time>2026-04-04T11:34:24.006Z</time></trkpt><trkpt lat="43.8378797" lon="11.5322284"><ele>626.6</ele><time>2026-04-04T11:34:26.009Z</time></trkpt><trkpt lat="43.8378606" lon="11.5320635"><ele>622.0</ele><time>2026-04-04T11:34:28.039Z</time></trkpt><trkpt lat="43.8378363" lon="11.5318796"><ele>621.8333333333334</ele><time>2026-04-04T11:34:30.015Z</time></trkpt><trkpt lat="43.8378023" lon="11.5317923"><ele>621.6666666666667</ele><time>2026-04-04T11:34:31.079Z</time></trkpt><trkpt lat="43.8377281" lon="11.5317048"><ele>621.5</ele><time>2026-04-04T11:34:33.019Z</time></trkpt><trkpt lat="43.8376496" lon="11.531683"><ele>621.3333333333334</ele><time>2026-04-04T11:34:35.019Z</time></trkpt><trkpt lat="43.8375605" lon="11.5316336"><ele>621.1666666666666</ele><time>2026-04-04T11:34:37.99Z</time></trkpt><trkpt lat="43.8375173" lon="11.5315649"><ele>621.0</ele><time>2026-04-04T11:34:39.988Z</time></trkpt><trkpt lat="43.8375434" lon="11.5314758"><ele>621.0</ele><time>2026-04-04T11:34:41.987Z</time></trkpt><trkpt lat="43.8375983" lon="11.5313923"><ele>621.0</ele><time>2026-04-04T11:34:43.988Z</time></trkpt><trkpt lat="43.8376629" lon="11.5313254"><ele>621.0</ele><time>2026-04-04T11:34:45.985Z</time></trkpt><trkpt lat="43.8377501" lon="11.5312183"><ele>621.0</ele><time>2026-04-04T11:34:47.987Z</time></trkpt><trkpt lat="43.8378462" lon="11.5311299"><ele>621.0</ele><time>2026-04-04T11:34:49.988Z</time></trkpt><trkpt lat="43.8379258" lon="11.5310584"><ele>619.4</ele><time>2026-04-04T11:34:51.986Z</time></trkpt><trkpt lat="43.8379801" lon="11.530983"><ele>617.8</ele><time>2026-04-04T11:34:53.987Z</time></trkpt><trkpt lat="43.8380485" lon="11.530888"><ele>616.1999999999999</ele><time>2026-04-04T11:34:55.987Z</time></trkpt><trkpt lat="43.8381114" lon="11.5307981"><ele>614.6</ele><time>2026-04-04T11:34:57.985Z</time></trkpt><trkpt lat="43.838213" lon="11.5307229"><ele>613.0</ele><time>2026-04-04T11:34:59.983Z</time></trkpt><trkpt lat="43.8383247" lon="11.5306643"><ele>613.0</ele><time>2026-04-04T11:35:01.986Z</time></trkpt><trkpt lat="43.8383871" lon="11.5306408"><ele>613.0</ele><time>2026-04-04T11:35:02.983Z</time></trkpt><trkpt lat="43.8384863" lon="11.5305729"><ele>613.0</ele><time>2026-04-04T11:35:04.987Z</time></trkpt><trkpt lat="43.8385633" lon="11.5304949"><ele>613.0</ele><time>2026-04-04T11:35:06.988Z</time></trkpt><trkpt lat="43.8386494" lon="11.5305005"><ele>613.0</ele><time>2026-04-04T11:35:08.984Z</time></trkpt><trkpt lat="43.8387613" lon="11.5305133"><ele>610.5</ele><time>2026-04-04T11:35:10.985Z</time></trkpt><trkpt lat="43.8388673" lon="11.5304969"><ele>608.0</ele><time>2026-04-04T11:35:12.986Z</time></trkpt><trkpt lat="43.8389433" lon="11.53047"><ele>605.5</ele><time>2026-04-04T11:35:14.974Z</time></trkpt><trkpt lat="43.8389983" lon="11.5304067"><ele>603.0</ele><time>2026-04-04T11:35:16.984Z</time></trkpt><trkpt lat="43.839045" lon="11.53033"><ele>600.5</ele><time>2026-04-04T11:35:18.985Z</time></trkpt><trkpt lat="43.8390733" lon="11.5302333"><ele>598.0</ele><time>2026-04-04T11:35:20.983Z</time></trkpt><trkpt lat="43.8391017" lon="11.5301283"><ele>596.6666666666667</ele><time>2026-04-04T11:35:22.986Z</time></trkpt><trkpt lat="43.8391367" lon="11.5300467"><ele>595.3333333333334</ele><time>2026-04-04T11:35:24.985Z</time></trkpt><trkpt lat="43.839175" lon="11.529935"><ele>594.0</ele><time>2026-04-04T11:35:26.985Z</time></trkpt><trkpt lat="43.839225" lon="11.5298067"><ele>592.6666666666666</ele><time>2026-04-04T11:35:28.983Z</time></trkpt><trkpt lat="43.8392495" lon="11.5297102"><ele>591.3333333333333</ele><time>2026-04-04T11:35:30.984Z</time></trkpt><trkpt lat="43.8392352" lon="11.5296168"><ele>590.0</ele><time>2026-04-04T11:35:33.04Z</time></trkpt><trkpt lat="43.8392054" lon="11.5294884"><ele>588.1666666666666</ele><time>2026-04-04T11:35:34.986Z</time></trkpt><trkpt lat="43.8391883" lon="11.5293595"><ele>586.3333333333333</ele><time>2026-04-04T11:35:36.986Z</time></trkpt><trkpt lat="43.8391821" lon="11.5292443"><ele>584.5</ele><time>2026-04-04T11:35:38.984Z</time></trkpt><trkpt lat="43.8391716" lon="11.5291448"><ele>582.6666666666666</ele><time>2026-04-04T11:35:40.985Z</time></trkpt><trkpt lat="43.83921" lon="11.5290183"><ele>580.8333333333334</ele><time>2026-04-04T11:35:43.976Z</time></trkpt><trkpt lat="43.8393" lon="11.5290083"><ele>579.0</ele><time>2026-04-04T11:35:46.984Z</time></trkpt><trkpt lat="43.8393717" lon="11.52903"><ele>574.3333333333334</ele><time>2026-04-04T11:35:48.985Z</time></trkpt><trkpt lat="43.8394033" lon="11.5289"><ele>569.6666666666666</ele><time>2026-04-04T11:35:51.984Z</time></trkpt><trkpt lat="43.8394217" lon="11.5288017"><ele>565.0</ele><time>2026-04-04T11:35:53.984Z</time></trkpt><trkpt lat="43.8394333" lon="11.52868"><ele>560.3333333333333</ele><time>2026-04-04T11:35:55.986Z</time></trkpt><trkpt lat="43.8394467" lon="11.5285383"><ele>555.6666666666666</ele><time>2026-04-04T11:35:57.985Z</time></trkpt><trkpt lat="43.839475" lon="11.528455"><ele>551.0</ele><time>2026-04-04T11:35:59.975Z</time></trkpt><trkpt lat="43.8395117" lon="11.5283633"><ele>550.0</ele><time>2026-04-04T11:36:01.986Z</time></trkpt><trkpt lat="43.8395583" lon="11.52826"><ele>549.0</ele><time>2026-04-04T11:36:03.986Z</time></trkpt><trkpt lat="43.8396017" lon="11.5281617"><ele>548.0</ele><time>2026-04-04T11:36:05.984Z</time></trkpt><trkpt lat="43.8396317" lon="11.528055"><ele>547.0</ele><time>2026-04-04T11:36:07.987Z</time></trkpt><trkpt lat="43.8396233" lon="11.5279117"><ele>546.0</ele><time>2026-04-04T11:36:09.984Z</time></trkpt><trkpt lat="43.8396067" lon="11.5277667"><ele>544.8</ele><time>2026-04-04T11:36:11.985Z</time></trkpt><trkpt lat="43.8395983" lon="11.5276033"><ele>543.6</ele><time>2026-04-04T11:36:13.987Z</time></trkpt><trkpt lat="43.8396017" lon="11.5274633"><ele>542.4</ele><time>2026-04-04T11:36:15.984Z</time></trkpt><trkpt lat="43.83963" lon="11.5273217"><ele>541.2</ele><time>2026-04-04T11:36:17.985Z</time></trkpt><trkpt lat="43.8396717" lon="11.5271717"><ele>540.0</ele><time>2026-04-04T11:36:19.989Z</time></trkpt><trkpt lat="43.83973" lon="11.5270283"><ele>538.2</ele><time>2026-04-04T11:36:21.985Z</time></trkpt><trkpt lat="43.839795" lon="11.526895"><ele>536.4</ele><time>2026-04-04T11:36:23.984Z</time></trkpt><trkpt lat="43.8398567" lon="11.526765"><ele>534.6</ele><time>2026-04-04T11:36:25.986Z</time></trkpt><trkpt lat="43.83992" lon="11.526695"><ele>532.8</ele><time>2026-04-04T11:36:27.985Z</time></trkpt><trkpt lat="43.8399983" lon="11.5266233"><ele>531.0</ele><time>2026-04-04T11:36:29.988Z</time></trkpt><trkpt lat="43.840065" lon="11.526595"><ele>525.75</ele><time>2026-04-04T11:36:31.986Z</time></trkpt><trkpt lat="43.8401841" lon="11.526528"><ele>520.5</ele><time>2026-04-04T11:36:34.991Z</time></trkpt><trkpt lat="43.8402751" lon="11.5264282"><ele>515.25</ele><time>2026-04-04T11:36:36.986Z</time></trkpt><trkpt lat="43.840321" lon="11.5262874"><ele>510.0</ele><time>2026-04-04T11:36:38.985Z</time></trkpt><trkpt lat="43.8403552" lon="11.5261478"><ele>510.0</ele><time>2026-04-04T11:36:40.985Z</time></trkpt><trkpt lat="43.8404024" lon="11.5260164"><ele>510.0</ele><time>2026-04-04T11:36:42.985Z</time></trkpt><trkpt lat="43.8404374" lon="11.5258767"><ele>510.0</ele><time>2026-04-04T11:36:44.985Z</time></trkpt><trkpt lat="43.8404696" lon="11.5257126"><ele>510.0</ele><time>2026-04-04T11:36:46.987Z</time></trkpt><trkpt lat="43.8405328" lon="11.5255806"><ele>510.0</ele><time>2026-04-04T11:36:48.985Z</time></trkpt><trkpt lat="43.8406198" lon="11.5254685"><ele>510.0</ele><time>2026-04-04T11:36:50.986Z</time></trkpt><trkpt lat="43.8406582" lon="11.5253971"><ele>510.0</ele><time>2026-04-04T11:36:51.985Z</time></trkpt><trkpt lat="43.8407256" lon="11.5252488"><ele>510.0</ele><time>2026-04-04T11:36:53.987Z</time></trkpt><trkpt lat="43.8407532" lon="11.5251643"><ele>510.0</ele><time>2026-04-04T11:36:54.983Z</time></trkpt><trkpt lat="43.8408256" lon="11.5250369"><ele>510.0</ele><time>2026-04-04T11:36:56.985Z</time></trkpt><trkpt lat="43.8409266" lon="11.5249501"><ele>507.0</ele><time>2026-04-04T11:36:58.985Z</time></trkpt><trkpt lat="43.8410403" lon="11.5249078"><ele>504.0</ele><time>2026-04-04T11:37:00.985Z</time></trkpt><trkpt lat="43.8411564" lon="11.5248529"><ele>501.0</ele><time>2026-04-04T11:37:02.985Z</time></trkpt><trkpt lat="43.841244" lon="11.5247441"><ele>498.0</ele><time>2026-04-04T11:37:04.986Z</time></trkpt><trkpt lat="43.84128" lon="11.5246677"><ele>495.0</ele><time>2026-04-04T11:37:05.986Z</time></trkpt><trkpt lat="43.841364" lon="11.5245524"><ele>494.8</ele><time>2026-04-04T11:37:07.987Z</time></trkpt><trkpt lat="43.84145" lon="11.5244634"><ele>494.6</ele><time>2026-04-04T11:37:09.985Z</time></trkpt><trkpt lat="43.8414907" lon="11.5243157"><ele>494.4</ele><time>2026-04-04T11:37:11.986Z</time></trkpt><trkpt lat="43.841509" lon="11.5242213"><ele>494.2</ele><time>2026-04-04T11:37:12.989Z</time></trkpt><trkpt lat="43.8415383" lon="11.5241172"><ele>494.0</ele><time>2026-04-04T11:37:13.987Z</time></trkpt><trkpt lat="43.8415791" lon="11.5240242"><ele>493.99999999999994</ele><time>2026-04-04T11:37:14.985Z</time></trkpt><trkpt lat="43.8416281" lon="11.5239448"><ele>494.0</ele><time>2026-04-04T11:37:15.983Z</time></trkpt><trkpt lat="43.8416736" lon="11.5238678"><ele>494.0</ele><time>2026-04-04T11:37:16.985Z</time></trkpt><trkpt lat="43.8417136" lon="11.5237947"><ele>494.0</ele><time>2026-04-04T11:37:17.987Z</time></trkpt><trkpt lat="43.841786" lon="11.5236593"><ele>493.99999999999994</ele><time>2026-04-04T11:37:19.987Z</time></trkpt><trkpt lat="43.8418355" lon="11.5235293"><ele>494.0</ele><time>2026-04-04T11:37:21.985Z</time></trkpt><trkpt lat="43.8418827" lon="11.5234158"><ele>490.0</ele><time>2026-04-04T11:37:23.988Z</time></trkpt><trkpt lat="43.8419493" lon="11.5233"><ele>486.0</ele><time>2026-04-04T11:37:25.987Z</time></trkpt><trkpt lat="43.8420204" lon="11.5231916"><ele>482.0</ele><time>2026-04-04T11:37:27.984Z</time></trkpt><trkpt lat="43.8420187" lon="11.5230842"><ele>478.0</ele><time>2026-04-04T11:37:30.985Z</time></trkpt><trkpt lat="43.8420007" lon="11.5229701"><ele>474.0</ele><time>2026-04-04T11:37:32.985Z</time></trkpt><trkpt lat="43.8420161" lon="11.5228347"><ele>471.8333333333333</ele><time>2026-04-04T11:37:34.984Z</time></trkpt><trkpt lat="43.8420099" lon="11.5227138"><ele>469.66666666666663</ele><time>2026-04-04T11:37:36.985Z</time></trkpt><trkpt lat="43.8420417" lon="11.5226117"><ele>467.5</ele><time>2026-04-04T11:37:39.986Z</time></trkpt><trkpt lat="43.8421183" lon="11.522645"><ele>465.3333333333333</ele><time>2026-04-04T11:37:42.985Z</time></trkpt><trkpt lat="43.8421833" lon="11.5226333"><ele>463.16666666666663</ele><time>2026-04-04T11:37:45.986Z</time></trkpt><trkpt lat="43.84226" lon="11.5226167"><ele>461.0</ele><time>2026-04-04T11:37:48.985Z</time></trkpt><trkpt lat="43.8423433" lon="11.522615"><ele>461.0</ele><time>2026-04-04T11:37:51.984Z</time></trkpt><trkpt lat="43.8424183" lon="11.52261"><ele>461.0</ele><time>2026-04-04T11:37:53.983Z</time></trkpt><trkpt lat="43.8425283" lon="11.5226133"><ele>461.0</ele><time>2026-04-04T11:37:55.986Z</time></trkpt><trkpt lat="43.8426483" lon="11.52261"><ele>461.0</ele><time>2026-04-04T11:37:57.986Z</time></trkpt><trkpt lat="43.842725" lon="11.5226167"><ele>461.0</ele><time>2026-04-04T11:37:58.989Z</time></trkpt><trkpt lat="43.8428017" lon="11.52262"><ele>458.8333333333333</ele><time>2026-04-04T11:37:59.988Z</time></trkpt><trkpt lat="43.8428817" lon="11.5226233"><ele>456.66666666666663</ele><time>2026-04-04T11:38:00.988Z</time></trkpt><trkpt lat="43.8429467" lon="11.522625"><ele>454.5</ele><time>2026-04-04T11:38:01.988Z</time></trkpt><trkpt lat="43.8430117" lon="11.5226167"><ele>452.33333333333337</ele><time>2026-04-04T11:38:02.985Z</time></trkpt><trkpt lat="43.8430733" lon="11.522585"><ele>450.1666666666667</ele><time>2026-04-04T11:38:03.985Z</time></trkpt><trkpt lat="43.84314" lon="11.522465"><ele>448.0</ele><time>2026-04-04T11:38:05.985Z</time></trkpt><trkpt lat="43.8431267" lon="11.5222917"><ele>448.0</ele><time>2026-04-04T11:38:07.988Z</time></trkpt><trkpt lat="43.8430967" lon="11.5221767"><ele>447.99999999999994</ele><time>2026-04-04T11:38:08.985Z</time></trkpt><trkpt lat="43.84305" lon="11.5220317"><ele>447.99999999999994</ele><time>2026-04-04T11:38:09.985Z</time></trkpt><trkpt lat="43.843" lon="11.5218683"><ele>448.0</ele><time>2026-04-04T11:38:10.984Z</time></trkpt><trkpt lat="43.8429567" lon="11.5217283"><ele>448.0</ele><time>2026-04-04T11:38:11.984Z</time></trkpt><trkpt lat="43.842915" lon="11.5216033"><ele>446.4</ele><time>2026-04-04T11:38:12.985Z</time></trkpt><trkpt lat="43.8428733" lon="11.5214833"><ele>444.79999999999995</ele><time>2026-04-04T11:38:13.987Z</time></trkpt><trkpt lat="43.8428367" lon="11.52137"><ele>443.2</ele><time>2026-04-04T11:38:14.985Z</time></trkpt><trkpt lat="43.8428067" lon="11.5212733"><ele>441.6</ele><time>2026-04-04T11:38:15.985Z</time></trkpt><trkpt lat="43.8427783" lon="11.5211167"><ele>440.0</ele><time>2026-04-04T11:38:17.987Z</time></trkpt><trkpt lat="43.8428417" lon="11.5209883"><ele>437.6</ele><time>2026-04-04T11:38:19.987Z</time></trkpt><trkpt lat="43.8429067" lon="11.5209517"><ele>435.2</ele><time>2026-04-04T11:38:20.984Z</time></trkpt><trkpt lat="43.842985" lon="11.52092"><ele>432.79999999999995</ele><time>2026-04-04T11:38:21.986Z</time></trkpt><trkpt lat="43.8430733" lon="11.5208883"><ele>430.4</ele><time>2026-04-04T11:38:22.986Z</time></trkpt><trkpt lat="43.843175" lon="11.5208483"><ele>428.0</ele><time>2026-04-04T11:38:23.983Z</time></trkpt><trkpt lat="43.843275" lon="11.52081"><ele>427.99999999999994</ele><time>2026-04-04T11:38:24.983Z</time></trkpt><trkpt lat="43.8433717" lon="11.52077"><ele>428.0</ele><time>2026-04-04T11:38:25.985Z</time></trkpt><trkpt lat="43.843465" lon="11.5207283"><ele>428.0</ele><time>2026-04-04T11:38:26.984Z</time></trkpt><trkpt lat="43.8435533" lon="11.5206933"><ele>428.0</ele><time>2026-04-04T11:38:27.983Z</time></trkpt><trkpt lat="43.8436333" lon="11.5206783"><ele>427.99999999999994</ele><time>2026-04-04T11:38:28.983Z</time></trkpt><trkpt lat="43.8437083" lon="11.5206767"><ele>428.0</ele><time>2026-04-04T11:38:29.984Z</time></trkpt><trkpt lat="43.843775" lon="11.5206733"><ele>425.8333333333333</ele><time>2026-04-04T11:38:30.983Z</time></trkpt><trkpt lat="43.8438667" lon="11.520605"><ele>423.66666666666663</ele><time>2026-04-04T11:38:32.983Z</time></trkpt><trkpt lat="43.8439033" lon="11.5204683"><ele>421.5</ele><time>2026-04-04T11:38:34.984Z</time></trkpt><trkpt lat="43.8439783" lon="11.5203783"><ele>419.33333333333337</ele><time>2026-04-04T11:38:36.983Z</time></trkpt><trkpt lat="43.8440417" lon="11.5203767"><ele>417.1666666666667</ele><time>2026-04-04T11:38:37.986Z</time></trkpt><trkpt lat="43.8441083" lon="11.520395"><ele>415.0</ele><time>2026-04-04T11:38:38.985Z</time></trkpt><trkpt lat="43.84418" lon="11.520435"><ele>415.00000000000006</ele><time>2026-04-04T11:38:39.985Z</time></trkpt><trkpt lat="43.8442567" lon="11.5204783"><ele>415.0</ele><time>2026-04-04T11:38:40.984Z</time></trkpt><trkpt lat="43.844335" lon="11.5205333"><ele>415.0</ele><time>2026-04-04T11:38:41.987Z</time></trkpt><trkpt lat="43.84441" lon="11.520595"><ele>415.0</ele><time>2026-04-04T11:38:42.986Z</time></trkpt><trkpt lat="43.84449" lon="11.520655"><ele>415.00000000000006</ele><time>2026-04-04T11:38:43.986Z</time></trkpt><trkpt lat="43.84457" lon="11.520715"><ele>415.0</ele><time>2026-04-04T11:38:44.983Z</time></trkpt><trkpt lat="43.84464" lon="11.5207583"><ele>411.1666666666667</ele><time>2026-04-04T11:38:45.983Z</time></trkpt><trkpt lat="43.8447067" lon="11.520775"><ele>407.33333333333337</ele><time>2026-04-04T11:38:46.983Z</time></trkpt><trkpt lat="43.8448117" lon="11.520705"><ele>403.5</ele><time>2026-04-04T11:38:48.984Z</time></trkpt><trkpt lat="43.8448483" lon="11.52063"><ele>399.66666666666663</ele><time>2026-04-04T11:38:49.987Z</time></trkpt><trkpt lat="43.84487" lon="11.5205417"><ele>395.8333333333333</ele><time>2026-04-04T11:38:50.986Z</time></trkpt><trkpt lat="43.8448683" lon="11.5204467"><ele>392.0</ele><time>2026-04-04T11:38:51.984Z</time></trkpt><trkpt lat="43.8448467" lon="11.5203467"><ele>390.40000000000003</ele><time>2026-04-04T11:38:52.985Z</time></trkpt><trkpt lat="43.8447933" lon="11.5202417"><ele>388.8</ele><time>2026-04-04T11:38:53.984Z</time></trkpt><trkpt lat="43.8447233" lon="11.5201333"><ele>387.2</ele><time>2026-04-04T11:38:54.983Z</time></trkpt><trkpt lat="43.84465" lon="11.5200183"><ele>385.6</ele><time>2026-04-04T11:38:55.986Z</time></trkpt><trkpt lat="43.844585" lon="11.51991"><ele>384.0</ele><time>2026-04-04T11:38:56.983Z</time></trkpt><trkpt lat="43.84453" lon="11.51981"><ele>384.0</ele><time>2026-04-04T11:38:57.985Z</time></trkpt><trkpt lat="43.8444733" lon="11.5197217"><ele>384.0</ele><time>2026-04-04T11:38:58.983Z</time></trkpt><trkpt lat="43.8444167" lon="11.5196367"><ele>384.0</ele><time>2026-04-04T11:38:59.984Z</time></trkpt><trkpt lat="43.8443633" lon="11.5195583"><ele>384.0</ele><time>2026-04-04T11:39:00.984Z</time></trkpt><trkpt lat="43.84431" lon="11.5194833"><ele>384.0</ele><time>2026-04-04T11:39:01.986Z</time></trkpt><trkpt lat="43.84425" lon="11.5194117"><ele>384.0</ele><time>2026-04-04T11:39:02.983Z</time></trkpt><trkpt lat="43.8441683" lon="11.5193533"><ele>384.1666666666667</ele><time>2026-04-04T11:39:03.984Z</time></trkpt><trkpt lat="43.84408" lon="11.5193133"><ele>384.33333333333337</ele><time>2026-04-04T11:39:04.983Z</time></trkpt><trkpt lat="43.8439983" lon="11.5192733"><ele>384.5</ele><time>2026-04-04T11:39:05.985Z</time></trkpt><trkpt lat="43.843925" lon="11.5192267"><ele>384.6666666666667</ele><time>2026-04-04T11:39:06.985Z</time></trkpt><trkpt lat="43.8438633" lon="11.5191733"><ele>384.83333333333337</ele><time>2026-04-04T11:39:07.986Z</time></trkpt><trkpt lat="43.8438117" lon="11.5191133"><ele>385.0</ele><time>2026-04-04T11:39:08.985Z</time></trkpt><trkpt lat="43.8437683" lon="11.51904"><ele>385.00000000000006</ele><time>2026-04-04T11:39:09.984Z</time></trkpt><trkpt lat="43.8437117" lon="11.5189617"><ele>385.0</ele><time>2026-04-04T11:39:10.984Z</time></trkpt><trkpt lat="43.8436433" lon="11.5188983"><ele>385.0</ele><time>2026-04-04T11:39:11.984Z</time></trkpt><trkpt lat="43.8435683" lon="11.5188533"><ele>385.0</ele><time>2026-04-04T11:39:12.984Z</time></trkpt><trkpt lat="43.8434717" lon="11.518835"><ele>385.00000000000006</ele><time>2026-04-04T11:39:13.986Z</time></trkpt><trkpt lat="43.8433817" lon="11.51883"><ele>385.0</ele><time>2026-04-04T11:39:14.982Z</time></trkpt><trkpt lat="43.843295" lon="11.5188333"><ele>386.6666666666667</ele><time>2026-04-04T11:39:15.985Z</time></trkpt><trkpt lat="43.843205" lon="11.518835"><ele>388.33333333333337</ele><time>2026-04-04T11:39:16.985Z</time></trkpt><trkpt lat="43.8431083" lon="11.5188283"><ele>390.0</ele><time>2026-04-04T11:39:17.988Z</time></trkpt><trkpt lat="43.8430117" lon="11.5188233"><ele>391.66666666666663</ele><time>2026-04-04T11:39:18.986Z</time></trkpt><trkpt lat="43.84292" lon="11.5188167"><ele>393.3333333333333</ele><time>2026-04-04T11:39:19.987Z</time></trkpt><trkpt lat="43.8428483" lon="11.51882"><ele>395.0</ele><time>2026-04-04T11:39:20.984Z</time></trkpt><trkpt lat="43.84274" lon="11.5189117"><ele>394.99999999999994</ele><time>2026-04-04T11:39:22.987Z</time></trkpt><trkpt lat="43.8426867" lon="11.5189967"><ele>395.0</ele><time>2026-04-04T11:39:23.985Z</time></trkpt><trkpt lat="43.8426233" lon="11.5190867"><ele>395.0</ele><time>2026-04-04T11:39:24.987Z</time></trkpt><trkpt lat="43.842555" lon="11.51917"><ele>395.0</ele><time>2026-04-04T11:39:25.989Z</time></trkpt><trkpt lat="43.84248" lon="11.5192317"><ele>394.99999999999994</ele><time>2026-04-04T11:39:26.986Z</time></trkpt><trkpt lat="43.8423983" lon="11.5192667"><ele>395.0</ele><time>2026-04-04T11:39:27.986Z</time></trkpt><trkpt lat="43.8423133" lon="11.51928"><ele>394.16666666666663</ele><time>2026-04-04T11:39:28.987Z</time></trkpt><trkpt lat="43.8422217" lon="11.51928"><ele>393.3333333333333</ele><time>2026-04-04T11:39:29.987Z</time></trkpt><trkpt lat="43.8421317" lon="11.5192783"><ele>392.5</ele><time>2026-04-04T11:39:30.986Z</time></trkpt><trkpt lat="43.8420417" lon="11.5192733"><ele>391.66666666666663</ele><time>2026-04-04T11:39:31.986Z</time></trkpt><trkpt lat="43.8419517" lon="11.5192683"><ele>390.8333333333333</ele><time>2026-04-04T11:39:32.984Z</time></trkpt><trkpt lat="43.841865" lon="11.5192533"><ele>390.0</ele><time>2026-04-04T11:39:33.984Z</time></trkpt><trkpt lat="43.8417867" lon="11.519225"><ele>388.3333333333333</ele><time>2026-04-04T11:39:34.985Z</time></trkpt><trkpt lat="43.8417133" lon="11.5191817"><ele>386.6666666666667</ele><time>2026-04-04T11:39:35.987Z</time></trkpt><trkpt lat="43.84164" lon="11.519125"><ele>385.0</ele><time>2026-04-04T11:39:36.985Z</time></trkpt><trkpt lat="43.8415617" lon="11.519065"><ele>383.33333333333337</ele><time>2026-04-04T11:39:37.986Z</time></trkpt><trkpt lat="43.8414817" lon="11.519005"><ele>381.6666666666667</ele><time>2026-04-04T11:39:38.986Z</time></trkpt><trkpt lat="43.8414117" lon="11.518945"><ele>380.0</ele><time>2026-04-04T11:39:39.985Z</time></trkpt><trkpt lat="43.841355" lon="11.5188867"><ele>380.0</ele><time>2026-04-04T11:39:40.984Z</time></trkpt><trkpt lat="43.8412783" lon="11.518805"><ele>380.0</ele><time>2026-04-04T11:39:42.984Z</time></trkpt><trkpt lat="43.84127" lon="11.5187083"><ele>380.0</ele><time>2026-04-04T11:39:44.985Z</time></trkpt><trkpt lat="43.8413333" lon="11.5185583"><ele>380.0</ele><time>2026-04-04T11:39:46.984Z</time></trkpt><trkpt lat="43.8413783" lon="11.51847"><ele>380.0</ele><time>2026-04-04T11:39:47.986Z</time></trkpt><trkpt lat="43.8414167" lon="11.5183833"><ele>380.0</ele><time>2026-04-04T11:39:48.987Z</time></trkpt><trkpt lat="43.8414633" lon="11.51824"><ele>376.8</ele><time>2026-04-04T11:39:50.987Z</time></trkpt><trkpt lat="43.84152" lon="11.518125"><ele>373.6</ele><time>2026-04-04T11:39:52.987Z</time></trkpt><trkpt lat="43.8416083" lon="11.518"><ele>370.4</ele><time>2026-04-04T11:39:54.989Z</time></trkpt><trkpt lat="43.8416617" lon="11.5179283"><ele>367.2</ele><time>2026-04-04T11:39:55.988Z</time></trkpt><trkpt lat="43.8417117" lon="11.51785"><ele>364.0</ele><time>2026-04-04T11:39:56.984Z</time></trkpt><trkpt lat="43.841755" lon="11.5177617"><ele>363.5</ele><time>2026-04-04T11:39:57.984Z</time></trkpt><trkpt lat="43.8417917" lon="11.5176733"><ele>363.0</ele><time>2026-04-04T11:39:58.985Z</time></trkpt><trkpt lat="43.8418217" lon="11.517585"><ele>362.5</ele><time>2026-04-04T11:39:59.984Z</time></trkpt><trkpt lat="43.8418517" lon="11.5174283"><ele>362.0</ele><time>2026-04-04T11:40:01.987Z</time></trkpt><trkpt lat="43.8418683" lon="11.5173417"><ele>361.5</ele><time>2026-04-04T11:40:02.984Z</time></trkpt><trkpt lat="43.8419017" lon="11.517255"><ele>361.0</ele><time>2026-04-04T11:40:03.985Z</time></trkpt><trkpt lat="43.841945" lon="11.5171683"><ele>361.0</ele><time>2026-04-04T11:40:04.984Z</time></trkpt><trkpt lat="43.8420017" lon="11.5170833"><ele>361.0</ele><time>2026-04-04T11:40:05.986Z</time></trkpt><trkpt lat="43.8420633" lon="11.5169883"><ele>361.0</ele><time>2026-04-04T11:40:06.986Z</time></trkpt><trkpt lat="43.8421267" lon="11.51689"><ele>361.0</ele><time>2026-04-04T11:40:07.989Z</time></trkpt><trkpt lat="43.8421867" lon="11.516795"><ele>361.0</ele><time>2026-04-04T11:40:08.985Z</time></trkpt><trkpt lat="43.84224" lon="11.5167033"><ele>361.0</ele><time>2026-04-04T11:40:09.986Z</time></trkpt><trkpt lat="43.842285" lon="11.5166217"><ele>358.0</ele><time>2026-04-04T11:40:10.985Z</time></trkpt><trkpt lat="43.84233" lon="11.5165533"><ele>355.0</ele><time>2026-04-04T11:40:11.985Z</time></trkpt><trkpt lat="43.8424333" lon="11.5164383"><ele>352.0</ele><time>2026-04-04T11:40:13.986Z</time></trkpt><trkpt lat="43.842495" lon="11.5163817"><ele>349.0</ele><time>2026-04-04T11:40:14.986Z</time></trkpt><trkpt lat="43.842565" lon="11.5163333"><ele>346.0</ele><time>2026-04-04T11:40:15.984Z</time></trkpt><trkpt lat="43.8426433" lon="11.51629"><ele>343.0</ele><time>2026-04-04T11:40:16.986Z</time></trkpt><trkpt lat="43.8427217" lon="11.51625"><ele>339.8333333333333</ele><time>2026-04-04T11:40:17.984Z</time></trkpt><trkpt lat="43.8427967" lon="11.516215"><ele>336.66666666666663</ele><time>2026-04-04T11:40:18.984Z</time></trkpt><trkpt lat="43.842865" lon="11.5161883"><ele>333.5</ele><time>2026-04-04T11:40:19.986Z</time></trkpt><trkpt lat="43.842925" lon="11.5161617"><ele>330.3333333333333</ele><time>2026-04-04T11:40:20.983Z</time></trkpt><trkpt lat="43.84302" lon="11.5160767"><ele>327.1666666666667</ele><time>2026-04-04T11:40:22.986Z</time></trkpt><trkpt lat="43.843075" lon="11.5159617"><ele>324.0</ele><time>2026-04-04T11:40:24.985Z</time></trkpt><trkpt lat="43.8431317" lon="11.515885"><ele>324.0</ele><time>2026-04-04T11:40:26.986Z</time></trkpt><trkpt lat="43.8432167" lon="11.5158683"><ele>324.0</ele><time>2026-04-04T11:40:28.985Z</time></trkpt><trkpt lat="43.84332" lon="11.5158967"><ele>324.0</ele><time>2026-04-04T11:40:30.984Z</time></trkpt><trkpt lat="43.8434467" lon="11.515895"><ele>324.0</ele><time>2026-04-04T11:40:32.984Z</time></trkpt><trkpt lat="43.84352" lon="11.515865"><ele>324.0</ele><time>2026-04-04T11:40:33.985Z</time></trkpt><trkpt lat="43.8435967" lon="11.5158233"><ele>325.6666666666667</ele><time>2026-04-04T11:40:34.984Z</time></trkpt><trkpt lat="43.8436767" lon="11.5157783"><ele>327.3333333333333</ele><time>2026-04-04T11:40:35.985Z</time></trkpt><trkpt lat="43.84376" lon="11.5157267"><ele>329.0</ele><time>2026-04-04T11:40:36.984Z</time></trkpt><trkpt lat="43.8438417" lon="11.5156717"><ele>330.66666666666663</ele><time>2026-04-04T11:40:37.986Z</time></trkpt><trkpt lat="43.84392" lon="11.51561"><ele>332.3333333333333</ele><time>2026-04-04T11:40:38.983Z</time></trkpt><trkpt lat="43.8439967" lon="11.5155467"><ele>334.0</ele><time>2026-04-04T11:40:39.984Z</time></trkpt><trkpt lat="43.8440633" lon="11.5154717"><ele>331.79999999999995</ele><time>2026-04-04T11:40:40.983Z</time></trkpt><trkpt lat="43.84412" lon="11.51537"><ele>329.59999999999997</ele><time>2026-04-04T11:40:41.986Z</time></trkpt><trkpt lat="43.8441667" lon="11.5152517"><ele>327.4</ele><time>2026-04-04T11:40:43.072Z</time></trkpt><trkpt lat="43.844215" lon="11.515125"><ele>325.2</ele><time>2026-04-04T11:40:43.986Z</time></trkpt><trkpt lat="43.84426" lon="11.5149967"><ele>323.0</ele><time>2026-04-04T11:40:44.984Z</time></trkpt><trkpt lat="43.8442967" lon="11.5148767"><ele>323.0</ele><time>2026-04-04T11:40:45.985Z</time></trkpt><trkpt lat="43.8443283" lon="11.5147567"><ele>323.0</ele><time>2026-04-04T11:40:46.985Z</time></trkpt><trkpt lat="43.8443533" lon="11.5146483"><ele>323.0</ele><time>2026-04-04T11:40:47.985Z</time></trkpt><trkpt lat="43.8443783" lon="11.51456"><ele>323.0</ele><time>2026-04-04T11:40:48.986Z</time></trkpt><trkpt lat="43.8444167" lon="11.514465"><ele>323.0</ele><time>2026-04-04T11:40:49.986Z</time></trkpt><trkpt lat="43.84447" lon="11.5143717"><ele>323.0</ele><time>2026-04-04T11:40:50.985Z</time></trkpt><trkpt lat="43.8445317" lon="11.5142767"><ele>321.1666666666667</ele><time>2026-04-04T11:40:51.988Z</time></trkpt><trkpt lat="43.8445933" lon="11.5141933"><ele>319.33333333333337</ele><time>2026-04-04T11:40:52.986Z</time></trkpt><trkpt lat="43.8446517" lon="11.5141383"><ele>317.5</ele><time>2026-04-04T11:40:53.985Z</time></trkpt><trkpt lat="43.8447033" lon="11.5140817"><ele>315.6666666666667</ele><time>2026-04-04T11:40:54.986Z</time></trkpt><trkpt lat="43.844755" lon="11.5140167"><ele>313.8333333333333</ele><time>2026-04-04T11:40:55.986Z</time></trkpt><trkpt lat="43.8448367" lon="11.513915"><ele>312.0</ele><time>2026-04-04T11:40:57.985Z</time></trkpt><trkpt lat="43.8449133" lon="11.5138517"><ele>312.0</ele><time>2026-04-04T11:40:59.986Z</time></trkpt><trkpt lat="43.8449933" lon="11.5138733"><ele>312.0</ele><time>2026-04-04T11:41:01.986Z</time></trkpt><trkpt lat="43.8450583" lon="11.5139767"><ele>312.0</ele><time>2026-04-04T11:41:03.984Z</time></trkpt><trkpt lat="43.8451483" lon="11.5141083"><ele>312.0</ele><time>2026-04-04T11:41:05.986Z</time></trkpt><trkpt lat="43.845205" lon="11.5141633"><ele>312.0</ele><time>2026-04-04T11:41:06.986Z</time></trkpt><trkpt lat="43.8452633" lon="11.514205"><ele>312.0</ele><time>2026-04-04T11:41:07.988Z</time></trkpt><trkpt lat="43.8453283" lon="11.5142483"><ele>309.0</ele><time>2026-04-04T11:41:08.985Z</time></trkpt><trkpt lat="43.84539" lon="11.5142817"><ele>306.0</ele><time>2026-04-04T11:41:09.986Z</time></trkpt><trkpt lat="43.84545" lon="11.514315"><ele>303.0</ele><time>2026-04-04T11:41:10.986Z</time></trkpt><trkpt lat="43.84556" lon="11.5143333"><ele>300.0</ele><time>2026-04-04T11:41:12.986Z</time></trkpt><trkpt lat="43.845665" lon="11.5143567"><ele>297.0</ele><time>2026-04-04T11:41:14.987Z</time></trkpt><trkpt lat="43.8457483" lon="11.5143617"><ele>294.0</ele><time>2026-04-04T11:41:16.987Z</time></trkpt><trkpt lat="43.8458283" lon="11.514325"><ele>294.0</ele><time>2026-04-04T11:41:18.987Z</time></trkpt><trkpt lat="43.8458983" lon="11.514205"><ele>294.0</ele><time>2026-04-04T11:41:20.985Z</time></trkpt><trkpt lat="43.8459317" lon="11.51411"><ele>294.0</ele><time>2026-04-04T11:41:21.985Z</time></trkpt><trkpt lat="43.8459717" lon="11.513995"><ele>294.0</ele><time>2026-04-04T11:41:22.987Z</time></trkpt><trkpt lat="43.8460183" lon="11.51387"><ele>294.0</ele><time>2026-04-04T11:41:23.987Z</time></trkpt><trkpt lat="43.8460633" lon="11.513745"><ele>289.8333333333333</ele><time>2026-04-04T11:41:24.984Z</time></trkpt><trkpt lat="43.84611" lon="11.51362"><ele>285.6666666666667</ele><time>2026-04-04T11:41:25.986Z</time></trkpt><trkpt lat="43.84615" lon="11.513495"><ele>281.5</ele><time>2026-04-04T11:41:26.984Z</time></trkpt><trkpt lat="43.8461817" lon="11.5133833"><ele>277.33333333333337</ele><time>2026-04-04T11:41:27.986Z</time></trkpt><trkpt lat="43.8462" lon="11.5132767"><ele>273.1666666666667</ele><time>2026-04-04T11:41:28.985Z</time></trkpt><trkpt lat="43.84621" lon="11.513165"><ele>269.0</ele><time>2026-04-04T11:41:29.985Z</time></trkpt><trkpt lat="43.8462083" lon="11.5130333"><ele>267.6666666666667</ele><time>2026-04-04T11:41:30.985Z</time></trkpt><trkpt lat="43.846215" lon="11.5128967"><ele>266.33333333333337</ele><time>2026-04-04T11:41:31.987Z</time></trkpt><trkpt lat="43.8462267" lon="11.5127617"><ele>265.0</ele><time>2026-04-04T11:41:32.987Z</time></trkpt><trkpt lat="43.8462333" lon="11.51264"><ele>263.6666666666667</ele><time>2026-04-04T11:41:33.984Z</time></trkpt><trkpt lat="43.8462317" lon="11.5125233"><ele>262.3333333333333</ele><time>2026-04-04T11:41:34.984Z</time></trkpt><trkpt lat="43.8462267" lon="11.51243"><ele>261.0</ele><time>2026-04-04T11:41:35.985Z</time></trkpt><trkpt lat="43.84621" lon="11.5123417"><ele>261.0</ele><time>2026-04-04T11:41:36.984Z</time></trkpt><trkpt lat="43.8461933" lon="11.5122533"><ele>261.0</ele><time>2026-04-04T11:41:37.987Z</time></trkpt><trkpt lat="43.8461767" lon="11.5121617"><ele>261.0</ele><time>2026-04-04T11:41:38.984Z</time></trkpt><trkpt lat="43.846165" lon="11.512065"><ele>261.0</ele><time>2026-04-04T11:41:39.986Z</time></trkpt><trkpt lat="43.8461617" lon="11.511965"><ele>261.0</ele><time>2026-04-04T11:41:40.984Z</time></trkpt><trkpt lat="43.846175" lon="11.5118767"><ele>261.0</ele><time>2026-04-04T11:41:41.983Z</time></trkpt><trkpt lat="43.8462033" lon="11.5117967"><ele>261.0</ele><time>2026-04-04T11:41:42.985Z</time></trkpt><trkpt lat="43.8462367" lon="11.5117183"><ele>259.6</ele><time>2026-04-04T11:41:43.987Z</time></trkpt><trkpt lat="43.8463033" lon="11.5115817"><ele>258.20000000000005</ele><time>2026-04-04T11:41:45.984Z</time></trkpt><trkpt lat="43.84637" lon="11.5114433"><ele>256.79999999999995</ele><time>2026-04-04T11:41:47.984Z</time></trkpt><trkpt lat="43.8464233" lon="11.511295"><ele>255.39999999999998</ele><time>2026-04-04T11:41:49.983Z</time></trkpt><trkpt lat="43.8464533" lon="11.5112167"><ele>254.0</ele><time>2026-04-04T11:41:50.988Z</time></trkpt><trkpt lat="43.846485" lon="11.51113"><ele>252.79999999999998</ele><time>2026-04-04T11:41:51.986Z</time></trkpt><trkpt lat="43.8465267" lon="11.510985"><ele>251.59999999999997</ele><time>2026-04-04T11:41:53.986Z</time></trkpt><trkpt lat="43.84657" lon="11.51086"><ele>250.4</ele><time>2026-04-04T11:41:55.987Z</time></trkpt><trkpt lat="43.8466317" lon="11.5108067"><ele>249.2</ele><time>2026-04-04T11:41:57.984Z</time></trkpt><trkpt lat="43.846715" lon="11.5108033"><ele>248.0</ele><time>2026-04-04T11:41:59.984Z</time></trkpt><trkpt lat="43.846815" lon="11.5108267"><ele>244.2</ele><time>2026-04-04T11:42:01.986Z</time></trkpt><trkpt lat="43.8469017" lon="11.5108683"><ele>240.4</ele><time>2026-04-04T11:42:03.973Z</time></trkpt><trkpt lat="43.8470033" lon="11.5109133"><ele>236.59999999999997</ele><time>2026-04-04T11:42:05.984Z</time></trkpt><trkpt lat="43.8470833" lon="11.5109583"><ele>232.79999999999998</ele><time>2026-04-04T11:42:07.986Z</time></trkpt><trkpt lat="43.8471567" lon="11.5109817"><ele>229.0</ele><time>2026-04-04T11:42:09.983Z</time></trkpt><trkpt lat="43.8472633" lon="11.5110033"><ele>229.0</ele><time>2026-04-04T11:42:11.982Z</time></trkpt><trkpt lat="43.8473617" lon="11.5109983"><ele>228.99999999999997</ele><time>2026-04-04T11:42:13.986Z</time></trkpt><trkpt lat="43.8474333" lon="11.5109283"><ele>228.99999999999997</ele><time>2026-04-04T11:42:15.984Z</time></trkpt><trkpt lat="43.8474533" lon="11.5107917"><ele>229.0</ele><time>2026-04-04T11:42:17.984Z</time></trkpt><trkpt lat="43.8474633" lon="11.510655"><ele>229.0</ele><time>2026-04-04T11:42:19.987Z</time></trkpt><trkpt lat="43.8474583" lon="11.5104983"><ele>227.2</ele><time>2026-04-04T11:42:21.985Z</time></trkpt><trkpt lat="43.847425" lon="11.5103667"><ele>225.39999999999998</ele><time>2026-04-04T11:42:23.984Z</time></trkpt><trkpt lat="43.847365" lon="11.5102367"><ele>223.6</ele><time>2026-04-04T11:42:25.986Z</time></trkpt><trkpt lat="43.847325" lon="11.510165"><ele>221.8</ele><time>2026-04-04T11:42:26.983Z</time></trkpt><trkpt lat="43.84726" lon="11.5100417"><ele>220.0</ele><time>2026-04-04T11:42:28.983Z</time></trkpt><trkpt lat="43.8472033" lon="11.509925"><ele>219.99999999999997</ele><time>2026-04-04T11:42:30.986Z</time></trkpt><trkpt lat="43.847135" lon="11.50981"><ele>220.0</ele><time>2026-04-04T11:42:32.984Z</time></trkpt><trkpt lat="43.84709" lon="11.50974"><ele>220.0</ele><time>2026-04-04T11:42:33.985Z</time></trkpt><trkpt lat="43.8470467" lon="11.5096717"><ele>220.0</ele><time>2026-04-04T11:42:34.985Z</time></trkpt><trkpt lat="43.84701" lon="11.5095933"><ele>220.0</ele><time>2026-04-04T11:42:35.984Z</time></trkpt><trkpt lat="43.8469783" lon="11.5095033"><ele>219.99999999999997</ele><time>2026-04-04T11:42:36.985Z</time></trkpt><trkpt lat="43.8469483" lon="11.5094183"><ele>220.0</ele><time>2026-04-04T11:42:37.986Z</time></trkpt><trkpt lat="43.846915" lon="11.5093417"><ele>217.49999999999997</ele><time>2026-04-04T11:42:38.986Z</time></trkpt><trkpt lat="43.8468683" lon="11.5092417"><ele>215.0</ele><time>2026-04-04T11:42:40.984Z</time></trkpt><trkpt lat="43.8468633" lon="11.5091517"><ele>212.5</ele><time>2026-04-04T11:42:42.984Z</time></trkpt><trkpt lat="43.8469" lon="11.5090767"><ele>210.0</ele><time>2026-04-04T11:42:44.984Z</time></trkpt><trkpt lat="43.8469967" lon="11.50904"><ele>207.49999999999997</ele><time>2026-04-04T11:42:46.986Z</time></trkpt><trkpt lat="43.8471067" lon="11.5090383"><ele>205.0</ele><time>2026-04-04T11:42:48.985Z</time></trkpt><trkpt lat="43.8471933" lon="11.50901"><ele>205.0</ele><time>2026-04-04T11:42:50.986Z</time></trkpt><trkpt lat="43.8472817" lon="11.508915"><ele>205.0</ele><time>2026-04-04T11:42:52.984Z</time></trkpt><trkpt lat="43.84733" lon="11.50885"><ele>205.0</ele><time>2026-04-04T11:42:53.984Z</time></trkpt><trkpt lat="43.8473717" lon="11.50878"><ele>205.0</ele><time>2026-04-04T11:42:54.986Z</time></trkpt><trkpt lat="43.84744" lon="11.50866"><ele>205.0</ele><time>2026-04-04T11:42:56.985Z</time></trkpt><trkpt lat="43.8475183" lon="11.5085283"><ele>203.16666666666666</ele><time>2026-04-04T11:42:58.985Z</time></trkpt><trkpt lat="43.8475933" lon="11.508395"><ele>201.33333333333331</ele><time>2026-04-04T11:43:00.985Z</time></trkpt><trkpt lat="43.8476233" lon="11.5083167"><ele>199.5</ele><time>2026-04-04T11:43:01.987Z</time></trkpt><trkpt lat="43.8476517" lon="11.5082283"><ele>197.66666666666669</ele><time>2026-04-04T11:43:02.985Z</time></trkpt><trkpt lat="43.8476717" lon="11.5081333"><ele>195.83333333333334</ele><time>2026-04-04T11:43:03.986Z</time></trkpt><trkpt lat="43.84769" lon="11.5080417"><ele>194.0</ele><time>2026-04-04T11:43:04.984Z</time></trkpt><trkpt lat="43.8477083" lon="11.5079483"><ele>191.00000000000003</ele><time>2026-04-04T11:43:05.984Z</time></trkpt><trkpt lat="43.8477333" lon="11.507845"><ele>188.0</ele><time>2026-04-04T11:43:06.984Z</time></trkpt><trkpt lat="43.84776" lon="11.5077467"><ele>185.0</ele><time>2026-04-04T11:43:07.986Z</time></trkpt><trkpt lat="43.8477817" lon="11.50765"><ele>182.0</ele><time>2026-04-04T11:43:08.984Z</time></trkpt><trkpt lat="43.8478067" lon="11.5075617"><ele>179.0</ele><time>2026-04-04T11:43:09.985Z</time></trkpt><trkpt lat="43.8478367" lon="11.50743"><ele>176.0</ele><time>2026-04-04T11:43:11.985Z</time></trkpt><trkpt lat="43.8478717" lon="11.5073083"><ele>176.0</ele><time>2026-04-04T11:43:13.988Z</time></trkpt><trkpt lat="43.8479417" lon="11.5072"><ele>176.0</ele><time>2026-04-04T11:43:15.984Z</time></trkpt><trkpt lat="43.84803" lon="11.5071067"><ele>176.0</ele><time>2026-04-04T11:43:17.984Z</time></trkpt><trkpt lat="43.84812" lon="11.5070283"><ele>176.0</ele><time>2026-04-04T11:43:19.986Z</time></trkpt><trkpt lat="43.8482117" lon="11.506945"><ele>176.0</ele><time>2026-04-04T11:43:21.985Z</time></trkpt><trkpt lat="43.8482967" lon="11.50683"><ele>173.5</ele><time>2026-04-04T11:43:23.985Z</time></trkpt><trkpt lat="43.8483733" lon="11.50671"><ele>171.0</ele><time>2026-04-04T11:43:25.987Z</time></trkpt><trkpt lat="43.8484183" lon="11.506585"><ele>168.5</ele><time>2026-04-04T11:43:27.985Z</time></trkpt><trkpt lat="43.8484367" lon="11.5064717"><ele>166.0</ele><time>2026-04-04T11:43:29.985Z</time></trkpt><trkpt lat="43.8484717" lon="11.5063917"><ele>163.5</ele><time>2026-04-04T11:43:31.987Z</time></trkpt><trkpt lat="43.8485267" lon="11.5063417"><ele>161.0</ele><time>2026-04-04T11:43:33.985Z</time></trkpt><trkpt lat="43.8485967" lon="11.5062783"><ele>157.20000000000002</ele><time>2026-04-04T11:43:35.985Z</time></trkpt><trkpt lat="43.8486833" lon="11.5062283"><ele>153.4</ele><time>2026-04-04T11:43:37.988Z</time></trkpt><trkpt lat="43.8487933" lon="11.5061833"><ele>149.6</ele><time>2026-04-04T11:43:39.984Z</time></trkpt><trkpt lat="43.848895" lon="11.5061483"><ele>145.8</ele><time>2026-04-04T11:43:41.988Z</time></trkpt><trkpt lat="43.8490067" lon="11.5061"><ele>142.0</ele><time>2026-04-04T11:43:43.987Z</time></trkpt><trkpt lat="43.8491033" lon="11.5060583"><ele>142.0</ele><time>2026-04-04T11:43:45.985Z</time></trkpt><trkpt lat="43.84919" lon="11.5060267"><ele>142.0</ele><time>2026-04-04T11:43:47.985Z</time></trkpt><trkpt lat="43.849265" lon="11.5059883"><ele>142.0</ele><time>2026-04-04T11:43:49.975Z</time></trkpt><trkpt lat="43.8493533" lon="11.5059417"><ele>142.0</ele><time>2026-04-04T11:43:52.983Z</time></trkpt><trkpt lat="43.8494567" lon="11.5058883"><ele>142.0</ele><time>2026-04-04T11:43:54.985Z</time></trkpt><trkpt lat="43.8495517" lon="11.50585"><ele>140.0</ele><time>2026-04-04T11:43:56.984Z</time></trkpt><trkpt lat="43.8496067" lon="11.50577"><ele>138.0</ele><time>2026-04-04T11:43:58.973Z</time></trkpt><trkpt lat="43.8496083" lon="11.5056533"><ele>136.0</ele><time>2026-04-04T11:44:00.985Z</time></trkpt><trkpt lat="43.84958" lon="11.50555"><ele>134.0</ele><time>2026-04-04T11:44:02.982Z</time></trkpt><trkpt lat="43.849655" lon="11.5054717"><ele>132.0</ele><time>2026-04-04T11:44:05.984Z</time></trkpt><trkpt lat="43.8497367" lon="11.5054567"><ele>130.0</ele><time>2026-04-04T11:44:07.986Z</time></trkpt><trkpt lat="43.8498167" lon="11.505465"><ele>130.0</ele><time>2026-04-04T11:44:13.984Z</time></trkpt><trkpt lat="43.849865" lon="11.5055967"><ele>130.0</ele><time>2026-04-04T11:44:15.985Z</time></trkpt><trkpt lat="43.8499067" lon="11.505705"><ele>130.0</ele><time>2026-04-04T11:44:16.985Z</time></trkpt><trkpt lat="43.84995" lon="11.5058233"><ele>130.0</ele><time>2026-04-04T11:44:17.984Z</time></trkpt><trkpt lat="43.849995" lon="11.50595"><ele>130.0</ele><time>2026-04-04T11:44:18.983Z</time></trkpt><trkpt lat="43.850045" lon="11.5060817"><ele>130.0</ele><time>2026-04-04T11:44:19.987Z</time></trkpt><trkpt lat="43.8500983" lon="11.50622"><ele>130.0</ele><time>2026-04-04T11:44:20.984Z</time></trkpt><trkpt lat="43.8501467" lon="11.5063617"><ele>130.0</ele><time>2026-04-04T11:44:21.984Z</time></trkpt><trkpt lat="43.85019" lon="11.506515"><ele>130.0</ele><time>2026-04-04T11:44:22.984Z</time></trkpt><trkpt lat="43.8502233" lon="11.5066833"><ele>129.25</ele><time>2026-04-04T11:44:23.986Z</time></trkpt><trkpt lat="43.8502433" lon="11.5068633"><ele>128.5</ele><time>2026-04-04T11:44:24.984Z</time></trkpt><trkpt lat="43.8502633" lon="11.50705"><ele>127.75</ele><time>2026-04-04T11:44:25.986Z</time></trkpt><trkpt lat="43.85028" lon="11.5072433"><ele>127.0</ele><time>2026-04-04T11:44:26.984Z</time></trkpt><trkpt lat="43.8502983" lon="11.5074483"><ele>127.0</ele><time>2026-04-04T11:44:27.984Z</time></trkpt><trkpt lat="43.8503167" lon="11.5076583"><ele>127.0</ele><time>2026-04-04T11:44:28.984Z</time></trkpt><trkpt lat="43.85034" lon="11.5078717"><ele>127.0</ele><time>2026-04-04T11:44:29.985Z</time></trkpt><trkpt lat="43.8503633" lon="11.5080833"><ele>127.33333333333334</ele><time>2026-04-04T11:44:30.984Z</time></trkpt><trkpt lat="43.8503867" lon="11.5082917"><ele>127.66666666666666</ele><time>2026-04-04T11:44:31.987Z</time></trkpt><trkpt lat="43.8504" lon="11.5085"><ele>128.0</ele><time>2026-04-04T11:44:32.984Z</time></trkpt><trkpt lat="43.8504217" lon="11.50871"><ele>128.33333333333331</ele><time>2026-04-04T11:44:33.984Z</time></trkpt><trkpt lat="43.8504417" lon="11.5089217"><ele>128.66666666666666</ele><time>2026-04-04T11:44:34.986Z</time></trkpt><trkpt lat="43.8504633" lon="11.509145"><ele>129.0</ele><time>2026-04-04T11:44:35.986Z</time></trkpt><trkpt lat="43.85048" lon="11.5093717"><ele>130.0</ele><time>2026-04-04T11:44:36.986Z</time></trkpt><trkpt lat="43.85049" lon="11.5095967"><ele>131.0</ele><time>2026-04-04T11:44:37.986Z</time></trkpt><trkpt lat="43.8504933" lon="11.5098267"><ele>132.0</ele><time>2026-04-04T11:44:38.985Z</time></trkpt><trkpt lat="43.8504867" lon="11.51005"><ele>132.0</ele><time>2026-04-04T11:44:39.986Z</time></trkpt><trkpt lat="43.8504733" lon="11.51027"><ele>132.0</ele><time>2026-04-04T11:44:40.985Z</time></trkpt><trkpt lat="43.85045" lon="11.5104917"><ele>132.0</ele><time>2026-04-04T11:44:41.984Z</time></trkpt><trkpt lat="43.8504233" lon="11.5107083"><ele>132.66666666666666</ele><time>2026-04-04T11:44:42.985Z</time></trkpt><trkpt lat="43.8504" lon="11.510925"><ele>133.33333333333331</ele><time>2026-04-04T11:44:43.987Z</time></trkpt><trkpt lat="43.8503783" lon="11.511145"><ele>134.0</ele><time>2026-04-04T11:44:44.983Z</time></trkpt><trkpt lat="43.8503567" lon="11.511365"><ele>136.33333333333331</ele><time>2026-04-04T11:44:45.984Z</time></trkpt><trkpt lat="43.8503317" lon="11.5115883"><ele>138.66666666666666</ele><time>2026-04-04T11:44:46.986Z</time></trkpt><trkpt lat="43.8503117" lon="11.51181"><ele>141.0</ele><time>2026-04-04T11:44:47.985Z</time></trkpt><trkpt lat="43.850285" lon="11.51203"><ele>143.33333333333334</ele><time>2026-04-04T11:44:48.986Z</time></trkpt><trkpt lat="43.8502483" lon="11.512245"><ele>145.66666666666669</ele><time>2026-04-04T11:44:49.987Z</time></trkpt><trkpt lat="43.8502033" lon="11.5124533"><ele>148.0</ele><time>2026-04-04T11:44:50.985Z</time></trkpt><trkpt lat="43.850145" lon="11.512655"><ele>146.66666666666669</ele><time>2026-04-04T11:44:51.986Z</time></trkpt><trkpt lat="43.850075" lon="11.5128583"><ele>145.33333333333334</ele><time>2026-04-04T11:44:52.986Z</time></trkpt><trkpt lat="43.8499967" lon="11.5130533"><ele>144.0</ele><time>2026-04-04T11:44:53.985Z</time></trkpt><trkpt lat="43.8499083" lon="11.5132433"><ele>141.33333333333334</ele><time>2026-04-04T11:44:54.985Z</time></trkpt><trkpt lat="43.8498383" lon="11.5134567"><ele>138.66666666666669</ele><time>2026-04-04T11:44:55.986Z</time></trkpt><trkpt lat="43.8497883" lon="11.51368"><ele>136.0</ele><time>2026-04-04T11:44:56.983Z</time></trkpt><trkpt lat="43.8497517" lon="11.5139083"><ele>135.33333333333334</ele><time>2026-04-04T11:44:57.984Z</time></trkpt><trkpt lat="43.84973" lon="11.5141417"><ele>134.66666666666666</ele><time>2026-04-04T11:44:58.985Z</time></trkpt><trkpt lat="43.8497067" lon="11.5143733"><ele>134.0</ele><time>2026-04-04T11:44:59.986Z</time></trkpt><trkpt lat="43.8497" lon="11.5146067"><ele>134.0</ele><time>2026-04-04T11:45:00.985Z</time></trkpt><trkpt lat="43.849705" lon="11.514835"><ele>134.0</ele><time>2026-04-04T11:45:01.986Z</time></trkpt><trkpt lat="43.84973" lon="11.5150633"><ele>134.0</ele><time>2026-04-04T11:45:02.985Z</time></trkpt><trkpt lat="43.8497667" lon="11.5152733"><ele>134.75</ele><time>2026-04-04T11:45:03.984Z</time></trkpt><trkpt lat="43.8498067" lon="11.5154717"><ele>135.5</ele><time>2026-04-04T11:45:04.985Z</time></trkpt><trkpt lat="43.8498583" lon="11.515655"><ele>136.25</ele><time>2026-04-04T11:45:05.985Z</time></trkpt><trkpt lat="43.849925" lon="11.5158217"><ele>137.0</ele><time>2026-04-04T11:45:06.984Z</time></trkpt><trkpt lat="43.850015" lon="11.515975"><ele>135.0</ele><time>2026-04-04T11:45:07.985Z</time></trkpt><trkpt lat="43.850125" lon="11.5161133"><ele>133.0</ele><time>2026-04-04T11:45:08.983Z</time></trkpt><trkpt lat="43.8502533" lon="11.5162333"><ele>131.0</ele><time>2026-04-04T11:45:09.984Z</time></trkpt><trkpt lat="43.8503917" lon="11.5163467"><ele>130.66666666666666</ele><time>2026-04-04T11:45:10.984Z</time></trkpt><trkpt lat="43.8505383" lon="11.5164583"><ele>130.33333333333334</ele><time>2026-04-04T11:45:11.985Z</time></trkpt><trkpt lat="43.850685" lon="11.5165667"><ele>130.0</ele><time>2026-04-04T11:45:12.985Z</time></trkpt><trkpt lat="43.85083" lon="11.5166717"><ele>130.25</ele><time>2026-04-04T11:45:13.985Z</time></trkpt><trkpt lat="43.8509667" lon="11.5167733"><ele>130.5</ele><time>2026-04-04T11:45:14.984Z</time></trkpt><trkpt lat="43.8510933" lon="11.51687"><ele>130.75</ele><time>2026-04-04T11:45:15.985Z</time></trkpt><trkpt lat="43.8512117" lon="11.5169617"><ele>131.0</ele><time>2026-04-04T11:45:16.984Z</time></trkpt><trkpt lat="43.85132" lon="11.51705"><ele>131.6</ele><time>2026-04-04T11:45:17.984Z</time></trkpt><trkpt lat="43.8514233" lon="11.51714"><ele>132.2</ele><time>2026-04-04T11:45:18.985Z</time></trkpt><trkpt lat="43.8515217" lon="11.517225"><ele>132.8</ele><time>2026-04-04T11:45:19.986Z</time></trkpt><trkpt lat="43.851605" lon="11.5173217"><ele>133.4</ele><time>2026-04-04T11:45:20.984Z</time></trkpt><trkpt lat="43.8516817" lon="11.517415"><ele>134.0</ele><time>2026-04-04T11:45:21.984Z</time></trkpt><trkpt lat="43.851755" lon="11.5174967"><ele>134.0</ele><time>2026-04-04T11:45:22.989Z</time></trkpt><trkpt lat="43.85182" lon="11.51757"><ele>134.0</ele><time>2026-04-04T11:45:23.984Z</time></trkpt><trkpt lat="43.8518817" lon="11.5176267"><ele>134.0</ele><time>2026-04-04T11:45:24.985Z</time></trkpt><trkpt lat="43.8519317" lon="11.5176817"><ele>134.0</ele><time>2026-04-04T11:45:25.987Z</time></trkpt><trkpt lat="43.8519917" lon="11.517765"><ele>134.0</ele><time>2026-04-04T11:45:27.984Z</time></trkpt><trkpt lat="43.8520483" lon="11.5178767"><ele>134.0</ele><time>2026-04-04T11:46:59.984Z</time></trkpt><trkpt lat="43.85211" lon="11.5179283"><ele>134.6</ele><time>2026-04-04T11:47:00.984Z</time></trkpt><trkpt lat="43.85218" lon="11.517985"><ele>135.2</ele><time>2026-04-04T11:47:01.974Z</time></trkpt><trkpt lat="43.8522583" lon="11.5180433"><ele>135.79999999999998</ele><time>2026-04-04T11:47:02.986Z</time></trkpt><trkpt lat="43.852345" lon="11.51812"><ele>136.4</ele><time>2026-04-04T11:47:03.985Z</time></trkpt><trkpt lat="43.8524383" lon="11.5181917"><ele>137.0</ele><time>2026-04-04T11:47:04.985Z</time></trkpt><trkpt lat="43.8525383" lon="11.5182683"><ele>136.4</ele><time>2026-04-04T11:47:05.984Z</time></trkpt><trkpt lat="43.8526433" lon="11.5183433"><ele>135.79999999999998</ele><time>2026-04-04T11:47:06.986Z</time></trkpt><trkpt lat="43.8527467" lon="11.5184167"><ele>135.2</ele><time>2026-04-04T11:47:07.988Z</time></trkpt><trkpt lat="43.8528467" lon="11.5184883"><ele>134.6</ele><time>2026-04-04T11:47:08.984Z</time></trkpt><trkpt lat="43.852935" lon="11.518555"><ele>134.0</ele><time>2026-04-04T11:47:09.985Z</time></trkpt><trkpt lat="43.8530233" lon="11.5186133"><ele>134.0</ele><time>2026-04-04T11:47:10.985Z</time></trkpt><trkpt lat="43.8531033" lon="11.5186733"><ele>134.0</ele><time>2026-04-04T11:47:11.987Z</time></trkpt><trkpt lat="43.8531783" lon="11.5187333"><ele>134.0</ele><time>2026-04-04T11:47:12.99Z</time></trkpt><trkpt lat="43.85325" lon="11.5187967"><ele>134.0</ele><time>2026-04-04T11:47:13.988Z</time></trkpt><trkpt lat="43.8533217" lon="11.51886"><ele>134.0</ele><time>2026-04-04T11:47:14.985Z</time></trkpt><trkpt lat="43.8533967" lon="11.5189167"><ele>134.0</ele><time>2026-04-04T11:47:15.985Z</time></trkpt><trkpt lat="43.8534733" lon="11.5189783"><ele>134.16666666666666</ele><time>2026-04-04T11:47:16.987Z</time></trkpt><trkpt lat="43.85355" lon="11.51904"><ele>134.33333333333331</ele><time>2026-04-04T11:47:17.986Z</time></trkpt><trkpt lat="43.8536283" lon="11.5191017"><ele>134.5</ele><time>2026-04-04T11:47:18.986Z</time></trkpt><trkpt lat="43.853705" lon="11.51917"><ele>134.66666666666666</ele><time>2026-04-04T11:47:19.988Z</time></trkpt><trkpt lat="43.8537833" lon="11.5192317"><ele>134.83333333333334</ele><time>2026-04-04T11:47:20.987Z</time></trkpt><trkpt lat="43.8538533" lon="11.5193067"><ele>135.0</ele><time>2026-04-04T11:47:21.986Z</time></trkpt><trkpt lat="43.85393" lon="11.519365"><ele>135.0</ele><time>2026-04-04T11:47:22.987Z</time></trkpt><trkpt lat="43.8540133" lon="11.5194083"><ele>135.0</ele><time>2026-04-04T11:47:23.987Z</time></trkpt><trkpt lat="43.854095" lon="11.5194467"><ele>135.0</ele><time>2026-04-04T11:47:24.977Z</time></trkpt><trkpt lat="43.85418" lon="11.5194717"><ele>135.0</ele><time>2026-04-04T11:47:25.987Z</time></trkpt><trkpt lat="43.8542683" lon="11.5194983"><ele>135.0</ele><time>2026-04-04T11:47:26.985Z</time></trkpt><trkpt lat="43.8543633" lon="11.5195367"><ele>136.5</ele><time>2026-04-04T11:47:27.984Z</time></trkpt><trkpt lat="43.8544683" lon="11.51957"><ele>138.0</ele><time>2026-04-04T11:47:28.985Z</time></trkpt><trkpt lat="43.85458" lon="11.5196017"><ele>139.5</ele><time>2026-04-04T11:47:29.985Z</time></trkpt><trkpt lat="43.8546967" lon="11.5196383"><ele>141.0</ele><time>2026-04-04T11:47:30.985Z</time></trkpt><trkpt lat="43.8548117" lon="11.5196733"><ele>141.0</ele><time>2026-04-04T11:47:31.988Z</time></trkpt><trkpt lat="43.8549217" lon="11.5197033"><ele>141.0</ele><time>2026-04-04T11:47:32.986Z</time></trkpt><trkpt lat="43.85503" lon="11.51973"><ele>141.0</ele><time>2026-04-04T11:47:33.985Z</time></trkpt><trkpt lat="43.8551283" lon="11.5197867"><ele>141.0</ele><time>2026-04-04T11:47:34.987Z</time></trkpt><trkpt lat="43.85521" lon="11.5198767"><ele>141.0</ele><time>2026-04-04T11:47:35.987Z</time></trkpt><trkpt lat="43.8552833" lon="11.519975"><ele>139.8</ele><time>2026-04-04T11:47:36.988Z</time></trkpt><trkpt lat="43.8553583" lon="11.5200683"><ele>138.6</ele><time>2026-04-04T11:47:37.985Z</time></trkpt><trkpt lat="43.8554417" lon="11.520155"><ele>137.4</ele><time>2026-04-04T11:47:38.986Z</time></trkpt><trkpt lat="43.85553" lon="11.520235"><ele>136.2</ele><time>2026-04-04T11:47:39.984Z</time></trkpt><trkpt lat="43.8556233" lon="11.5203167"><ele>135.0</ele><time>2026-04-04T11:47:40.984Z</time></trkpt><trkpt lat="43.85572" lon="11.5203983"><ele>134.75</ele><time>2026-04-04T11:47:41.987Z</time></trkpt><trkpt lat="43.8558267" lon="11.5204817"><ele>134.5</ele><time>2026-04-04T11:47:42.985Z</time></trkpt><trkpt lat="43.8559367" lon="11.520565"><ele>134.25</ele><time>2026-04-04T11:47:43.986Z</time></trkpt><trkpt lat="43.85605" lon="11.5206483"><ele>134.0</ele><time>2026-04-04T11:47:44.986Z</time></trkpt><trkpt lat="43.8561617" lon="11.520735"><ele>134.0</ele><time>2026-04-04T11:47:45.984Z</time></trkpt><trkpt lat="43.856275" lon="11.52081"><ele>134.0</ele><time>2026-04-04T11:47:46.987Z</time></trkpt><trkpt lat="43.85638" lon="11.5208983"><ele>134.0</ele><time>2026-04-04T11:47:47.984Z</time></trkpt><trkpt lat="43.85647" lon="11.521005"><ele>134.0</ele><time>2026-04-04T11:47:48.984Z</time></trkpt><trkpt lat="43.85655" lon="11.5211267"><ele>135.25</ele><time>2026-04-04T11:47:49.987Z</time></trkpt><trkpt lat="43.8566133" lon="11.52126"><ele>136.5</ele><time>2026-04-04T11:47:50.984Z</time></trkpt><trkpt lat="43.85666" lon="11.521405"><ele>137.75</ele><time>2026-04-04T11:47:51.985Z</time></trkpt><trkpt lat="43.8566933" lon="11.521555"><ele>139.0</ele><time>2026-04-04T11:47:52.986Z</time></trkpt><trkpt lat="43.8567233" lon="11.52171"><ele>139.0</ele><time>2026-04-04T11:47:53.986Z</time></trkpt><trkpt lat="43.85675" lon="11.5218683"><ele>139.0</ele><time>2026-04-04T11:47:54.985Z</time></trkpt><trkpt lat="43.8567767" lon="11.52203"><ele>139.0</ele><time>2026-04-04T11:47:55.986Z</time></trkpt><trkpt lat="43.856805" lon="11.5221933"><ele>139.0</ele><time>2026-04-04T11:47:56.984Z</time></trkpt><trkpt lat="43.8568317" lon="11.5223617"><ele>138.0</ele><time>2026-04-04T11:47:57.985Z</time></trkpt><trkpt lat="43.8568567" lon="11.5225367"><ele>137.0</ele><time>2026-04-04T11:47:58.986Z</time></trkpt><trkpt lat="43.85688" lon="11.5227117"><ele>136.0</ele><time>2026-04-04T11:47:59.984Z</time></trkpt><trkpt lat="43.8569117" lon="11.5228917"><ele>135.0</ele><time>2026-04-04T11:48:00.985Z</time></trkpt><trkpt lat="43.8569417" lon="11.523075"><ele>135.25</ele><time>2026-04-04T11:48:01.986Z</time></trkpt><trkpt lat="43.856975" lon="11.523265"><ele>135.5</ele><time>2026-04-04T11:48:02.985Z</time></trkpt><trkpt lat="43.85701" lon="11.5234567"><ele>135.75</ele><time>2026-04-04T11:48:03.985Z</time></trkpt><trkpt lat="43.857045" lon="11.52365"><ele>136.0</ele><time>2026-04-04T11:48:04.985Z</time></trkpt><trkpt lat="43.85708" lon="11.5238483"><ele>136.0</ele><time>2026-04-04T11:48:05.985Z</time></trkpt><trkpt lat="43.857125" lon="11.524045"><ele>136.0</ele><time>2026-04-04T11:48:06.986Z</time></trkpt><trkpt lat="43.8571717" lon="11.5242383"><ele>136.0</ele><time>2026-04-04T11:48:07.986Z</time></trkpt><trkpt lat="43.8572217" lon="11.524425"><ele>136.0</ele><time>2026-04-04T11:48:08.985Z</time></trkpt><trkpt lat="43.8572783" lon="11.52461"><ele>136.5</ele><time>2026-04-04T11:48:09.984Z</time></trkpt><trkpt lat="43.8573533" lon="11.5247783"><ele>137.0</ele><time>2026-04-04T11:48:10.985Z</time></trkpt><trkpt lat="43.8574267" lon="11.5249367"><ele>137.5</ele><time>2026-04-04T11:48:11.986Z</time></trkpt><trkpt lat="43.8575" lon="11.5250867"><ele>138.0</ele><time>2026-04-04T11:48:12.983Z</time></trkpt><trkpt lat="43.8575717" lon="11.5252267"><ele>137.8</ele><time>2026-04-04T11:48:13.986Z</time></trkpt><trkpt lat="43.8576433" lon="11.5253533"><ele>137.60000000000002</ele><time>2026-04-04T11:48:14.985Z</time></trkpt><trkpt lat="43.857715" lon="11.5254667"><ele>137.39999999999998</ele><time>2026-04-04T11:48:15.984Z</time></trkpt><trkpt lat="43.857785" lon="11.52557"><ele>137.2</ele><time>2026-04-04T11:48:16.985Z</time></trkpt><trkpt lat="43.85786" lon="11.525665"><ele>137.0</ele><time>2026-04-04T11:48:17.985Z</time></trkpt><trkpt lat="43.8579217" lon="11.5257633"><ele>137.0</ele><time>2026-04-04T11:48:18.985Z</time></trkpt><trkpt lat="43.85798" lon="11.5258567"><ele>137.0</ele><time>2026-04-04T11:48:19.988Z</time></trkpt><trkpt lat="43.8580333" lon="11.5259433"><ele>137.0</ele><time>2026-04-04T11:48:20.987Z</time></trkpt><trkpt lat="43.8580833" lon="11.5260233"><ele>137.0</ele><time>2026-04-04T11:48:21.986Z</time></trkpt><trkpt lat="43.8581317" lon="11.5261017"><ele>137.0</ele><time>2026-04-04T11:48:22.985Z</time></trkpt><trkpt lat="43.8581767" lon="11.5261783"><ele>137.0</ele><time>2026-04-04T11:48:23.985Z</time></trkpt><trkpt lat="43.8582233" lon="11.5262517"><ele>137.00000000000003</ele><time>2026-04-04T11:48:24.984Z</time></trkpt><trkpt lat="43.85827" lon="11.5263217"><ele>137.0</ele><time>2026-04-04T11:48:25.988Z</time></trkpt><trkpt lat="43.8583167" lon="11.526395"><ele>137.0</ele><time>2026-04-04T11:48:26.985Z</time></trkpt><trkpt lat="43.858365" lon="11.5264667"><ele>137.0</ele><time>2026-04-04T11:48:27.985Z</time></trkpt><trkpt lat="43.858415" lon="11.526545"><ele>137.0</ele><time>2026-04-04T11:48:28.988Z</time></trkpt><trkpt lat="43.85847" lon="11.5266183"><ele>137.00000000000003</ele><time>2026-04-04T11:48:29.986Z</time></trkpt><trkpt lat="43.8585283" lon="11.52668"><ele>137.0</ele><time>2026-04-04T11:48:30.986Z</time></trkpt><trkpt lat="43.85859" lon="11.5267317"><ele>137.0</ele><time>2026-04-04T11:48:31.987Z</time></trkpt><trkpt lat="43.8586417" lon="11.5267933"><ele>137.0</ele><time>2026-04-04T11:48:32.986Z</time></trkpt><trkpt lat="43.8586867" lon="11.52687"><ele>137.0</ele><time>2026-04-04T11:48:33.982Z</time></trkpt><trkpt lat="43.85873" lon="11.5269467"><ele>137.0</ele><time>2026-04-04T11:48:34.987Z</time></trkpt><trkpt lat="43.8587683" lon="11.52702"><ele>137.0</ele><time>2026-04-04T11:48:35.986Z</time></trkpt><trkpt lat="43.8588333" lon="11.5271317"><ele>137.0</ele><time>2026-04-04T11:48:37.989Z</time></trkpt><trkpt lat="43.8588983" lon="11.52718"><ele>137.0</ele><time>2026-04-04T11:48:40.988Z</time></trkpt></trkseg></trk></gpx>